<?xml version="1.0" encoding="UTF-8" standalone="no" ?>
<gpx xmlns="http://www.topografix.com/GPX/1/1" xmlns:xsi="http://www.w3.org/2001/XMLSchema-instance" xsi:schemaLocation="http://www.topografix.com/GPX/1/1 http://www.topografix.com/GPX/1/1/gpx.xsd" version="1.1" creator="VisuGPX - https://www.visugpx.com">
  <metadata>
    <name>Mont Chaberton</name>
    <desc><![CDATA[https://www.ascvtt.com/2024/08/10/sejour-estival-2024-vallee-de-la-claree/]]></desc>
  </metadata>
  <trk>
    <name><![CDATA[2024-08-12 17:17:40]]></name>
    <trkseg>
      <trkpt lat="44.93295" lon="6.73656">
        <ele>1833.37</ele>
        <time>2024-08-12T07:48:37Z</time>
      </trkpt>
      <trkpt lat="44.93295" lon="6.73656">
        <ele>1830.01</ele>
        <time>2024-08-12T07:48:38Z</time>
      </trkpt>
      <trkpt lat="44.93295" lon="6.73656">
        <ele>1830.01</ele>
        <time>2024-08-12T07:48:39Z</time>
      </trkpt>
      <trkpt lat="44.93295" lon="6.73656">
        <ele>1830.01</ele>
        <time>2024-08-12T07:48:41Z</time>
      </trkpt>
      <trkpt lat="44.93306" lon="6.73704">
        <ele>1828.56</ele>
        <time>2024-08-12T07:48:53Z</time>
      </trkpt>
      <trkpt lat="44.93324" lon="6.73781">
        <ele>1825.2</ele>
        <time>2024-08-12T07:49:02Z</time>
      </trkpt>
      <trkpt lat="44.93335" lon="6.73848">
        <ele>1821.84</ele>
        <time>2024-08-12T07:49:08Z</time>
      </trkpt>
      <trkpt lat="44.93337" lon="6.7386">
        <ele>1821.84</ele>
        <time>2024-08-12T07:49:09Z</time>
      </trkpt>
      <trkpt lat="44.93341" lon="6.73896">
        <ele>1819.43</ele>
        <time>2024-08-12T07:49:12Z</time>
      </trkpt>
      <trkpt lat="44.93344" lon="6.7394">
        <ele>1817.51</ele>
        <time>2024-08-12T07:49:16Z</time>
      </trkpt>
      <trkpt lat="44.93344" lon="6.73958">
        <ele>1816.55</ele>
        <time>2024-08-12T07:49:18Z</time>
      </trkpt>
      <trkpt lat="44.93346" lon="6.73966">
        <ele>1816.55</ele>
        <time>2024-08-12T07:49:19Z</time>
      </trkpt>
      <trkpt lat="44.93369" lon="6.74041">
        <ele>1813.66</ele>
        <time>2024-08-12T07:49:28Z</time>
      </trkpt>
      <trkpt lat="44.93375" lon="6.74056">
        <ele>1812.22</ele>
        <time>2024-08-12T07:49:30Z</time>
      </trkpt>
      <trkpt lat="44.93397" lon="6.74139">
        <ele>1808.86</ele>
        <time>2024-08-12T07:49:40Z</time>
      </trkpt>
      <trkpt lat="44.93405" lon="6.74176">
        <ele>1808.86</ele>
        <time>2024-08-12T07:49:44Z</time>
      </trkpt>
      <trkpt lat="44.93408" lon="6.74184">
        <ele>1808.86</ele>
        <time>2024-08-12T07:49:45Z</time>
      </trkpt>
      <trkpt lat="44.93412" lon="6.74192">
        <ele>1807.9</ele>
        <time>2024-08-12T07:49:46Z</time>
      </trkpt>
      <trkpt lat="44.93416" lon="6.74199">
        <ele>1807.9</ele>
        <time>2024-08-12T07:49:47Z</time>
      </trkpt>
      <trkpt lat="44.93421" lon="6.74206">
        <ele>1807.9</ele>
        <time>2024-08-12T07:49:48Z</time>
      </trkpt>
      <trkpt lat="44.93426" lon="6.74212">
        <ele>1806.94</ele>
        <time>2024-08-12T07:49:49Z</time>
      </trkpt>
      <trkpt lat="44.93432" lon="6.74217">
        <ele>1806.45</ele>
        <time>2024-08-12T07:49:50Z</time>
      </trkpt>
      <trkpt lat="44.93439" lon="6.74221">
        <ele>1805.97</ele>
        <time>2024-08-12T07:49:51Z</time>
      </trkpt>
      <trkpt lat="44.93446" lon="6.74225">
        <ele>1805.97</ele>
        <time>2024-08-12T07:49:52Z</time>
      </trkpt>
      <trkpt lat="44.93453" lon="6.74227">
        <ele>1805.97</ele>
        <time>2024-08-12T07:49:53Z</time>
      </trkpt>
      <trkpt lat="44.93492" lon="6.74243">
        <ele>1804.05</ele>
        <time>2024-08-12T07:49:58Z</time>
      </trkpt>
      <trkpt lat="44.93508" lon="6.74251">
        <ele>1803.09</ele>
        <time>2024-08-12T07:50:00Z</time>
      </trkpt>
      <trkpt lat="44.93516" lon="6.74256">
        <ele>1802.61</ele>
        <time>2024-08-12T07:50:01Z</time>
      </trkpt>
      <trkpt lat="44.93523" lon="6.74265">
        <ele>1802.61</ele>
        <time>2024-08-12T07:50:02Z</time>
      </trkpt>
      <trkpt lat="44.93529" lon="6.74275">
        <ele>1802.13</ele>
        <time>2024-08-12T07:50:03Z</time>
      </trkpt>
      <trkpt lat="44.93532" lon="6.74286">
        <ele>1801.17</ele>
        <time>2024-08-12T07:50:04Z</time>
      </trkpt>
      <trkpt lat="44.93535" lon="6.743">
        <ele>1801.17</ele>
        <time>2024-08-12T07:50:05Z</time>
      </trkpt>
      <trkpt lat="44.93535" lon="6.74313">
        <ele>1800.21</ele>
        <time>2024-08-12T07:50:06Z</time>
      </trkpt>
      <trkpt lat="44.93535" lon="6.74326">
        <ele>1800.21</ele>
        <time>2024-08-12T07:50:07Z</time>
      </trkpt>
      <trkpt lat="44.93537" lon="6.74379">
        <ele>1798.76</ele>
        <time>2024-08-12T07:50:11Z</time>
      </trkpt>
      <trkpt lat="44.9354" lon="6.74392">
        <ele>1798.28</ele>
        <time>2024-08-12T07:50:12Z</time>
      </trkpt>
      <trkpt lat="44.93543" lon="6.74402">
        <ele>1798.28</ele>
        <time>2024-08-12T07:50:13Z</time>
      </trkpt>
      <trkpt lat="44.93546" lon="6.74412">
        <ele>1796.84</ele>
        <time>2024-08-12T07:50:14Z</time>
      </trkpt>
      <trkpt lat="44.93551" lon="6.74424">
        <ele>1796.36</ele>
        <time>2024-08-12T07:50:15Z</time>
      </trkpt>
      <trkpt lat="44.93556" lon="6.74433">
        <ele>1796.36</ele>
        <time>2024-08-12T07:50:16Z</time>
      </trkpt>
      <trkpt lat="44.93562" lon="6.74443">
        <ele>1795.4</ele>
        <time>2024-08-12T07:50:17Z</time>
      </trkpt>
      <trkpt lat="44.93574" lon="6.74464">
        <ele>1794.92</ele>
        <time>2024-08-12T07:50:19Z</time>
      </trkpt>
      <trkpt lat="44.93599" lon="6.74509">
        <ele>1792.52</ele>
        <time>2024-08-12T07:50:23Z</time>
      </trkpt>
      <trkpt lat="44.93615" lon="6.74545">
        <ele>1789.63</ele>
        <time>2024-08-12T07:50:27Z</time>
      </trkpt>
      <trkpt lat="44.93624" lon="6.74566">
        <ele>1787.23</ele>
        <time>2024-08-12T07:50:30Z</time>
      </trkpt>
      <trkpt lat="44.93627" lon="6.74572">
        <ele>1787.23</ele>
        <time>2024-08-12T07:50:31Z</time>
      </trkpt>
      <trkpt lat="44.93635" lon="6.74585">
        <ele>1786.75</ele>
        <time>2024-08-12T07:50:33Z</time>
      </trkpt>
      <trkpt lat="44.93649" lon="6.74621">
        <ele>1785.79</ele>
        <time>2024-08-12T07:50:42Z</time>
      </trkpt>
      <trkpt lat="44.93682" lon="6.7472">
        <ele>1782.42</ele>
        <time>2024-08-12T07:50:58Z</time>
      </trkpt>
      <trkpt lat="44.93688" lon="6.74734">
        <ele>1781.94</ele>
        <time>2024-08-12T07:51:00Z</time>
      </trkpt>
      <trkpt lat="44.9371" lon="6.74772">
        <ele>1780.02</ele>
        <time>2024-08-12T07:51:07Z</time>
      </trkpt>
      <trkpt lat="44.93713" lon="6.74777">
        <ele>1780.02</ele>
        <time>2024-08-12T07:51:08Z</time>
      </trkpt>
      <trkpt lat="44.93718" lon="6.74782">
        <ele>1779.54</ele>
        <time>2024-08-12T07:51:09Z</time>
      </trkpt>
      <trkpt lat="44.93742" lon="6.74818">
        <ele>1777.61</ele>
        <time>2024-08-12T07:51:18Z</time>
      </trkpt>
      <trkpt lat="44.93742" lon="6.74819">
        <ele>1777.13</ele>
        <time>2024-08-12T07:51:19Z</time>
      </trkpt>
      <trkpt lat="44.93743" lon="6.74821">
        <ele>1777.13</ele>
        <time>2024-08-12T07:51:20Z</time>
      </trkpt>
      <trkpt lat="44.93743" lon="6.74821">
        <ele>1776.65</ele>
        <time>2024-08-12T07:51:35Z</time>
      </trkpt>
      <trkpt lat="44.93743" lon="6.74819">
        <ele>1776.65</ele>
        <time>2024-08-12T07:51:54Z</time>
      </trkpt>
      <trkpt lat="44.93759" lon="6.74839">
        <ele>1776.65</ele>
        <time>2024-08-12T07:52:05Z</time>
      </trkpt>
      <trkpt lat="44.93766" lon="6.74847">
        <ele>1775.69</ele>
        <time>2024-08-12T07:52:07Z</time>
      </trkpt>
      <trkpt lat="44.93821" lon="6.74927">
        <ele>1772.33</ele>
        <time>2024-08-12T07:52:21Z</time>
      </trkpt>
      <trkpt lat="44.93869" lon="6.74999">
        <ele>1769.92</ele>
        <time>2024-08-12T07:52:35Z</time>
      </trkpt>
      <trkpt lat="44.93881" lon="6.75016">
        <ele>1768.48</ele>
        <time>2024-08-12T07:52:43Z</time>
      </trkpt>
      <trkpt lat="44.93894" lon="6.75033">
        <ele>1767.52</ele>
        <time>2024-08-12T07:52:56Z</time>
      </trkpt>
      <trkpt lat="44.9392" lon="6.75071">
        <ele>1767.04</ele>
        <time>2024-08-12T07:53:07Z</time>
      </trkpt>
      <trkpt lat="44.93979" lon="6.75162">
        <ele>1764.16</ele>
        <time>2024-08-12T07:53:23Z</time>
      </trkpt>
      <trkpt lat="44.94003" lon="6.75214">
        <ele>1761.75</ele>
        <time>2024-08-12T07:53:31Z</time>
      </trkpt>
      <trkpt lat="44.94005" lon="6.7522">
        <ele>1761.75</ele>
        <time>2024-08-12T07:53:32Z</time>
      </trkpt>
      <trkpt lat="44.94027" lon="6.75331">
        <ele>1760.79</ele>
        <time>2024-08-12T07:53:49Z</time>
      </trkpt>
      <trkpt lat="44.94028" lon="6.75337">
        <ele>1760.79</ele>
        <time>2024-08-12T07:53:50Z</time>
      </trkpt>
      <trkpt lat="44.94065" lon="6.75453">
        <ele>1758.39</ele>
        <time>2024-08-12T07:54:09Z</time>
      </trkpt>
      <trkpt lat="44.94108" lon="6.75576">
        <ele>1756.95</ele>
        <time>2024-08-12T07:54:28Z</time>
      </trkpt>
      <trkpt lat="44.94109" lon="6.75586">
        <ele>1755.99</ele>
        <time>2024-08-12T07:54:29Z</time>
      </trkpt>
      <trkpt lat="44.94109" lon="6.75594">
        <ele>1755.99</ele>
        <time>2024-08-12T07:54:30Z</time>
      </trkpt>
      <trkpt lat="44.94109" lon="6.75602">
        <ele>1755.99</ele>
        <time>2024-08-12T07:54:31Z</time>
      </trkpt>
      <trkpt lat="44.94108" lon="6.75611">
        <ele>1755.99</ele>
        <time>2024-08-12T07:54:32Z</time>
      </trkpt>
      <trkpt lat="44.94105" lon="6.75621">
        <ele>1755.99</ele>
        <time>2024-08-12T07:54:34Z</time>
      </trkpt>
      <trkpt lat="44.94102" lon="6.75633">
        <ele>1755.02</ele>
        <time>2024-08-12T07:54:35Z</time>
      </trkpt>
      <trkpt lat="44.94097" lon="6.75667">
        <ele>1755.02</ele>
        <time>2024-08-12T07:54:40Z</time>
      </trkpt>
      <trkpt lat="44.94097" lon="6.75674">
        <ele>1755.02</ele>
        <time>2024-08-12T07:54:41Z</time>
      </trkpt>
      <trkpt lat="44.94097" lon="6.75682">
        <ele>1754.06</ele>
        <time>2024-08-12T07:54:42Z</time>
      </trkpt>
      <trkpt lat="44.94098" lon="6.75687">
        <ele>1754.06</ele>
        <time>2024-08-12T07:54:43Z</time>
      </trkpt>
      <trkpt lat="44.941" lon="6.75694">
        <ele>1754.06</ele>
        <time>2024-08-12T07:54:44Z</time>
      </trkpt>
      <trkpt lat="44.94102" lon="6.75702">
        <ele>1754.06</ele>
        <time>2024-08-12T07:54:45Z</time>
      </trkpt>
      <trkpt lat="44.94104" lon="6.75707">
        <ele>1754.06</ele>
        <time>2024-08-12T07:54:46Z</time>
      </trkpt>
      <trkpt lat="44.94114" lon="6.75732">
        <ele>1753.58</ele>
        <time>2024-08-12T07:54:50Z</time>
      </trkpt>
      <trkpt lat="44.94118" lon="6.75739">
        <ele>1753.1</ele>
        <time>2024-08-12T07:54:51Z</time>
      </trkpt>
      <trkpt lat="44.9416" lon="6.7579">
        <ele>1750.7</ele>
        <time>2024-08-12T07:55:00Z</time>
      </trkpt>
      <trkpt lat="44.94164" lon="6.75798">
        <ele>1750.7</ele>
        <time>2024-08-12T07:55:01Z</time>
      </trkpt>
      <trkpt lat="44.94167" lon="6.75808">
        <ele>1750.7</ele>
        <time>2024-08-12T07:55:02Z</time>
      </trkpt>
      <trkpt lat="44.94168" lon="6.75815">
        <ele>1750.22</ele>
        <time>2024-08-12T07:55:03Z</time>
      </trkpt>
      <trkpt lat="44.94169" lon="6.7582">
        <ele>1750.22</ele>
        <time>2024-08-12T07:55:04Z</time>
      </trkpt>
      <trkpt lat="44.94169" lon="6.75824">
        <ele>1750.22</ele>
        <time>2024-08-12T07:55:05Z</time>
      </trkpt>
      <trkpt lat="44.94169" lon="6.75826">
        <ele>1750.22</ele>
        <time>2024-08-12T07:55:18Z</time>
      </trkpt>
      <trkpt lat="44.9417" lon="6.75827">
        <ele>1750.22</ele>
        <time>2024-08-12T07:55:24Z</time>
      </trkpt>
      <trkpt lat="44.9417" lon="6.75828">
        <ele>1750.22</ele>
        <time>2024-08-12T07:55:25Z</time>
      </trkpt>
      <trkpt lat="44.94171" lon="6.7583">
        <ele>1750.22</ele>
        <time>2024-08-12T07:55:26Z</time>
      </trkpt>
      <trkpt lat="44.94172" lon="6.75831">
        <ele>1750.22</ele>
        <time>2024-08-12T07:55:27Z</time>
      </trkpt>
      <trkpt lat="44.94173" lon="6.75833">
        <ele>1750.22</ele>
        <time>2024-08-12T07:55:28Z</time>
      </trkpt>
      <trkpt lat="44.94176" lon="6.75835">
        <ele>1750.22</ele>
        <time>2024-08-12T07:55:44Z</time>
      </trkpt>
      <trkpt lat="44.94179" lon="6.7584">
        <ele>1750.22</ele>
        <time>2024-08-12T07:55:50Z</time>
      </trkpt>
      <trkpt lat="44.9418" lon="6.75848">
        <ele>1752.14</ele>
        <time>2024-08-12T07:55:57Z</time>
      </trkpt>
      <trkpt lat="44.94181" lon="6.7587">
        <ele>1754.06</ele>
        <time>2024-08-12T07:56:13Z</time>
      </trkpt>
      <trkpt lat="44.94184" lon="6.75876">
        <ele>1755.5</ele>
        <time>2024-08-12T07:56:25Z</time>
      </trkpt>
      <trkpt lat="44.94189" lon="6.75875">
        <ele>1758.87</ele>
        <time>2024-08-12T07:56:39Z</time>
      </trkpt>
      <trkpt lat="44.94197" lon="6.75877">
        <ele>1761.27</ele>
        <time>2024-08-12T07:56:55Z</time>
      </trkpt>
      <trkpt lat="44.942" lon="6.75886">
        <ele>1763.68</ele>
        <time>2024-08-12T07:57:09Z</time>
      </trkpt>
      <trkpt lat="44.942" lon="6.75888">
        <ele>1763.68</ele>
        <time>2024-08-12T07:57:10Z</time>
      </trkpt>
      <trkpt lat="44.94213" lon="6.75908">
        <ele>1763.68</ele>
        <time>2024-08-12T07:57:26Z</time>
      </trkpt>
      <trkpt lat="44.9422" lon="6.7592">
        <ele>1765.12</ele>
        <time>2024-08-12T07:57:40Z</time>
      </trkpt>
      <trkpt lat="44.94226" lon="6.75926">
        <ele>1763.68</ele>
        <time>2024-08-12T07:57:53Z</time>
      </trkpt>
      <trkpt lat="44.94232" lon="6.75933">
        <ele>1761.27</ele>
        <time>2024-08-12T07:58:05Z</time>
      </trkpt>
      <trkpt lat="44.94237" lon="6.75936">
        <ele>1760.31</ele>
        <time>2024-08-12T07:58:12Z</time>
      </trkpt>
      <trkpt lat="44.94243" lon="6.75935">
        <ele>1760.31</ele>
        <time>2024-08-12T07:58:26Z</time>
      </trkpt>
      <trkpt lat="44.94253" lon="6.75933">
        <ele>1757.91</ele>
        <time>2024-08-12T07:58:38Z</time>
      </trkpt>
      <trkpt lat="44.94257" lon="6.75935">
        <ele>1756.95</ele>
        <time>2024-08-12T07:58:47Z</time>
      </trkpt>
      <trkpt lat="44.94264" lon="6.75945">
        <ele>1754.54</ele>
        <time>2024-08-12T07:58:52Z</time>
      </trkpt>
      <trkpt lat="44.94264" lon="6.75948">
        <ele>1753.58</ele>
        <time>2024-08-12T07:58:53Z</time>
      </trkpt>
      <trkpt lat="44.94263" lon="6.75952">
        <ele>1752.62</ele>
        <time>2024-08-12T07:58:54Z</time>
      </trkpt>
      <trkpt lat="44.94263" lon="6.75955">
        <ele>1751.66</ele>
        <time>2024-08-12T07:58:55Z</time>
      </trkpt>
      <trkpt lat="44.94262" lon="6.75959">
        <ele>1751.18</ele>
        <time>2024-08-12T07:58:56Z</time>
      </trkpt>
      <trkpt lat="44.94261" lon="6.75961">
        <ele>1750.22</ele>
        <time>2024-08-12T07:58:57Z</time>
      </trkpt>
      <trkpt lat="44.94261" lon="6.75962">
        <ele>1750.22</ele>
        <time>2024-08-12T07:58:58Z</time>
      </trkpt>
      <trkpt lat="44.94261" lon="6.75964">
        <ele>1750.22</ele>
        <time>2024-08-12T07:59:01Z</time>
      </trkpt>
      <trkpt lat="44.94262" lon="6.75965">
        <ele>1749.74</ele>
        <time>2024-08-12T07:59:02Z</time>
      </trkpt>
      <trkpt lat="44.94263" lon="6.75966">
        <ele>1748.78</ele>
        <time>2024-08-12T07:59:03Z</time>
      </trkpt>
      <trkpt lat="44.94265" lon="6.75966">
        <ele>1748.78</ele>
        <time>2024-08-12T07:59:04Z</time>
      </trkpt>
      <trkpt lat="44.94267" lon="6.75966">
        <ele>1747.81</ele>
        <time>2024-08-12T07:59:05Z</time>
      </trkpt>
      <trkpt lat="44.94268" lon="6.75966">
        <ele>1747.81</ele>
        <time>2024-08-12T07:59:06Z</time>
      </trkpt>
      <trkpt lat="44.94269" lon="6.75966">
        <ele>1746.85</ele>
        <time>2024-08-12T07:59:07Z</time>
      </trkpt>
      <trkpt lat="44.94269" lon="6.75968">
        <ele>1746.85</ele>
        <time>2024-08-12T07:59:08Z</time>
      </trkpt>
      <trkpt lat="44.94269" lon="6.7597">
        <ele>1746.37</ele>
        <time>2024-08-12T07:59:09Z</time>
      </trkpt>
      <trkpt lat="44.94268" lon="6.75972">
        <ele>1746.37</ele>
        <time>2024-08-12T07:59:10Z</time>
      </trkpt>
      <trkpt lat="44.94267" lon="6.75974">
        <ele>1745.89</ele>
        <time>2024-08-12T07:59:11Z</time>
      </trkpt>
      <trkpt lat="44.94267" lon="6.75976">
        <ele>1745.41</ele>
        <time>2024-08-12T07:59:12Z</time>
      </trkpt>
      <trkpt lat="44.94267" lon="6.75977">
        <ele>1745.41</ele>
        <time>2024-08-12T07:59:13Z</time>
      </trkpt>
      <trkpt lat="44.94269" lon="6.75977">
        <ele>1744.45</ele>
        <time>2024-08-12T07:59:14Z</time>
      </trkpt>
      <trkpt lat="44.94271" lon="6.75977">
        <ele>1744.45</ele>
        <time>2024-08-12T07:59:15Z</time>
      </trkpt>
      <trkpt lat="44.94284" lon="6.75974">
        <ele>1741.08</ele>
        <time>2024-08-12T07:59:20Z</time>
      </trkpt>
      <trkpt lat="44.94286" lon="6.75975">
        <ele>1740.6</ele>
        <time>2024-08-12T07:59:21Z</time>
      </trkpt>
      <trkpt lat="44.9429" lon="6.75976">
        <ele>1739.64</ele>
        <time>2024-08-12T07:59:23Z</time>
      </trkpt>
      <trkpt lat="44.94291" lon="6.75978">
        <ele>1739.64</ele>
        <time>2024-08-12T07:59:24Z</time>
      </trkpt>
      <trkpt lat="44.94291" lon="6.75981">
        <ele>1739.16</ele>
        <time>2024-08-12T07:59:25Z</time>
      </trkpt>
      <trkpt lat="44.94292" lon="6.75983">
        <ele>1738.68</ele>
        <time>2024-08-12T07:59:26Z</time>
      </trkpt>
      <trkpt lat="44.94293" lon="6.75985">
        <ele>1738.68</ele>
        <time>2024-08-12T07:59:27Z</time>
      </trkpt>
      <trkpt lat="44.94292" lon="6.75988">
        <ele>1738.2</ele>
        <time>2024-08-12T07:59:28Z</time>
      </trkpt>
      <trkpt lat="44.94288" lon="6.75989">
        <ele>1735.8</ele>
        <time>2024-08-12T07:59:31Z</time>
      </trkpt>
      <trkpt lat="44.94286" lon="6.75989">
        <ele>1735.8</ele>
        <time>2024-08-12T07:59:32Z</time>
      </trkpt>
      <trkpt lat="44.94282" lon="6.75988">
        <ele>1734.36</ele>
        <time>2024-08-12T07:59:34Z</time>
      </trkpt>
      <trkpt lat="44.94278" lon="6.75992">
        <ele>1733.39</ele>
        <time>2024-08-12T07:59:49Z</time>
      </trkpt>
      <trkpt lat="44.94279" lon="6.75994">
        <ele>1731.95</ele>
        <time>2024-08-12T08:00:01Z</time>
      </trkpt>
      <trkpt lat="44.94282" lon="6.76">
        <ele>1730.03</ele>
        <time>2024-08-12T08:00:14Z</time>
      </trkpt>
      <trkpt lat="44.94271" lon="6.76002">
        <ele>1728.11</ele>
        <time>2024-08-12T08:00:24Z</time>
      </trkpt>
      <trkpt lat="44.94254" lon="6.76007">
        <ele>1725.7</ele>
        <time>2024-08-12T08:00:34Z</time>
      </trkpt>
      <trkpt lat="44.94249" lon="6.76011">
        <ele>1724.74</ele>
        <time>2024-08-12T08:00:36Z</time>
      </trkpt>
      <trkpt lat="44.94247" lon="6.76012">
        <ele>1724.74</ele>
        <time>2024-08-12T08:00:37Z</time>
      </trkpt>
      <trkpt lat="44.94245" lon="6.76013">
        <ele>1724.26</ele>
        <time>2024-08-12T08:00:38Z</time>
      </trkpt>
      <trkpt lat="44.94242" lon="6.76015">
        <ele>1723.78</ele>
        <time>2024-08-12T08:00:39Z</time>
      </trkpt>
      <trkpt lat="44.9424" lon="6.76016">
        <ele>1723.78</ele>
        <time>2024-08-12T08:00:40Z</time>
      </trkpt>
      <trkpt lat="44.94238" lon="6.76016">
        <ele>1723.78</ele>
        <time>2024-08-12T08:00:41Z</time>
      </trkpt>
      <trkpt lat="44.94232" lon="6.76019">
        <ele>1721.38</ele>
        <time>2024-08-12T08:00:50Z</time>
      </trkpt>
      <trkpt lat="44.94234" lon="6.76022">
        <ele>1720.42</ele>
        <time>2024-08-12T08:00:58Z</time>
      </trkpt>
      <trkpt lat="44.94236" lon="6.76024">
        <ele>1720.42</ele>
        <time>2024-08-12T08:00:59Z</time>
      </trkpt>
      <trkpt lat="44.94237" lon="6.76024">
        <ele>1719.94</ele>
        <time>2024-08-12T08:01:00Z</time>
      </trkpt>
      <trkpt lat="44.94256" lon="6.76028">
        <ele>1717.05</ele>
        <time>2024-08-12T08:01:09Z</time>
      </trkpt>
      <trkpt lat="44.94274" lon="6.7603">
        <ele>1713.69</ele>
        <time>2024-08-12T08:01:14Z</time>
      </trkpt>
      <trkpt lat="44.94292" lon="6.76031">
        <ele>1710.32</ele>
        <time>2024-08-12T08:01:19Z</time>
      </trkpt>
      <trkpt lat="44.94297" lon="6.76032">
        <ele>1708.4</ele>
        <time>2024-08-12T08:01:22Z</time>
      </trkpt>
      <trkpt lat="44.94296" lon="6.76035">
        <ele>1708.4</ele>
        <time>2024-08-12T08:01:23Z</time>
      </trkpt>
      <trkpt lat="44.94295" lon="6.76037">
        <ele>1707.92</ele>
        <time>2024-08-12T08:01:24Z</time>
      </trkpt>
      <trkpt lat="44.94292" lon="6.76039">
        <ele>1707.44</ele>
        <time>2024-08-12T08:01:25Z</time>
      </trkpt>
      <trkpt lat="44.9429" lon="6.76041">
        <ele>1706.48</ele>
        <time>2024-08-12T08:01:26Z</time>
      </trkpt>
      <trkpt lat="44.94287" lon="6.76042">
        <ele>1706</ele>
        <time>2024-08-12T08:01:27Z</time>
      </trkpt>
      <trkpt lat="44.94281" lon="6.76045">
        <ele>1705.52</ele>
        <time>2024-08-12T08:01:29Z</time>
      </trkpt>
      <trkpt lat="44.94279" lon="6.76046">
        <ele>1705.52</ele>
        <time>2024-08-12T08:01:30Z</time>
      </trkpt>
      <trkpt lat="44.94274" lon="6.76048">
        <ele>1705.04</ele>
        <time>2024-08-12T08:01:40Z</time>
      </trkpt>
      <trkpt lat="44.94264" lon="6.76057">
        <ele>1704.07</ele>
        <time>2024-08-12T08:01:53Z</time>
      </trkpt>
      <trkpt lat="44.9425" lon="6.76068">
        <ele>1700.23</ele>
        <time>2024-08-12T08:01:59Z</time>
      </trkpt>
      <trkpt lat="44.94243" lon="6.76072">
        <ele>1699.27</ele>
        <time>2024-08-12T08:02:03Z</time>
      </trkpt>
      <trkpt lat="44.94242" lon="6.76074">
        <ele>1699.27</ele>
        <time>2024-08-12T08:02:04Z</time>
      </trkpt>
      <trkpt lat="44.9424" lon="6.76076">
        <ele>1698.79</ele>
        <time>2024-08-12T08:02:05Z</time>
      </trkpt>
      <trkpt lat="44.94235" lon="6.76079">
        <ele>1697.34</ele>
        <time>2024-08-12T08:02:08Z</time>
      </trkpt>
      <trkpt lat="44.94234" lon="6.76081">
        <ele>1696.86</ele>
        <time>2024-08-12T08:02:10Z</time>
      </trkpt>
      <trkpt lat="44.94232" lon="6.76082">
        <ele>1696.38</ele>
        <time>2024-08-12T08:02:11Z</time>
      </trkpt>
      <trkpt lat="44.9423" lon="6.76084">
        <ele>1696.38</ele>
        <time>2024-08-12T08:02:12Z</time>
      </trkpt>
      <trkpt lat="44.94228" lon="6.76085">
        <ele>1695.9</ele>
        <time>2024-08-12T08:02:13Z</time>
      </trkpt>
      <trkpt lat="44.94221" lon="6.76088">
        <ele>1695.42</ele>
        <time>2024-08-12T08:02:21Z</time>
      </trkpt>
      <trkpt lat="44.94218" lon="6.76092">
        <ele>1693.5</ele>
        <time>2024-08-12T08:02:37Z</time>
      </trkpt>
      <trkpt lat="44.94219" lon="6.76092">
        <ele>1693.02</ele>
        <time>2024-08-12T08:02:41Z</time>
      </trkpt>
      <trkpt lat="44.94233" lon="6.7609">
        <ele>1691.1</ele>
        <time>2024-08-12T08:02:51Z</time>
      </trkpt>
      <trkpt lat="44.9424" lon="6.76089">
        <ele>1690.14</ele>
        <time>2024-08-12T08:03:03Z</time>
      </trkpt>
      <trkpt lat="44.94253" lon="6.76086">
        <ele>1688.21</ele>
        <time>2024-08-12T08:03:27Z</time>
      </trkpt>
      <trkpt lat="44.94264" lon="6.76084">
        <ele>1685.33</ele>
        <time>2024-08-12T08:03:32Z</time>
      </trkpt>
      <trkpt lat="44.94285" lon="6.76082">
        <ele>1681.96</ele>
        <time>2024-08-12T08:03:45Z</time>
      </trkpt>
      <trkpt lat="44.94299" lon="6.76084">
        <ele>1680.04</ele>
        <time>2024-08-12T08:03:56Z</time>
      </trkpt>
      <trkpt lat="44.94305" lon="6.76087">
        <ele>1679.08</ele>
        <time>2024-08-12T08:04:11Z</time>
      </trkpt>
      <trkpt lat="44.94307" lon="6.76089">
        <ele>1678.12</ele>
        <time>2024-08-12T08:04:20Z</time>
      </trkpt>
      <trkpt lat="44.94305" lon="6.76091">
        <ele>1678.12</ele>
        <time>2024-08-12T08:04:21Z</time>
      </trkpt>
      <trkpt lat="44.94303" lon="6.76092">
        <ele>1678.12</ele>
        <time>2024-08-12T08:04:22Z</time>
      </trkpt>
      <trkpt lat="44.94297" lon="6.76095">
        <ele>1674.75</ele>
        <time>2024-08-12T08:04:27Z</time>
      </trkpt>
      <trkpt lat="44.94296" lon="6.76096">
        <ele>1673.79</ele>
        <time>2024-08-12T08:04:37Z</time>
      </trkpt>
      <trkpt lat="44.94297" lon="6.76096">
        <ele>1673.79</ele>
        <time>2024-08-12T08:04:39Z</time>
      </trkpt>
      <trkpt lat="44.94305" lon="6.76099">
        <ele>1672.35</ele>
        <time>2024-08-12T08:04:51Z</time>
      </trkpt>
      <trkpt lat="44.94306" lon="6.76103">
        <ele>1669.95</ele>
        <time>2024-08-12T08:04:58Z</time>
      </trkpt>
      <trkpt lat="44.94305" lon="6.76104">
        <ele>1669.95</ele>
        <time>2024-08-12T08:04:59Z</time>
      </trkpt>
      <trkpt lat="44.94298" lon="6.76103">
        <ele>1668.02</ele>
        <time>2024-08-12T08:05:13Z</time>
      </trkpt>
      <trkpt lat="44.94297" lon="6.76104">
        <ele>1667.54</ele>
        <time>2024-08-12T08:05:33Z</time>
      </trkpt>
      <trkpt lat="44.94295" lon="6.76107">
        <ele>1666.1</ele>
        <time>2024-08-12T08:05:50Z</time>
      </trkpt>
      <trkpt lat="44.94299" lon="6.7611">
        <ele>1665.62</ele>
        <time>2024-08-12T08:06:08Z</time>
      </trkpt>
      <trkpt lat="44.94302" lon="6.76115">
        <ele>1665.14</ele>
        <time>2024-08-12T08:06:20Z</time>
      </trkpt>
      <trkpt lat="44.94311" lon="6.76127">
        <ele>1663.22</ele>
        <time>2024-08-12T08:06:33Z</time>
      </trkpt>
      <trkpt lat="44.94313" lon="6.76132">
        <ele>1663.22</ele>
        <time>2024-08-12T08:06:37Z</time>
      </trkpt>
      <trkpt lat="44.94313" lon="6.76134">
        <ele>1663.22</ele>
        <time>2024-08-12T08:06:38Z</time>
      </trkpt>
      <trkpt lat="44.94314" lon="6.76136">
        <ele>1663.22</ele>
        <time>2024-08-12T08:06:40Z</time>
      </trkpt>
      <trkpt lat="44.94314" lon="6.76138">
        <ele>1663.22</ele>
        <time>2024-08-12T08:06:41Z</time>
      </trkpt>
      <trkpt lat="44.94319" lon="6.76164">
        <ele>1662.74</ele>
        <time>2024-08-12T08:06:57Z</time>
      </trkpt>
      <trkpt lat="44.94321" lon="6.76173">
        <ele>1660.81</ele>
        <time>2024-08-12T08:07:10Z</time>
      </trkpt>
      <trkpt lat="44.94317" lon="6.7617">
        <ele>1659.85</ele>
        <time>2024-08-12T08:07:14Z</time>
      </trkpt>
      <trkpt lat="44.9431" lon="6.76164">
        <ele>1657.93</ele>
        <time>2024-08-12T08:07:25Z</time>
      </trkpt>
      <trkpt lat="44.94315" lon="6.76177">
        <ele>1656.01</ele>
        <time>2024-08-12T08:07:38Z</time>
      </trkpt>
      <trkpt lat="44.94312" lon="6.76179">
        <ele>1654.09</ele>
        <time>2024-08-12T08:07:53Z</time>
      </trkpt>
      <trkpt lat="44.94315" lon="6.76189">
        <ele>1651.68</ele>
        <time>2024-08-12T08:08:00Z</time>
      </trkpt>
      <trkpt lat="44.94312" lon="6.76193">
        <ele>1649.28</ele>
        <time>2024-08-12T08:08:12Z</time>
      </trkpt>
      <trkpt lat="44.94311" lon="6.76198">
        <ele>1647.84</ele>
        <time>2024-08-12T08:08:25Z</time>
      </trkpt>
      <trkpt lat="44.94311" lon="6.76204">
        <ele>1645.43</ele>
        <time>2024-08-12T08:08:36Z</time>
      </trkpt>
      <trkpt lat="44.94311" lon="6.76203">
        <ele>1645.43</ele>
        <time>2024-08-12T08:08:37Z</time>
      </trkpt>
      <trkpt lat="44.94305" lon="6.76197">
        <ele>1643.99</ele>
        <time>2024-08-12T08:08:50Z</time>
      </trkpt>
      <trkpt lat="44.94303" lon="6.76201">
        <ele>1643.03</ele>
        <time>2024-08-12T08:08:54Z</time>
      </trkpt>
      <trkpt lat="44.94308" lon="6.76217">
        <ele>1640.15</ele>
        <time>2024-08-12T08:09:07Z</time>
      </trkpt>
      <trkpt lat="44.94308" lon="6.76218">
        <ele>1640.15</ele>
        <time>2024-08-12T08:09:08Z</time>
      </trkpt>
      <trkpt lat="44.94309" lon="6.76222">
        <ele>1639.67</ele>
        <time>2024-08-12T08:09:11Z</time>
      </trkpt>
      <trkpt lat="44.94311" lon="6.76237">
        <ele>1636.3</ele>
        <time>2024-08-12T08:09:26Z</time>
      </trkpt>
      <trkpt lat="44.94312" lon="6.76251">
        <ele>1633.42</ele>
        <time>2024-08-12T08:09:40Z</time>
      </trkpt>
      <trkpt lat="44.94315" lon="6.76258">
        <ele>1631.98</ele>
        <time>2024-08-12T08:09:52Z</time>
      </trkpt>
      <trkpt lat="44.94309" lon="6.76255">
        <ele>1630.53</ele>
        <time>2024-08-12T08:10:03Z</time>
      </trkpt>
      <trkpt lat="44.94309" lon="6.76264">
        <ele>1627.65</ele>
        <time>2024-08-12T08:10:15Z</time>
      </trkpt>
      <trkpt lat="44.94308" lon="6.76264">
        <ele>1627.65</ele>
        <time>2024-08-12T08:10:16Z</time>
      </trkpt>
      <trkpt lat="44.94305" lon="6.76267">
        <ele>1627.65</ele>
        <time>2024-08-12T08:10:20Z</time>
      </trkpt>
      <trkpt lat="44.94299" lon="6.7627">
        <ele>1626.69</ele>
        <time>2024-08-12T08:10:29Z</time>
      </trkpt>
      <trkpt lat="44.94299" lon="6.76276">
        <ele>1626.69</ele>
        <time>2024-08-12T08:10:35Z</time>
      </trkpt>
      <trkpt lat="44.943" lon="6.76282">
        <ele>1628.13</ele>
        <time>2024-08-12T08:10:40Z</time>
      </trkpt>
      <trkpt lat="44.94304" lon="6.76297">
        <ele>1628.61</ele>
        <time>2024-08-12T08:10:54Z</time>
      </trkpt>
      <trkpt lat="44.9431" lon="6.76305">
        <ele>1627.17</ele>
        <time>2024-08-12T08:11:03Z</time>
      </trkpt>
      <trkpt lat="44.94315" lon="6.76307">
        <ele>1625.25</ele>
        <time>2024-08-12T08:11:09Z</time>
      </trkpt>
      <trkpt lat="44.94316" lon="6.76309">
        <ele>1625.25</ele>
        <time>2024-08-12T08:11:10Z</time>
      </trkpt>
      <trkpt lat="44.94322" lon="6.76318">
        <ele>1624.28</ele>
        <time>2024-08-12T08:11:22Z</time>
      </trkpt>
      <trkpt lat="44.94332" lon="6.76329">
        <ele>1622.36</ele>
        <time>2024-08-12T08:11:35Z</time>
      </trkpt>
      <trkpt lat="44.94334" lon="6.76331">
        <ele>1622.36</ele>
        <time>2024-08-12T08:11:36Z</time>
      </trkpt>
      <trkpt lat="44.94336" lon="6.76334">
        <ele>1622.36</ele>
        <time>2024-08-12T08:11:37Z</time>
      </trkpt>
      <trkpt lat="44.94337" lon="6.76337">
        <ele>1622.36</ele>
        <time>2024-08-12T08:11:38Z</time>
      </trkpt>
      <trkpt lat="44.94339" lon="6.7634">
        <ele>1622.36</ele>
        <time>2024-08-12T08:11:39Z</time>
      </trkpt>
      <trkpt lat="44.9434" lon="6.76342">
        <ele>1623.32</ele>
        <time>2024-08-12T08:11:40Z</time>
      </trkpt>
      <trkpt lat="44.94342" lon="6.76343">
        <ele>1623.32</ele>
        <time>2024-08-12T08:11:41Z</time>
      </trkpt>
      <trkpt lat="44.94344" lon="6.76344">
        <ele>1623.32</ele>
        <time>2024-08-12T08:11:42Z</time>
      </trkpt>
      <trkpt lat="44.94345" lon="6.76346">
        <ele>1623.32</ele>
        <time>2024-08-12T08:11:43Z</time>
      </trkpt>
      <trkpt lat="44.94347" lon="6.76349">
        <ele>1623.32</ele>
        <time>2024-08-12T08:11:44Z</time>
      </trkpt>
      <trkpt lat="44.94353" lon="6.76359">
        <ele>1623.32</ele>
        <time>2024-08-12T08:11:53Z</time>
      </trkpt>
      <trkpt lat="44.94356" lon="6.76364">
        <ele>1622.36</ele>
        <time>2024-08-12T08:12:03Z</time>
      </trkpt>
      <trkpt lat="44.9436" lon="6.76372">
        <ele>1619.48</ele>
        <time>2024-08-12T08:12:13Z</time>
      </trkpt>
      <trkpt lat="44.94362" lon="6.76376">
        <ele>1619</ele>
        <time>2024-08-12T08:12:16Z</time>
      </trkpt>
      <trkpt lat="44.94362" lon="6.76377">
        <ele>1619</ele>
        <time>2024-08-12T08:12:17Z</time>
      </trkpt>
      <trkpt lat="44.94363" lon="6.76379">
        <ele>1618.52</ele>
        <time>2024-08-12T08:12:18Z</time>
      </trkpt>
      <trkpt lat="44.94364" lon="6.7638">
        <ele>1618.52</ele>
        <time>2024-08-12T08:12:19Z</time>
      </trkpt>
      <trkpt lat="44.94365" lon="6.76381">
        <ele>1618.04</ele>
        <time>2024-08-12T08:12:20Z</time>
      </trkpt>
      <trkpt lat="44.94366" lon="6.76382">
        <ele>1618.52</ele>
        <time>2024-08-12T08:12:21Z</time>
      </trkpt>
      <trkpt lat="44.94372" lon="6.76401">
        <ele>1615.63</ele>
        <time>2024-08-12T08:12:33Z</time>
      </trkpt>
      <trkpt lat="44.94373" lon="6.76403">
        <ele>1614.67</ele>
        <time>2024-08-12T08:12:34Z</time>
      </trkpt>
      <trkpt lat="44.94374" lon="6.76406">
        <ele>1614.67</ele>
        <time>2024-08-12T08:12:35Z</time>
      </trkpt>
      <trkpt lat="44.94375" lon="6.76408">
        <ele>1613.71</ele>
        <time>2024-08-12T08:12:36Z</time>
      </trkpt>
      <trkpt lat="44.94376" lon="6.76411">
        <ele>1613.71</ele>
        <time>2024-08-12T08:12:37Z</time>
      </trkpt>
      <trkpt lat="44.94378" lon="6.76413">
        <ele>1613.23</ele>
        <time>2024-08-12T08:12:38Z</time>
      </trkpt>
      <trkpt lat="44.94387" lon="6.76432">
        <ele>1610.83</ele>
        <time>2024-08-12T08:12:45Z</time>
      </trkpt>
      <trkpt lat="44.94397" lon="6.76446">
        <ele>1610.35</ele>
        <time>2024-08-12T08:12:50Z</time>
      </trkpt>
      <trkpt lat="44.94398" lon="6.76447">
        <ele>1610.35</ele>
        <time>2024-08-12T08:12:51Z</time>
      </trkpt>
      <trkpt lat="44.9441" lon="6.76457">
        <ele>1608.9</ele>
        <time>2024-08-12T08:12:58Z</time>
      </trkpt>
      <trkpt lat="44.94411" lon="6.76461">
        <ele>1607.94</ele>
        <time>2024-08-12T08:12:59Z</time>
      </trkpt>
      <trkpt lat="44.94412" lon="6.76465">
        <ele>1607.46</ele>
        <time>2024-08-12T08:13:00Z</time>
      </trkpt>
      <trkpt lat="44.94414" lon="6.76469">
        <ele>1606.98</ele>
        <time>2024-08-12T08:13:01Z</time>
      </trkpt>
      <trkpt lat="44.94416" lon="6.76471">
        <ele>1606.5</ele>
        <time>2024-08-12T08:13:02Z</time>
      </trkpt>
      <trkpt lat="44.94417" lon="6.76473">
        <ele>1606.5</ele>
        <time>2024-08-12T08:13:03Z</time>
      </trkpt>
      <trkpt lat="44.94419" lon="6.76476">
        <ele>1606.02</ele>
        <time>2024-08-12T08:13:04Z</time>
      </trkpt>
      <trkpt lat="44.9442" lon="6.76479">
        <ele>1606.02</ele>
        <time>2024-08-12T08:13:05Z</time>
      </trkpt>
      <trkpt lat="44.94421" lon="6.76483">
        <ele>1605.06</ele>
        <time>2024-08-12T08:13:06Z</time>
      </trkpt>
      <trkpt lat="44.94427" lon="6.76497">
        <ele>1605.54</ele>
        <time>2024-08-12T08:13:16Z</time>
      </trkpt>
      <trkpt lat="44.9443" lon="6.76499">
        <ele>1604.58</ele>
        <time>2024-08-12T08:13:20Z</time>
      </trkpt>
      <trkpt lat="44.94431" lon="6.765">
        <ele>1604.58</ele>
        <time>2024-08-12T08:13:21Z</time>
      </trkpt>
      <trkpt lat="44.94436" lon="6.76509">
        <ele>1606.02</ele>
        <time>2024-08-12T08:13:33Z</time>
      </trkpt>
      <trkpt lat="44.94439" lon="6.7651">
        <ele>1606.02</ele>
        <time>2024-08-12T08:13:37Z</time>
      </trkpt>
      <trkpt lat="44.9444" lon="6.76511">
        <ele>1606.02</ele>
        <time>2024-08-12T08:13:38Z</time>
      </trkpt>
      <trkpt lat="44.94443" lon="6.76512">
        <ele>1606.02</ele>
        <time>2024-08-12T08:13:39Z</time>
      </trkpt>
      <trkpt lat="44.94457" lon="6.76547">
        <ele>1602.66</ele>
        <time>2024-08-12T08:13:51Z</time>
      </trkpt>
      <trkpt lat="44.94462" lon="6.76581">
        <ele>1600.73</ele>
        <time>2024-08-12T08:14:01Z</time>
      </trkpt>
      <trkpt lat="44.94464" lon="6.7659">
        <ele>1599.29</ele>
        <time>2024-08-12T08:14:04Z</time>
      </trkpt>
      <trkpt lat="44.94466" lon="6.76592">
        <ele>1599.29</ele>
        <time>2024-08-12T08:14:05Z</time>
      </trkpt>
      <trkpt lat="44.94469" lon="6.76594">
        <ele>1599.29</ele>
        <time>2024-08-12T08:14:06Z</time>
      </trkpt>
      <trkpt lat="44.94471" lon="6.76597">
        <ele>1598.33</ele>
        <time>2024-08-12T08:14:07Z</time>
      </trkpt>
      <trkpt lat="44.94473" lon="6.766">
        <ele>1597.37</ele>
        <time>2024-08-12T08:14:08Z</time>
      </trkpt>
      <trkpt lat="44.94476" lon="6.76604">
        <ele>1596.89</ele>
        <time>2024-08-12T08:14:09Z</time>
      </trkpt>
      <trkpt lat="44.9449" lon="6.76624">
        <ele>1593.52</ele>
        <time>2024-08-12T08:14:15Z</time>
      </trkpt>
      <trkpt lat="44.94496" lon="6.76641">
        <ele>1592.08</ele>
        <time>2024-08-12T08:14:19Z</time>
      </trkpt>
      <trkpt lat="44.94497" lon="6.76647">
        <ele>1590.64</ele>
        <time>2024-08-12T08:14:20Z</time>
      </trkpt>
      <trkpt lat="44.94498" lon="6.76652">
        <ele>1589.68</ele>
        <time>2024-08-12T08:14:21Z</time>
      </trkpt>
      <trkpt lat="44.94499" lon="6.76656">
        <ele>1589.68</ele>
        <time>2024-08-12T08:14:22Z</time>
      </trkpt>
      <trkpt lat="44.94501" lon="6.76659">
        <ele>1588.72</ele>
        <time>2024-08-12T08:14:23Z</time>
      </trkpt>
      <trkpt lat="44.94503" lon="6.76663">
        <ele>1588.72</ele>
        <time>2024-08-12T08:14:24Z</time>
      </trkpt>
      <trkpt lat="44.94504" lon="6.76668">
        <ele>1588.72</ele>
        <time>2024-08-12T08:14:25Z</time>
      </trkpt>
      <trkpt lat="44.94505" lon="6.76671">
        <ele>1588.72</ele>
        <time>2024-08-12T08:14:26Z</time>
      </trkpt>
      <trkpt lat="44.94506" lon="6.76674">
        <ele>1588.72</ele>
        <time>2024-08-12T08:14:27Z</time>
      </trkpt>
      <trkpt lat="44.94507" lon="6.76675">
        <ele>1588.72</ele>
        <time>2024-08-12T08:14:28Z</time>
      </trkpt>
      <trkpt lat="44.94508" lon="6.76676">
        <ele>1588.24</ele>
        <time>2024-08-12T08:14:29Z</time>
      </trkpt>
      <trkpt lat="44.94509" lon="6.76678">
        <ele>1587.75</ele>
        <time>2024-08-12T08:14:30Z</time>
      </trkpt>
      <trkpt lat="44.9451" lon="6.7668">
        <ele>1586.79</ele>
        <time>2024-08-12T08:14:31Z</time>
      </trkpt>
      <trkpt lat="44.94511" lon="6.76683">
        <ele>1586.31</ele>
        <time>2024-08-12T08:14:32Z</time>
      </trkpt>
      <trkpt lat="44.94513" lon="6.76685">
        <ele>1586.31</ele>
        <time>2024-08-12T08:14:33Z</time>
      </trkpt>
      <trkpt lat="44.94515" lon="6.76685">
        <ele>1585.83</ele>
        <time>2024-08-12T08:14:34Z</time>
      </trkpt>
      <trkpt lat="44.94517" lon="6.76685">
        <ele>1584.87</ele>
        <time>2024-08-12T08:14:35Z</time>
      </trkpt>
      <trkpt lat="44.9452" lon="6.76686">
        <ele>1583.91</ele>
        <time>2024-08-12T08:14:36Z</time>
      </trkpt>
      <trkpt lat="44.94523" lon="6.76688">
        <ele>1582.95</ele>
        <time>2024-08-12T08:14:37Z</time>
      </trkpt>
      <trkpt lat="44.94533" lon="6.76696">
        <ele>1579.58</ele>
        <time>2024-08-12T08:14:41Z</time>
      </trkpt>
      <trkpt lat="44.94536" lon="6.767">
        <ele>1578.14</ele>
        <time>2024-08-12T08:14:43Z</time>
      </trkpt>
      <trkpt lat="44.94537" lon="6.76701">
        <ele>1578.14</ele>
        <time>2024-08-12T08:14:44Z</time>
      </trkpt>
      <trkpt lat="44.94539" lon="6.76701">
        <ele>1578.14</ele>
        <time>2024-08-12T08:14:45Z</time>
      </trkpt>
      <trkpt lat="44.9454" lon="6.76701">
        <ele>1577.66</ele>
        <time>2024-08-12T08:14:46Z</time>
      </trkpt>
      <trkpt lat="44.94541" lon="6.76702">
        <ele>1577.66</ele>
        <time>2024-08-12T08:14:47Z</time>
      </trkpt>
      <trkpt lat="44.94543" lon="6.76703">
        <ele>1576.7</ele>
        <time>2024-08-12T08:14:48Z</time>
      </trkpt>
      <trkpt lat="44.94544" lon="6.76703">
        <ele>1576.7</ele>
        <time>2024-08-12T08:14:49Z</time>
      </trkpt>
      <trkpt lat="44.94557" lon="6.76709">
        <ele>1575.26</ele>
        <time>2024-08-12T08:15:02Z</time>
      </trkpt>
      <trkpt lat="44.94563" lon="6.76712">
        <ele>1574.78</ele>
        <time>2024-08-12T08:15:08Z</time>
      </trkpt>
      <trkpt lat="44.94569" lon="6.76717">
        <ele>1574.3</ele>
        <time>2024-08-12T08:15:15Z</time>
      </trkpt>
      <trkpt lat="44.94577" lon="6.76716">
        <ele>1572.85</ele>
        <time>2024-08-12T08:15:28Z</time>
      </trkpt>
      <trkpt lat="44.94578" lon="6.76715">
        <ele>1571.89</ele>
        <time>2024-08-12T08:15:29Z</time>
      </trkpt>
      <trkpt lat="44.9459" lon="6.76719">
        <ele>1569.01</ele>
        <time>2024-08-12T08:15:41Z</time>
      </trkpt>
      <trkpt lat="44.9459" lon="6.76721">
        <ele>1569.01</ele>
        <time>2024-08-12T08:15:42Z</time>
      </trkpt>
      <trkpt lat="44.94591" lon="6.76725">
        <ele>1569.01</ele>
        <time>2024-08-12T08:15:44Z</time>
      </trkpt>
      <trkpt lat="44.94593" lon="6.76729">
        <ele>1570.45</ele>
        <time>2024-08-12T08:15:49Z</time>
      </trkpt>
      <trkpt lat="44.94598" lon="6.7673">
        <ele>1569.01</ele>
        <time>2024-08-12T08:15:57Z</time>
      </trkpt>
      <trkpt lat="44.94602" lon="6.76733">
        <ele>1567.57</ele>
        <time>2024-08-12T08:16:03Z</time>
      </trkpt>
      <trkpt lat="44.9461" lon="6.76751">
        <ele>1565.16</ele>
        <time>2024-08-12T08:16:17Z</time>
      </trkpt>
      <trkpt lat="44.94617" lon="6.7677">
        <ele>1562.28</ele>
        <time>2024-08-12T08:16:32Z</time>
      </trkpt>
      <trkpt lat="44.94619" lon="6.76779">
        <ele>1560.36</ele>
        <time>2024-08-12T08:16:42Z</time>
      </trkpt>
      <trkpt lat="44.94622" lon="6.76784">
        <ele>1559.4</ele>
        <time>2024-08-12T08:16:45Z</time>
      </trkpt>
      <trkpt lat="44.94624" lon="6.76786">
        <ele>1558.92</ele>
        <time>2024-08-12T08:16:46Z</time>
      </trkpt>
      <trkpt lat="44.94626" lon="6.76788">
        <ele>1558.92</ele>
        <time>2024-08-12T08:16:47Z</time>
      </trkpt>
      <trkpt lat="44.94628" lon="6.76791">
        <ele>1558.43</ele>
        <time>2024-08-12T08:16:48Z</time>
      </trkpt>
      <trkpt lat="44.9463" lon="6.76796">
        <ele>1557.47</ele>
        <time>2024-08-12T08:16:49Z</time>
      </trkpt>
      <trkpt lat="44.94632" lon="6.76801">
        <ele>1556.99</ele>
        <time>2024-08-12T08:16:50Z</time>
      </trkpt>
      <trkpt lat="44.94635" lon="6.76807">
        <ele>1556.99</ele>
        <time>2024-08-12T08:16:51Z</time>
      </trkpt>
      <trkpt lat="44.94637" lon="6.76815">
        <ele>1555.55</ele>
        <time>2024-08-12T08:16:52Z</time>
      </trkpt>
      <trkpt lat="44.9464" lon="6.76823">
        <ele>1554.59</ele>
        <time>2024-08-12T08:16:53Z</time>
      </trkpt>
      <trkpt lat="44.94642" lon="6.76831">
        <ele>1553.63</ele>
        <time>2024-08-12T08:16:54Z</time>
      </trkpt>
      <trkpt lat="44.94647" lon="6.76865">
        <ele>1551.22</ele>
        <time>2024-08-12T08:16:58Z</time>
      </trkpt>
      <trkpt lat="44.94647" lon="6.76873">
        <ele>1549.78</ele>
        <time>2024-08-12T08:16:59Z</time>
      </trkpt>
      <trkpt lat="44.94646" lon="6.76882">
        <ele>1548.82</ele>
        <time>2024-08-12T08:17:00Z</time>
      </trkpt>
      <trkpt lat="44.94646" lon="6.76893">
        <ele>1548.82</ele>
        <time>2024-08-12T08:17:01Z</time>
      </trkpt>
      <trkpt lat="44.94645" lon="6.76904">
        <ele>1547.86</ele>
        <time>2024-08-12T08:17:02Z</time>
      </trkpt>
      <trkpt lat="44.94647" lon="6.76914">
        <ele>1547.38</ele>
        <time>2024-08-12T08:17:03Z</time>
      </trkpt>
      <trkpt lat="44.9465" lon="6.76924">
        <ele>1546.42</ele>
        <time>2024-08-12T08:17:04Z</time>
      </trkpt>
      <trkpt lat="44.94653" lon="6.76934">
        <ele>1545.46</ele>
        <time>2024-08-12T08:17:05Z</time>
      </trkpt>
      <trkpt lat="44.94657" lon="6.76942">
        <ele>1544.5</ele>
        <time>2024-08-12T08:17:06Z</time>
      </trkpt>
      <trkpt lat="44.94662" lon="6.76955">
        <ele>1543.05</ele>
        <time>2024-08-12T08:17:08Z</time>
      </trkpt>
      <trkpt lat="44.9467" lon="6.76974">
        <ele>1540.65</ele>
        <time>2024-08-12T08:17:11Z</time>
      </trkpt>
      <trkpt lat="44.94676" lon="6.76984">
        <ele>1539.21</ele>
        <time>2024-08-12T08:17:13Z</time>
      </trkpt>
      <trkpt lat="44.94679" lon="6.7699">
        <ele>1538.25</ele>
        <time>2024-08-12T08:17:14Z</time>
      </trkpt>
      <trkpt lat="44.94681" lon="6.76997">
        <ele>1537.29</ele>
        <time>2024-08-12T08:17:15Z</time>
      </trkpt>
      <trkpt lat="44.94683" lon="6.77011">
        <ele>1536.32</ele>
        <time>2024-08-12T08:17:17Z</time>
      </trkpt>
      <trkpt lat="44.94692" lon="6.77061">
        <ele>1532.96</ele>
        <time>2024-08-12T08:17:22Z</time>
      </trkpt>
      <trkpt lat="44.94697" lon="6.77094">
        <ele>1529.59</ele>
        <time>2024-08-12T08:17:26Z</time>
      </trkpt>
      <trkpt lat="44.94705" lon="6.77134">
        <ele>1526.71</ele>
        <time>2024-08-12T08:17:33Z</time>
      </trkpt>
      <trkpt lat="44.94708" lon="6.77141">
        <ele>1525.75</ele>
        <time>2024-08-12T08:17:34Z</time>
      </trkpt>
      <trkpt lat="44.9471" lon="6.77149">
        <ele>1525.75</ele>
        <time>2024-08-12T08:17:35Z</time>
      </trkpt>
      <trkpt lat="44.94711" lon="6.77156">
        <ele>1525.75</ele>
        <time>2024-08-12T08:17:36Z</time>
      </trkpt>
      <trkpt lat="44.94712" lon="6.77164">
        <ele>1525.27</ele>
        <time>2024-08-12T08:17:37Z</time>
      </trkpt>
      <trkpt lat="44.94716" lon="6.77196">
        <ele>1523.35</ele>
        <time>2024-08-12T08:17:45Z</time>
      </trkpt>
      <trkpt lat="44.94715" lon="6.77197">
        <ele>1523.83</ele>
        <time>2024-08-12T08:17:57Z</time>
      </trkpt>
      <trkpt lat="44.94715" lon="6.77197">
        <ele>1523.35</ele>
        <time>2024-08-12T08:18:24Z</time>
      </trkpt>
      <trkpt lat="44.94715" lon="6.7722">
        <ele>1523.35</ele>
        <time>2024-08-12T08:18:39Z</time>
      </trkpt>
      <trkpt lat="44.9471" lon="6.77308">
        <ele>1520.94</ele>
        <time>2024-08-12T08:18:49Z</time>
      </trkpt>
      <trkpt lat="44.94708" lon="6.77379">
        <ele>1517.1</ele>
        <time>2024-08-12T08:18:55Z</time>
      </trkpt>
      <trkpt lat="44.94706" lon="6.77444">
        <ele>1514.69</ele>
        <time>2024-08-12T08:19:00Z</time>
      </trkpt>
      <trkpt lat="44.94706" lon="6.77471">
        <ele>1511.81</ele>
        <time>2024-08-12T08:19:02Z</time>
      </trkpt>
      <trkpt lat="44.94703" lon="6.77543">
        <ele>1508.45</ele>
        <time>2024-08-12T08:19:07Z</time>
      </trkpt>
      <trkpt lat="44.947" lon="6.7762">
        <ele>1504.6</ele>
        <time>2024-08-12T08:19:12Z</time>
      </trkpt>
      <trkpt lat="44.947" lon="6.77699">
        <ele>1501.24</ele>
        <time>2024-08-12T08:19:17Z</time>
      </trkpt>
      <trkpt lat="44.94703" lon="6.77714">
        <ele>1500.76</ele>
        <time>2024-08-12T08:19:18Z</time>
      </trkpt>
      <trkpt lat="44.94708" lon="6.77728">
        <ele>1499.79</ele>
        <time>2024-08-12T08:19:19Z</time>
      </trkpt>
      <trkpt lat="44.94715" lon="6.7774">
        <ele>1498.83</ele>
        <time>2024-08-12T08:19:20Z</time>
      </trkpt>
      <trkpt lat="44.94724" lon="6.7775">
        <ele>1498.35</ele>
        <time>2024-08-12T08:19:21Z</time>
      </trkpt>
      <trkpt lat="44.94733" lon="6.77758">
        <ele>1496.91</ele>
        <time>2024-08-12T08:19:22Z</time>
      </trkpt>
      <trkpt lat="44.94742" lon="6.77767">
        <ele>1496.91</ele>
        <time>2024-08-12T08:19:23Z</time>
      </trkpt>
      <trkpt lat="44.94791" lon="6.77811">
        <ele>1493.55</ele>
        <time>2024-08-12T08:19:28Z</time>
      </trkpt>
      <trkpt lat="44.9482" lon="6.77843">
        <ele>1490.66</ele>
        <time>2024-08-12T08:19:31Z</time>
      </trkpt>
      <trkpt lat="44.94829" lon="6.77858">
        <ele>1489.7</ele>
        <time>2024-08-12T08:19:32Z</time>
      </trkpt>
      <trkpt lat="44.94852" lon="6.77904">
        <ele>1486.34</ele>
        <time>2024-08-12T08:19:35Z</time>
      </trkpt>
      <trkpt lat="44.94875" lon="6.77953">
        <ele>1482.49</ele>
        <time>2024-08-12T08:19:38Z</time>
      </trkpt>
      <trkpt lat="44.9489" lon="6.77987">
        <ele>1480.09</ele>
        <time>2024-08-12T08:19:40Z</time>
      </trkpt>
      <trkpt lat="44.94906" lon="6.78039">
        <ele>1475.28</ele>
        <time>2024-08-12T08:19:43Z</time>
      </trkpt>
      <trkpt lat="44.94918" lon="6.78091">
        <ele>1471.92</ele>
        <time>2024-08-12T08:19:46Z</time>
      </trkpt>
      <trkpt lat="44.9493" lon="6.78126">
        <ele>1469.03</ele>
        <time>2024-08-12T08:19:48Z</time>
      </trkpt>
      <trkpt lat="44.94942" lon="6.78158">
        <ele>1465.67</ele>
        <time>2024-08-12T08:19:50Z</time>
      </trkpt>
      <trkpt lat="44.94962" lon="6.78205">
        <ele>1462.78</ele>
        <time>2024-08-12T08:19:53Z</time>
      </trkpt>
      <trkpt lat="44.94973" lon="6.78239">
        <ele>1458.94</ele>
        <time>2024-08-12T08:19:55Z</time>
      </trkpt>
      <trkpt lat="44.94978" lon="6.78257">
        <ele>1458.46</ele>
        <time>2024-08-12T08:19:56Z</time>
      </trkpt>
      <trkpt lat="44.94981" lon="6.78276">
        <ele>1457.02</ele>
        <time>2024-08-12T08:19:57Z</time>
      </trkpt>
      <trkpt lat="44.94983" lon="6.78296">
        <ele>1455.57</ele>
        <time>2024-08-12T08:19:58Z</time>
      </trkpt>
      <trkpt lat="44.94983" lon="6.78316">
        <ele>1454.13</ele>
        <time>2024-08-12T08:19:59Z</time>
      </trkpt>
      <trkpt lat="44.94981" lon="6.78336">
        <ele>1453.17</ele>
        <time>2024-08-12T08:20:00Z</time>
      </trkpt>
      <trkpt lat="44.94977" lon="6.78353">
        <ele>1452.69</ele>
        <time>2024-08-12T08:20:01Z</time>
      </trkpt>
      <trkpt lat="44.9497" lon="6.7837">
        <ele>1451.25</ele>
        <time>2024-08-12T08:20:02Z</time>
      </trkpt>
      <trkpt lat="44.94962" lon="6.78385">
        <ele>1451.25</ele>
        <time>2024-08-12T08:20:03Z</time>
      </trkpt>
      <trkpt lat="44.94953" lon="6.78397">
        <ele>1449.81</ele>
        <time>2024-08-12T08:20:04Z</time>
      </trkpt>
      <trkpt lat="44.94942" lon="6.78407">
        <ele>1448.84</ele>
        <time>2024-08-12T08:20:05Z</time>
      </trkpt>
      <trkpt lat="44.94931" lon="6.78414">
        <ele>1448.36</ele>
        <time>2024-08-12T08:20:06Z</time>
      </trkpt>
      <trkpt lat="44.94918" lon="6.7842">
        <ele>1446.44</ele>
        <time>2024-08-12T08:20:07Z</time>
      </trkpt>
      <trkpt lat="44.94896" lon="6.78432">
        <ele>1445.48</ele>
        <time>2024-08-12T08:20:09Z</time>
      </trkpt>
      <trkpt lat="44.94885" lon="6.78441">
        <ele>1444.52</ele>
        <time>2024-08-12T08:20:10Z</time>
      </trkpt>
      <trkpt lat="44.94875" lon="6.78451">
        <ele>1444.52</ele>
        <time>2024-08-12T08:20:11Z</time>
      </trkpt>
      <trkpt lat="44.94846" lon="6.78483">
        <ele>1440.67</ele>
        <time>2024-08-12T08:20:14Z</time>
      </trkpt>
      <trkpt lat="44.94838" lon="6.78496">
        <ele>1439.23</ele>
        <time>2024-08-12T08:20:15Z</time>
      </trkpt>
      <trkpt lat="44.94832" lon="6.78511">
        <ele>1438.75</ele>
        <time>2024-08-12T08:20:16Z</time>
      </trkpt>
      <trkpt lat="44.94831" lon="6.78528">
        <ele>1437.79</ele>
        <time>2024-08-12T08:20:17Z</time>
      </trkpt>
      <trkpt lat="44.94833" lon="6.78546">
        <ele>1437.31</ele>
        <time>2024-08-12T08:20:18Z</time>
      </trkpt>
      <trkpt lat="44.94839" lon="6.7856">
        <ele>1436.35</ele>
        <time>2024-08-12T08:20:19Z</time>
      </trkpt>
      <trkpt lat="44.94847" lon="6.78573">
        <ele>1434.91</ele>
        <time>2024-08-12T08:20:20Z</time>
      </trkpt>
      <trkpt lat="44.94858" lon="6.78582">
        <ele>1432.98</ele>
        <time>2024-08-12T08:20:21Z</time>
      </trkpt>
      <trkpt lat="44.94869" lon="6.78589">
        <ele>1431.54</ele>
        <time>2024-08-12T08:20:22Z</time>
      </trkpt>
      <trkpt lat="44.94881" lon="6.78596">
        <ele>1431.54</ele>
        <time>2024-08-12T08:20:23Z</time>
      </trkpt>
      <trkpt lat="44.94916" lon="6.78619">
        <ele>1428.18</ele>
        <time>2024-08-12T08:20:26Z</time>
      </trkpt>
      <trkpt lat="44.94939" lon="6.78639">
        <ele>1426.25</ele>
        <time>2024-08-12T08:20:28Z</time>
      </trkpt>
      <trkpt lat="44.94949" lon="6.78652">
        <ele>1424.33</ele>
        <time>2024-08-12T08:20:29Z</time>
      </trkpt>
      <trkpt lat="44.94957" lon="6.78667">
        <ele>1423.85</ele>
        <time>2024-08-12T08:20:30Z</time>
      </trkpt>
      <trkpt lat="44.94963" lon="6.78683">
        <ele>1422.41</ele>
        <time>2024-08-12T08:20:31Z</time>
      </trkpt>
      <trkpt lat="44.94968" lon="6.78701">
        <ele>1421.45</ele>
        <time>2024-08-12T08:20:32Z</time>
      </trkpt>
      <trkpt lat="44.9497" lon="6.7872">
        <ele>1420.49</ele>
        <time>2024-08-12T08:20:33Z</time>
      </trkpt>
      <trkpt lat="44.9497" lon="6.78739">
        <ele>1419.04</ele>
        <time>2024-08-12T08:20:34Z</time>
      </trkpt>
      <trkpt lat="44.94969" lon="6.78757">
        <ele>1418.08</ele>
        <time>2024-08-12T08:20:35Z</time>
      </trkpt>
      <trkpt lat="44.94965" lon="6.78776">
        <ele>1417.12</ele>
        <time>2024-08-12T08:20:36Z</time>
      </trkpt>
      <trkpt lat="44.9496" lon="6.78793">
        <ele>1416.16</ele>
        <time>2024-08-12T08:20:37Z</time>
      </trkpt>
      <trkpt lat="44.94954" lon="6.7881">
        <ele>1414.72</ele>
        <time>2024-08-12T08:20:38Z</time>
      </trkpt>
      <trkpt lat="44.9495" lon="6.78827">
        <ele>1413.28</ele>
        <time>2024-08-12T08:20:39Z</time>
      </trkpt>
      <trkpt lat="44.94949" lon="6.78844">
        <ele>1412.31</ele>
        <time>2024-08-12T08:20:40Z</time>
      </trkpt>
      <trkpt lat="44.94952" lon="6.7886">
        <ele>1411.35</ele>
        <time>2024-08-12T08:20:41Z</time>
      </trkpt>
      <trkpt lat="44.94959" lon="6.78873">
        <ele>1409.91</ele>
        <time>2024-08-12T08:20:42Z</time>
      </trkpt>
      <trkpt lat="44.94969" lon="6.78881">
        <ele>1407.51</ele>
        <time>2024-08-12T08:20:43Z</time>
      </trkpt>
      <trkpt lat="44.94978" lon="6.78884">
        <ele>1406.55</ele>
        <time>2024-08-12T08:20:44Z</time>
      </trkpt>
      <trkpt lat="44.94988" lon="6.78884">
        <ele>1406.07</ele>
        <time>2024-08-12T08:20:45Z</time>
      </trkpt>
      <trkpt lat="44.94998" lon="6.78881">
        <ele>1404.14</ele>
        <time>2024-08-12T08:20:46Z</time>
      </trkpt>
      <trkpt lat="44.95008" lon="6.78876">
        <ele>1404.14</ele>
        <time>2024-08-12T08:20:47Z</time>
      </trkpt>
      <trkpt lat="44.95018" lon="6.7887">
        <ele>1403.66</ele>
        <time>2024-08-12T08:20:48Z</time>
      </trkpt>
      <trkpt lat="44.95026" lon="6.78863">
        <ele>1403.66</ele>
        <time>2024-08-12T08:20:49Z</time>
      </trkpt>
      <trkpt lat="44.95033" lon="6.78853">
        <ele>1402.7</ele>
        <time>2024-08-12T08:20:50Z</time>
      </trkpt>
      <trkpt lat="44.95039" lon="6.78842">
        <ele>1401.26</ele>
        <time>2024-08-12T08:20:51Z</time>
      </trkpt>
      <trkpt lat="44.95043" lon="6.78831">
        <ele>1401.26</ele>
        <time>2024-08-12T08:20:52Z</time>
      </trkpt>
      <trkpt lat="44.95046" lon="6.7882">
        <ele>1400.3</ele>
        <time>2024-08-12T08:20:53Z</time>
      </trkpt>
      <trkpt lat="44.95047" lon="6.78811">
        <ele>1399.82</ele>
        <time>2024-08-12T08:20:54Z</time>
      </trkpt>
      <trkpt lat="44.95048" lon="6.78803">
        <ele>1398.86</ele>
        <time>2024-08-12T08:20:55Z</time>
      </trkpt>
      <trkpt lat="44.95049" lon="6.78798">
        <ele>1398.86</ele>
        <time>2024-08-12T08:20:56Z</time>
      </trkpt>
      <trkpt lat="44.95049" lon="6.78796">
        <ele>1398.86</ele>
        <time>2024-08-12T08:21:04Z</time>
      </trkpt>
      <trkpt lat="44.95051" lon="6.78796">
        <ele>1398.86</ele>
        <time>2024-08-12T08:21:25Z</time>
      </trkpt>
      <trkpt lat="44.95052" lon="6.78794">
        <ele>1398.37</ele>
        <time>2024-08-12T08:21:37Z</time>
      </trkpt>
      <trkpt lat="44.95051" lon="6.78794">
        <ele>1398.37</ele>
        <time>2024-08-12T08:21:51Z</time>
      </trkpt>
      <trkpt lat="44.95051" lon="6.78792">
        <ele>1398.37</ele>
        <time>2024-08-12T08:21:52Z</time>
      </trkpt>
      <trkpt lat="44.95044" lon="6.78744">
        <ele>1398.37</ele>
        <time>2024-08-12T08:22:03Z</time>
      </trkpt>
      <trkpt lat="44.95024" lon="6.78627">
        <ele>1398.37</ele>
        <time>2024-08-12T08:22:20Z</time>
      </trkpt>
      <trkpt lat="44.95024" lon="6.78619">
        <ele>1398.37</ele>
        <time>2024-08-12T08:22:21Z</time>
      </trkpt>
      <trkpt lat="44.95024" lon="6.78611">
        <ele>1398.37</ele>
        <time>2024-08-12T08:22:22Z</time>
      </trkpt>
      <trkpt lat="44.95025" lon="6.78604">
        <ele>1397.89</ele>
        <time>2024-08-12T08:22:23Z</time>
      </trkpt>
      <trkpt lat="44.95027" lon="6.78597">
        <ele>1397.89</ele>
        <time>2024-08-12T08:22:24Z</time>
      </trkpt>
      <trkpt lat="44.95028" lon="6.7859">
        <ele>1397.89</ele>
        <time>2024-08-12T08:22:25Z</time>
      </trkpt>
      <trkpt lat="44.95031" lon="6.78583">
        <ele>1397.89</ele>
        <time>2024-08-12T08:22:26Z</time>
      </trkpt>
      <trkpt lat="44.95034" lon="6.78577">
        <ele>1397.89</ele>
        <time>2024-08-12T08:22:27Z</time>
      </trkpt>
      <trkpt lat="44.95036" lon="6.78571">
        <ele>1397.89</ele>
        <time>2024-08-12T08:22:28Z</time>
      </trkpt>
      <trkpt lat="44.9504" lon="6.78565">
        <ele>1397.89</ele>
        <time>2024-08-12T08:22:29Z</time>
      </trkpt>
      <trkpt lat="44.95044" lon="6.78559">
        <ele>1397.89</ele>
        <time>2024-08-12T08:22:30Z</time>
      </trkpt>
      <trkpt lat="44.95048" lon="6.78553">
        <ele>1397.89</ele>
        <time>2024-08-12T08:22:31Z</time>
      </trkpt>
      <trkpt lat="44.95053" lon="6.78549">
        <ele>1397.89</ele>
        <time>2024-08-12T08:22:32Z</time>
      </trkpt>
      <trkpt lat="44.95058" lon="6.78544">
        <ele>1397.89</ele>
        <time>2024-08-12T08:22:33Z</time>
      </trkpt>
      <trkpt lat="44.95063" lon="6.7854">
        <ele>1397.89</ele>
        <time>2024-08-12T08:22:34Z</time>
      </trkpt>
      <trkpt lat="44.95069" lon="6.78537">
        <ele>1397.89</ele>
        <time>2024-08-12T08:22:35Z</time>
      </trkpt>
      <trkpt lat="44.95075" lon="6.78534">
        <ele>1397.89</ele>
        <time>2024-08-12T08:22:36Z</time>
      </trkpt>
      <trkpt lat="44.95081" lon="6.78532">
        <ele>1397.41</ele>
        <time>2024-08-12T08:22:37Z</time>
      </trkpt>
      <trkpt lat="44.95102" lon="6.78529">
        <ele>1396.93</ele>
        <time>2024-08-12T08:22:40Z</time>
      </trkpt>
      <trkpt lat="44.95109" lon="6.7853">
        <ele>1396.45</ele>
        <time>2024-08-12T08:22:41Z</time>
      </trkpt>
      <trkpt lat="44.95118" lon="6.78533">
        <ele>1395.97</ele>
        <time>2024-08-12T08:22:42Z</time>
      </trkpt>
      <trkpt lat="44.95126" lon="6.78537">
        <ele>1395.49</ele>
        <time>2024-08-12T08:22:43Z</time>
      </trkpt>
      <trkpt lat="44.95134" lon="6.78542">
        <ele>1395.49</ele>
        <time>2024-08-12T08:22:44Z</time>
      </trkpt>
      <trkpt lat="44.95143" lon="6.78549">
        <ele>1394.53</ele>
        <time>2024-08-12T08:22:45Z</time>
      </trkpt>
      <trkpt lat="44.95151" lon="6.78558">
        <ele>1394.53</ele>
        <time>2024-08-12T08:22:46Z</time>
      </trkpt>
      <trkpt lat="44.95158" lon="6.78567">
        <ele>1393.09</ele>
        <time>2024-08-12T08:22:47Z</time>
      </trkpt>
      <trkpt lat="44.95165" lon="6.78579">
        <ele>1392.61</ele>
        <time>2024-08-12T08:22:48Z</time>
      </trkpt>
      <trkpt lat="44.9517" lon="6.78592">
        <ele>1391.65</ele>
        <time>2024-08-12T08:22:49Z</time>
      </trkpt>
      <trkpt lat="44.95175" lon="6.78606">
        <ele>1391.65</ele>
        <time>2024-08-12T08:22:50Z</time>
      </trkpt>
      <trkpt lat="44.95178" lon="6.78621">
        <ele>1389.72</ele>
        <time>2024-08-12T08:22:51Z</time>
      </trkpt>
      <trkpt lat="44.95185" lon="6.78652">
        <ele>1388.76</ele>
        <time>2024-08-12T08:22:53Z</time>
      </trkpt>
      <trkpt lat="44.95201" lon="6.7871">
        <ele>1385.4</ele>
        <time>2024-08-12T08:22:57Z</time>
      </trkpt>
      <trkpt lat="44.95211" lon="6.78739">
        <ele>1384.44</ele>
        <time>2024-08-12T08:22:59Z</time>
      </trkpt>
      <trkpt lat="44.95242" lon="6.78805">
        <ele>1380.11</ele>
        <time>2024-08-12T08:23:04Z</time>
      </trkpt>
      <trkpt lat="44.95266" lon="6.78856">
        <ele>1378.19</ele>
        <time>2024-08-12T08:23:08Z</time>
      </trkpt>
      <trkpt lat="44.95277" lon="6.78881">
        <ele>1376.75</ele>
        <time>2024-08-12T08:23:10Z</time>
      </trkpt>
      <trkpt lat="44.95303" lon="6.78924">
        <ele>1374.34</ele>
        <time>2024-08-12T08:23:14Z</time>
      </trkpt>
      <trkpt lat="44.95311" lon="6.78932">
        <ele>1373.86</ele>
        <time>2024-08-12T08:23:15Z</time>
      </trkpt>
      <trkpt lat="44.95336" lon="6.78955">
        <ele>1372.42</ele>
        <time>2024-08-12T08:23:18Z</time>
      </trkpt>
      <trkpt lat="44.95382" lon="6.78998">
        <ele>1369.54</ele>
        <time>2024-08-12T08:23:24Z</time>
      </trkpt>
      <trkpt lat="44.95387" lon="6.79004">
        <ele>1368.57</ele>
        <time>2024-08-12T08:23:25Z</time>
      </trkpt>
      <trkpt lat="44.95392" lon="6.79011">
        <ele>1367.61</ele>
        <time>2024-08-12T08:23:26Z</time>
      </trkpt>
      <trkpt lat="44.95396" lon="6.79018">
        <ele>1367.13</ele>
        <time>2024-08-12T08:23:27Z</time>
      </trkpt>
      <trkpt lat="44.95399" lon="6.79025">
        <ele>1366.65</ele>
        <time>2024-08-12T08:23:28Z</time>
      </trkpt>
      <trkpt lat="44.95402" lon="6.79032">
        <ele>1366.17</ele>
        <time>2024-08-12T08:23:29Z</time>
      </trkpt>
      <trkpt lat="44.95406" lon="6.79038">
        <ele>1366.17</ele>
        <time>2024-08-12T08:23:30Z</time>
      </trkpt>
      <trkpt lat="44.95411" lon="6.79042">
        <ele>1365.21</ele>
        <time>2024-08-12T08:23:31Z</time>
      </trkpt>
      <trkpt lat="44.95414" lon="6.79046">
        <ele>1365.21</ele>
        <time>2024-08-12T08:23:32Z</time>
      </trkpt>
      <trkpt lat="44.95419" lon="6.79051">
        <ele>1365.69</ele>
        <time>2024-08-12T08:23:33Z</time>
      </trkpt>
      <trkpt lat="44.95421" lon="6.79057">
        <ele>1365.21</ele>
        <time>2024-08-12T08:23:34Z</time>
      </trkpt>
      <trkpt lat="44.95424" lon="6.79064">
        <ele>1365.21</ele>
        <time>2024-08-12T08:23:35Z</time>
      </trkpt>
      <trkpt lat="44.95425" lon="6.79071">
        <ele>1364.25</ele>
        <time>2024-08-12T08:23:36Z</time>
      </trkpt>
      <trkpt lat="44.95426" lon="6.79079">
        <ele>1364.25</ele>
        <time>2024-08-12T08:23:37Z</time>
      </trkpt>
      <trkpt lat="44.95425" lon="6.79086">
        <ele>1364.25</ele>
        <time>2024-08-12T08:23:38Z</time>
      </trkpt>
      <trkpt lat="44.95426" lon="6.7909">
        <ele>1363.77</ele>
        <time>2024-08-12T08:23:39Z</time>
      </trkpt>
      <trkpt lat="44.95426" lon="6.79094">
        <ele>1363.29</ele>
        <time>2024-08-12T08:23:40Z</time>
      </trkpt>
      <trkpt lat="44.95427" lon="6.79099">
        <ele>1362.81</ele>
        <time>2024-08-12T08:23:42Z</time>
      </trkpt>
      <trkpt lat="44.95432" lon="6.79097">
        <ele>1362.81</ele>
        <time>2024-08-12T08:23:44Z</time>
      </trkpt>
      <trkpt lat="44.95433" lon="6.79092">
        <ele>1362.81</ele>
        <time>2024-08-12T08:23:45Z</time>
      </trkpt>
      <trkpt lat="44.95433" lon="6.7909">
        <ele>1362.81</ele>
        <time>2024-08-12T08:23:46Z</time>
      </trkpt>
      <trkpt lat="44.95447" lon="6.79063">
        <ele>1362.81</ele>
        <time>2024-08-12T08:23:57Z</time>
      </trkpt>
      <trkpt lat="44.95454" lon="6.79057">
        <ele>1362.81</ele>
        <time>2024-08-12T08:24:02Z</time>
      </trkpt>
      <trkpt lat="44.95457" lon="6.79055">
        <ele>1362.81</ele>
        <time>2024-08-12T08:24:09Z</time>
      </trkpt>
      <trkpt lat="44.95458" lon="6.79053">
        <ele>1362.81</ele>
        <time>2024-08-12T08:24:10Z</time>
      </trkpt>
      <trkpt lat="44.95459" lon="6.79052">
        <ele>1363.77</ele>
        <time>2024-08-12T08:24:11Z</time>
      </trkpt>
      <trkpt lat="44.95461" lon="6.79051">
        <ele>1363.77</ele>
        <time>2024-08-12T08:24:12Z</time>
      </trkpt>
      <trkpt lat="44.95463" lon="6.79049">
        <ele>1363.77</ele>
        <time>2024-08-12T08:24:13Z</time>
      </trkpt>
      <trkpt lat="44.95488" lon="6.79009">
        <ele>1365.69</ele>
        <time>2024-08-12T08:24:30Z</time>
      </trkpt>
      <trkpt lat="44.95507" lon="6.78972">
        <ele>1369.54</ele>
        <time>2024-08-12T08:24:45Z</time>
      </trkpt>
      <trkpt lat="44.95522" lon="6.78935">
        <ele>1371.94</ele>
        <time>2024-08-12T08:25:01Z</time>
      </trkpt>
      <trkpt lat="44.95537" lon="6.78912">
        <ele>1375.3</ele>
        <time>2024-08-12T08:25:14Z</time>
      </trkpt>
      <trkpt lat="44.95553" lon="6.78887">
        <ele>1378.67</ele>
        <time>2024-08-12T08:25:29Z</time>
      </trkpt>
      <trkpt lat="44.9558" lon="6.78874">
        <ele>1380.11</ele>
        <time>2024-08-12T08:25:45Z</time>
      </trkpt>
      <trkpt lat="44.95616" lon="6.789">
        <ele>1380.11</ele>
        <time>2024-08-12T08:25:59Z</time>
      </trkpt>
      <trkpt lat="44.95661" lon="6.78947">
        <ele>1379.63</ele>
        <time>2024-08-12T08:26:16Z</time>
      </trkpt>
      <trkpt lat="44.95708" lon="6.79003">
        <ele>1380.11</ele>
        <time>2024-08-12T08:26:35Z</time>
      </trkpt>
      <trkpt lat="44.9574" lon="6.79025">
        <ele>1382.03</ele>
        <time>2024-08-12T08:26:48Z</time>
      </trkpt>
      <trkpt lat="44.95754" lon="6.79026">
        <ele>1382.99</ele>
        <time>2024-08-12T08:26:59Z</time>
      </trkpt>
      <trkpt lat="44.95754" lon="6.79024">
        <ele>1382.99</ele>
        <time>2024-08-12T08:27:00Z</time>
      </trkpt>
      <trkpt lat="44.95753" lon="6.79023">
        <ele>1382.99</ele>
        <time>2024-08-12T08:27:01Z</time>
      </trkpt>
      <trkpt lat="44.95752" lon="6.79022">
        <ele>1382.99</ele>
        <time>2024-08-12T08:27:02Z</time>
      </trkpt>
      <trkpt lat="44.95751" lon="6.79022">
        <ele>1382.99</ele>
        <time>2024-08-12T08:27:03Z</time>
      </trkpt>
      <trkpt lat="44.95749" lon="6.79022">
        <ele>1382.99</ele>
        <time>2024-08-12T08:27:04Z</time>
      </trkpt>
      <trkpt lat="44.95748" lon="6.79022">
        <ele>1382.99</ele>
        <time>2024-08-12T08:27:05Z</time>
      </trkpt>
      <trkpt lat="44.95739" lon="6.79024">
        <ele>1382.99</ele>
        <time>2024-08-12T08:27:11Z</time>
      </trkpt>
      <trkpt lat="44.9573" lon="6.79035">
        <ele>1380.59</ele>
        <time>2024-08-12T08:27:18Z</time>
      </trkpt>
      <trkpt lat="44.9573" lon="6.79037">
        <ele>1380.59</ele>
        <time>2024-08-12T08:27:19Z</time>
      </trkpt>
      <trkpt lat="44.95732" lon="6.79042">
        <ele>1380.11</ele>
        <time>2024-08-12T08:27:30Z</time>
      </trkpt>
      <trkpt lat="44.9575" lon="6.79076">
        <ele>1380.11</ele>
        <time>2024-08-12T08:27:44Z</time>
      </trkpt>
      <trkpt lat="44.95765" lon="6.79096">
        <ele>1380.11</ele>
        <time>2024-08-12T08:27:57Z</time>
      </trkpt>
      <trkpt lat="44.95768" lon="6.791">
        <ele>1379.63</ele>
        <time>2024-08-12T08:28:09Z</time>
      </trkpt>
      <trkpt lat="44.95772" lon="6.79108">
        <ele>1379.63</ele>
        <time>2024-08-12T08:28:21Z</time>
      </trkpt>
      <trkpt lat="44.95774" lon="6.79116">
        <ele>1379.63</ele>
        <time>2024-08-12T08:28:33Z</time>
      </trkpt>
      <trkpt lat="44.95773" lon="6.79118">
        <ele>1379.15</ele>
        <time>2024-08-12T08:28:36Z</time>
      </trkpt>
      <trkpt lat="44.95773" lon="6.79119">
        <ele>1378.19</ele>
        <time>2024-08-12T08:28:37Z</time>
      </trkpt>
      <trkpt lat="44.95772" lon="6.7912">
        <ele>1377.71</ele>
        <time>2024-08-12T08:28:38Z</time>
      </trkpt>
      <trkpt lat="44.95772" lon="6.79136">
        <ele>1377.23</ele>
        <time>2024-08-12T08:28:50Z</time>
      </trkpt>
      <trkpt lat="44.95794" lon="6.7917">
        <ele>1378.19</ele>
        <time>2024-08-12T08:29:06Z</time>
      </trkpt>
      <trkpt lat="44.95835" lon="6.79175">
        <ele>1379.63</ele>
        <time>2024-08-12T08:29:24Z</time>
      </trkpt>
      <trkpt lat="44.95865" lon="6.79175">
        <ele>1379.63</ele>
        <time>2024-08-12T08:29:36Z</time>
      </trkpt>
      <trkpt lat="44.95908" lon="6.79203">
        <ele>1380.59</ele>
        <time>2024-08-12T08:29:52Z</time>
      </trkpt>
      <trkpt lat="44.95942" lon="6.79208">
        <ele>1380.59</ele>
        <time>2024-08-12T08:30:03Z</time>
      </trkpt>
      <trkpt lat="44.95944" lon="6.79204">
        <ele>1380.59</ele>
        <time>2024-08-12T08:30:04Z</time>
      </trkpt>
      <trkpt lat="44.95946" lon="6.792">
        <ele>1380.59</ele>
        <time>2024-08-12T08:30:05Z</time>
      </trkpt>
      <trkpt lat="44.95952" lon="6.79149">
        <ele>1381.55</ele>
        <time>2024-08-12T08:30:18Z</time>
      </trkpt>
      <trkpt lat="44.95969" lon="6.79142">
        <ele>1381.55</ele>
        <time>2024-08-12T08:30:26Z</time>
      </trkpt>
      <trkpt lat="44.95975" lon="6.79153">
        <ele>1381.55</ele>
        <time>2024-08-12T08:30:36Z</time>
      </trkpt>
      <trkpt lat="44.95975" lon="6.79154">
        <ele>1381.55</ele>
        <time>2024-08-12T08:30:37Z</time>
      </trkpt>
      <trkpt lat="44.95976" lon="6.79156">
        <ele>1381.55</ele>
        <time>2024-08-12T08:30:38Z</time>
      </trkpt>
      <trkpt lat="44.95976" lon="6.79159">
        <ele>1381.55</ele>
        <time>2024-08-12T08:30:39Z</time>
      </trkpt>
      <trkpt lat="44.95976" lon="6.79162">
        <ele>1381.55</ele>
        <time>2024-08-12T08:30:40Z</time>
      </trkpt>
      <trkpt lat="44.95977" lon="6.79186">
        <ele>1378.19</ele>
        <time>2024-08-12T08:30:46Z</time>
      </trkpt>
      <trkpt lat="44.95984" lon="6.79205">
        <ele>1377.23</ele>
        <time>2024-08-12T08:30:50Z</time>
      </trkpt>
      <trkpt lat="44.95992" lon="6.79218">
        <ele>1376.75</ele>
        <time>2024-08-12T08:30:53Z</time>
      </trkpt>
      <trkpt lat="44.95998" lon="6.79229">
        <ele>1375.78</ele>
        <time>2024-08-12T08:30:55Z</time>
      </trkpt>
      <trkpt lat="44.96" lon="6.79235">
        <ele>1375.78</ele>
        <time>2024-08-12T08:30:56Z</time>
      </trkpt>
      <trkpt lat="44.96012" lon="6.79265">
        <ele>1374.34</ele>
        <time>2024-08-12T08:31:01Z</time>
      </trkpt>
      <trkpt lat="44.96015" lon="6.79267">
        <ele>1373.86</ele>
        <time>2024-08-12T08:31:02Z</time>
      </trkpt>
      <trkpt lat="44.96018" lon="6.79268">
        <ele>1373.38</ele>
        <time>2024-08-12T08:31:03Z</time>
      </trkpt>
      <trkpt lat="44.96021" lon="6.79267">
        <ele>1373.38</ele>
        <time>2024-08-12T08:31:04Z</time>
      </trkpt>
      <trkpt lat="44.96024" lon="6.79264">
        <ele>1373.38</ele>
        <time>2024-08-12T08:31:05Z</time>
      </trkpt>
      <trkpt lat="44.96063" lon="6.79228">
        <ele>1374.82</ele>
        <time>2024-08-12T08:31:20Z</time>
      </trkpt>
      <trkpt lat="44.96068" lon="6.79221">
        <ele>1374.82</ele>
        <time>2024-08-12T08:31:29Z</time>
      </trkpt>
      <trkpt lat="44.96078" lon="6.79213">
        <ele>1374.82</ele>
        <time>2024-08-12T08:31:54Z</time>
      </trkpt>
      <trkpt lat="44.96106" lon="6.79194">
        <ele>1373.38</ele>
        <time>2024-08-12T08:32:03Z</time>
      </trkpt>
      <trkpt lat="44.96111" lon="6.79192">
        <ele>1373.38</ele>
        <time>2024-08-12T08:32:04Z</time>
      </trkpt>
      <trkpt lat="44.96116" lon="6.79191">
        <ele>1372.9</ele>
        <time>2024-08-12T08:32:05Z</time>
      </trkpt>
      <trkpt lat="44.96121" lon="6.79191">
        <ele>1372.9</ele>
        <time>2024-08-12T08:32:06Z</time>
      </trkpt>
      <trkpt lat="44.96126" lon="6.7919">
        <ele>1372.9</ele>
        <time>2024-08-12T08:32:07Z</time>
      </trkpt>
      <trkpt lat="44.96169" lon="6.79193">
        <ele>1373.38</ele>
        <time>2024-08-12T08:32:18Z</time>
      </trkpt>
      <trkpt lat="44.96172" lon="6.79192">
        <ele>1373.38</ele>
        <time>2024-08-12T08:32:19Z</time>
      </trkpt>
      <trkpt lat="44.96202" lon="6.79168">
        <ele>1371.94</ele>
        <time>2024-08-12T08:32:27Z</time>
      </trkpt>
      <trkpt lat="44.96217" lon="6.79156">
        <ele>1371.94</ele>
        <time>2024-08-12T08:32:31Z</time>
      </trkpt>
      <trkpt lat="44.9622" lon="6.79152">
        <ele>1371.94</ele>
        <time>2024-08-12T08:32:32Z</time>
      </trkpt>
      <trkpt lat="44.96224" lon="6.79148">
        <ele>1371.94</ele>
        <time>2024-08-12T08:32:33Z</time>
      </trkpt>
      <trkpt lat="44.96258" lon="6.79121">
        <ele>1371.94</ele>
        <time>2024-08-12T08:32:44Z</time>
      </trkpt>
      <trkpt lat="44.96272" lon="6.79106">
        <ele>1370.98</ele>
        <time>2024-08-12T08:32:47Z</time>
      </trkpt>
      <trkpt lat="44.96277" lon="6.79102">
        <ele>1370.02</ele>
        <time>2024-08-12T08:32:48Z</time>
      </trkpt>
      <trkpt lat="44.96283" lon="6.79097">
        <ele>1370.02</ele>
        <time>2024-08-12T08:32:49Z</time>
      </trkpt>
      <trkpt lat="44.96287" lon="6.79092">
        <ele>1369.54</ele>
        <time>2024-08-12T08:32:50Z</time>
      </trkpt>
      <trkpt lat="44.96291" lon="6.79087">
        <ele>1369.54</ele>
        <time>2024-08-12T08:32:51Z</time>
      </trkpt>
      <trkpt lat="44.96293" lon="6.79084">
        <ele>1368.57</ele>
        <time>2024-08-12T08:32:52Z</time>
      </trkpt>
      <trkpt lat="44.96303" lon="6.79073">
        <ele>1368.57</ele>
        <time>2024-08-12T08:32:57Z</time>
      </trkpt>
      <trkpt lat="44.96304" lon="6.79072">
        <ele>1368.57</ele>
        <time>2024-08-12T08:32:58Z</time>
      </trkpt>
      <trkpt lat="44.96305" lon="6.79071">
        <ele>1369.54</ele>
        <time>2024-08-12T08:32:59Z</time>
      </trkpt>
      <trkpt lat="44.96308" lon="6.79069">
        <ele>1370.02</ele>
        <time>2024-08-12T08:33:01Z</time>
      </trkpt>
      <trkpt lat="44.96309" lon="6.79068">
        <ele>1370.02</ele>
        <time>2024-08-12T08:33:02Z</time>
      </trkpt>
      <trkpt lat="44.96311" lon="6.79068">
        <ele>1370.02</ele>
        <time>2024-08-12T08:33:03Z</time>
      </trkpt>
      <trkpt lat="44.96312" lon="6.79068">
        <ele>1370.5</ele>
        <time>2024-08-12T08:33:04Z</time>
      </trkpt>
      <trkpt lat="44.96313" lon="6.79067">
        <ele>1370.98</ele>
        <time>2024-08-12T08:33:05Z</time>
      </trkpt>
      <trkpt lat="44.96315" lon="6.79067">
        <ele>1370.98</ele>
        <time>2024-08-12T08:33:06Z</time>
      </trkpt>
      <trkpt lat="44.96316" lon="6.79067">
        <ele>1371.46</ele>
        <time>2024-08-12T08:33:07Z</time>
      </trkpt>
      <trkpt lat="44.96326" lon="6.79061">
        <ele>1373.38</ele>
        <time>2024-08-12T08:33:15Z</time>
      </trkpt>
      <trkpt lat="44.96327" lon="6.7906">
        <ele>1373.86</ele>
        <time>2024-08-12T08:33:16Z</time>
      </trkpt>
      <trkpt lat="44.96339" lon="6.79048">
        <ele>1377.23</ele>
        <time>2024-08-12T08:33:29Z</time>
      </trkpt>
      <trkpt lat="44.96346" lon="6.79041">
        <ele>1378.19</ele>
        <time>2024-08-12T08:33:44Z</time>
      </trkpt>
      <trkpt lat="44.96348" lon="6.79039">
        <ele>1378.67</ele>
        <time>2024-08-12T08:34:07Z</time>
      </trkpt>
      <trkpt lat="44.96346" lon="6.7904">
        <ele>1378.67</ele>
        <time>2024-08-12T08:34:43Z</time>
      </trkpt>
      <trkpt lat="44.96347" lon="6.7904">
        <ele>1378.67</ele>
        <time>2024-08-12T08:35:19Z</time>
      </trkpt>
      <trkpt lat="44.96353" lon="6.79032">
        <ele>1380.59</ele>
        <time>2024-08-12T08:35:32Z</time>
      </trkpt>
      <trkpt lat="44.96356" lon="6.79028">
        <ele>1382.03</ele>
        <time>2024-08-12T08:35:39Z</time>
      </trkpt>
      <trkpt lat="44.96362" lon="6.79012">
        <ele>1385.4</ele>
        <time>2024-08-12T08:35:53Z</time>
      </trkpt>
      <trkpt lat="44.9637" lon="6.79001">
        <ele>1387.8</ele>
        <time>2024-08-12T08:36:07Z</time>
      </trkpt>
      <trkpt lat="44.96377" lon="6.78986">
        <ele>1390.68</ele>
        <time>2024-08-12T08:36:23Z</time>
      </trkpt>
      <trkpt lat="44.96385" lon="6.78982">
        <ele>1394.05</ele>
        <time>2024-08-12T08:36:38Z</time>
      </trkpt>
      <trkpt lat="44.96395" lon="6.78981">
        <ele>1395.49</ele>
        <time>2024-08-12T08:36:52Z</time>
      </trkpt>
      <trkpt lat="44.96396" lon="6.7898">
        <ele>1395.49</ele>
        <time>2024-08-12T08:36:53Z</time>
      </trkpt>
      <trkpt lat="44.96399" lon="6.7898">
        <ele>1395.49</ele>
        <time>2024-08-12T08:36:54Z</time>
      </trkpt>
      <trkpt lat="44.96402" lon="6.7898">
        <ele>1394.53</ele>
        <time>2024-08-12T08:36:55Z</time>
      </trkpt>
      <trkpt lat="44.96406" lon="6.7898">
        <ele>1394.05</ele>
        <time>2024-08-12T08:36:56Z</time>
      </trkpt>
      <trkpt lat="44.96411" lon="6.7898">
        <ele>1393.09</ele>
        <time>2024-08-12T08:36:57Z</time>
      </trkpt>
      <trkpt lat="44.96416" lon="6.78982">
        <ele>1392.61</ele>
        <time>2024-08-12T08:36:58Z</time>
      </trkpt>
      <trkpt lat="44.9647" lon="6.79011">
        <ele>1391.17</ele>
        <time>2024-08-12T08:37:11Z</time>
      </trkpt>
      <trkpt lat="44.9649" lon="6.79011">
        <ele>1389.24</ele>
        <time>2024-08-12T08:37:22Z</time>
      </trkpt>
      <trkpt lat="44.9649" lon="6.79009">
        <ele>1389.24</ele>
        <time>2024-08-12T08:37:23Z</time>
      </trkpt>
      <trkpt lat="44.96492" lon="6.79006">
        <ele>1388.76</ele>
        <time>2024-08-12T08:37:24Z</time>
      </trkpt>
      <trkpt lat="44.96494" lon="6.79004">
        <ele>1387.8</ele>
        <time>2024-08-12T08:37:25Z</time>
      </trkpt>
      <trkpt lat="44.96496" lon="6.79001">
        <ele>1387.32</ele>
        <time>2024-08-12T08:37:26Z</time>
      </trkpt>
      <trkpt lat="44.96499" lon="6.79">
        <ele>1386.36</ele>
        <time>2024-08-12T08:37:27Z</time>
      </trkpt>
      <trkpt lat="44.96503" lon="6.78999">
        <ele>1385.88</ele>
        <time>2024-08-12T08:37:28Z</time>
      </trkpt>
      <trkpt lat="44.96507" lon="6.78999">
        <ele>1385.4</ele>
        <time>2024-08-12T08:37:29Z</time>
      </trkpt>
      <trkpt lat="44.96514" lon="6.78998">
        <ele>1385.4</ele>
        <time>2024-08-12T08:37:30Z</time>
      </trkpt>
      <trkpt lat="44.96519" lon="6.78996">
        <ele>1384.44</ele>
        <time>2024-08-12T08:37:31Z</time>
      </trkpt>
      <trkpt lat="44.96526" lon="6.78996">
        <ele>1384.44</ele>
        <time>2024-08-12T08:37:32Z</time>
      </trkpt>
      <trkpt lat="44.96533" lon="6.78996">
        <ele>1383.96</ele>
        <time>2024-08-12T08:37:33Z</time>
      </trkpt>
      <trkpt lat="44.96536" lon="6.78996">
        <ele>1384.44</ele>
        <time>2024-08-12T08:37:34Z</time>
      </trkpt>
      <trkpt lat="44.96541" lon="6.78999">
        <ele>1384.44</ele>
        <time>2024-08-12T08:37:35Z</time>
      </trkpt>
      <trkpt lat="44.96544" lon="6.79003">
        <ele>1383.47</ele>
        <time>2024-08-12T08:37:36Z</time>
      </trkpt>
      <trkpt lat="44.96547" lon="6.79007">
        <ele>1382.51</ele>
        <time>2024-08-12T08:37:37Z</time>
      </trkpt>
      <trkpt lat="44.96549" lon="6.7901">
        <ele>1381.55</ele>
        <time>2024-08-12T08:37:38Z</time>
      </trkpt>
      <trkpt lat="44.96551" lon="6.79014">
        <ele>1380.59</ele>
        <time>2024-08-12T08:37:39Z</time>
      </trkpt>
      <trkpt lat="44.96552" lon="6.79016">
        <ele>1380.11</ele>
        <time>2024-08-12T08:37:40Z</time>
      </trkpt>
      <trkpt lat="44.96553" lon="6.79018">
        <ele>1379.15</ele>
        <time>2024-08-12T08:37:41Z</time>
      </trkpt>
      <trkpt lat="44.96555" lon="6.79017">
        <ele>1378.67</ele>
        <time>2024-08-12T08:37:42Z</time>
      </trkpt>
      <trkpt lat="44.96558" lon="6.79013">
        <ele>1376.75</ele>
        <time>2024-08-12T08:37:43Z</time>
      </trkpt>
      <trkpt lat="44.9656" lon="6.79007">
        <ele>1375.78</ele>
        <time>2024-08-12T08:37:44Z</time>
      </trkpt>
      <trkpt lat="44.96562" lon="6.79002">
        <ele>1375.78</ele>
        <time>2024-08-12T08:37:45Z</time>
      </trkpt>
      <trkpt lat="44.96564" lon="6.79">
        <ele>1375.78</ele>
        <time>2024-08-12T08:37:46Z</time>
      </trkpt>
      <trkpt lat="44.96566" lon="6.78998">
        <ele>1375.78</ele>
        <time>2024-08-12T08:37:47Z</time>
      </trkpt>
      <trkpt lat="44.96568" lon="6.78996">
        <ele>1375.78</ele>
        <time>2024-08-12T08:37:48Z</time>
      </trkpt>
      <trkpt lat="44.9657" lon="6.78994">
        <ele>1375.78</ele>
        <time>2024-08-12T08:37:49Z</time>
      </trkpt>
      <trkpt lat="44.96571" lon="6.78992">
        <ele>1375.78</ele>
        <time>2024-08-12T08:37:50Z</time>
      </trkpt>
      <trkpt lat="44.96572" lon="6.78991">
        <ele>1375.78</ele>
        <time>2024-08-12T08:37:51Z</time>
      </trkpt>
      <trkpt lat="44.96573" lon="6.78988">
        <ele>1375.78</ele>
        <time>2024-08-12T08:37:53Z</time>
      </trkpt>
      <trkpt lat="44.96573" lon="6.78985">
        <ele>1375.78</ele>
        <time>2024-08-12T08:37:54Z</time>
      </trkpt>
      <trkpt lat="44.96573" lon="6.78983">
        <ele>1375.78</ele>
        <time>2024-08-12T08:37:55Z</time>
      </trkpt>
      <trkpt lat="44.96573" lon="6.78981">
        <ele>1377.23</ele>
        <time>2024-08-12T08:37:56Z</time>
      </trkpt>
      <trkpt lat="44.96573" lon="6.78979">
        <ele>1377.71</ele>
        <time>2024-08-12T08:37:57Z</time>
      </trkpt>
      <trkpt lat="44.96574" lon="6.78977">
        <ele>1378.19</ele>
        <time>2024-08-12T08:37:58Z</time>
      </trkpt>
      <trkpt lat="44.96576" lon="6.78977">
        <ele>1378.67</ele>
        <time>2024-08-12T08:37:59Z</time>
      </trkpt>
      <trkpt lat="44.96577" lon="6.78976">
        <ele>1379.63</ele>
        <time>2024-08-12T08:38:00Z</time>
      </trkpt>
      <trkpt lat="44.96578" lon="6.78977">
        <ele>1380.59</ele>
        <time>2024-08-12T08:38:01Z</time>
      </trkpt>
      <trkpt lat="44.9658" lon="6.78977">
        <ele>1381.07</ele>
        <time>2024-08-12T08:38:02Z</time>
      </trkpt>
      <trkpt lat="44.96581" lon="6.78978">
        <ele>1381.55</ele>
        <time>2024-08-12T08:38:03Z</time>
      </trkpt>
      <trkpt lat="44.96582" lon="6.78979">
        <ele>1381.55</ele>
        <time>2024-08-12T08:38:04Z</time>
      </trkpt>
      <trkpt lat="44.96583" lon="6.78981">
        <ele>1382.99</ele>
        <time>2024-08-12T08:38:05Z</time>
      </trkpt>
      <trkpt lat="44.96584" lon="6.78982">
        <ele>1382.99</ele>
        <time>2024-08-12T08:38:06Z</time>
      </trkpt>
      <trkpt lat="44.96588" lon="6.78985">
        <ele>1384.44</ele>
        <time>2024-08-12T08:38:09Z</time>
      </trkpt>
      <trkpt lat="44.9659" lon="6.78985">
        <ele>1384.44</ele>
        <time>2024-08-12T08:38:10Z</time>
      </trkpt>
      <trkpt lat="44.96591" lon="6.78986">
        <ele>1384.44</ele>
        <time>2024-08-12T08:38:11Z</time>
      </trkpt>
      <trkpt lat="44.96601" lon="6.78997">
        <ele>1382.99</ele>
        <time>2024-08-12T08:38:17Z</time>
      </trkpt>
      <trkpt lat="44.96602" lon="6.78999">
        <ele>1382.51</ele>
        <time>2024-08-12T08:38:18Z</time>
      </trkpt>
      <trkpt lat="44.96602" lon="6.79002">
        <ele>1382.51</ele>
        <time>2024-08-12T08:38:19Z</time>
      </trkpt>
      <trkpt lat="44.96607" lon="6.79028">
        <ele>1379.63</ele>
        <time>2024-08-12T08:38:25Z</time>
      </trkpt>
      <trkpt lat="44.96614" lon="6.79052">
        <ele>1375.78</ele>
        <time>2024-08-12T08:38:29Z</time>
      </trkpt>
      <trkpt lat="44.96617" lon="6.79062">
        <ele>1374.34</ele>
        <time>2024-08-12T08:38:31Z</time>
      </trkpt>
      <trkpt lat="44.96621" lon="6.79068">
        <ele>1373.86</ele>
        <time>2024-08-12T08:38:32Z</time>
      </trkpt>
      <trkpt lat="44.9663" lon="6.79084">
        <ele>1370.5</ele>
        <time>2024-08-12T08:38:35Z</time>
      </trkpt>
      <trkpt lat="44.96633" lon="6.79089">
        <ele>1369.05</ele>
        <time>2024-08-12T08:38:36Z</time>
      </trkpt>
      <trkpt lat="44.96634" lon="6.79097">
        <ele>1368.57</ele>
        <time>2024-08-12T08:38:37Z</time>
      </trkpt>
      <trkpt lat="44.96634" lon="6.79104">
        <ele>1366.65</ele>
        <time>2024-08-12T08:38:38Z</time>
      </trkpt>
      <trkpt lat="44.96637" lon="6.79112">
        <ele>1365.69</ele>
        <time>2024-08-12T08:38:39Z</time>
      </trkpt>
      <trkpt lat="44.9664" lon="6.79118">
        <ele>1364.73</ele>
        <time>2024-08-12T08:38:40Z</time>
      </trkpt>
      <trkpt lat="44.96642" lon="6.79125">
        <ele>1363.29</ele>
        <time>2024-08-12T08:38:41Z</time>
      </trkpt>
      <trkpt lat="44.96644" lon="6.79131">
        <ele>1362.33</ele>
        <time>2024-08-12T08:38:42Z</time>
      </trkpt>
      <trkpt lat="44.96645" lon="6.79136">
        <ele>1361.36</ele>
        <time>2024-08-12T08:38:43Z</time>
      </trkpt>
      <trkpt lat="44.96645" lon="6.79141">
        <ele>1360.4</ele>
        <time>2024-08-12T08:38:44Z</time>
      </trkpt>
      <trkpt lat="44.96646" lon="6.79146">
        <ele>1359.92</ele>
        <time>2024-08-12T08:38:45Z</time>
      </trkpt>
      <trkpt lat="44.96648" lon="6.79152">
        <ele>1359.44</ele>
        <time>2024-08-12T08:38:46Z</time>
      </trkpt>
      <trkpt lat="44.96652" lon="6.7916">
        <ele>1358.48</ele>
        <time>2024-08-12T08:38:47Z</time>
      </trkpt>
      <trkpt lat="44.96656" lon="6.79167">
        <ele>1358</ele>
        <time>2024-08-12T08:38:48Z</time>
      </trkpt>
      <trkpt lat="44.96662" lon="6.79177">
        <ele>1356.56</ele>
        <time>2024-08-12T08:38:50Z</time>
      </trkpt>
      <trkpt lat="44.9667" lon="6.79189">
        <ele>1356.08</ele>
        <time>2024-08-12T08:38:51Z</time>
      </trkpt>
      <trkpt lat="44.96675" lon="6.79198">
        <ele>1354.63</ele>
        <time>2024-08-12T08:38:52Z</time>
      </trkpt>
      <trkpt lat="44.96678" lon="6.79205">
        <ele>1354.63</ele>
        <time>2024-08-12T08:38:53Z</time>
      </trkpt>
      <trkpt lat="44.96681" lon="6.79212">
        <ele>1354.63</ele>
        <time>2024-08-12T08:38:54Z</time>
      </trkpt>
      <trkpt lat="44.96682" lon="6.79217">
        <ele>1356.56</ele>
        <time>2024-08-12T08:38:55Z</time>
      </trkpt>
      <trkpt lat="44.96683" lon="6.79219">
        <ele>1356.08</ele>
        <time>2024-08-12T08:38:56Z</time>
      </trkpt>
      <trkpt lat="44.96686" lon="6.79229">
        <ele>1357.52</ele>
        <time>2024-08-12T08:39:08Z</time>
      </trkpt>
      <trkpt lat="44.96689" lon="6.79235">
        <ele>1357.52</ele>
        <time>2024-08-12T08:39:21Z</time>
      </trkpt>
      <trkpt lat="44.9669" lon="6.79238">
        <ele>1357.52</ele>
        <time>2024-08-12T08:39:34Z</time>
      </trkpt>
      <trkpt lat="44.96692" lon="6.79239">
        <ele>1357.52</ele>
        <time>2024-08-12T08:39:35Z</time>
      </trkpt>
      <trkpt lat="44.96694" lon="6.79239">
        <ele>1357.52</ele>
        <time>2024-08-12T08:39:47Z</time>
      </trkpt>
      <trkpt lat="44.96699" lon="6.79244">
        <ele>1357.04</ele>
        <time>2024-08-12T08:40:09Z</time>
      </trkpt>
      <trkpt lat="44.96708" lon="6.79242">
        <ele>1355.12</ele>
        <time>2024-08-12T08:40:13Z</time>
      </trkpt>
      <trkpt lat="44.9671" lon="6.7924">
        <ele>1354.15</ele>
        <time>2024-08-12T08:40:16Z</time>
      </trkpt>
      <trkpt lat="44.96712" lon="6.79239">
        <ele>1353.67</ele>
        <time>2024-08-12T08:40:17Z</time>
      </trkpt>
      <trkpt lat="44.96713" lon="6.79238">
        <ele>1353.67</ele>
        <time>2024-08-12T08:40:18Z</time>
      </trkpt>
      <trkpt lat="44.96714" lon="6.79236">
        <ele>1353.67</ele>
        <time>2024-08-12T08:40:19Z</time>
      </trkpt>
      <trkpt lat="44.96715" lon="6.79234">
        <ele>1353.19</ele>
        <time>2024-08-12T08:40:20Z</time>
      </trkpt>
      <trkpt lat="44.96717" lon="6.79231">
        <ele>1352.71</ele>
        <time>2024-08-12T08:40:21Z</time>
      </trkpt>
      <trkpt lat="44.96738" lon="6.79186">
        <ele>1349.35</ele>
        <time>2024-08-12T08:40:32Z</time>
      </trkpt>
      <trkpt lat="44.96744" lon="6.79181">
        <ele>1348.39</ele>
        <time>2024-08-12T08:40:33Z</time>
      </trkpt>
      <trkpt lat="44.96751" lon="6.79178">
        <ele>1346.94</ele>
        <time>2024-08-12T08:40:34Z</time>
      </trkpt>
      <trkpt lat="44.96758" lon="6.79177">
        <ele>1346.46</ele>
        <time>2024-08-12T08:40:35Z</time>
      </trkpt>
      <trkpt lat="44.96766" lon="6.79178">
        <ele>1345.98</ele>
        <time>2024-08-12T08:40:36Z</time>
      </trkpt>
      <trkpt lat="44.96772" lon="6.79181">
        <ele>1345.98</ele>
        <time>2024-08-12T08:40:37Z</time>
      </trkpt>
      <trkpt lat="44.9678" lon="6.79185">
        <ele>1345.98</ele>
        <time>2024-08-12T08:40:38Z</time>
      </trkpt>
      <trkpt lat="44.96786" lon="6.79189">
        <ele>1345.5</ele>
        <time>2024-08-12T08:40:39Z</time>
      </trkpt>
      <trkpt lat="44.96791" lon="6.79193">
        <ele>1345.5</ele>
        <time>2024-08-12T08:40:40Z</time>
      </trkpt>
      <trkpt lat="44.96798" lon="6.79196">
        <ele>1345.02</ele>
        <time>2024-08-12T08:40:41Z</time>
      </trkpt>
      <trkpt lat="44.96812" lon="6.79205">
        <ele>1344.54</ele>
        <time>2024-08-12T08:40:43Z</time>
      </trkpt>
      <trkpt lat="44.96823" lon="6.79214">
        <ele>1344.54</ele>
        <time>2024-08-12T08:40:45Z</time>
      </trkpt>
      <trkpt lat="44.96825" lon="6.79217">
        <ele>1344.54</ele>
        <time>2024-08-12T08:40:46Z</time>
      </trkpt>
      <trkpt lat="44.96828" lon="6.7922">
        <ele>1344.54</ele>
        <time>2024-08-12T08:40:47Z</time>
      </trkpt>
      <trkpt lat="44.9683" lon="6.79225">
        <ele>1344.06</ele>
        <time>2024-08-12T08:40:48Z</time>
      </trkpt>
      <trkpt lat="44.96833" lon="6.7923">
        <ele>1343.58</ele>
        <time>2024-08-12T08:40:49Z</time>
      </trkpt>
      <trkpt lat="44.96837" lon="6.79233">
        <ele>1342.62</ele>
        <time>2024-08-12T08:40:51Z</time>
      </trkpt>
      <trkpt lat="44.96842" lon="6.79237">
        <ele>1342.14</ele>
        <time>2024-08-12T08:41:00Z</time>
      </trkpt>
      <trkpt lat="44.96849" lon="6.79248">
        <ele>1342.14</ele>
        <time>2024-08-12T08:41:03Z</time>
      </trkpt>
      <trkpt lat="44.96859" lon="6.79271">
        <ele>1338.77</ele>
        <time>2024-08-12T08:41:07Z</time>
      </trkpt>
      <trkpt lat="44.96866" lon="6.79287">
        <ele>1336.37</ele>
        <time>2024-08-12T08:41:10Z</time>
      </trkpt>
      <trkpt lat="44.9687" lon="6.79292">
        <ele>1334.93</ele>
        <time>2024-08-12T08:41:11Z</time>
      </trkpt>
      <trkpt lat="44.96873" lon="6.79295">
        <ele>1333.49</ele>
        <time>2024-08-12T08:41:12Z</time>
      </trkpt>
      <trkpt lat="44.96876" lon="6.79298">
        <ele>1332.04</ele>
        <time>2024-08-12T08:41:13Z</time>
      </trkpt>
      <trkpt lat="44.96877" lon="6.79301">
        <ele>1331.08</ele>
        <time>2024-08-12T08:41:14Z</time>
      </trkpt>
      <trkpt lat="44.96874" lon="6.79303">
        <ele>1330.12</ele>
        <time>2024-08-12T08:41:15Z</time>
      </trkpt>
      <trkpt lat="44.96871" lon="6.79304">
        <ele>1329.64</ele>
        <time>2024-08-12T08:41:16Z</time>
      </trkpt>
      <trkpt lat="44.96866" lon="6.79302">
        <ele>1329.16</ele>
        <time>2024-08-12T08:41:17Z</time>
      </trkpt>
      <trkpt lat="44.96862" lon="6.79299">
        <ele>1328.2</ele>
        <time>2024-08-12T08:41:18Z</time>
      </trkpt>
      <trkpt lat="44.96856" lon="6.79295">
        <ele>1327.24</ele>
        <time>2024-08-12T08:41:19Z</time>
      </trkpt>
      <trkpt lat="44.96852" lon="6.7929">
        <ele>1326.76</ele>
        <time>2024-08-12T08:41:20Z</time>
      </trkpt>
      <trkpt lat="44.96832" lon="6.79272">
        <ele>1324.35</ele>
        <time>2024-08-12T08:41:24Z</time>
      </trkpt>
      <trkpt lat="44.96824" lon="6.79269">
        <ele>1324.35</ele>
        <time>2024-08-12T08:41:25Z</time>
      </trkpt>
      <trkpt lat="44.96784" lon="6.79282">
        <ele>1316.66</ele>
        <time>2024-08-12T08:41:31Z</time>
      </trkpt>
      <trkpt lat="44.96781" lon="6.79292">
        <ele>1316.18</ele>
        <time>2024-08-12T08:41:32Z</time>
      </trkpt>
      <trkpt lat="44.9678" lon="6.79305">
        <ele>1314.74</ele>
        <time>2024-08-12T08:41:33Z</time>
      </trkpt>
      <trkpt lat="44.96782" lon="6.79312">
        <ele>1313.78</ele>
        <time>2024-08-12T08:41:34Z</time>
      </trkpt>
      <trkpt lat="44.96786" lon="6.7932">
        <ele>1311.86</ele>
        <time>2024-08-12T08:41:35Z</time>
      </trkpt>
      <trkpt lat="44.96791" lon="6.79328">
        <ele>1309.45</ele>
        <time>2024-08-12T08:41:36Z</time>
      </trkpt>
      <trkpt lat="44.96799" lon="6.79339">
        <ele>1307.05</ele>
        <time>2024-08-12T08:41:38Z</time>
      </trkpt>
      <trkpt lat="44.96815" lon="6.79335">
        <ele>1302.72</ele>
        <time>2024-08-12T08:41:43Z</time>
      </trkpt>
      <trkpt lat="44.96821" lon="6.79335">
        <ele>1302.24</ele>
        <time>2024-08-12T08:41:47Z</time>
      </trkpt>
      <trkpt lat="44.9683" lon="6.79343">
        <ele>1302.24</ele>
        <time>2024-08-12T08:41:52Z</time>
      </trkpt>
      <trkpt lat="44.96851" lon="6.79353">
        <ele>1301.28</ele>
        <time>2024-08-12T08:42:02Z</time>
      </trkpt>
      <trkpt lat="44.96879" lon="6.79372">
        <ele>1300.8</ele>
        <time>2024-08-12T08:42:15Z</time>
      </trkpt>
      <trkpt lat="44.96882" lon="6.79376">
        <ele>1300.8</ele>
        <time>2024-08-12T08:42:16Z</time>
      </trkpt>
      <trkpt lat="44.96884" lon="6.79379">
        <ele>1300.8</ele>
        <time>2024-08-12T08:42:17Z</time>
      </trkpt>
      <trkpt lat="44.96887" lon="6.79381">
        <ele>1300.32</ele>
        <time>2024-08-12T08:42:18Z</time>
      </trkpt>
      <trkpt lat="44.96889" lon="6.79384">
        <ele>1300.32</ele>
        <time>2024-08-12T08:42:19Z</time>
      </trkpt>
      <trkpt lat="44.969" lon="6.79399">
        <ele>1299.84</ele>
        <time>2024-08-12T08:42:24Z</time>
      </trkpt>
      <trkpt lat="44.96917" lon="6.79424">
        <ele>1299.84</ele>
        <time>2024-08-12T08:42:32Z</time>
      </trkpt>
      <trkpt lat="44.9692" lon="6.79425">
        <ele>1299.84</ele>
        <time>2024-08-12T08:42:33Z</time>
      </trkpt>
      <trkpt lat="44.96923" lon="6.79426">
        <ele>1299.84</ele>
        <time>2024-08-12T08:42:34Z</time>
      </trkpt>
      <trkpt lat="44.96926" lon="6.79427">
        <ele>1299.84</ele>
        <time>2024-08-12T08:42:35Z</time>
      </trkpt>
      <trkpt lat="44.96928" lon="6.79427">
        <ele>1299.84</ele>
        <time>2024-08-12T08:42:36Z</time>
      </trkpt>
      <trkpt lat="44.96931" lon="6.79429">
        <ele>1301.28</ele>
        <time>2024-08-12T08:42:37Z</time>
      </trkpt>
      <trkpt lat="44.96934" lon="6.79431">
        <ele>1301.28</ele>
        <time>2024-08-12T08:42:39Z</time>
      </trkpt>
      <trkpt lat="44.96952" lon="6.79448">
        <ele>1299.36</ele>
        <time>2024-08-12T08:42:43Z</time>
      </trkpt>
      <trkpt lat="44.96957" lon="6.79453">
        <ele>1299.36</ele>
        <time>2024-08-12T08:42:44Z</time>
      </trkpt>
      <trkpt lat="44.96964" lon="6.79461">
        <ele>1298.4</ele>
        <time>2024-08-12T08:42:45Z</time>
      </trkpt>
      <trkpt lat="44.96969" lon="6.79466">
        <ele>1298.4</ele>
        <time>2024-08-12T08:42:46Z</time>
      </trkpt>
      <trkpt lat="44.96975" lon="6.79471">
        <ele>1297.44</ele>
        <time>2024-08-12T08:42:47Z</time>
      </trkpt>
      <trkpt lat="44.96985" lon="6.79476">
        <ele>1296.96</ele>
        <time>2024-08-12T08:42:49Z</time>
      </trkpt>
      <trkpt lat="44.96992" lon="6.79478">
        <ele>1296.96</ele>
        <time>2024-08-12T08:42:50Z</time>
      </trkpt>
      <trkpt lat="44.97002" lon="6.79479">
        <ele>1296.48</ele>
        <time>2024-08-12T08:42:51Z</time>
      </trkpt>
      <trkpt lat="44.97012" lon="6.79475">
        <ele>1296.48</ele>
        <time>2024-08-12T08:42:53Z</time>
      </trkpt>
      <trkpt lat="44.97022" lon="6.79471">
        <ele>1295.99</ele>
        <time>2024-08-12T08:42:54Z</time>
      </trkpt>
      <trkpt lat="44.97036" lon="6.79466">
        <ele>1295.51</ele>
        <time>2024-08-12T08:42:56Z</time>
      </trkpt>
      <trkpt lat="44.9704" lon="6.79464">
        <ele>1295.03</ele>
        <time>2024-08-12T08:42:57Z</time>
      </trkpt>
      <trkpt lat="44.9707" lon="6.79448">
        <ele>1293.59</ele>
        <time>2024-08-12T08:43:02Z</time>
      </trkpt>
      <trkpt lat="44.97083" lon="6.79448">
        <ele>1293.11</ele>
        <time>2024-08-12T08:43:04Z</time>
      </trkpt>
      <trkpt lat="44.97087" lon="6.79448">
        <ele>1293.11</ele>
        <time>2024-08-12T08:43:05Z</time>
      </trkpt>
      <trkpt lat="44.97093" lon="6.7945">
        <ele>1293.11</ele>
        <time>2024-08-12T08:43:06Z</time>
      </trkpt>
      <trkpt lat="44.97099" lon="6.79453">
        <ele>1293.11</ele>
        <time>2024-08-12T08:43:07Z</time>
      </trkpt>
      <trkpt lat="44.97105" lon="6.79459">
        <ele>1292.63</ele>
        <time>2024-08-12T08:43:08Z</time>
      </trkpt>
      <trkpt lat="44.97108" lon="6.79462">
        <ele>1292.63</ele>
        <time>2024-08-12T08:43:09Z</time>
      </trkpt>
      <trkpt lat="44.97112" lon="6.79467">
        <ele>1292.63</ele>
        <time>2024-08-12T08:43:10Z</time>
      </trkpt>
      <trkpt lat="44.97115" lon="6.79471">
        <ele>1292.63</ele>
        <time>2024-08-12T08:43:11Z</time>
      </trkpt>
      <trkpt lat="44.97119" lon="6.79476">
        <ele>1292.63</ele>
        <time>2024-08-12T08:43:12Z</time>
      </trkpt>
      <trkpt lat="44.97123" lon="6.7948">
        <ele>1292.15</ele>
        <time>2024-08-12T08:43:13Z</time>
      </trkpt>
      <trkpt lat="44.97127" lon="6.79484">
        <ele>1292.15</ele>
        <time>2024-08-12T08:43:14Z</time>
      </trkpt>
      <trkpt lat="44.97132" lon="6.79487">
        <ele>1291.67</ele>
        <time>2024-08-12T08:43:15Z</time>
      </trkpt>
      <trkpt lat="44.97138" lon="6.79492">
        <ele>1291.67</ele>
        <time>2024-08-12T08:43:16Z</time>
      </trkpt>
      <trkpt lat="44.97141" lon="6.79494">
        <ele>1291.67</ele>
        <time>2024-08-12T08:43:17Z</time>
      </trkpt>
      <trkpt lat="44.97145" lon="6.79497">
        <ele>1291.67</ele>
        <time>2024-08-12T08:43:18Z</time>
      </trkpt>
      <trkpt lat="44.97149" lon="6.795">
        <ele>1291.67</ele>
        <time>2024-08-12T08:43:19Z</time>
      </trkpt>
      <trkpt lat="44.97153" lon="6.79502">
        <ele>1291.67</ele>
        <time>2024-08-12T08:43:20Z</time>
      </trkpt>
      <trkpt lat="44.97157" lon="6.79504">
        <ele>1291.67</ele>
        <time>2024-08-12T08:43:21Z</time>
      </trkpt>
      <trkpt lat="44.97163" lon="6.79504">
        <ele>1290.71</ele>
        <time>2024-08-12T08:43:22Z</time>
      </trkpt>
      <trkpt lat="44.97186" lon="6.79504">
        <ele>1289.75</ele>
        <time>2024-08-12T08:43:26Z</time>
      </trkpt>
      <trkpt lat="44.97192" lon="6.79505">
        <ele>1289.75</ele>
        <time>2024-08-12T08:43:27Z</time>
      </trkpt>
      <trkpt lat="44.97219" lon="6.79508">
        <ele>1288.78</ele>
        <time>2024-08-12T08:43:32Z</time>
      </trkpt>
      <trkpt lat="44.97223" lon="6.79507">
        <ele>1288.78</ele>
        <time>2024-08-12T08:43:33Z</time>
      </trkpt>
      <trkpt lat="44.97228" lon="6.79505">
        <ele>1288.78</ele>
        <time>2024-08-12T08:43:34Z</time>
      </trkpt>
      <trkpt lat="44.97233" lon="6.79503">
        <ele>1288.78</ele>
        <time>2024-08-12T08:43:35Z</time>
      </trkpt>
      <trkpt lat="44.97239" lon="6.79501">
        <ele>1288.3</ele>
        <time>2024-08-12T08:43:36Z</time>
      </trkpt>
      <trkpt lat="44.97244" lon="6.79502">
        <ele>1288.3</ele>
        <time>2024-08-12T08:43:37Z</time>
      </trkpt>
      <trkpt lat="44.9725" lon="6.79502">
        <ele>1288.3</ele>
        <time>2024-08-12T08:43:38Z</time>
      </trkpt>
      <trkpt lat="44.97259" lon="6.79502">
        <ele>1287.82</ele>
        <time>2024-08-12T08:43:39Z</time>
      </trkpt>
      <trkpt lat="44.97264" lon="6.79502">
        <ele>1287.82</ele>
        <time>2024-08-12T08:43:40Z</time>
      </trkpt>
      <trkpt lat="44.97272" lon="6.79503">
        <ele>1287.82</ele>
        <time>2024-08-12T08:43:41Z</time>
      </trkpt>
      <trkpt lat="44.97275" lon="6.79504">
        <ele>1287.82</ele>
        <time>2024-08-12T08:43:42Z</time>
      </trkpt>
      <trkpt lat="44.97281" lon="6.79504">
        <ele>1287.34</ele>
        <time>2024-08-12T08:43:43Z</time>
      </trkpt>
      <trkpt lat="44.97286" lon="6.79504">
        <ele>1287.34</ele>
        <time>2024-08-12T08:43:44Z</time>
      </trkpt>
      <trkpt lat="44.97292" lon="6.79505">
        <ele>1287.34</ele>
        <time>2024-08-12T08:43:45Z</time>
      </trkpt>
      <trkpt lat="44.97297" lon="6.79506">
        <ele>1287.34</ele>
        <time>2024-08-12T08:43:46Z</time>
      </trkpt>
      <trkpt lat="44.973" lon="6.79508">
        <ele>1287.34</ele>
        <time>2024-08-12T08:43:47Z</time>
      </trkpt>
      <trkpt lat="44.97304" lon="6.79512">
        <ele>1287.34</ele>
        <time>2024-08-12T08:43:48Z</time>
      </trkpt>
      <trkpt lat="44.97309" lon="6.79516">
        <ele>1287.34</ele>
        <time>2024-08-12T08:43:49Z</time>
      </trkpt>
      <trkpt lat="44.97313" lon="6.79521">
        <ele>1286.86</ele>
        <time>2024-08-12T08:43:50Z</time>
      </trkpt>
      <trkpt lat="44.97329" lon="6.79534">
        <ele>1285.9</ele>
        <time>2024-08-12T08:43:53Z</time>
      </trkpt>
      <trkpt lat="44.97334" lon="6.79537">
        <ele>1285.9</ele>
        <time>2024-08-12T08:43:54Z</time>
      </trkpt>
      <trkpt lat="44.97372" lon="6.79566">
        <ele>1284.46</ele>
        <time>2024-08-12T08:44:02Z</time>
      </trkpt>
      <trkpt lat="44.97377" lon="6.79571">
        <ele>1284.94</ele>
        <time>2024-08-12T08:44:03Z</time>
      </trkpt>
      <trkpt lat="44.9738" lon="6.79575">
        <ele>1284.94</ele>
        <time>2024-08-12T08:44:04Z</time>
      </trkpt>
      <trkpt lat="44.97384" lon="6.79582">
        <ele>1284.94</ele>
        <time>2024-08-12T08:44:05Z</time>
      </trkpt>
      <trkpt lat="44.97386" lon="6.79585">
        <ele>1284.94</ele>
        <time>2024-08-12T08:44:06Z</time>
      </trkpt>
      <trkpt lat="44.97388" lon="6.7959">
        <ele>1284.94</ele>
        <time>2024-08-12T08:44:07Z</time>
      </trkpt>
      <trkpt lat="44.97394" lon="6.79595">
        <ele>1285.9</ele>
        <time>2024-08-12T08:44:09Z</time>
      </trkpt>
      <trkpt lat="44.97398" lon="6.79596">
        <ele>1286.38</ele>
        <time>2024-08-12T08:44:11Z</time>
      </trkpt>
      <trkpt lat="44.974" lon="6.79596">
        <ele>1286.38</ele>
        <time>2024-08-12T08:44:12Z</time>
      </trkpt>
      <trkpt lat="44.97401" lon="6.79595">
        <ele>1286.38</ele>
        <time>2024-08-12T08:44:13Z</time>
      </trkpt>
      <trkpt lat="44.97403" lon="6.79594">
        <ele>1287.34</ele>
        <time>2024-08-12T08:44:14Z</time>
      </trkpt>
      <trkpt lat="44.97414" lon="6.79588">
        <ele>1289.75</ele>
        <time>2024-08-12T08:44:26Z</time>
      </trkpt>
      <trkpt lat="44.97426" lon="6.79588">
        <ele>1292.63</ele>
        <time>2024-08-12T08:44:37Z</time>
      </trkpt>
      <trkpt lat="44.97438" lon="6.79599">
        <ele>1294.55</ele>
        <time>2024-08-12T08:44:54Z</time>
      </trkpt>
      <trkpt lat="44.97444" lon="6.79606">
        <ele>1294.55</ele>
        <time>2024-08-12T08:45:05Z</time>
      </trkpt>
      <trkpt lat="44.97445" lon="6.79607">
        <ele>1295.03</ele>
        <time>2024-08-12T08:45:06Z</time>
      </trkpt>
      <trkpt lat="44.97456" lon="6.7961">
        <ele>1295.99</ele>
        <time>2024-08-12T08:45:15Z</time>
      </trkpt>
      <trkpt lat="44.97466" lon="6.79609">
        <ele>1296.48</ele>
        <time>2024-08-12T08:45:22Z</time>
      </trkpt>
      <trkpt lat="44.97468" lon="6.7961">
        <ele>1296.48</ele>
        <time>2024-08-12T08:45:23Z</time>
      </trkpt>
      <trkpt lat="44.97471" lon="6.7961">
        <ele>1296.48</ele>
        <time>2024-08-12T08:45:24Z</time>
      </trkpt>
      <trkpt lat="44.9748" lon="6.79607">
        <ele>1296.48</ele>
        <time>2024-08-12T08:45:27Z</time>
      </trkpt>
      <trkpt lat="44.97487" lon="6.79605">
        <ele>1296.48</ele>
        <time>2024-08-12T08:45:30Z</time>
      </trkpt>
      <trkpt lat="44.97492" lon="6.79603">
        <ele>1296.48</ele>
        <time>2024-08-12T08:45:32Z</time>
      </trkpt>
      <trkpt lat="44.97494" lon="6.79603">
        <ele>1296.48</ele>
        <time>2024-08-12T08:45:33Z</time>
      </trkpt>
      <trkpt lat="44.97498" lon="6.79602">
        <ele>1296.48</ele>
        <time>2024-08-12T08:45:34Z</time>
      </trkpt>
      <trkpt lat="44.97503" lon="6.796">
        <ele>1296.48</ele>
        <time>2024-08-12T08:45:35Z</time>
      </trkpt>
      <trkpt lat="44.97509" lon="6.796">
        <ele>1294.55</ele>
        <time>2024-08-12T08:45:36Z</time>
      </trkpt>
      <trkpt lat="44.97515" lon="6.79602">
        <ele>1294.55</ele>
        <time>2024-08-12T08:45:37Z</time>
      </trkpt>
      <trkpt lat="44.97524" lon="6.79605">
        <ele>1294.55</ele>
        <time>2024-08-12T08:45:39Z</time>
      </trkpt>
      <trkpt lat="44.97527" lon="6.79607">
        <ele>1294.55</ele>
        <time>2024-08-12T08:45:40Z</time>
      </trkpt>
      <trkpt lat="44.97561" lon="6.7962">
        <ele>1299.36</ele>
        <time>2024-08-12T08:45:58Z</time>
      </trkpt>
      <trkpt lat="44.97568" lon="6.79621">
        <ele>1301.28</ele>
        <time>2024-08-12T08:46:12Z</time>
      </trkpt>
      <trkpt lat="44.97576" lon="6.79622">
        <ele>1304.65</ele>
        <time>2024-08-12T08:46:27Z</time>
      </trkpt>
      <trkpt lat="44.97584" lon="6.79625">
        <ele>1307.53</ele>
        <time>2024-08-12T08:46:42Z</time>
      </trkpt>
      <trkpt lat="44.97593" lon="6.79623">
        <ele>1309.93</ele>
        <time>2024-08-12T08:46:56Z</time>
      </trkpt>
      <trkpt lat="44.97597" lon="6.79621">
        <ele>1309.93</ele>
        <time>2024-08-12T08:47:01Z</time>
      </trkpt>
      <trkpt lat="44.97604" lon="6.79619">
        <ele>1309.93</ele>
        <time>2024-08-12T08:47:05Z</time>
      </trkpt>
      <trkpt lat="44.97606" lon="6.79619">
        <ele>1309.93</ele>
        <time>2024-08-12T08:47:06Z</time>
      </trkpt>
      <trkpt lat="44.9768" lon="6.7959">
        <ele>1312.34</ele>
        <time>2024-08-12T08:47:42Z</time>
      </trkpt>
      <trkpt lat="44.97682" lon="6.7959">
        <ele>1312.34</ele>
        <time>2024-08-12T08:47:43Z</time>
      </trkpt>
      <trkpt lat="44.97686" lon="6.79593">
        <ele>1313.3</ele>
        <time>2024-08-12T08:47:46Z</time>
      </trkpt>
      <trkpt lat="44.97688" lon="6.79595">
        <ele>1313.3</ele>
        <time>2024-08-12T08:47:48Z</time>
      </trkpt>
      <trkpt lat="44.97689" lon="6.79597">
        <ele>1314.26</ele>
        <time>2024-08-12T08:47:49Z</time>
      </trkpt>
      <trkpt lat="44.97691" lon="6.79601">
        <ele>1314.74</ele>
        <time>2024-08-12T08:47:52Z</time>
      </trkpt>
      <trkpt lat="44.97692" lon="6.79604">
        <ele>1315.22</ele>
        <time>2024-08-12T08:47:53Z</time>
      </trkpt>
      <trkpt lat="44.97693" lon="6.79605">
        <ele>1315.22</ele>
        <time>2024-08-12T08:47:54Z</time>
      </trkpt>
      <trkpt lat="44.97716" lon="6.79651">
        <ele>1317.62</ele>
        <time>2024-08-12T08:48:18Z</time>
      </trkpt>
      <trkpt lat="44.97778" lon="6.79657">
        <ele>1321.47</ele>
        <time>2024-08-12T08:48:47Z</time>
      </trkpt>
      <trkpt lat="44.97779" lon="6.79658">
        <ele>1321.47</ele>
        <time>2024-08-12T08:48:48Z</time>
      </trkpt>
      <trkpt lat="44.97781" lon="6.79658">
        <ele>1321.47</ele>
        <time>2024-08-12T08:48:49Z</time>
      </trkpt>
      <trkpt lat="44.97785" lon="6.79659">
        <ele>1320.03</ele>
        <time>2024-08-12T08:48:58Z</time>
      </trkpt>
      <trkpt lat="44.97872" lon="6.79775">
        <ele>1319.07</ele>
        <time>2024-08-12T08:49:57Z</time>
      </trkpt>
      <trkpt lat="44.97873" lon="6.79779">
        <ele>1319.07</ele>
        <time>2024-08-12T08:49:58Z</time>
      </trkpt>
      <trkpt lat="44.97877" lon="6.79794">
        <ele>1318.59</ele>
        <time>2024-08-12T08:50:01Z</time>
      </trkpt>
      <trkpt lat="44.97881" lon="6.79799">
        <ele>1318.59</ele>
        <time>2024-08-12T08:50:02Z</time>
      </trkpt>
      <trkpt lat="44.97884" lon="6.79804">
        <ele>1320.03</ele>
        <time>2024-08-12T08:50:03Z</time>
      </trkpt>
      <trkpt lat="44.97893" lon="6.79817">
        <ele>1321.47</ele>
        <time>2024-08-12T08:50:07Z</time>
      </trkpt>
      <trkpt lat="44.97916" lon="6.79865">
        <ele>1320.51</ele>
        <time>2024-08-12T08:50:18Z</time>
      </trkpt>
      <trkpt lat="44.97925" lon="6.7988">
        <ele>1321.47</ele>
        <time>2024-08-12T08:50:22Z</time>
      </trkpt>
      <trkpt lat="44.97937" lon="6.79895">
        <ele>1321.47</ele>
        <time>2024-08-12T08:50:26Z</time>
      </trkpt>
      <trkpt lat="44.97966" lon="6.79921">
        <ele>1321.47</ele>
        <time>2024-08-12T08:50:34Z</time>
      </trkpt>
      <trkpt lat="44.97969" lon="6.79924">
        <ele>1321.47</ele>
        <time>2024-08-12T08:50:35Z</time>
      </trkpt>
      <trkpt lat="44.97982" lon="6.79929">
        <ele>1321.47</ele>
        <time>2024-08-12T08:50:38Z</time>
      </trkpt>
      <trkpt lat="44.97985" lon="6.79929">
        <ele>1321.95</ele>
        <time>2024-08-12T08:50:39Z</time>
      </trkpt>
      <trkpt lat="44.97988" lon="6.79929">
        <ele>1321.95</ele>
        <time>2024-08-12T08:50:40Z</time>
      </trkpt>
      <trkpt lat="44.9799" lon="6.79929">
        <ele>1321.95</ele>
        <time>2024-08-12T08:50:41Z</time>
      </trkpt>
      <trkpt lat="44.97992" lon="6.79928">
        <ele>1322.43</ele>
        <time>2024-08-12T08:50:42Z</time>
      </trkpt>
      <trkpt lat="44.97996" lon="6.79927">
        <ele>1322.91</ele>
        <time>2024-08-12T08:50:44Z</time>
      </trkpt>
      <trkpt lat="44.97999" lon="6.79925">
        <ele>1323.39</ele>
        <time>2024-08-12T08:50:45Z</time>
      </trkpt>
      <trkpt lat="44.98006" lon="6.79916">
        <ele>1322.43</ele>
        <time>2024-08-12T08:50:54Z</time>
      </trkpt>
      <trkpt lat="44.98007" lon="6.79916">
        <ele>1321.95</ele>
        <time>2024-08-12T08:51:21Z</time>
      </trkpt>
      <trkpt lat="44.98011" lon="6.79913">
        <ele>1321.47</ele>
        <time>2024-08-12T08:51:42Z</time>
      </trkpt>
      <trkpt lat="44.98012" lon="6.79913">
        <ele>1320.99</ele>
        <time>2024-08-12T08:51:43Z</time>
      </trkpt>
      <trkpt lat="44.98014" lon="6.79912">
        <ele>1320.51</ele>
        <time>2024-08-12T08:51:44Z</time>
      </trkpt>
      <trkpt lat="44.98015" lon="6.79911">
        <ele>1320.51</ele>
        <time>2024-08-12T08:51:45Z</time>
      </trkpt>
      <trkpt lat="44.98017" lon="6.7991">
        <ele>1320.03</ele>
        <time>2024-08-12T08:51:46Z</time>
      </trkpt>
      <trkpt lat="44.9802" lon="6.79907">
        <ele>1319.55</ele>
        <time>2024-08-12T08:51:47Z</time>
      </trkpt>
      <trkpt lat="44.98023" lon="6.79904">
        <ele>1318.59</ele>
        <time>2024-08-12T08:51:48Z</time>
      </trkpt>
      <trkpt lat="44.98025" lon="6.79901">
        <ele>1318.1</ele>
        <time>2024-08-12T08:51:49Z</time>
      </trkpt>
      <trkpt lat="44.98028" lon="6.79897">
        <ele>1317.14</ele>
        <time>2024-08-12T08:51:50Z</time>
      </trkpt>
      <trkpt lat="44.98031" lon="6.79894">
        <ele>1316.66</ele>
        <time>2024-08-12T08:51:51Z</time>
      </trkpt>
      <trkpt lat="44.98035" lon="6.79889">
        <ele>1315.7</ele>
        <time>2024-08-12T08:51:53Z</time>
      </trkpt>
      <trkpt lat="44.9804" lon="6.79885">
        <ele>1315.7</ele>
        <time>2024-08-12T08:51:54Z</time>
      </trkpt>
      <trkpt lat="44.98047" lon="6.79879">
        <ele>1314.74</ele>
        <time>2024-08-12T08:51:56Z</time>
      </trkpt>
      <trkpt lat="44.98053" lon="6.79874">
        <ele>1314.26</ele>
        <time>2024-08-12T08:51:57Z</time>
      </trkpt>
      <trkpt lat="44.98057" lon="6.79869">
        <ele>1313.3</ele>
        <time>2024-08-12T08:51:58Z</time>
      </trkpt>
      <trkpt lat="44.98069" lon="6.79854">
        <ele>1312.82</ele>
        <time>2024-08-12T08:52:01Z</time>
      </trkpt>
      <trkpt lat="44.98073" lon="6.79851">
        <ele>1312.82</ele>
        <time>2024-08-12T08:52:02Z</time>
      </trkpt>
      <trkpt lat="44.98079" lon="6.79848">
        <ele>1312.82</ele>
        <time>2024-08-12T08:52:03Z</time>
      </trkpt>
      <trkpt lat="44.98084" lon="6.79846">
        <ele>1312.82</ele>
        <time>2024-08-12T08:52:04Z</time>
      </trkpt>
      <trkpt lat="44.9809" lon="6.79844">
        <ele>1312.34</ele>
        <time>2024-08-12T08:52:06Z</time>
      </trkpt>
      <trkpt lat="44.98115" lon="6.79829">
        <ele>1310.9</ele>
        <time>2024-08-12T08:52:16Z</time>
      </trkpt>
      <trkpt lat="44.98117" lon="6.79828">
        <ele>1310.9</ele>
        <time>2024-08-12T08:52:32Z</time>
      </trkpt>
      <trkpt lat="44.98119" lon="6.79827">
        <ele>1310.9</ele>
        <time>2024-08-12T08:53:07Z</time>
      </trkpt>
      <trkpt lat="44.98119" lon="6.79826">
        <ele>1310.41</ele>
        <time>2024-08-12T08:53:40Z</time>
      </trkpt>
      <trkpt lat="44.98124" lon="6.79819">
        <ele>1310.41</ele>
        <time>2024-08-12T08:53:47Z</time>
      </trkpt>
      <trkpt lat="44.98124" lon="6.79816">
        <ele>1310.41</ele>
        <time>2024-08-12T08:53:48Z</time>
      </trkpt>
      <trkpt lat="44.98124" lon="6.79806">
        <ele>1311.86</ele>
        <time>2024-08-12T08:53:52Z</time>
      </trkpt>
      <trkpt lat="44.98124" lon="6.79804">
        <ele>1312.34</ele>
        <time>2024-08-12T08:54:03Z</time>
      </trkpt>
      <trkpt lat="44.98124" lon="6.79801">
        <ele>1312.82</ele>
        <time>2024-08-12T08:54:39Z</time>
      </trkpt>
      <trkpt lat="44.98124" lon="6.79801">
        <ele>1312.82</ele>
        <time>2024-08-12T08:55:01Z</time>
      </trkpt>
      <trkpt lat="44.98127" lon="6.79803">
        <ele>1312.82</ele>
        <time>2024-08-12T08:55:33Z</time>
      </trkpt>
      <trkpt lat="44.98128" lon="6.79803">
        <ele>1312.82</ele>
        <time>2024-08-12T08:56:01Z</time>
      </trkpt>
      <trkpt lat="44.98129" lon="6.79801">
        <ele>1312.82</ele>
        <time>2024-08-12T08:56:12Z</time>
      </trkpt>
      <trkpt lat="44.98129" lon="6.79799">
        <ele>1312.82</ele>
        <time>2024-08-12T08:56:13Z</time>
      </trkpt>
      <trkpt lat="44.98128" lon="6.79796">
        <ele>1312.82</ele>
        <time>2024-08-12T08:56:14Z</time>
      </trkpt>
      <trkpt lat="44.98128" lon="6.79794">
        <ele>1313.3</ele>
        <time>2024-08-12T08:56:15Z</time>
      </trkpt>
      <trkpt lat="44.98128" lon="6.79792">
        <ele>1313.3</ele>
        <time>2024-08-12T08:56:16Z</time>
      </trkpt>
      <trkpt lat="44.98128" lon="6.7979">
        <ele>1313.3</ele>
        <time>2024-08-12T08:56:17Z</time>
      </trkpt>
      <trkpt lat="44.98128" lon="6.79788">
        <ele>1313.78</ele>
        <time>2024-08-12T08:56:18Z</time>
      </trkpt>
      <trkpt lat="44.98128" lon="6.79786">
        <ele>1313.78</ele>
        <time>2024-08-12T08:56:19Z</time>
      </trkpt>
      <trkpt lat="44.98128" lon="6.79784">
        <ele>1313.78</ele>
        <time>2024-08-12T08:56:20Z</time>
      </trkpt>
      <trkpt lat="44.98128" lon="6.79782">
        <ele>1314.26</ele>
        <time>2024-08-12T08:56:21Z</time>
      </trkpt>
      <trkpt lat="44.98127" lon="6.7978">
        <ele>1314.74</ele>
        <time>2024-08-12T08:56:22Z</time>
      </trkpt>
      <trkpt lat="44.98127" lon="6.79778">
        <ele>1314.74</ele>
        <time>2024-08-12T08:56:23Z</time>
      </trkpt>
      <trkpt lat="44.98127" lon="6.79776">
        <ele>1314.74</ele>
        <time>2024-08-12T08:56:24Z</time>
      </trkpt>
      <trkpt lat="44.98127" lon="6.79773">
        <ele>1314.74</ele>
        <time>2024-08-12T08:56:25Z</time>
      </trkpt>
      <trkpt lat="44.98122" lon="6.79746">
        <ele>1316.66</ele>
        <time>2024-08-12T08:56:39Z</time>
      </trkpt>
      <trkpt lat="44.98121" lon="6.79707">
        <ele>1319.07</ele>
        <time>2024-08-12T08:56:56Z</time>
      </trkpt>
      <trkpt lat="44.98125" lon="6.79675">
        <ele>1321.47</ele>
        <time>2024-08-12T08:57:11Z</time>
      </trkpt>
      <trkpt lat="44.98129" lon="6.79648">
        <ele>1322.91</ele>
        <time>2024-08-12T08:57:25Z</time>
      </trkpt>
      <trkpt lat="44.98129" lon="6.79607">
        <ele>1325.8</ele>
        <time>2024-08-12T08:57:44Z</time>
      </trkpt>
      <trkpt lat="44.98129" lon="6.79605">
        <ele>1326.28</ele>
        <time>2024-08-12T08:57:45Z</time>
      </trkpt>
      <trkpt lat="44.98129" lon="6.79603">
        <ele>1326.76</ele>
        <time>2024-08-12T08:57:46Z</time>
      </trkpt>
      <trkpt lat="44.98129" lon="6.79601">
        <ele>1326.28</ele>
        <time>2024-08-12T08:57:47Z</time>
      </trkpt>
      <trkpt lat="44.98129" lon="6.79599">
        <ele>1326.76</ele>
        <time>2024-08-12T08:57:48Z</time>
      </trkpt>
      <trkpt lat="44.9813" lon="6.79597">
        <ele>1326.76</ele>
        <time>2024-08-12T08:57:49Z</time>
      </trkpt>
      <trkpt lat="44.98138" lon="6.79572">
        <ele>1329.64</ele>
        <time>2024-08-12T08:58:04Z</time>
      </trkpt>
      <trkpt lat="44.98149" lon="6.79549">
        <ele>1333.01</ele>
        <time>2024-08-12T08:58:20Z</time>
      </trkpt>
      <trkpt lat="44.98162" lon="6.79525">
        <ele>1336.37</ele>
        <time>2024-08-12T08:58:37Z</time>
      </trkpt>
      <trkpt lat="44.98172" lon="6.79507">
        <ele>1339.73</ele>
        <time>2024-08-12T08:58:52Z</time>
      </trkpt>
      <trkpt lat="44.98177" lon="6.79498">
        <ele>1341.18</ele>
        <time>2024-08-12T08:58:59Z</time>
      </trkpt>
      <trkpt lat="44.98188" lon="6.79475">
        <ele>1344.06</ele>
        <time>2024-08-12T08:59:14Z</time>
      </trkpt>
      <trkpt lat="44.98198" lon="6.79453">
        <ele>1346.94</ele>
        <time>2024-08-12T08:59:30Z</time>
      </trkpt>
      <trkpt lat="44.98207" lon="6.79435">
        <ele>1350.31</ele>
        <time>2024-08-12T08:59:44Z</time>
      </trkpt>
      <trkpt lat="44.98213" lon="6.79428">
        <ele>1351.75</ele>
        <time>2024-08-12T08:59:51Z</time>
      </trkpt>
      <trkpt lat="44.98224" lon="6.79408">
        <ele>1354.63</ele>
        <time>2024-08-12T09:00:05Z</time>
      </trkpt>
      <trkpt lat="44.98231" lon="6.79394">
        <ele>1357.04</ele>
        <time>2024-08-12T09:00:16Z</time>
      </trkpt>
      <trkpt lat="44.98232" lon="6.79392">
        <ele>1357.04</ele>
        <time>2024-08-12T09:00:17Z</time>
      </trkpt>
      <trkpt lat="44.98232" lon="6.7939">
        <ele>1357.52</ele>
        <time>2024-08-12T09:00:18Z</time>
      </trkpt>
      <trkpt lat="44.98233" lon="6.79388">
        <ele>1357.52</ele>
        <time>2024-08-12T09:00:19Z</time>
      </trkpt>
      <trkpt lat="44.98233" lon="6.79387">
        <ele>1357.52</ele>
        <time>2024-08-12T09:00:20Z</time>
      </trkpt>
      <trkpt lat="44.98234" lon="6.79385">
        <ele>1358.48</ele>
        <time>2024-08-12T09:00:21Z</time>
      </trkpt>
      <trkpt lat="44.98235" lon="6.79384">
        <ele>1358.48</ele>
        <time>2024-08-12T09:00:22Z</time>
      </trkpt>
      <trkpt lat="44.98236" lon="6.79382">
        <ele>1358.48</ele>
        <time>2024-08-12T09:00:23Z</time>
      </trkpt>
      <trkpt lat="44.98237" lon="6.79381">
        <ele>1358.48</ele>
        <time>2024-08-12T09:00:24Z</time>
      </trkpt>
      <trkpt lat="44.98238" lon="6.79379">
        <ele>1358.48</ele>
        <time>2024-08-12T09:00:25Z</time>
      </trkpt>
      <trkpt lat="44.9825" lon="6.7935">
        <ele>1361.36</ele>
        <time>2024-08-12T09:00:40Z</time>
      </trkpt>
      <trkpt lat="44.98265" lon="6.79306">
        <ele>1363.77</ele>
        <time>2024-08-12T09:00:59Z</time>
      </trkpt>
      <trkpt lat="44.98284" lon="6.79273">
        <ele>1366.65</ele>
        <time>2024-08-12T09:01:17Z</time>
      </trkpt>
      <trkpt lat="44.98303" lon="6.79239">
        <ele>1368.57</ele>
        <time>2024-08-12T09:01:33Z</time>
      </trkpt>
      <trkpt lat="44.98312" lon="6.79206">
        <ele>1371.46</ele>
        <time>2024-08-12T09:01:47Z</time>
      </trkpt>
      <trkpt lat="44.98313" lon="6.79166">
        <ele>1373.86</ele>
        <time>2024-08-12T09:02:03Z</time>
      </trkpt>
      <trkpt lat="44.98313" lon="6.79161">
        <ele>1374.82</ele>
        <time>2024-08-12T09:02:06Z</time>
      </trkpt>
      <trkpt lat="44.98313" lon="6.79159">
        <ele>1374.82</ele>
        <time>2024-08-12T09:02:07Z</time>
      </trkpt>
      <trkpt lat="44.98313" lon="6.79157">
        <ele>1374.82</ele>
        <time>2024-08-12T09:02:08Z</time>
      </trkpt>
      <trkpt lat="44.98313" lon="6.79155">
        <ele>1375.3</ele>
        <time>2024-08-12T09:02:09Z</time>
      </trkpt>
      <trkpt lat="44.98313" lon="6.79153">
        <ele>1375.3</ele>
        <time>2024-08-12T09:02:10Z</time>
      </trkpt>
      <trkpt lat="44.98315" lon="6.79113">
        <ele>1377.23</ele>
        <time>2024-08-12T09:02:25Z</time>
      </trkpt>
      <trkpt lat="44.9831" lon="6.79069">
        <ele>1380.59</ele>
        <time>2024-08-12T09:02:43Z</time>
      </trkpt>
      <trkpt lat="44.98308" lon="6.79058">
        <ele>1381.07</ele>
        <time>2024-08-12T09:02:48Z</time>
      </trkpt>
      <trkpt lat="44.98318" lon="6.79042">
        <ele>1382.99</ele>
        <time>2024-08-12T09:02:59Z</time>
      </trkpt>
      <trkpt lat="44.9832" lon="6.79043">
        <ele>1382.99</ele>
        <time>2024-08-12T09:03:00Z</time>
      </trkpt>
      <trkpt lat="44.98321" lon="6.79044">
        <ele>1383.47</ele>
        <time>2024-08-12T09:03:01Z</time>
      </trkpt>
      <trkpt lat="44.98322" lon="6.79046">
        <ele>1383.96</ele>
        <time>2024-08-12T09:03:02Z</time>
      </trkpt>
      <trkpt lat="44.98323" lon="6.79048">
        <ele>1383.96</ele>
        <time>2024-08-12T09:03:03Z</time>
      </trkpt>
      <trkpt lat="44.98324" lon="6.7905">
        <ele>1383.96</ele>
        <time>2024-08-12T09:03:04Z</time>
      </trkpt>
      <trkpt lat="44.98343" lon="6.79095">
        <ele>1386.84</ele>
        <time>2024-08-12T09:03:23Z</time>
      </trkpt>
      <trkpt lat="44.9835" lon="6.79135">
        <ele>1389.24</ele>
        <time>2024-08-12T09:03:39Z</time>
      </trkpt>
      <trkpt lat="44.98352" lon="6.79173">
        <ele>1392.13</ele>
        <time>2024-08-12T09:03:55Z</time>
      </trkpt>
      <trkpt lat="44.9835" lon="6.79207">
        <ele>1394.53</ele>
        <time>2024-08-12T09:04:10Z</time>
      </trkpt>
      <trkpt lat="44.98348" lon="6.79241">
        <ele>1397.41</ele>
        <time>2024-08-12T09:04:25Z</time>
      </trkpt>
      <trkpt lat="44.9835" lon="6.79277">
        <ele>1399.82</ele>
        <time>2024-08-12T09:04:40Z</time>
      </trkpt>
      <trkpt lat="44.98351" lon="6.7932">
        <ele>1402.7</ele>
        <time>2024-08-12T09:04:58Z</time>
      </trkpt>
      <trkpt lat="44.98343" lon="6.79366">
        <ele>1405.58</ele>
        <time>2024-08-12T09:05:18Z</time>
      </trkpt>
      <trkpt lat="44.98342" lon="6.79391">
        <ele>1407.99</ele>
        <time>2024-08-12T09:05:29Z</time>
      </trkpt>
      <trkpt lat="44.98342" lon="6.79393">
        <ele>1408.47</ele>
        <time>2024-08-12T09:05:30Z</time>
      </trkpt>
      <trkpt lat="44.98355" lon="6.79426">
        <ele>1411.83</ele>
        <time>2024-08-12T09:05:47Z</time>
      </trkpt>
      <trkpt lat="44.98371" lon="6.7945">
        <ele>1415.2</ele>
        <time>2024-08-12T09:06:03Z</time>
      </trkpt>
      <trkpt lat="44.98374" lon="6.79451">
        <ele>1415.2</ele>
        <time>2024-08-12T09:06:05Z</time>
      </trkpt>
      <trkpt lat="44.98383" lon="6.79429">
        <ele>1417.12</ele>
        <time>2024-08-12T09:06:20Z</time>
      </trkpt>
      <trkpt lat="44.98385" lon="6.79407">
        <ele>1420</ele>
        <time>2024-08-12T09:06:33Z</time>
      </trkpt>
      <trkpt lat="44.98394" lon="6.79383">
        <ele>1422.41</ele>
        <time>2024-08-12T09:06:49Z</time>
      </trkpt>
      <trkpt lat="44.98405" lon="6.79364">
        <ele>1425.29</ele>
        <time>2024-08-12T09:07:03Z</time>
      </trkpt>
      <trkpt lat="44.98421" lon="6.79343">
        <ele>1427.7</ele>
        <time>2024-08-12T09:07:19Z</time>
      </trkpt>
      <trkpt lat="44.98438" lon="6.79319">
        <ele>1431.06</ele>
        <time>2024-08-12T09:07:37Z</time>
      </trkpt>
      <trkpt lat="44.98447" lon="6.79304">
        <ele>1432.98</ele>
        <time>2024-08-12T09:07:48Z</time>
      </trkpt>
      <trkpt lat="44.98448" lon="6.79302">
        <ele>1432.98</ele>
        <time>2024-08-12T09:07:49Z</time>
      </trkpt>
      <trkpt lat="44.9845" lon="6.79301">
        <ele>1432.98</ele>
        <time>2024-08-12T09:07:50Z</time>
      </trkpt>
      <trkpt lat="44.9845" lon="6.793">
        <ele>1432.98</ele>
        <time>2024-08-12T09:07:51Z</time>
      </trkpt>
      <trkpt lat="44.98463" lon="6.79277">
        <ele>1436.35</ele>
        <time>2024-08-12T09:08:08Z</time>
      </trkpt>
      <trkpt lat="44.98472" lon="6.79259">
        <ele>1438.75</ele>
        <time>2024-08-12T09:08:22Z</time>
      </trkpt>
      <trkpt lat="44.98484" lon="6.7924">
        <ele>1442.11</ele>
        <time>2024-08-12T09:08:37Z</time>
      </trkpt>
      <trkpt lat="44.98488" lon="6.79234">
        <ele>1442.6</ele>
        <time>2024-08-12T09:08:42Z</time>
      </trkpt>
      <trkpt lat="44.98489" lon="6.79232">
        <ele>1443.08</ele>
        <time>2024-08-12T09:08:43Z</time>
      </trkpt>
      <trkpt lat="44.9849" lon="6.79231">
        <ele>1443.08</ele>
        <time>2024-08-12T09:08:44Z</time>
      </trkpt>
      <trkpt lat="44.985" lon="6.79215">
        <ele>1446.44</ele>
        <time>2024-08-12T09:08:59Z</time>
      </trkpt>
      <trkpt lat="44.98509" lon="6.79198">
        <ele>1449.81</ele>
        <time>2024-08-12T09:09:15Z</time>
      </trkpt>
      <trkpt lat="44.98518" lon="6.79187">
        <ele>1451.25</ele>
        <time>2024-08-12T09:09:24Z</time>
      </trkpt>
      <trkpt lat="44.98519" lon="6.79185">
        <ele>1451.73</ele>
        <time>2024-08-12T09:09:25Z</time>
      </trkpt>
      <trkpt lat="44.9852" lon="6.79184">
        <ele>1451.73</ele>
        <time>2024-08-12T09:09:26Z</time>
      </trkpt>
      <trkpt lat="44.98521" lon="6.79182">
        <ele>1451.73</ele>
        <time>2024-08-12T09:09:27Z</time>
      </trkpt>
      <trkpt lat="44.98521" lon="6.79181">
        <ele>1452.21</ele>
        <time>2024-08-12T09:09:28Z</time>
      </trkpt>
      <trkpt lat="44.98528" lon="6.79166">
        <ele>1454.13</ele>
        <time>2024-08-12T09:09:39Z</time>
      </trkpt>
      <trkpt lat="44.98526" lon="6.79143">
        <ele>1457.5</ele>
        <time>2024-08-12T09:09:53Z</time>
      </trkpt>
      <trkpt lat="44.9852" lon="6.7912">
        <ele>1459.9</ele>
        <time>2024-08-12T09:10:09Z</time>
      </trkpt>
      <trkpt lat="44.98515" lon="6.79095">
        <ele>1462.78</ele>
        <time>2024-08-12T09:10:25Z</time>
      </trkpt>
      <trkpt lat="44.98513" lon="6.79084">
        <ele>1464.71</ele>
        <time>2024-08-12T09:10:32Z</time>
      </trkpt>
      <trkpt lat="44.98506" lon="6.79055">
        <ele>1468.07</ele>
        <time>2024-08-12T09:10:50Z</time>
      </trkpt>
      <trkpt lat="44.98503" lon="6.79037">
        <ele>1471.44</ele>
        <time>2024-08-12T09:11:04Z</time>
      </trkpt>
      <trkpt lat="44.985" lon="6.79026">
        <ele>1472.4</ele>
        <time>2024-08-12T09:11:10Z</time>
      </trkpt>
      <trkpt lat="44.985" lon="6.79025">
        <ele>1472.4</ele>
        <time>2024-08-12T09:11:11Z</time>
      </trkpt>
      <trkpt lat="44.98498" lon="6.79018">
        <ele>1473.36</ele>
        <time>2024-08-12T09:11:16Z</time>
      </trkpt>
      <trkpt lat="44.98497" lon="6.79017">
        <ele>1474.32</ele>
        <time>2024-08-12T09:11:17Z</time>
      </trkpt>
      <trkpt lat="44.98497" lon="6.79016">
        <ele>1474.32</ele>
        <time>2024-08-12T09:11:18Z</time>
      </trkpt>
      <trkpt lat="44.98496" lon="6.79011">
        <ele>1474.8</ele>
        <time>2024-08-12T09:11:21Z</time>
      </trkpt>
      <trkpt lat="44.98496" lon="6.79009">
        <ele>1475.28</ele>
        <time>2024-08-12T09:11:22Z</time>
      </trkpt>
      <trkpt lat="44.98494" lon="6.79001">
        <ele>1476.24</ele>
        <time>2024-08-12T09:11:28Z</time>
      </trkpt>
      <trkpt lat="44.98489" lon="6.78981">
        <ele>1479.13</ele>
        <time>2024-08-12T09:11:43Z</time>
      </trkpt>
      <trkpt lat="44.98489" lon="6.78978">
        <ele>1479.61</ele>
        <time>2024-08-12T09:11:45Z</time>
      </trkpt>
      <trkpt lat="44.98485" lon="6.78948">
        <ele>1482.01</ele>
        <time>2024-08-12T09:12:01Z</time>
      </trkpt>
      <trkpt lat="44.98486" lon="6.78928">
        <ele>1483.93</ele>
        <time>2024-08-12T09:12:12Z</time>
      </trkpt>
      <trkpt lat="44.98487" lon="6.78926">
        <ele>1483.93</ele>
        <time>2024-08-12T09:12:13Z</time>
      </trkpt>
      <trkpt lat="44.98487" lon="6.78924">
        <ele>1484.41</ele>
        <time>2024-08-12T09:12:14Z</time>
      </trkpt>
      <trkpt lat="44.98487" lon="6.78922">
        <ele>1484.41</ele>
        <time>2024-08-12T09:12:15Z</time>
      </trkpt>
      <trkpt lat="44.98488" lon="6.7892">
        <ele>1484.41</ele>
        <time>2024-08-12T09:12:16Z</time>
      </trkpt>
      <trkpt lat="44.98488" lon="6.78919">
        <ele>1484.41</ele>
        <time>2024-08-12T09:12:17Z</time>
      </trkpt>
      <trkpt lat="44.98502" lon="6.78898">
        <ele>1487.3</ele>
        <time>2024-08-12T09:12:32Z</time>
      </trkpt>
      <trkpt lat="44.98518" lon="6.78881">
        <ele>1489.22</ele>
        <time>2024-08-12T09:12:45Z</time>
      </trkpt>
      <trkpt lat="44.98528" lon="6.78869">
        <ele>1490.66</ele>
        <time>2024-08-12T09:12:55Z</time>
      </trkpt>
      <trkpt lat="44.98544" lon="6.78849">
        <ele>1494.03</ele>
        <time>2024-08-12T09:13:09Z</time>
      </trkpt>
      <trkpt lat="44.98565" lon="6.78824">
        <ele>1496.91</ele>
        <time>2024-08-12T09:13:28Z</time>
      </trkpt>
      <trkpt lat="44.98585" lon="6.78801">
        <ele>1500.27</ele>
        <time>2024-08-12T09:13:45Z</time>
      </trkpt>
      <trkpt lat="44.98592" lon="6.78763">
        <ele>1503.16</ele>
        <time>2024-08-12T09:14:04Z</time>
      </trkpt>
      <trkpt lat="44.98598" lon="6.7873">
        <ele>1506.52</ele>
        <time>2024-08-12T09:14:21Z</time>
      </trkpt>
      <trkpt lat="44.98599" lon="6.78699">
        <ele>1509.41</ele>
        <time>2024-08-12T09:14:36Z</time>
      </trkpt>
      <trkpt lat="44.98586" lon="6.78667">
        <ele>1512.29</ele>
        <time>2024-08-12T09:14:53Z</time>
      </trkpt>
      <trkpt lat="44.98573" lon="6.78649">
        <ele>1515.18</ele>
        <time>2024-08-12T09:15:06Z</time>
      </trkpt>
      <trkpt lat="44.9857" lon="6.78647">
        <ele>1515.66</ele>
        <time>2024-08-12T09:15:08Z</time>
      </trkpt>
      <trkpt lat="44.9857" lon="6.78645">
        <ele>1515.66</ele>
        <time>2024-08-12T09:15:09Z</time>
      </trkpt>
      <trkpt lat="44.98569" lon="6.78643">
        <ele>1515.66</ele>
        <time>2024-08-12T09:15:10Z</time>
      </trkpt>
      <trkpt lat="44.98568" lon="6.78641">
        <ele>1516.14</ele>
        <time>2024-08-12T09:15:11Z</time>
      </trkpt>
      <trkpt lat="44.98567" lon="6.7864">
        <ele>1516.14</ele>
        <time>2024-08-12T09:15:12Z</time>
      </trkpt>
      <trkpt lat="44.98559" lon="6.78625">
        <ele>1518.06</ele>
        <time>2024-08-12T09:15:27Z</time>
      </trkpt>
      <trkpt lat="44.98555" lon="6.78632">
        <ele>1518.06</ele>
        <time>2024-08-12T09:15:57Z</time>
      </trkpt>
      <trkpt lat="44.98557" lon="6.78633">
        <ele>1517.58</ele>
        <time>2024-08-12T09:16:30Z</time>
      </trkpt>
      <trkpt lat="44.98557" lon="6.78629">
        <ele>1517.58</ele>
        <time>2024-08-12T09:16:59Z</time>
      </trkpt>
      <trkpt lat="44.98554" lon="6.78624">
        <ele>1517.58</ele>
        <time>2024-08-12T09:17:36Z</time>
      </trkpt>
      <trkpt lat="44.98554" lon="6.78625">
        <ele>1517.58</ele>
        <time>2024-08-12T09:18:18Z</time>
      </trkpt>
      <trkpt lat="44.98554" lon="6.78626">
        <ele>1517.58</ele>
        <time>2024-08-12T09:19:01Z</time>
      </trkpt>
      <trkpt lat="44.98554" lon="6.78629">
        <ele>1517.58</ele>
        <time>2024-08-12T09:19:41Z</time>
      </trkpt>
      <trkpt lat="44.98557" lon="6.78625">
        <ele>1518.06</ele>
        <time>2024-08-12T09:19:58Z</time>
      </trkpt>
      <trkpt lat="44.98557" lon="6.78622">
        <ele>1518.06</ele>
        <time>2024-08-12T09:20:04Z</time>
      </trkpt>
      <trkpt lat="44.98557" lon="6.7862">
        <ele>1518.06</ele>
        <time>2024-08-12T09:20:05Z</time>
      </trkpt>
      <trkpt lat="44.98557" lon="6.78618">
        <ele>1518.54</ele>
        <time>2024-08-12T09:20:06Z</time>
      </trkpt>
      <trkpt lat="44.98557" lon="6.78617">
        <ele>1518.54</ele>
        <time>2024-08-12T09:20:07Z</time>
      </trkpt>
      <trkpt lat="44.98557" lon="6.78615">
        <ele>1518.54</ele>
        <time>2024-08-12T09:20:08Z</time>
      </trkpt>
      <trkpt lat="44.98558" lon="6.78613">
        <ele>1519.02</ele>
        <time>2024-08-12T09:20:09Z</time>
      </trkpt>
      <trkpt lat="44.98558" lon="6.78611">
        <ele>1519.02</ele>
        <time>2024-08-12T09:20:10Z</time>
      </trkpt>
      <trkpt lat="44.98558" lon="6.78609">
        <ele>1519.02</ele>
        <time>2024-08-12T09:20:11Z</time>
      </trkpt>
      <trkpt lat="44.98559" lon="6.78608">
        <ele>1519.02</ele>
        <time>2024-08-12T09:20:12Z</time>
      </trkpt>
      <trkpt lat="44.98559" lon="6.78606">
        <ele>1519.02</ele>
        <time>2024-08-12T09:20:13Z</time>
      </trkpt>
      <trkpt lat="44.98559" lon="6.78604">
        <ele>1519.5</ele>
        <time>2024-08-12T09:20:14Z</time>
      </trkpt>
      <trkpt lat="44.98559" lon="6.78602">
        <ele>1519.5</ele>
        <time>2024-08-12T09:20:15Z</time>
      </trkpt>
      <trkpt lat="44.98559" lon="6.786">
        <ele>1519.5</ele>
        <time>2024-08-12T09:20:16Z</time>
      </trkpt>
      <trkpt lat="44.98559" lon="6.78599">
        <ele>1519.98</ele>
        <time>2024-08-12T09:20:17Z</time>
      </trkpt>
      <trkpt lat="44.98559" lon="6.78597">
        <ele>1519.98</ele>
        <time>2024-08-12T09:20:18Z</time>
      </trkpt>
      <trkpt lat="44.98559" lon="6.78595">
        <ele>1520.46</ele>
        <time>2024-08-12T09:20:19Z</time>
      </trkpt>
      <trkpt lat="44.98562" lon="6.78582">
        <ele>1521.9</ele>
        <time>2024-08-12T09:20:28Z</time>
      </trkpt>
      <trkpt lat="44.98562" lon="6.7858">
        <ele>1522.39</ele>
        <time>2024-08-12T09:20:30Z</time>
      </trkpt>
      <trkpt lat="44.98567" lon="6.78558">
        <ele>1525.75</ele>
        <time>2024-08-12T09:20:44Z</time>
      </trkpt>
      <trkpt lat="44.98569" lon="6.78543">
        <ele>1526.23</ele>
        <time>2024-08-12T09:20:51Z</time>
      </trkpt>
      <trkpt lat="44.98569" lon="6.78541">
        <ele>1525.75</ele>
        <time>2024-08-12T09:20:52Z</time>
      </trkpt>
      <trkpt lat="44.98575" lon="6.78503">
        <ele>1528.63</ele>
        <time>2024-08-12T09:21:09Z</time>
      </trkpt>
      <trkpt lat="44.98565" lon="6.78467">
        <ele>1530.08</ele>
        <time>2024-08-12T09:21:25Z</time>
      </trkpt>
      <trkpt lat="44.98553" lon="6.78431">
        <ele>1532.48</ele>
        <time>2024-08-12T09:21:42Z</time>
      </trkpt>
      <trkpt lat="44.9854" lon="6.78387">
        <ele>1534.4</ele>
        <time>2024-08-12T09:21:58Z</time>
      </trkpt>
      <trkpt lat="44.98524" lon="6.78345">
        <ele>1535.36</ele>
        <time>2024-08-12T09:22:14Z</time>
      </trkpt>
      <trkpt lat="44.98508" lon="6.78316">
        <ele>1537.77</ele>
        <time>2024-08-12T09:22:28Z</time>
      </trkpt>
      <trkpt lat="44.98496" lon="6.78278">
        <ele>1540.65</ele>
        <time>2024-08-12T09:22:45Z</time>
      </trkpt>
      <trkpt lat="44.98491" lon="6.78247">
        <ele>1542.57</ele>
        <time>2024-08-12T09:22:58Z</time>
      </trkpt>
      <trkpt lat="44.98491" lon="6.78212">
        <ele>1545.46</ele>
        <time>2024-08-12T09:23:12Z</time>
      </trkpt>
      <trkpt lat="44.98495" lon="6.78206">
        <ele>1546.42</ele>
        <time>2024-08-12T09:23:16Z</time>
      </trkpt>
      <trkpt lat="44.98496" lon="6.78205">
        <ele>1546.42</ele>
        <time>2024-08-12T09:23:17Z</time>
      </trkpt>
      <trkpt lat="44.98503" lon="6.78205">
        <ele>1547.38</ele>
        <time>2024-08-12T09:23:23Z</time>
      </trkpt>
      <trkpt lat="44.98504" lon="6.78206">
        <ele>1548.34</ele>
        <time>2024-08-12T09:23:24Z</time>
      </trkpt>
      <trkpt lat="44.98505" lon="6.78208">
        <ele>1548.34</ele>
        <time>2024-08-12T09:23:25Z</time>
      </trkpt>
      <trkpt lat="44.98506" lon="6.7821">
        <ele>1548.34</ele>
        <time>2024-08-12T09:23:26Z</time>
      </trkpt>
      <trkpt lat="44.98506" lon="6.78212">
        <ele>1548.82</ele>
        <time>2024-08-12T09:23:27Z</time>
      </trkpt>
      <trkpt lat="44.98506" lon="6.78213">
        <ele>1548.82</ele>
        <time>2024-08-12T09:23:28Z</time>
      </trkpt>
      <trkpt lat="44.98509" lon="6.78249">
        <ele>1550.26</ele>
        <time>2024-08-12T09:23:42Z</time>
      </trkpt>
      <trkpt lat="44.9852" lon="6.78276">
        <ele>1553.15</ele>
        <time>2024-08-12T09:23:57Z</time>
      </trkpt>
      <trkpt lat="44.98536" lon="6.78299">
        <ele>1555.55</ele>
        <time>2024-08-12T09:24:12Z</time>
      </trkpt>
      <trkpt lat="44.98554" lon="6.78313">
        <ele>1558.43</ele>
        <time>2024-08-12T09:24:27Z</time>
      </trkpt>
      <trkpt lat="44.98559" lon="6.78316">
        <ele>1559.4</ele>
        <time>2024-08-12T09:24:31Z</time>
      </trkpt>
      <trkpt lat="44.98578" lon="6.78325">
        <ele>1562.28</ele>
        <time>2024-08-12T09:24:44Z</time>
      </trkpt>
      <trkpt lat="44.98605" lon="6.78326">
        <ele>1565.16</ele>
        <time>2024-08-12T09:25:01Z</time>
      </trkpt>
      <trkpt lat="44.98626" lon="6.78316">
        <ele>1568.53</ele>
        <time>2024-08-12T09:25:18Z</time>
      </trkpt>
      <trkpt lat="44.98649" lon="6.78303">
        <ele>1571.41</ele>
        <time>2024-08-12T09:25:35Z</time>
      </trkpt>
      <trkpt lat="44.98668" lon="6.78314">
        <ele>1573.33</ele>
        <time>2024-08-12T09:25:49Z</time>
      </trkpt>
      <trkpt lat="44.9868" lon="6.78313">
        <ele>1574.78</ele>
        <time>2024-08-12T09:25:57Z</time>
      </trkpt>
      <trkpt lat="44.9868" lon="6.78309">
        <ele>1575.26</ele>
        <time>2024-08-12T09:25:59Z</time>
      </trkpt>
      <trkpt lat="44.9868" lon="6.78307">
        <ele>1575.26</ele>
        <time>2024-08-12T09:26:00Z</time>
      </trkpt>
      <trkpt lat="44.9868" lon="6.78305">
        <ele>1575.26</ele>
        <time>2024-08-12T09:26:01Z</time>
      </trkpt>
      <trkpt lat="44.98664" lon="6.78282">
        <ele>1578.62</ele>
        <time>2024-08-12T09:26:18Z</time>
      </trkpt>
      <trkpt lat="44.98648" lon="6.78261">
        <ele>1581.51</ele>
        <time>2024-08-12T09:26:34Z</time>
      </trkpt>
      <trkpt lat="44.98636" lon="6.78238">
        <ele>1584.39</ele>
        <time>2024-08-12T09:26:50Z</time>
      </trkpt>
      <trkpt lat="44.98634" lon="6.78205">
        <ele>1586.31</ele>
        <time>2024-08-12T09:27:05Z</time>
      </trkpt>
      <trkpt lat="44.98634" lon="6.78183">
        <ele>1588.24</ele>
        <time>2024-08-12T09:27:17Z</time>
      </trkpt>
      <trkpt lat="44.98635" lon="6.78181">
        <ele>1588.72</ele>
        <time>2024-08-12T09:27:18Z</time>
      </trkpt>
      <trkpt lat="44.98635" lon="6.7818">
        <ele>1588.72</ele>
        <time>2024-08-12T09:27:19Z</time>
      </trkpt>
      <trkpt lat="44.98635" lon="6.78154">
        <ele>1591.6</ele>
        <time>2024-08-12T09:27:34Z</time>
      </trkpt>
      <trkpt lat="44.98635" lon="6.78152">
        <ele>1591.6</ele>
        <time>2024-08-12T09:27:35Z</time>
      </trkpt>
      <trkpt lat="44.98635" lon="6.78151">
        <ele>1591.6</ele>
        <time>2024-08-12T09:27:36Z</time>
      </trkpt>
      <trkpt lat="44.98635" lon="6.78149">
        <ele>1591.6</ele>
        <time>2024-08-12T09:27:37Z</time>
      </trkpt>
      <trkpt lat="44.98635" lon="6.78146">
        <ele>1592.08</ele>
        <time>2024-08-12T09:27:38Z</time>
      </trkpt>
      <trkpt lat="44.98635" lon="6.78145">
        <ele>1592.08</ele>
        <time>2024-08-12T09:27:39Z</time>
      </trkpt>
      <trkpt lat="44.98634" lon="6.7814">
        <ele>1593.04</ele>
        <time>2024-08-12T09:27:42Z</time>
      </trkpt>
      <trkpt lat="44.98634" lon="6.78138">
        <ele>1593.04</ele>
        <time>2024-08-12T09:27:43Z</time>
      </trkpt>
      <trkpt lat="44.98634" lon="6.78136">
        <ele>1593.04</ele>
        <time>2024-08-12T09:27:44Z</time>
      </trkpt>
      <trkpt lat="44.98634" lon="6.78134">
        <ele>1593.04</ele>
        <time>2024-08-12T09:27:45Z</time>
      </trkpt>
      <trkpt lat="44.98634" lon="6.78132">
        <ele>1593.04</ele>
        <time>2024-08-12T09:27:46Z</time>
      </trkpt>
      <trkpt lat="44.98634" lon="6.7813">
        <ele>1593.04</ele>
        <time>2024-08-12T09:27:47Z</time>
      </trkpt>
      <trkpt lat="44.98625" lon="6.78097">
        <ele>1595.93</ele>
        <time>2024-08-12T09:28:06Z</time>
      </trkpt>
      <trkpt lat="44.98619" lon="6.78076">
        <ele>1598.81</ele>
        <time>2024-08-12T09:28:20Z</time>
      </trkpt>
      <trkpt lat="44.9861" lon="6.78056">
        <ele>1601.69</ele>
        <time>2024-08-12T09:28:36Z</time>
      </trkpt>
      <trkpt lat="44.986" lon="6.78032">
        <ele>1605.06</ele>
        <time>2024-08-12T09:28:52Z</time>
      </trkpt>
      <trkpt lat="44.98595" lon="6.78013">
        <ele>1606.98</ele>
        <time>2024-08-12T09:29:06Z</time>
      </trkpt>
      <trkpt lat="44.98595" lon="6.78011">
        <ele>1607.46</ele>
        <time>2024-08-12T09:29:07Z</time>
      </trkpt>
      <trkpt lat="44.98595" lon="6.78009">
        <ele>1607.94</ele>
        <time>2024-08-12T09:29:08Z</time>
      </trkpt>
      <trkpt lat="44.98594" lon="6.78008">
        <ele>1607.94</ele>
        <time>2024-08-12T09:29:09Z</time>
      </trkpt>
      <trkpt lat="44.98593" lon="6.78006">
        <ele>1607.94</ele>
        <time>2024-08-12T09:29:10Z</time>
      </trkpt>
      <trkpt lat="44.98586" lon="6.77984">
        <ele>1610.83</ele>
        <time>2024-08-12T09:29:25Z</time>
      </trkpt>
      <trkpt lat="44.9858" lon="6.77963">
        <ele>1613.71</ele>
        <time>2024-08-12T09:29:40Z</time>
      </trkpt>
      <trkpt lat="44.98573" lon="6.77936">
        <ele>1616.11</ele>
        <time>2024-08-12T09:29:58Z</time>
      </trkpt>
      <trkpt lat="44.98569" lon="6.77921">
        <ele>1617.56</ele>
        <time>2024-08-12T09:30:06Z</time>
      </trkpt>
      <trkpt lat="44.98562" lon="6.77893">
        <ele>1619.96</ele>
        <time>2024-08-12T09:30:22Z</time>
      </trkpt>
      <trkpt lat="44.98561" lon="6.7789">
        <ele>1620.44</ele>
        <time>2024-08-12T09:30:24Z</time>
      </trkpt>
      <trkpt lat="44.98561" lon="6.77885">
        <ele>1621.4</ele>
        <time>2024-08-12T09:30:27Z</time>
      </trkpt>
      <trkpt lat="44.98561" lon="6.77884">
        <ele>1621.4</ele>
        <time>2024-08-12T09:30:28Z</time>
      </trkpt>
      <trkpt lat="44.98562" lon="6.77882">
        <ele>1621.4</ele>
        <time>2024-08-12T09:30:29Z</time>
      </trkpt>
      <trkpt lat="44.98562" lon="6.77881">
        <ele>1621.4</ele>
        <time>2024-08-12T09:30:30Z</time>
      </trkpt>
      <trkpt lat="44.98563" lon="6.77879">
        <ele>1621.4</ele>
        <time>2024-08-12T09:30:31Z</time>
      </trkpt>
      <trkpt lat="44.9858" lon="6.77875">
        <ele>1624.77</ele>
        <time>2024-08-12T09:30:48Z</time>
      </trkpt>
      <trkpt lat="44.98585" lon="6.7788">
        <ele>1625.73</ele>
        <time>2024-08-12T09:30:59Z</time>
      </trkpt>
      <trkpt lat="44.98594" lon="6.77887">
        <ele>1626.69</ele>
        <time>2024-08-12T09:31:13Z</time>
      </trkpt>
      <trkpt lat="44.98595" lon="6.77888">
        <ele>1626.69</ele>
        <time>2024-08-12T09:31:14Z</time>
      </trkpt>
      <trkpt lat="44.98612" lon="6.77899">
        <ele>1629.57</ele>
        <time>2024-08-12T09:31:30Z</time>
      </trkpt>
      <trkpt lat="44.98628" lon="6.77909">
        <ele>1631.98</ele>
        <time>2024-08-12T09:31:44Z</time>
      </trkpt>
      <trkpt lat="44.98645" lon="6.77926">
        <ele>1634.38</ele>
        <time>2024-08-12T09:32:00Z</time>
      </trkpt>
      <trkpt lat="44.98661" lon="6.77949">
        <ele>1637.26</ele>
        <time>2024-08-12T09:32:17Z</time>
      </trkpt>
      <trkpt lat="44.98682" lon="6.77956">
        <ele>1640.15</ele>
        <time>2024-08-12T09:32:34Z</time>
      </trkpt>
      <trkpt lat="44.98702" lon="6.77954">
        <ele>1642.55</ele>
        <time>2024-08-12T09:32:49Z</time>
      </trkpt>
      <trkpt lat="44.98706" lon="6.77946">
        <ele>1643.51</ele>
        <time>2024-08-12T09:32:55Z</time>
      </trkpt>
      <trkpt lat="44.98706" lon="6.77944">
        <ele>1643.99</ele>
        <time>2024-08-12T09:32:56Z</time>
      </trkpt>
      <trkpt lat="44.98697" lon="6.7793">
        <ele>1645.91</ele>
        <time>2024-08-12T09:33:08Z</time>
      </trkpt>
      <trkpt lat="44.98696" lon="6.77928">
        <ele>1646.4</ele>
        <time>2024-08-12T09:33:09Z</time>
      </trkpt>
      <trkpt lat="44.98696" lon="6.77927">
        <ele>1646.4</ele>
        <time>2024-08-12T09:33:10Z</time>
      </trkpt>
      <trkpt lat="44.98688" lon="6.77915">
        <ele>1647.84</ele>
        <time>2024-08-12T09:33:20Z</time>
      </trkpt>
      <trkpt lat="44.98682" lon="6.77895">
        <ele>1650.24</ele>
        <time>2024-08-12T09:33:35Z</time>
      </trkpt>
      <trkpt lat="44.98675" lon="6.77869">
        <ele>1653.12</ele>
        <time>2024-08-12T09:33:51Z</time>
      </trkpt>
      <trkpt lat="44.98667" lon="6.77841">
        <ele>1656.01</ele>
        <time>2024-08-12T09:34:09Z</time>
      </trkpt>
      <trkpt lat="44.98665" lon="6.77829">
        <ele>1656.97</ele>
        <time>2024-08-12T09:34:16Z</time>
      </trkpt>
      <trkpt lat="44.98664" lon="6.77828">
        <ele>1657.45</ele>
        <time>2024-08-12T09:34:17Z</time>
      </trkpt>
      <trkpt lat="44.98664" lon="6.77826">
        <ele>1657.45</ele>
        <time>2024-08-12T09:34:18Z</time>
      </trkpt>
      <trkpt lat="44.98663" lon="6.77824">
        <ele>1657.93</ele>
        <time>2024-08-12T09:34:19Z</time>
      </trkpt>
      <trkpt lat="44.98663" lon="6.77823">
        <ele>1657.93</ele>
        <time>2024-08-12T09:34:20Z</time>
      </trkpt>
      <trkpt lat="44.98658" lon="6.77801">
        <ele>1660.33</ele>
        <time>2024-08-12T09:34:34Z</time>
      </trkpt>
      <trkpt lat="44.98658" lon="6.77768">
        <ele>1662.74</ele>
        <time>2024-08-12T09:34:50Z</time>
      </trkpt>
      <trkpt lat="44.98658" lon="6.77767">
        <ele>1662.74</ele>
        <time>2024-08-12T09:34:51Z</time>
      </trkpt>
      <trkpt lat="44.98657" lon="6.77763">
        <ele>1663.22</ele>
        <time>2024-08-12T09:34:53Z</time>
      </trkpt>
      <trkpt lat="44.98658" lon="6.77762">
        <ele>1663.22</ele>
        <time>2024-08-12T09:34:54Z</time>
      </trkpt>
      <trkpt lat="44.98655" lon="6.7773">
        <ele>1666.1</ele>
        <time>2024-08-12T09:35:10Z</time>
      </trkpt>
      <trkpt lat="44.98635" lon="6.77707">
        <ele>1668.02</ele>
        <time>2024-08-12T09:35:27Z</time>
      </trkpt>
      <trkpt lat="44.98616" lon="6.77685">
        <ele>1670.91</ele>
        <time>2024-08-12T09:35:44Z</time>
      </trkpt>
      <trkpt lat="44.98606" lon="6.77672">
        <ele>1672.83</ele>
        <time>2024-08-12T09:35:54Z</time>
      </trkpt>
      <trkpt lat="44.98593" lon="6.77647">
        <ele>1675.23</ele>
        <time>2024-08-12T09:36:11Z</time>
      </trkpt>
      <trkpt lat="44.98582" lon="6.77631">
        <ele>1678.12</ele>
        <time>2024-08-12T09:36:26Z</time>
      </trkpt>
      <trkpt lat="44.98569" lon="6.77617">
        <ele>1680.04</ele>
        <time>2024-08-12T09:36:38Z</time>
      </trkpt>
      <trkpt lat="44.98569" lon="6.77616">
        <ele>1680.04</ele>
        <time>2024-08-12T09:36:39Z</time>
      </trkpt>
      <trkpt lat="44.98558" lon="6.77589">
        <ele>1682.93</ele>
        <time>2024-08-12T09:36:54Z</time>
      </trkpt>
      <trkpt lat="44.98557" lon="6.77587">
        <ele>1682.93</ele>
        <time>2024-08-12T09:36:55Z</time>
      </trkpt>
      <trkpt lat="44.98557" lon="6.77585">
        <ele>1683.41</ele>
        <time>2024-08-12T09:36:56Z</time>
      </trkpt>
      <trkpt lat="44.98556" lon="6.77584">
        <ele>1683.41</ele>
        <time>2024-08-12T09:36:57Z</time>
      </trkpt>
      <trkpt lat="44.98555" lon="6.77582">
        <ele>1683.41</ele>
        <time>2024-08-12T09:36:58Z</time>
      </trkpt>
      <trkpt lat="44.98554" lon="6.77564">
        <ele>1685.33</ele>
        <time>2024-08-12T09:37:07Z</time>
      </trkpt>
      <trkpt lat="44.98558" lon="6.7754">
        <ele>1687.25</ele>
        <time>2024-08-12T09:37:22Z</time>
      </trkpt>
      <trkpt lat="44.98559" lon="6.77541">
        <ele>1687.25</ele>
        <time>2024-08-12T09:37:23Z</time>
      </trkpt>
      <trkpt lat="44.9856" lon="6.77542">
        <ele>1688.21</ele>
        <time>2024-08-12T09:37:24Z</time>
      </trkpt>
      <trkpt lat="44.98561" lon="6.77543">
        <ele>1688.21</ele>
        <time>2024-08-12T09:37:25Z</time>
      </trkpt>
      <trkpt lat="44.98561" lon="6.77545">
        <ele>1688.21</ele>
        <time>2024-08-12T09:37:26Z</time>
      </trkpt>
      <trkpt lat="44.98562" lon="6.77546">
        <ele>1688.21</ele>
        <time>2024-08-12T09:37:27Z</time>
      </trkpt>
      <trkpt lat="44.98562" lon="6.77548">
        <ele>1688.69</ele>
        <time>2024-08-12T09:37:28Z</time>
      </trkpt>
      <trkpt lat="44.98563" lon="6.7755">
        <ele>1688.69</ele>
        <time>2024-08-12T09:37:29Z</time>
      </trkpt>
      <trkpt lat="44.98564" lon="6.77552">
        <ele>1688.69</ele>
        <time>2024-08-12T09:37:30Z</time>
      </trkpt>
      <trkpt lat="44.98564" lon="6.77554">
        <ele>1689.17</ele>
        <time>2024-08-12T09:37:31Z</time>
      </trkpt>
      <trkpt lat="44.98565" lon="6.77555">
        <ele>1689.17</ele>
        <time>2024-08-12T09:37:32Z</time>
      </trkpt>
      <trkpt lat="44.98565" lon="6.77557">
        <ele>1689.17</ele>
        <time>2024-08-12T09:37:33Z</time>
      </trkpt>
      <trkpt lat="44.98566" lon="6.77558">
        <ele>1689.17</ele>
        <time>2024-08-12T09:37:34Z</time>
      </trkpt>
      <trkpt lat="44.98566" lon="6.7756">
        <ele>1689.65</ele>
        <time>2024-08-12T09:37:35Z</time>
      </trkpt>
      <trkpt lat="44.98567" lon="6.77561">
        <ele>1689.65</ele>
        <time>2024-08-12T09:37:36Z</time>
      </trkpt>
      <trkpt lat="44.98568" lon="6.77563">
        <ele>1690.14</ele>
        <time>2024-08-12T09:37:37Z</time>
      </trkpt>
      <trkpt lat="44.98569" lon="6.77564">
        <ele>1690.14</ele>
        <time>2024-08-12T09:37:38Z</time>
      </trkpt>
      <trkpt lat="44.98569" lon="6.77565">
        <ele>1690.14</ele>
        <time>2024-08-12T09:37:39Z</time>
      </trkpt>
      <trkpt lat="44.9859" lon="6.77575">
        <ele>1693.02</ele>
        <time>2024-08-12T09:37:56Z</time>
      </trkpt>
      <trkpt lat="44.98605" lon="6.77584">
        <ele>1694.94</ele>
        <time>2024-08-12T09:38:09Z</time>
      </trkpt>
      <trkpt lat="44.98606" lon="6.77584">
        <ele>1694.94</ele>
        <time>2024-08-12T09:38:10Z</time>
      </trkpt>
      <trkpt lat="44.98616" lon="6.7757">
        <ele>1697.34</ele>
        <time>2024-08-12T09:38:25Z</time>
      </trkpt>
      <trkpt lat="44.98609" lon="6.77553">
        <ele>1699.27</ele>
        <time>2024-08-12T09:38:36Z</time>
      </trkpt>
      <trkpt lat="44.98599" lon="6.7753">
        <ele>1701.19</ele>
        <time>2024-08-12T09:38:52Z</time>
      </trkpt>
      <trkpt lat="44.9859" lon="6.77512">
        <ele>1703.59</ele>
        <time>2024-08-12T09:39:06Z</time>
      </trkpt>
      <trkpt lat="44.98579" lon="6.77494">
        <ele>1705.52</ele>
        <time>2024-08-12T09:39:20Z</time>
      </trkpt>
      <trkpt lat="44.98575" lon="6.77463">
        <ele>1708.4</ele>
        <time>2024-08-12T09:39:37Z</time>
      </trkpt>
      <trkpt lat="44.98576" lon="6.77461">
        <ele>1708.4</ele>
        <time>2024-08-12T09:39:38Z</time>
      </trkpt>
      <trkpt lat="44.9857" lon="6.77432">
        <ele>1711.76</ele>
        <time>2024-08-12T09:39:55Z</time>
      </trkpt>
      <trkpt lat="44.98552" lon="6.77421">
        <ele>1714.65</ele>
        <time>2024-08-12T09:40:12Z</time>
      </trkpt>
      <trkpt lat="44.98534" lon="6.7741">
        <ele>1716.57</ele>
        <time>2024-08-12T09:40:28Z</time>
      </trkpt>
      <trkpt lat="44.98519" lon="6.77401">
        <ele>1718.97</ele>
        <time>2024-08-12T09:40:41Z</time>
      </trkpt>
      <trkpt lat="44.98503" lon="6.77386">
        <ele>1721.86</ele>
        <time>2024-08-12T09:40:57Z</time>
      </trkpt>
      <trkpt lat="44.98496" lon="6.77371">
        <ele>1723.3</ele>
        <time>2024-08-12T09:41:10Z</time>
      </trkpt>
      <trkpt lat="44.98495" lon="6.77367">
        <ele>1723.3</ele>
        <time>2024-08-12T09:41:23Z</time>
      </trkpt>
      <trkpt lat="44.98496" lon="6.77366">
        <ele>1723.3</ele>
        <time>2024-08-12T09:41:38Z</time>
      </trkpt>
      <trkpt lat="44.98497" lon="6.77366">
        <ele>1723.3</ele>
        <time>2024-08-12T09:41:57Z</time>
      </trkpt>
      <trkpt lat="44.98493" lon="6.77362">
        <ele>1723.3</ele>
        <time>2024-08-12T09:42:15Z</time>
      </trkpt>
      <trkpt lat="44.98484" lon="6.77344">
        <ele>1725.22</ele>
        <time>2024-08-12T09:42:28Z</time>
      </trkpt>
      <trkpt lat="44.98485" lon="6.77342">
        <ele>1725.7</ele>
        <time>2024-08-12T09:42:29Z</time>
      </trkpt>
      <trkpt lat="44.98485" lon="6.77341">
        <ele>1725.7</ele>
        <time>2024-08-12T09:42:30Z</time>
      </trkpt>
      <trkpt lat="44.98488" lon="6.77337">
        <ele>1726.67</ele>
        <time>2024-08-12T09:42:34Z</time>
      </trkpt>
      <trkpt lat="44.9849" lon="6.77338">
        <ele>1726.67</ele>
        <time>2024-08-12T09:42:35Z</time>
      </trkpt>
      <trkpt lat="44.98491" lon="6.77338">
        <ele>1726.67</ele>
        <time>2024-08-12T09:42:36Z</time>
      </trkpt>
      <trkpt lat="44.98497" lon="6.77352">
        <ele>1729.07</ele>
        <time>2024-08-12T09:42:51Z</time>
      </trkpt>
      <trkpt lat="44.9851" lon="6.77365">
        <ele>1730.99</ele>
        <time>2024-08-12T09:43:05Z</time>
      </trkpt>
      <trkpt lat="44.98524" lon="6.77371">
        <ele>1733.39</ele>
        <time>2024-08-12T09:43:20Z</time>
      </trkpt>
      <trkpt lat="44.98539" lon="6.77371">
        <ele>1734.84</ele>
        <time>2024-08-12T09:43:34Z</time>
      </trkpt>
      <trkpt lat="44.9856" lon="6.77369">
        <ele>1737.72</ele>
        <time>2024-08-12T09:43:51Z</time>
      </trkpt>
      <trkpt lat="44.98574" lon="6.77374">
        <ele>1739.64</ele>
        <time>2024-08-12T09:44:03Z</time>
      </trkpt>
      <trkpt lat="44.98592" lon="6.77388">
        <ele>1741.08</ele>
        <time>2024-08-12T09:44:18Z</time>
      </trkpt>
      <trkpt lat="44.98611" lon="6.77399">
        <ele>1743.97</ele>
        <time>2024-08-12T09:44:32Z</time>
      </trkpt>
      <trkpt lat="44.98636" lon="6.77416">
        <ele>1746.85</ele>
        <time>2024-08-12T09:44:50Z</time>
      </trkpt>
      <trkpt lat="44.98638" lon="6.77417">
        <ele>1747.33</ele>
        <time>2024-08-12T09:44:52Z</time>
      </trkpt>
      <trkpt lat="44.9864" lon="6.77416">
        <ele>1747.33</ele>
        <time>2024-08-12T09:44:53Z</time>
      </trkpt>
      <trkpt lat="44.98641" lon="6.77416">
        <ele>1747.33</ele>
        <time>2024-08-12T09:44:54Z</time>
      </trkpt>
      <trkpt lat="44.98643" lon="6.77415">
        <ele>1747.33</ele>
        <time>2024-08-12T09:44:55Z</time>
      </trkpt>
      <trkpt lat="44.98644" lon="6.77414">
        <ele>1747.81</ele>
        <time>2024-08-12T09:44:56Z</time>
      </trkpt>
      <trkpt lat="44.98648" lon="6.77406">
        <ele>1748.29</ele>
        <time>2024-08-12T09:45:01Z</time>
      </trkpt>
      <trkpt lat="44.98648" lon="6.77405">
        <ele>1748.78</ele>
        <time>2024-08-12T09:45:02Z</time>
      </trkpt>
      <trkpt lat="44.98647" lon="6.77404">
        <ele>1748.78</ele>
        <time>2024-08-12T09:45:03Z</time>
      </trkpt>
      <trkpt lat="44.98647" lon="6.77403">
        <ele>1749.26</ele>
        <time>2024-08-12T09:45:04Z</time>
      </trkpt>
      <trkpt lat="44.98646" lon="6.77402">
        <ele>1749.26</ele>
        <time>2024-08-12T09:45:05Z</time>
      </trkpt>
      <trkpt lat="44.98645" lon="6.774">
        <ele>1749.74</ele>
        <time>2024-08-12T09:45:06Z</time>
      </trkpt>
      <trkpt lat="44.98644" lon="6.774">
        <ele>1749.74</ele>
        <time>2024-08-12T09:45:07Z</time>
      </trkpt>
      <trkpt lat="44.98641" lon="6.77396">
        <ele>1750.22</ele>
        <time>2024-08-12T09:45:11Z</time>
      </trkpt>
      <trkpt lat="44.9864" lon="6.77394">
        <ele>1750.22</ele>
        <time>2024-08-12T09:45:12Z</time>
      </trkpt>
      <trkpt lat="44.98639" lon="6.77393">
        <ele>1750.22</ele>
        <time>2024-08-12T09:45:13Z</time>
      </trkpt>
      <trkpt lat="44.98638" lon="6.77392">
        <ele>1750.7</ele>
        <time>2024-08-12T09:45:14Z</time>
      </trkpt>
      <trkpt lat="44.98637" lon="6.77391">
        <ele>1750.7</ele>
        <time>2024-08-12T09:45:15Z</time>
      </trkpt>
      <trkpt lat="44.98628" lon="6.77382">
        <ele>1753.1</ele>
        <time>2024-08-12T09:45:25Z</time>
      </trkpt>
      <trkpt lat="44.98628" lon="6.77381">
        <ele>1753.1</ele>
        <time>2024-08-12T09:45:26Z</time>
      </trkpt>
      <trkpt lat="44.98627" lon="6.7738">
        <ele>1753.1</ele>
        <time>2024-08-12T09:45:27Z</time>
      </trkpt>
      <trkpt lat="44.98625" lon="6.77371">
        <ele>1754.06</ele>
        <time>2024-08-12T09:45:33Z</time>
      </trkpt>
      <trkpt lat="44.98625" lon="6.77369">
        <ele>1754.06</ele>
        <time>2024-08-12T09:45:34Z</time>
      </trkpt>
      <trkpt lat="44.98624" lon="6.77363">
        <ele>1755.5</ele>
        <time>2024-08-12T09:45:38Z</time>
      </trkpt>
      <trkpt lat="44.98624" lon="6.77362">
        <ele>1755.5</ele>
        <time>2024-08-12T09:45:39Z</time>
      </trkpt>
      <trkpt lat="44.98624" lon="6.77351">
        <ele>1755.99</ele>
        <time>2024-08-12T09:45:45Z</time>
      </trkpt>
      <trkpt lat="44.98624" lon="6.7735">
        <ele>1756.47</ele>
        <time>2024-08-12T09:45:46Z</time>
      </trkpt>
      <trkpt lat="44.98623" lon="6.77348">
        <ele>1756.47</ele>
        <time>2024-08-12T09:45:47Z</time>
      </trkpt>
      <trkpt lat="44.98623" lon="6.77346">
        <ele>1756.47</ele>
        <time>2024-08-12T09:45:48Z</time>
      </trkpt>
      <trkpt lat="44.98617" lon="6.77337">
        <ele>1759.35</ele>
        <time>2024-08-12T09:45:57Z</time>
      </trkpt>
      <trkpt lat="44.98614" lon="6.77335">
        <ele>1759.35</ele>
        <time>2024-08-12T09:46:01Z</time>
      </trkpt>
      <trkpt lat="44.98612" lon="6.77335">
        <ele>1759.83</ele>
        <time>2024-08-12T09:46:03Z</time>
      </trkpt>
      <trkpt lat="44.9861" lon="6.77335">
        <ele>1759.83</ele>
        <time>2024-08-12T09:46:04Z</time>
      </trkpt>
      <trkpt lat="44.98609" lon="6.77335">
        <ele>1759.83</ele>
        <time>2024-08-12T09:46:05Z</time>
      </trkpt>
      <trkpt lat="44.98608" lon="6.77335">
        <ele>1759.83</ele>
        <time>2024-08-12T09:46:06Z</time>
      </trkpt>
      <trkpt lat="44.98607" lon="6.77335">
        <ele>1760.31</ele>
        <time>2024-08-12T09:46:07Z</time>
      </trkpt>
      <trkpt lat="44.98596" lon="6.77326">
        <ele>1761.75</ele>
        <time>2024-08-12T09:46:18Z</time>
      </trkpt>
      <trkpt lat="44.98596" lon="6.77324">
        <ele>1761.75</ele>
        <time>2024-08-12T09:46:19Z</time>
      </trkpt>
      <trkpt lat="44.98595" lon="6.77323">
        <ele>1762.23</ele>
        <time>2024-08-12T09:46:20Z</time>
      </trkpt>
      <trkpt lat="44.98594" lon="6.77321">
        <ele>1762.23</ele>
        <time>2024-08-12T09:46:21Z</time>
      </trkpt>
      <trkpt lat="44.98594" lon="6.7732">
        <ele>1762.23</ele>
        <time>2024-08-12T09:46:22Z</time>
      </trkpt>
      <trkpt lat="44.98593" lon="6.77318">
        <ele>1763.2</ele>
        <time>2024-08-12T09:46:23Z</time>
      </trkpt>
      <trkpt lat="44.98593" lon="6.77317">
        <ele>1763.2</ele>
        <time>2024-08-12T09:46:24Z</time>
      </trkpt>
      <trkpt lat="44.98589" lon="6.77307">
        <ele>1763.68</ele>
        <time>2024-08-12T09:46:31Z</time>
      </trkpt>
      <trkpt lat="44.98588" lon="6.77305">
        <ele>1764.16</ele>
        <time>2024-08-12T09:46:32Z</time>
      </trkpt>
      <trkpt lat="44.98576" lon="6.77292">
        <ele>1766.08</ele>
        <time>2024-08-12T09:46:47Z</time>
      </trkpt>
      <trkpt lat="44.98571" lon="6.77289">
        <ele>1767.04</ele>
        <time>2024-08-12T09:46:51Z</time>
      </trkpt>
      <trkpt lat="44.9857" lon="6.77288">
        <ele>1767.04</ele>
        <time>2024-08-12T09:46:52Z</time>
      </trkpt>
      <trkpt lat="44.98566" lon="6.77285">
        <ele>1767.52</ele>
        <time>2024-08-12T09:46:56Z</time>
      </trkpt>
      <trkpt lat="44.98565" lon="6.77284">
        <ele>1767.52</ele>
        <time>2024-08-12T09:46:57Z</time>
      </trkpt>
      <trkpt lat="44.98553" lon="6.77263">
        <ele>1769.92</ele>
        <time>2024-08-12T09:47:12Z</time>
      </trkpt>
      <trkpt lat="44.98548" lon="6.77247">
        <ele>1770.89</ele>
        <time>2024-08-12T09:47:21Z</time>
      </trkpt>
      <trkpt lat="44.98549" lon="6.77245">
        <ele>1771.85</ele>
        <time>2024-08-12T09:47:23Z</time>
      </trkpt>
      <trkpt lat="44.9855" lon="6.77244">
        <ele>1771.85</ele>
        <time>2024-08-12T09:47:24Z</time>
      </trkpt>
      <trkpt lat="44.98551" lon="6.77244">
        <ele>1771.85</ele>
        <time>2024-08-12T09:47:25Z</time>
      </trkpt>
      <trkpt lat="44.98554" lon="6.77245">
        <ele>1772.33</ele>
        <time>2024-08-12T09:47:28Z</time>
      </trkpt>
      <trkpt lat="44.98555" lon="6.77245">
        <ele>1772.33</ele>
        <time>2024-08-12T09:47:29Z</time>
      </trkpt>
      <trkpt lat="44.98566" lon="6.77254">
        <ele>1774.73</ele>
        <time>2024-08-12T09:47:43Z</time>
      </trkpt>
      <trkpt lat="44.98569" lon="6.77255">
        <ele>1775.21</ele>
        <time>2024-08-12T09:47:45Z</time>
      </trkpt>
      <trkpt lat="44.9857" lon="6.77255">
        <ele>1775.21</ele>
        <time>2024-08-12T09:47:46Z</time>
      </trkpt>
      <trkpt lat="44.98583" lon="6.77257">
        <ele>1777.13</ele>
        <time>2024-08-12T09:47:58Z</time>
      </trkpt>
      <trkpt lat="44.98585" lon="6.77257">
        <ele>1777.13</ele>
        <time>2024-08-12T09:47:59Z</time>
      </trkpt>
      <trkpt lat="44.98595" lon="6.77255">
        <ele>1778.58</ele>
        <time>2024-08-12T09:48:08Z</time>
      </trkpt>
      <trkpt lat="44.98597" lon="6.77254">
        <ele>1778.58</ele>
        <time>2024-08-12T09:48:09Z</time>
      </trkpt>
      <trkpt lat="44.98598" lon="6.77254">
        <ele>1779.06</ele>
        <time>2024-08-12T09:48:10Z</time>
      </trkpt>
      <trkpt lat="44.98599" lon="6.77254">
        <ele>1779.06</ele>
        <time>2024-08-12T09:48:11Z</time>
      </trkpt>
      <trkpt lat="44.986" lon="6.77255">
        <ele>1779.06</ele>
        <time>2024-08-12T09:48:12Z</time>
      </trkpt>
      <trkpt lat="44.98601" lon="6.77255">
        <ele>1779.54</ele>
        <time>2024-08-12T09:48:13Z</time>
      </trkpt>
      <trkpt lat="44.98603" lon="6.77256">
        <ele>1779.54</ele>
        <time>2024-08-12T09:48:14Z</time>
      </trkpt>
      <trkpt lat="44.98604" lon="6.77256">
        <ele>1779.54</ele>
        <time>2024-08-12T09:48:15Z</time>
      </trkpt>
      <trkpt lat="44.98605" lon="6.77257">
        <ele>1779.54</ele>
        <time>2024-08-12T09:48:16Z</time>
      </trkpt>
      <trkpt lat="44.98626" lon="6.77266">
        <ele>1782.42</ele>
        <time>2024-08-12T09:48:33Z</time>
      </trkpt>
      <trkpt lat="44.98646" lon="6.77273">
        <ele>1784.82</ele>
        <time>2024-08-12T09:48:50Z</time>
      </trkpt>
      <trkpt lat="44.98663" lon="6.77276">
        <ele>1787.23</ele>
        <time>2024-08-12T09:49:05Z</time>
      </trkpt>
      <trkpt lat="44.98664" lon="6.77277">
        <ele>1787.71</ele>
        <time>2024-08-12T09:49:06Z</time>
      </trkpt>
      <trkpt lat="44.98666" lon="6.77277">
        <ele>1787.71</ele>
        <time>2024-08-12T09:49:07Z</time>
      </trkpt>
      <trkpt lat="44.98679" lon="6.77286">
        <ele>1788.19</ele>
        <time>2024-08-12T09:49:19Z</time>
      </trkpt>
      <trkpt lat="44.9868" lon="6.77287">
        <ele>1788.19</ele>
        <time>2024-08-12T09:49:20Z</time>
      </trkpt>
      <trkpt lat="44.98682" lon="6.77288">
        <ele>1788.19</ele>
        <time>2024-08-12T09:49:21Z</time>
      </trkpt>
      <trkpt lat="44.98683" lon="6.77288">
        <ele>1788.19</ele>
        <time>2024-08-12T09:49:22Z</time>
      </trkpt>
      <trkpt lat="44.98684" lon="6.77289">
        <ele>1788.19</ele>
        <time>2024-08-12T09:49:23Z</time>
      </trkpt>
      <trkpt lat="44.98686" lon="6.7729">
        <ele>1788.19</ele>
        <time>2024-08-12T09:49:24Z</time>
      </trkpt>
      <trkpt lat="44.98688" lon="6.7729">
        <ele>1788.19</ele>
        <time>2024-08-12T09:49:26Z</time>
      </trkpt>
      <trkpt lat="44.9869" lon="6.7729">
        <ele>1788.67</ele>
        <time>2024-08-12T09:49:27Z</time>
      </trkpt>
      <trkpt lat="44.98692" lon="6.7729">
        <ele>1788.67</ele>
        <time>2024-08-12T09:49:28Z</time>
      </trkpt>
      <trkpt lat="44.98695" lon="6.77289">
        <ele>1789.63</ele>
        <time>2024-08-12T09:49:31Z</time>
      </trkpt>
      <trkpt lat="44.98696" lon="6.77287">
        <ele>1790.11</ele>
        <time>2024-08-12T09:49:33Z</time>
      </trkpt>
      <trkpt lat="44.98694" lon="6.77278">
        <ele>1791.55</ele>
        <time>2024-08-12T09:49:41Z</time>
      </trkpt>
      <trkpt lat="44.9869" lon="6.77273">
        <ele>1793.48</ele>
        <time>2024-08-12T09:49:49Z</time>
      </trkpt>
      <trkpt lat="44.9868" lon="6.77258">
        <ele>1795.88</ele>
        <time>2024-08-12T09:50:03Z</time>
      </trkpt>
      <trkpt lat="44.98668" lon="6.77241">
        <ele>1798.28</ele>
        <time>2024-08-12T09:50:18Z</time>
      </trkpt>
      <trkpt lat="44.98657" lon="6.77229">
        <ele>1800.21</ele>
        <time>2024-08-12T09:50:31Z</time>
      </trkpt>
      <trkpt lat="44.9865" lon="6.77217">
        <ele>1801.65</ele>
        <time>2024-08-12T09:50:40Z</time>
      </trkpt>
      <trkpt lat="44.98649" lon="6.77214">
        <ele>1802.13</ele>
        <time>2024-08-12T09:50:43Z</time>
      </trkpt>
      <trkpt lat="44.98648" lon="6.77212">
        <ele>1802.13</ele>
        <time>2024-08-12T09:50:44Z</time>
      </trkpt>
      <trkpt lat="44.98647" lon="6.77211">
        <ele>1802.13</ele>
        <time>2024-08-12T09:50:45Z</time>
      </trkpt>
      <trkpt lat="44.98647" lon="6.77209">
        <ele>1802.61</ele>
        <time>2024-08-12T09:50:46Z</time>
      </trkpt>
      <trkpt lat="44.98646" lon="6.77208">
        <ele>1802.61</ele>
        <time>2024-08-12T09:50:47Z</time>
      </trkpt>
      <trkpt lat="44.98637" lon="6.77188">
        <ele>1804.53</ele>
        <time>2024-08-12T09:51:00Z</time>
      </trkpt>
      <trkpt lat="44.9862" lon="6.77168">
        <ele>1807.9</ele>
        <time>2024-08-12T09:51:18Z</time>
      </trkpt>
      <trkpt lat="44.98608" lon="6.77142">
        <ele>1810.3</ele>
        <time>2024-08-12T09:51:34Z</time>
      </trkpt>
      <trkpt lat="44.98606" lon="6.77116">
        <ele>1812.22</ele>
        <time>2024-08-12T09:51:49Z</time>
      </trkpt>
      <trkpt lat="44.98606" lon="6.77115">
        <ele>1813.18</ele>
        <time>2024-08-12T09:51:50Z</time>
      </trkpt>
      <trkpt lat="44.98606" lon="6.77113">
        <ele>1813.18</ele>
        <time>2024-08-12T09:51:51Z</time>
      </trkpt>
      <trkpt lat="44.98609" lon="6.77093">
        <ele>1814.63</ele>
        <time>2024-08-12T09:52:02Z</time>
      </trkpt>
      <trkpt lat="44.98609" lon="6.77092">
        <ele>1814.63</ele>
        <time>2024-08-12T09:52:03Z</time>
      </trkpt>
      <trkpt lat="44.9861" lon="6.77091">
        <ele>1815.11</ele>
        <time>2024-08-12T09:52:04Z</time>
      </trkpt>
      <trkpt lat="44.98614" lon="6.77091">
        <ele>1816.07</ele>
        <time>2024-08-12T09:52:08Z</time>
      </trkpt>
      <trkpt lat="44.98615" lon="6.77091">
        <ele>1816.07</ele>
        <time>2024-08-12T09:52:09Z</time>
      </trkpt>
      <trkpt lat="44.98618" lon="6.77095">
        <ele>1816.55</ele>
        <time>2024-08-12T09:52:12Z</time>
      </trkpt>
      <trkpt lat="44.98618" lon="6.77097">
        <ele>1816.55</ele>
        <time>2024-08-12T09:52:13Z</time>
      </trkpt>
      <trkpt lat="44.98619" lon="6.77098">
        <ele>1816.55</ele>
        <time>2024-08-12T09:52:14Z</time>
      </trkpt>
      <trkpt lat="44.98619" lon="6.771">
        <ele>1817.03</ele>
        <time>2024-08-12T09:52:15Z</time>
      </trkpt>
      <trkpt lat="44.98619" lon="6.77102">
        <ele>1817.03</ele>
        <time>2024-08-12T09:52:16Z</time>
      </trkpt>
      <trkpt lat="44.98619" lon="6.77103">
        <ele>1817.03</ele>
        <time>2024-08-12T09:52:17Z</time>
      </trkpt>
      <trkpt lat="44.98619" lon="6.77105">
        <ele>1817.03</ele>
        <time>2024-08-12T09:52:18Z</time>
      </trkpt>
      <trkpt lat="44.98621" lon="6.77121">
        <ele>1818.47</ele>
        <time>2024-08-12T09:52:28Z</time>
      </trkpt>
      <trkpt lat="44.9863" lon="6.77125">
        <ele>1820.87</ele>
        <time>2024-08-12T09:52:38Z</time>
      </trkpt>
      <trkpt lat="44.98634" lon="6.77119">
        <ele>1822.32</ele>
        <time>2024-08-12T09:52:50Z</time>
      </trkpt>
      <trkpt lat="44.98635" lon="6.77115">
        <ele>1822.8</ele>
        <time>2024-08-12T09:52:52Z</time>
      </trkpt>
      <trkpt lat="44.98635" lon="6.77113">
        <ele>1822.8</ele>
        <time>2024-08-12T09:52:53Z</time>
      </trkpt>
      <trkpt lat="44.98638" lon="6.77097">
        <ele>1825.2</ele>
        <time>2024-08-12T09:53:04Z</time>
      </trkpt>
      <trkpt lat="44.98639" lon="6.77092">
        <ele>1825.2</ele>
        <time>2024-08-12T09:53:08Z</time>
      </trkpt>
      <trkpt lat="44.98637" lon="6.77074">
        <ele>1827.6</ele>
        <time>2024-08-12T09:53:21Z</time>
      </trkpt>
      <trkpt lat="44.98636" lon="6.77071">
        <ele>1828.56</ele>
        <time>2024-08-12T09:53:24Z</time>
      </trkpt>
      <trkpt lat="44.98636" lon="6.77054">
        <ele>1831.45</ele>
        <time>2024-08-12T09:53:38Z</time>
      </trkpt>
      <trkpt lat="44.9864" lon="6.77043">
        <ele>1833.85</ele>
        <time>2024-08-12T09:53:52Z</time>
      </trkpt>
      <trkpt lat="44.98646" lon="6.77054">
        <ele>1835.77</ele>
        <time>2024-08-12T09:54:05Z</time>
      </trkpt>
      <trkpt lat="44.98649" lon="6.77059">
        <ele>1836.74</ele>
        <time>2024-08-12T09:54:10Z</time>
      </trkpt>
      <trkpt lat="44.98649" lon="6.7706">
        <ele>1836.74</ele>
        <time>2024-08-12T09:54:11Z</time>
      </trkpt>
      <trkpt lat="44.9865" lon="6.77062">
        <ele>1837.22</ele>
        <time>2024-08-12T09:54:12Z</time>
      </trkpt>
      <trkpt lat="44.98652" lon="6.77066">
        <ele>1837.7</ele>
        <time>2024-08-12T09:54:16Z</time>
      </trkpt>
      <trkpt lat="44.98659" lon="6.77077">
        <ele>1839.62</ele>
        <time>2024-08-12T09:54:29Z</time>
      </trkpt>
      <trkpt lat="44.98672" lon="6.77093">
        <ele>1842.98</ele>
        <time>2024-08-12T09:54:47Z</time>
      </trkpt>
      <trkpt lat="44.98679" lon="6.77096">
        <ele>1844.43</ele>
        <time>2024-08-12T09:54:54Z</time>
      </trkpt>
      <trkpt lat="44.9869" lon="6.77107">
        <ele>1846.83</ele>
        <time>2024-08-12T09:55:09Z</time>
      </trkpt>
      <trkpt lat="44.98701" lon="6.77116">
        <ele>1849.23</ele>
        <time>2024-08-12T09:55:22Z</time>
      </trkpt>
      <trkpt lat="44.98717" lon="6.77122">
        <ele>1852.12</ele>
        <time>2024-08-12T09:55:37Z</time>
      </trkpt>
      <trkpt lat="44.98728" lon="6.77129">
        <ele>1854.04</ele>
        <time>2024-08-12T09:55:49Z</time>
      </trkpt>
      <trkpt lat="44.98729" lon="6.77132">
        <ele>1854.52</ele>
        <time>2024-08-12T09:55:52Z</time>
      </trkpt>
      <trkpt lat="44.98738" lon="6.77133">
        <ele>1856.44</ele>
        <time>2024-08-12T09:56:04Z</time>
      </trkpt>
      <trkpt lat="44.98738" lon="6.77127">
        <ele>1857.4</ele>
        <time>2024-08-12T09:56:09Z</time>
      </trkpt>
      <trkpt lat="44.98737" lon="6.77125">
        <ele>1857.4</ele>
        <time>2024-08-12T09:56:10Z</time>
      </trkpt>
      <trkpt lat="44.98737" lon="6.77124">
        <ele>1857.4</ele>
        <time>2024-08-12T09:56:11Z</time>
      </trkpt>
      <trkpt lat="44.98735" lon="6.77123">
        <ele>1857.89</ele>
        <time>2024-08-12T09:56:13Z</time>
      </trkpt>
      <trkpt lat="44.9873" lon="6.7711">
        <ele>1859.81</ele>
        <time>2024-08-12T09:56:26Z</time>
      </trkpt>
      <trkpt lat="44.9873" lon="6.77107">
        <ele>1860.29</ele>
        <time>2024-08-12T09:56:28Z</time>
      </trkpt>
      <trkpt lat="44.98729" lon="6.77105">
        <ele>1860.29</ele>
        <time>2024-08-12T09:56:29Z</time>
      </trkpt>
      <trkpt lat="44.98729" lon="6.77104">
        <ele>1860.77</ele>
        <time>2024-08-12T09:56:30Z</time>
      </trkpt>
      <trkpt lat="44.98726" lon="6.77091">
        <ele>1861.73</ele>
        <time>2024-08-12T09:56:44Z</time>
      </trkpt>
      <trkpt lat="44.98727" lon="6.77092">
        <ele>1862.69</ele>
        <time>2024-08-12T09:57:02Z</time>
      </trkpt>
      <trkpt lat="44.98726" lon="6.77087">
        <ele>1862.69</ele>
        <time>2024-08-12T09:57:29Z</time>
      </trkpt>
      <trkpt lat="44.98722" lon="6.7706">
        <ele>1866.06</ele>
        <time>2024-08-12T09:57:45Z</time>
      </trkpt>
      <trkpt lat="44.98725" lon="6.77034">
        <ele>1867.98</ele>
        <time>2024-08-12T09:58:01Z</time>
      </trkpt>
      <trkpt lat="44.98724" lon="6.77023">
        <ele>1869.42</ele>
        <time>2024-08-12T09:58:08Z</time>
      </trkpt>
      <trkpt lat="44.98723" lon="6.77021">
        <ele>1869.9</ele>
        <time>2024-08-12T09:58:09Z</time>
      </trkpt>
      <trkpt lat="44.98722" lon="6.77019">
        <ele>1869.9</ele>
        <time>2024-08-12T09:58:11Z</time>
      </trkpt>
      <trkpt lat="44.98708" lon="6.76999">
        <ele>1872.79</ele>
        <time>2024-08-12T09:58:28Z</time>
      </trkpt>
      <trkpt lat="44.98708" lon="6.76998">
        <ele>1872.79</ele>
        <time>2024-08-12T09:58:29Z</time>
      </trkpt>
      <trkpt lat="44.98702" lon="6.76979">
        <ele>1875.67</ele>
        <time>2024-08-12T09:58:43Z</time>
      </trkpt>
      <trkpt lat="44.98699" lon="6.76971">
        <ele>1877.59</ele>
        <time>2024-08-12T09:58:50Z</time>
      </trkpt>
      <trkpt lat="44.98698" lon="6.76969">
        <ele>1877.59</ele>
        <time>2024-08-12T09:58:51Z</time>
      </trkpt>
      <trkpt lat="44.98696" lon="6.76967">
        <ele>1877.59</ele>
        <time>2024-08-12T09:58:53Z</time>
      </trkpt>
      <trkpt lat="44.98695" lon="6.76966">
        <ele>1878.07</ele>
        <time>2024-08-12T09:58:54Z</time>
      </trkpt>
      <trkpt lat="44.98694" lon="6.76965">
        <ele>1878.07</ele>
        <time>2024-08-12T09:58:55Z</time>
      </trkpt>
      <trkpt lat="44.9869" lon="6.76961">
        <ele>1878.55</ele>
        <time>2024-08-12T09:59:08Z</time>
      </trkpt>
      <trkpt lat="44.98688" lon="6.76962">
        <ele>1878.55</ele>
        <time>2024-08-12T09:59:42Z</time>
      </trkpt>
      <trkpt lat="44.98687" lon="6.7696">
        <ele>1879.03</ele>
        <time>2024-08-12T10:00:23Z</time>
      </trkpt>
      <trkpt lat="44.98688" lon="6.76962">
        <ele>1879.03</ele>
        <time>2024-08-12T10:01:13Z</time>
      </trkpt>
      <trkpt lat="44.98687" lon="6.7696">
        <ele>1879.51</ele>
        <time>2024-08-12T10:01:55Z</time>
      </trkpt>
      <trkpt lat="44.98691" lon="6.76962">
        <ele>1880</ele>
        <time>2024-08-12T10:02:37Z</time>
      </trkpt>
      <trkpt lat="44.9869" lon="6.76962">
        <ele>1880.96</ele>
        <time>2024-08-12T10:03:28Z</time>
      </trkpt>
      <trkpt lat="44.98693" lon="6.76954">
        <ele>1881.44</ele>
        <time>2024-08-12T10:04:22Z</time>
      </trkpt>
      <trkpt lat="44.98695" lon="6.76957">
        <ele>1881.92</ele>
        <time>2024-08-12T10:05:10Z</time>
      </trkpt>
      <trkpt lat="44.98694" lon="6.76962">
        <ele>1882.88</ele>
        <time>2024-08-12T10:05:58Z</time>
      </trkpt>
      <trkpt lat="44.98689" lon="6.76961">
        <ele>1882.88</ele>
        <time>2024-08-12T10:06:50Z</time>
      </trkpt>
      <trkpt lat="44.98691" lon="6.76958">
        <ele>1883.36</ele>
        <time>2024-08-12T10:07:43Z</time>
      </trkpt>
      <trkpt lat="44.98691" lon="6.7696">
        <ele>1883.84</ele>
        <time>2024-08-12T10:08:25Z</time>
      </trkpt>
      <trkpt lat="44.98687" lon="6.76964">
        <ele>1883.84</ele>
        <time>2024-08-12T10:09:02Z</time>
      </trkpt>
      <trkpt lat="44.9869" lon="6.7696">
        <ele>1884.32</ele>
        <time>2024-08-12T10:09:47Z</time>
      </trkpt>
      <trkpt lat="44.9869" lon="6.76962">
        <ele>1884.32</ele>
        <time>2024-08-12T10:10:30Z</time>
      </trkpt>
      <trkpt lat="44.98686" lon="6.76961">
        <ele>1884.32</ele>
        <time>2024-08-12T10:11:08Z</time>
      </trkpt>
      <trkpt lat="44.98688" lon="6.7696">
        <ele>1884.8</ele>
        <time>2024-08-12T10:11:51Z</time>
      </trkpt>
      <trkpt lat="44.98687" lon="6.76958">
        <ele>1885.28</ele>
        <time>2024-08-12T10:12:42Z</time>
      </trkpt>
      <trkpt lat="44.98683" lon="6.7696">
        <ele>1885.28</ele>
        <time>2024-08-12T10:13:30Z</time>
      </trkpt>
      <trkpt lat="44.98687" lon="6.7696">
        <ele>1885.76</ele>
        <time>2024-08-12T10:14:23Z</time>
      </trkpt>
      <trkpt lat="44.98688" lon="6.76962">
        <ele>1885.76</ele>
        <time>2024-08-12T10:15:02Z</time>
      </trkpt>
      <trkpt lat="44.9869" lon="6.76964">
        <ele>1885.76</ele>
        <time>2024-08-12T10:15:33Z</time>
      </trkpt>
      <trkpt lat="44.98687" lon="6.7696">
        <ele>1885.76</ele>
        <time>2024-08-12T10:15:58Z</time>
      </trkpt>
      <trkpt lat="44.98687" lon="6.7696">
        <ele>1885.76</ele>
        <time>2024-08-12T10:16:27Z</time>
      </trkpt>
      <trkpt lat="44.98688" lon="6.76962">
        <ele>1886.24</ele>
        <time>2024-08-12T10:17:03Z</time>
      </trkpt>
      <trkpt lat="44.98686" lon="6.76962">
        <ele>1886.24</ele>
        <time>2024-08-12T10:17:36Z</time>
      </trkpt>
      <trkpt lat="44.98689" lon="6.76962">
        <ele>1886.24</ele>
        <time>2024-08-12T10:17:54Z</time>
      </trkpt>
      <trkpt lat="44.98687" lon="6.76962">
        <ele>1886.24</ele>
        <time>2024-08-12T10:18:17Z</time>
      </trkpt>
      <trkpt lat="44.98689" lon="6.7696">
        <ele>1886.24</ele>
        <time>2024-08-12T10:18:36Z</time>
      </trkpt>
      <trkpt lat="44.98689" lon="6.76958">
        <ele>1886.72</ele>
        <time>2024-08-12T10:18:55Z</time>
      </trkpt>
      <trkpt lat="44.9869" lon="6.76958">
        <ele>1886.72</ele>
        <time>2024-08-12T10:19:10Z</time>
      </trkpt>
      <trkpt lat="44.98695" lon="6.76945">
        <ele>1887.21</ele>
        <time>2024-08-12T10:19:23Z</time>
      </trkpt>
      <trkpt lat="44.98704" lon="6.76926">
        <ele>1889.61</ele>
        <time>2024-08-12T10:19:39Z</time>
      </trkpt>
      <trkpt lat="44.98704" lon="6.76925">
        <ele>1890.09</ele>
        <time>2024-08-12T10:19:40Z</time>
      </trkpt>
      <trkpt lat="44.98705" lon="6.76917">
        <ele>1891.05</ele>
        <time>2024-08-12T10:19:46Z</time>
      </trkpt>
      <trkpt lat="44.987" lon="6.76909">
        <ele>1891.53</ele>
        <time>2024-08-12T10:19:54Z</time>
      </trkpt>
      <trkpt lat="44.98682" lon="6.76906">
        <ele>1892.97</ele>
        <time>2024-08-12T10:20:08Z</time>
      </trkpt>
      <trkpt lat="44.98666" lon="6.76909">
        <ele>1895.38</ele>
        <time>2024-08-12T10:20:22Z</time>
      </trkpt>
      <trkpt lat="44.98665" lon="6.76909">
        <ele>1895.86</ele>
        <time>2024-08-12T10:20:23Z</time>
      </trkpt>
      <trkpt lat="44.9866" lon="6.7691">
        <ele>1896.82</ele>
        <time>2024-08-12T10:20:27Z</time>
      </trkpt>
      <trkpt lat="44.98659" lon="6.7691">
        <ele>1896.82</ele>
        <time>2024-08-12T10:20:28Z</time>
      </trkpt>
      <trkpt lat="44.98658" lon="6.7691">
        <ele>1897.3</ele>
        <time>2024-08-12T10:20:29Z</time>
      </trkpt>
      <trkpt lat="44.98657" lon="6.76909">
        <ele>1897.3</ele>
        <time>2024-08-12T10:20:30Z</time>
      </trkpt>
      <trkpt lat="44.98656" lon="6.76908">
        <ele>1897.3</ele>
        <time>2024-08-12T10:20:31Z</time>
      </trkpt>
      <trkpt lat="44.98655" lon="6.76907">
        <ele>1897.3</ele>
        <time>2024-08-12T10:20:32Z</time>
      </trkpt>
      <trkpt lat="44.98654" lon="6.76906">
        <ele>1897.3</ele>
        <time>2024-08-12T10:20:33Z</time>
      </trkpt>
      <trkpt lat="44.98653" lon="6.76905">
        <ele>1897.78</ele>
        <time>2024-08-12T10:20:34Z</time>
      </trkpt>
      <trkpt lat="44.98652" lon="6.76904">
        <ele>1897.78</ele>
        <time>2024-08-12T10:20:35Z</time>
      </trkpt>
      <trkpt lat="44.98642" lon="6.76893">
        <ele>1899.22</ele>
        <time>2024-08-12T10:20:46Z</time>
      </trkpt>
      <trkpt lat="44.98641" lon="6.76892">
        <ele>1899.22</ele>
        <time>2024-08-12T10:20:47Z</time>
      </trkpt>
      <trkpt lat="44.98638" lon="6.76889">
        <ele>1899.22</ele>
        <time>2024-08-12T10:20:50Z</time>
      </trkpt>
      <trkpt lat="44.98636" lon="6.76888">
        <ele>1900.18</ele>
        <time>2024-08-12T10:20:51Z</time>
      </trkpt>
      <trkpt lat="44.98635" lon="6.76887">
        <ele>1900.18</ele>
        <time>2024-08-12T10:20:52Z</time>
      </trkpt>
      <trkpt lat="44.98635" lon="6.76886">
        <ele>1900.18</ele>
        <time>2024-08-12T10:20:53Z</time>
      </trkpt>
      <trkpt lat="44.98634" lon="6.76884">
        <ele>1900.18</ele>
        <time>2024-08-12T10:20:54Z</time>
      </trkpt>
      <trkpt lat="44.98633" lon="6.76883">
        <ele>1900.66</ele>
        <time>2024-08-12T10:20:55Z</time>
      </trkpt>
      <trkpt lat="44.98626" lon="6.76874">
        <ele>1902.11</ele>
        <time>2024-08-12T10:21:03Z</time>
      </trkpt>
      <trkpt lat="44.98626" lon="6.76872">
        <ele>1902.11</ele>
        <time>2024-08-12T10:21:04Z</time>
      </trkpt>
      <trkpt lat="44.98625" lon="6.7687">
        <ele>1902.11</ele>
        <time>2024-08-12T10:21:05Z</time>
      </trkpt>
      <trkpt lat="44.98609" lon="6.76854">
        <ele>1904.51</ele>
        <time>2024-08-12T10:21:21Z</time>
      </trkpt>
      <trkpt lat="44.98597" lon="6.76839">
        <ele>1906.91</ele>
        <time>2024-08-12T10:21:35Z</time>
      </trkpt>
      <trkpt lat="44.98585" lon="6.76824">
        <ele>1908.83</ele>
        <time>2024-08-12T10:21:49Z</time>
      </trkpt>
      <trkpt lat="44.9858" lon="6.76818">
        <ele>1909.32</ele>
        <time>2024-08-12T10:21:54Z</time>
      </trkpt>
      <trkpt lat="44.98579" lon="6.76817">
        <ele>1909.8</ele>
        <time>2024-08-12T10:21:55Z</time>
      </trkpt>
      <trkpt lat="44.98577" lon="6.76816">
        <ele>1909.8</ele>
        <time>2024-08-12T10:21:56Z</time>
      </trkpt>
      <trkpt lat="44.98559" lon="6.76792">
        <ele>1912.2</ele>
        <time>2024-08-12T10:22:13Z</time>
      </trkpt>
      <trkpt lat="44.98542" lon="6.76775">
        <ele>1914.6</ele>
        <time>2024-08-12T10:22:27Z</time>
      </trkpt>
      <trkpt lat="44.98519" lon="6.7676">
        <ele>1917.49</ele>
        <time>2024-08-12T10:22:45Z</time>
      </trkpt>
      <trkpt lat="44.98497" lon="6.76746">
        <ele>1919.89</ele>
        <time>2024-08-12T10:23:01Z</time>
      </trkpt>
      <trkpt lat="44.98484" lon="6.76717">
        <ele>1921.33</ele>
        <time>2024-08-12T10:23:17Z</time>
      </trkpt>
      <trkpt lat="44.98488" lon="6.7667">
        <ele>1922.29</ele>
        <time>2024-08-12T10:23:31Z</time>
      </trkpt>
      <trkpt lat="44.98491" lon="6.76614">
        <ele>1925.18</ele>
        <time>2024-08-12T10:23:48Z</time>
      </trkpt>
      <trkpt lat="44.98491" lon="6.76611">
        <ele>1925.18</ele>
        <time>2024-08-12T10:23:49Z</time>
      </trkpt>
      <trkpt lat="44.98491" lon="6.76609">
        <ele>1925.18</ele>
        <time>2024-08-12T10:23:50Z</time>
      </trkpt>
      <trkpt lat="44.98491" lon="6.76606">
        <ele>1925.66</ele>
        <time>2024-08-12T10:23:51Z</time>
      </trkpt>
      <trkpt lat="44.98491" lon="6.76603">
        <ele>1925.66</ele>
        <time>2024-08-12T10:23:52Z</time>
      </trkpt>
      <trkpt lat="44.98491" lon="6.76601">
        <ele>1926.14</ele>
        <time>2024-08-12T10:23:53Z</time>
      </trkpt>
      <trkpt lat="44.98486" lon="6.7657">
        <ele>1928.54</ele>
        <time>2024-08-12T10:24:08Z</time>
      </trkpt>
      <trkpt lat="44.98479" lon="6.76548">
        <ele>1930.95</ele>
        <time>2024-08-12T10:24:22Z</time>
      </trkpt>
      <trkpt lat="44.98477" lon="6.76542">
        <ele>1931.91</ele>
        <time>2024-08-12T10:24:26Z</time>
      </trkpt>
      <trkpt lat="44.98476" lon="6.76536">
        <ele>1932.87</ele>
        <time>2024-08-12T10:24:30Z</time>
      </trkpt>
      <trkpt lat="44.98475" lon="6.76535">
        <ele>1932.87</ele>
        <time>2024-08-12T10:24:31Z</time>
      </trkpt>
      <trkpt lat="44.9847" lon="6.76522">
        <ele>1935.75</ele>
        <time>2024-08-12T10:24:42Z</time>
      </trkpt>
      <trkpt lat="44.98469" lon="6.7652">
        <ele>1936.23</ele>
        <time>2024-08-12T10:24:44Z</time>
      </trkpt>
      <trkpt lat="44.98467" lon="6.76514">
        <ele>1937.19</ele>
        <time>2024-08-12T10:24:48Z</time>
      </trkpt>
      <trkpt lat="44.98458" lon="6.765">
        <ele>1939.12</ele>
        <time>2024-08-12T10:25:01Z</time>
      </trkpt>
      <trkpt lat="44.9845" lon="6.76487">
        <ele>1941.04</ele>
        <time>2024-08-12T10:25:12Z</time>
      </trkpt>
      <trkpt lat="44.9844" lon="6.76475">
        <ele>1942.96</ele>
        <time>2024-08-12T10:25:25Z</time>
      </trkpt>
      <trkpt lat="44.98435" lon="6.76473">
        <ele>1943.92</ele>
        <time>2024-08-12T10:25:29Z</time>
      </trkpt>
      <trkpt lat="44.98429" lon="6.76471">
        <ele>1944.88</ele>
        <time>2024-08-12T10:25:35Z</time>
      </trkpt>
      <trkpt lat="44.98419" lon="6.76455">
        <ele>1948.25</ele>
        <time>2024-08-12T10:25:50Z</time>
      </trkpt>
      <trkpt lat="44.98419" lon="6.76454">
        <ele>1948.25</ele>
        <time>2024-08-12T10:25:51Z</time>
      </trkpt>
      <trkpt lat="44.98418" lon="6.76453">
        <ele>1948.25</ele>
        <time>2024-08-12T10:25:52Z</time>
      </trkpt>
      <trkpt lat="44.98418" lon="6.76451">
        <ele>1948.73</ele>
        <time>2024-08-12T10:25:53Z</time>
      </trkpt>
      <trkpt lat="44.98418" lon="6.7645">
        <ele>1948.73</ele>
        <time>2024-08-12T10:25:54Z</time>
      </trkpt>
      <trkpt lat="44.98418" lon="6.76448">
        <ele>1948.73</ele>
        <time>2024-08-12T10:25:55Z</time>
      </trkpt>
      <trkpt lat="44.98417" lon="6.76446">
        <ele>1949.21</ele>
        <time>2024-08-12T10:25:56Z</time>
      </trkpt>
      <trkpt lat="44.98417" lon="6.76423">
        <ele>1952.09</ele>
        <time>2024-08-12T10:26:13Z</time>
      </trkpt>
      <trkpt lat="44.98416" lon="6.76411">
        <ele>1953.06</ele>
        <time>2024-08-12T10:26:21Z</time>
      </trkpt>
      <trkpt lat="44.98416" lon="6.76409">
        <ele>1953.54</ele>
        <time>2024-08-12T10:26:23Z</time>
      </trkpt>
      <trkpt lat="44.98412" lon="6.76388">
        <ele>1955.94</ele>
        <time>2024-08-12T10:26:38Z</time>
      </trkpt>
      <trkpt lat="44.98406" lon="6.76361">
        <ele>1959.3</ele>
        <time>2024-08-12T10:26:54Z</time>
      </trkpt>
      <trkpt lat="44.98389" lon="6.76338">
        <ele>1961.23</ele>
        <time>2024-08-12T10:27:09Z</time>
      </trkpt>
      <trkpt lat="44.98366" lon="6.76304">
        <ele>1962.19</ele>
        <time>2024-08-12T10:27:22Z</time>
      </trkpt>
      <trkpt lat="44.98377" lon="6.76256">
        <ele>1960.27</ele>
        <time>2024-08-12T10:27:32Z</time>
      </trkpt>
      <trkpt lat="44.98379" lon="6.76248">
        <ele>1959.78</ele>
        <time>2024-08-12T10:27:33Z</time>
      </trkpt>
      <trkpt lat="44.98381" lon="6.76243">
        <ele>1959.78</ele>
        <time>2024-08-12T10:27:34Z</time>
      </trkpt>
      <trkpt lat="44.98386" lon="6.76228">
        <ele>1961.23</ele>
        <time>2024-08-12T10:27:39Z</time>
      </trkpt>
      <trkpt lat="44.98399" lon="6.76206">
        <ele>1961.71</ele>
        <time>2024-08-12T10:27:51Z</time>
      </trkpt>
      <trkpt lat="44.98401" lon="6.76204">
        <ele>1962.19</ele>
        <time>2024-08-12T10:28:04Z</time>
      </trkpt>
      <trkpt lat="44.98406" lon="6.76198">
        <ele>1962.19</ele>
        <time>2024-08-12T10:28:18Z</time>
      </trkpt>
      <trkpt lat="44.98401" lon="6.76192">
        <ele>1962.67</ele>
        <time>2024-08-12T10:28:30Z</time>
      </trkpt>
      <trkpt lat="44.98399" lon="6.76191">
        <ele>1962.67</ele>
        <time>2024-08-12T10:28:33Z</time>
      </trkpt>
      <trkpt lat="44.98392" lon="6.76189">
        <ele>1962.67</ele>
        <time>2024-08-12T10:28:39Z</time>
      </trkpt>
      <trkpt lat="44.98391" lon="6.76188">
        <ele>1962.67</ele>
        <time>2024-08-12T10:28:40Z</time>
      </trkpt>
      <trkpt lat="44.9839" lon="6.76186">
        <ele>1962.67</ele>
        <time>2024-08-12T10:28:41Z</time>
      </trkpt>
      <trkpt lat="44.9839" lon="6.76184">
        <ele>1962.67</ele>
        <time>2024-08-12T10:28:42Z</time>
      </trkpt>
      <trkpt lat="44.98388" lon="6.76183">
        <ele>1962.67</ele>
        <time>2024-08-12T10:28:44Z</time>
      </trkpt>
      <trkpt lat="44.98387" lon="6.76183">
        <ele>1962.67</ele>
        <time>2024-08-12T10:28:45Z</time>
      </trkpt>
      <trkpt lat="44.98377" lon="6.76176">
        <ele>1963.15</ele>
        <time>2024-08-12T10:28:58Z</time>
      </trkpt>
      <trkpt lat="44.9837" lon="6.76172">
        <ele>1963.63</ele>
        <time>2024-08-12T10:29:11Z</time>
      </trkpt>
      <trkpt lat="44.98365" lon="6.76173">
        <ele>1962.19</ele>
        <time>2024-08-12T10:29:16Z</time>
      </trkpt>
      <trkpt lat="44.98363" lon="6.76174">
        <ele>1962.19</ele>
        <time>2024-08-12T10:29:18Z</time>
      </trkpt>
      <trkpt lat="44.98362" lon="6.76175">
        <ele>1962.19</ele>
        <time>2024-08-12T10:29:19Z</time>
      </trkpt>
      <trkpt lat="44.9836" lon="6.76176">
        <ele>1961.71</ele>
        <time>2024-08-12T10:29:20Z</time>
      </trkpt>
      <trkpt lat="44.98359" lon="6.76177">
        <ele>1961.71</ele>
        <time>2024-08-12T10:29:21Z</time>
      </trkpt>
      <trkpt lat="44.98349" lon="6.76179">
        <ele>1961.71</ele>
        <time>2024-08-12T10:29:32Z</time>
      </trkpt>
      <trkpt lat="44.98338" lon="6.76181">
        <ele>1961.71</ele>
        <time>2024-08-12T10:29:47Z</time>
      </trkpt>
      <trkpt lat="44.98328" lon="6.76185">
        <ele>1961.71</ele>
        <time>2024-08-12T10:30:00Z</time>
      </trkpt>
      <trkpt lat="44.98319" lon="6.76187">
        <ele>1963.15</ele>
        <time>2024-08-12T10:30:05Z</time>
      </trkpt>
      <trkpt lat="44.98303" lon="6.76194">
        <ele>1964.11</ele>
        <time>2024-08-12T10:30:17Z</time>
      </trkpt>
      <trkpt lat="44.98286" lon="6.76204">
        <ele>1966.99</ele>
        <time>2024-08-12T10:30:32Z</time>
      </trkpt>
      <trkpt lat="44.98278" lon="6.76205">
        <ele>1967.96</ele>
        <time>2024-08-12T10:30:44Z</time>
      </trkpt>
      <trkpt lat="44.98268" lon="6.76208">
        <ele>1969.88</ele>
        <time>2024-08-12T10:30:59Z</time>
      </trkpt>
      <trkpt lat="44.98265" lon="6.76211">
        <ele>1969.88</ele>
        <time>2024-08-12T10:31:04Z</time>
      </trkpt>
      <trkpt lat="44.98262" lon="6.76215">
        <ele>1970.36</ele>
        <time>2024-08-12T10:31:10Z</time>
      </trkpt>
      <trkpt lat="44.9826" lon="6.76217">
        <ele>1970.36</ele>
        <time>2024-08-12T10:31:12Z</time>
      </trkpt>
      <trkpt lat="44.98256" lon="6.76227">
        <ele>1970.36</ele>
        <time>2024-08-12T10:31:22Z</time>
      </trkpt>
      <trkpt lat="44.98244" lon="6.76247">
        <ele>1972.76</ele>
        <time>2024-08-12T10:31:36Z</time>
      </trkpt>
      <trkpt lat="44.98232" lon="6.76265">
        <ele>1974.2</ele>
        <time>2024-08-12T10:31:49Z</time>
      </trkpt>
      <trkpt lat="44.98225" lon="6.76278">
        <ele>1976.61</ele>
        <time>2024-08-12T10:31:59Z</time>
      </trkpt>
      <trkpt lat="44.98225" lon="6.7628">
        <ele>1976.61</ele>
        <time>2024-08-12T10:32:00Z</time>
      </trkpt>
      <trkpt lat="44.98225" lon="6.76282">
        <ele>1976.61</ele>
        <time>2024-08-12T10:32:01Z</time>
      </trkpt>
      <trkpt lat="44.98219" lon="6.76306">
        <ele>1979.97</ele>
        <time>2024-08-12T10:32:17Z</time>
      </trkpt>
      <trkpt lat="44.982" lon="6.76313">
        <ele>1982.38</ele>
        <time>2024-08-12T10:32:33Z</time>
      </trkpt>
      <trkpt lat="44.98184" lon="6.76317">
        <ele>1985.26</ele>
        <time>2024-08-12T10:32:47Z</time>
      </trkpt>
      <trkpt lat="44.98183" lon="6.76317">
        <ele>1985.26</ele>
        <time>2024-08-12T10:32:48Z</time>
      </trkpt>
      <trkpt lat="44.98181" lon="6.76318">
        <ele>1985.74</ele>
        <time>2024-08-12T10:32:50Z</time>
      </trkpt>
      <trkpt lat="44.9818" lon="6.76318">
        <ele>1985.74</ele>
        <time>2024-08-12T10:32:51Z</time>
      </trkpt>
      <trkpt lat="44.98179" lon="6.76318">
        <ele>1985.74</ele>
        <time>2024-08-12T10:32:52Z</time>
      </trkpt>
      <trkpt lat="44.98171" lon="6.76315">
        <ele>1986.7</ele>
        <time>2024-08-12T10:32:58Z</time>
      </trkpt>
      <trkpt lat="44.9817" lon="6.76314">
        <ele>1987.18</ele>
        <time>2024-08-12T10:32:59Z</time>
      </trkpt>
      <trkpt lat="44.98168" lon="6.76313">
        <ele>1987.18</ele>
        <time>2024-08-12T10:33:00Z</time>
      </trkpt>
      <trkpt lat="44.98147" lon="6.76296">
        <ele>1990.07</ele>
        <time>2024-08-12T10:33:16Z</time>
      </trkpt>
      <trkpt lat="44.98143" lon="6.7629">
        <ele>1990.55</ele>
        <time>2024-08-12T10:33:20Z</time>
      </trkpt>
      <trkpt lat="44.98134" lon="6.76267">
        <ele>1993.43</ele>
        <time>2024-08-12T10:33:33Z</time>
      </trkpt>
      <trkpt lat="44.98129" lon="6.7626">
        <ele>1994.39</ele>
        <time>2024-08-12T10:33:38Z</time>
      </trkpt>
      <trkpt lat="44.98128" lon="6.76259">
        <ele>1994.87</ele>
        <time>2024-08-12T10:33:39Z</time>
      </trkpt>
      <trkpt lat="44.98126" lon="6.76259">
        <ele>1994.87</ele>
        <time>2024-08-12T10:33:40Z</time>
      </trkpt>
      <trkpt lat="44.98125" lon="6.76259">
        <ele>1994.87</ele>
        <time>2024-08-12T10:33:41Z</time>
      </trkpt>
      <trkpt lat="44.98123" lon="6.76259">
        <ele>1994.87</ele>
        <time>2024-08-12T10:33:42Z</time>
      </trkpt>
      <trkpt lat="44.9812" lon="6.76261">
        <ele>1995.35</ele>
        <time>2024-08-12T10:33:44Z</time>
      </trkpt>
      <trkpt lat="44.98099" lon="6.76266">
        <ele>1998.72</ele>
        <time>2024-08-12T10:34:00Z</time>
      </trkpt>
      <trkpt lat="44.98082" lon="6.76265">
        <ele>2001.12</ele>
        <time>2024-08-12T10:34:15Z</time>
      </trkpt>
      <trkpt lat="44.98063" lon="6.76265">
        <ele>2004.49</ele>
        <time>2024-08-12T10:34:31Z</time>
      </trkpt>
      <trkpt lat="44.98051" lon="6.76268">
        <ele>2006.41</ele>
        <time>2024-08-12T10:34:42Z</time>
      </trkpt>
      <trkpt lat="44.9805" lon="6.76267">
        <ele>2006.41</ele>
        <time>2024-08-12T10:34:43Z</time>
      </trkpt>
      <trkpt lat="44.98049" lon="6.76267">
        <ele>2006.89</ele>
        <time>2024-08-12T10:34:44Z</time>
      </trkpt>
      <trkpt lat="44.98029" lon="6.76255">
        <ele>2009.29</ele>
        <time>2024-08-12T10:35:03Z</time>
      </trkpt>
      <trkpt lat="44.9801" lon="6.76248">
        <ele>2011.7</ele>
        <time>2024-08-12T10:35:19Z</time>
      </trkpt>
      <trkpt lat="44.97983" lon="6.76245">
        <ele>2015.06</ele>
        <time>2024-08-12T10:35:38Z</time>
      </trkpt>
      <trkpt lat="44.9796" lon="6.76237">
        <ele>2018.43</ele>
        <time>2024-08-12T10:35:55Z</time>
      </trkpt>
      <trkpt lat="44.97943" lon="6.76225">
        <ele>2021.31</ele>
        <time>2024-08-12T10:36:12Z</time>
      </trkpt>
      <trkpt lat="44.97928" lon="6.76211">
        <ele>2023.71</ele>
        <time>2024-08-12T10:36:28Z</time>
      </trkpt>
      <trkpt lat="44.97917" lon="6.76205">
        <ele>2026.12</ele>
        <time>2024-08-12T10:36:39Z</time>
      </trkpt>
      <trkpt lat="44.97916" lon="6.76204">
        <ele>2026.12</ele>
        <time>2024-08-12T10:36:40Z</time>
      </trkpt>
      <trkpt lat="44.979" lon="6.7619">
        <ele>2029</ele>
        <time>2024-08-12T10:36:57Z</time>
      </trkpt>
      <trkpt lat="44.97885" lon="6.76181">
        <ele>2031.88</ele>
        <time>2024-08-12T10:37:13Z</time>
      </trkpt>
      <trkpt lat="44.97875" lon="6.76175">
        <ele>2034.29</ele>
        <time>2024-08-12T10:37:24Z</time>
      </trkpt>
      <trkpt lat="44.97866" lon="6.76166">
        <ele>2035.73</ele>
        <time>2024-08-12T10:37:35Z</time>
      </trkpt>
      <trkpt lat="44.97863" lon="6.76164">
        <ele>2036.21</ele>
        <time>2024-08-12T10:37:39Z</time>
      </trkpt>
      <trkpt lat="44.97847" lon="6.76152">
        <ele>2039.09</ele>
        <time>2024-08-12T10:37:56Z</time>
      </trkpt>
      <trkpt lat="44.97832" lon="6.7614">
        <ele>2041.98</ele>
        <time>2024-08-12T10:38:13Z</time>
      </trkpt>
      <trkpt lat="44.97815" lon="6.76124">
        <ele>2044.38</ele>
        <time>2024-08-12T10:38:32Z</time>
      </trkpt>
      <trkpt lat="44.97814" lon="6.76122">
        <ele>2045.34</ele>
        <time>2024-08-12T10:38:34Z</time>
      </trkpt>
      <trkpt lat="44.97813" lon="6.76121">
        <ele>2045.34</ele>
        <time>2024-08-12T10:38:35Z</time>
      </trkpt>
      <trkpt lat="44.97812" lon="6.7612">
        <ele>2045.34</ele>
        <time>2024-08-12T10:38:36Z</time>
      </trkpt>
      <trkpt lat="44.97811" lon="6.76119">
        <ele>2045.82</ele>
        <time>2024-08-12T10:38:37Z</time>
      </trkpt>
      <trkpt lat="44.9781" lon="6.76119">
        <ele>2045.82</ele>
        <time>2024-08-12T10:38:38Z</time>
      </trkpt>
      <trkpt lat="44.97809" lon="6.76118">
        <ele>2045.82</ele>
        <time>2024-08-12T10:38:39Z</time>
      </trkpt>
      <trkpt lat="44.97808" lon="6.76117">
        <ele>2045.82</ele>
        <time>2024-08-12T10:38:40Z</time>
      </trkpt>
      <trkpt lat="44.97808" lon="6.76115">
        <ele>2045.82</ele>
        <time>2024-08-12T10:38:41Z</time>
      </trkpt>
      <trkpt lat="44.97807" lon="6.76114">
        <ele>2046.3</ele>
        <time>2024-08-12T10:38:42Z</time>
      </trkpt>
      <trkpt lat="44.97807" lon="6.76112">
        <ele>2046.3</ele>
        <time>2024-08-12T10:38:43Z</time>
      </trkpt>
      <trkpt lat="44.97806" lon="6.76111">
        <ele>2046.3</ele>
        <time>2024-08-12T10:38:44Z</time>
      </trkpt>
      <trkpt lat="44.97805" lon="6.7611">
        <ele>2046.3</ele>
        <time>2024-08-12T10:38:45Z</time>
      </trkpt>
      <trkpt lat="44.97805" lon="6.76108">
        <ele>2046.3</ele>
        <time>2024-08-12T10:38:46Z</time>
      </trkpt>
      <trkpt lat="44.97804" lon="6.76107">
        <ele>2046.3</ele>
        <time>2024-08-12T10:38:47Z</time>
      </trkpt>
      <trkpt lat="44.97804" lon="6.76105">
        <ele>2046.78</ele>
        <time>2024-08-12T10:38:48Z</time>
      </trkpt>
      <trkpt lat="44.97804" lon="6.76103">
        <ele>2046.78</ele>
        <time>2024-08-12T10:38:49Z</time>
      </trkpt>
      <trkpt lat="44.97804" lon="6.76101">
        <ele>2046.78</ele>
        <time>2024-08-12T10:38:50Z</time>
      </trkpt>
      <trkpt lat="44.97804" lon="6.76099">
        <ele>2047.26</ele>
        <time>2024-08-12T10:38:51Z</time>
      </trkpt>
      <trkpt lat="44.97804" lon="6.76098">
        <ele>2047.26</ele>
        <time>2024-08-12T10:38:52Z</time>
      </trkpt>
      <trkpt lat="44.97804" lon="6.76097">
        <ele>2047.26</ele>
        <time>2024-08-12T10:38:53Z</time>
      </trkpt>
      <trkpt lat="44.97804" lon="6.76095">
        <ele>2047.75</ele>
        <time>2024-08-12T10:38:54Z</time>
      </trkpt>
      <trkpt lat="44.97805" lon="6.76094">
        <ele>2047.75</ele>
        <time>2024-08-12T10:38:55Z</time>
      </trkpt>
      <trkpt lat="44.97805" lon="6.76092">
        <ele>2048.23</ele>
        <time>2024-08-12T10:38:56Z</time>
      </trkpt>
      <trkpt lat="44.97805" lon="6.76091">
        <ele>2048.23</ele>
        <time>2024-08-12T10:38:57Z</time>
      </trkpt>
      <trkpt lat="44.97806" lon="6.7609">
        <ele>2048.23</ele>
        <time>2024-08-12T10:38:58Z</time>
      </trkpt>
      <trkpt lat="44.97823" lon="6.76089">
        <ele>2050.15</ele>
        <time>2024-08-12T10:39:12Z</time>
      </trkpt>
      <trkpt lat="44.97851" lon="6.76118">
        <ele>2053.03</ele>
        <time>2024-08-12T10:39:32Z</time>
      </trkpt>
      <trkpt lat="44.97859" lon="6.76113">
        <ele>2053.99</ele>
        <time>2024-08-12T10:39:38Z</time>
      </trkpt>
      <trkpt lat="44.97859" lon="6.76111">
        <ele>2054.47</ele>
        <time>2024-08-12T10:39:39Z</time>
      </trkpt>
      <trkpt lat="44.9786" lon="6.76104">
        <ele>2055.44</ele>
        <time>2024-08-12T10:39:45Z</time>
      </trkpt>
      <trkpt lat="44.97859" lon="6.76102">
        <ele>2055.44</ele>
        <time>2024-08-12T10:39:46Z</time>
      </trkpt>
      <trkpt lat="44.97853" lon="6.76092">
        <ele>2056.88</ele>
        <time>2024-08-12T10:39:55Z</time>
      </trkpt>
      <trkpt lat="44.97851" lon="6.76087">
        <ele>2057.36</ele>
        <time>2024-08-12T10:39:59Z</time>
      </trkpt>
      <trkpt lat="44.97841" lon="6.76072">
        <ele>2060.24</ele>
        <time>2024-08-12T10:40:13Z</time>
      </trkpt>
      <trkpt lat="44.97832" lon="6.76061">
        <ele>2063.13</ele>
        <time>2024-08-12T10:40:25Z</time>
      </trkpt>
      <trkpt lat="44.97821" lon="6.76047">
        <ele>2065.05</ele>
        <time>2024-08-12T10:40:41Z</time>
      </trkpt>
      <trkpt lat="44.97808" lon="6.76034">
        <ele>2067.93</ele>
        <time>2024-08-12T10:40:57Z</time>
      </trkpt>
      <trkpt lat="44.97802" lon="6.76027">
        <ele>2069.38</ele>
        <time>2024-08-12T10:41:05Z</time>
      </trkpt>
      <trkpt lat="44.97801" lon="6.76025">
        <ele>2069.38</ele>
        <time>2024-08-12T10:41:06Z</time>
      </trkpt>
      <trkpt lat="44.97802" lon="6.76006">
        <ele>2071.78</ele>
        <time>2024-08-12T10:41:23Z</time>
      </trkpt>
      <trkpt lat="44.97803" lon="6.76002">
        <ele>2072.26</ele>
        <time>2024-08-12T10:41:32Z</time>
      </trkpt>
      <trkpt lat="44.97808" lon="6.75991">
        <ele>2074.18</ele>
        <time>2024-08-12T10:41:44Z</time>
      </trkpt>
      <trkpt lat="44.97812" lon="6.75976">
        <ele>2076.59</ele>
        <time>2024-08-12T10:41:56Z</time>
      </trkpt>
      <trkpt lat="44.9781" lon="6.75961">
        <ele>2078.51</ele>
        <time>2024-08-12T10:42:07Z</time>
      </trkpt>
      <trkpt lat="44.97809" lon="6.7596">
        <ele>2078.51</ele>
        <time>2024-08-12T10:42:08Z</time>
      </trkpt>
      <trkpt lat="44.978" lon="6.75943">
        <ele>2081.87</ele>
        <time>2024-08-12T10:42:23Z</time>
      </trkpt>
      <trkpt lat="44.97796" lon="6.75933">
        <ele>2083.31</ele>
        <time>2024-08-12T10:42:31Z</time>
      </trkpt>
      <trkpt lat="44.97795" lon="6.75932">
        <ele>2083.31</ele>
        <time>2024-08-12T10:42:32Z</time>
      </trkpt>
      <trkpt lat="44.97787" lon="6.7591">
        <ele>2085.72</ele>
        <time>2024-08-12T10:42:48Z</time>
      </trkpt>
      <trkpt lat="44.97786" lon="6.75904">
        <ele>2086.2</ele>
        <time>2024-08-12T10:42:52Z</time>
      </trkpt>
      <trkpt lat="44.97777" lon="6.75891">
        <ele>2088.12</ele>
        <time>2024-08-12T10:43:03Z</time>
      </trkpt>
      <trkpt lat="44.97777" lon="6.75889">
        <ele>2088.12</ele>
        <time>2024-08-12T10:43:04Z</time>
      </trkpt>
      <trkpt lat="44.97771" lon="6.7587">
        <ele>2090.52</ele>
        <time>2024-08-12T10:43:18Z</time>
      </trkpt>
      <trkpt lat="44.97765" lon="6.75856">
        <ele>2092.45</ele>
        <time>2024-08-12T10:43:29Z</time>
      </trkpt>
      <trkpt lat="44.97766" lon="6.75855">
        <ele>2092.45</ele>
        <time>2024-08-12T10:43:30Z</time>
      </trkpt>
      <trkpt lat="44.97767" lon="6.75854">
        <ele>2092.93</ele>
        <time>2024-08-12T10:43:31Z</time>
      </trkpt>
      <trkpt lat="44.97769" lon="6.75855">
        <ele>2092.93</ele>
        <time>2024-08-12T10:43:33Z</time>
      </trkpt>
      <trkpt lat="44.9777" lon="6.75855">
        <ele>2092.93</ele>
        <time>2024-08-12T10:43:34Z</time>
      </trkpt>
      <trkpt lat="44.97771" lon="6.75857">
        <ele>2093.41</ele>
        <time>2024-08-12T10:43:35Z</time>
      </trkpt>
      <trkpt lat="44.97782" lon="6.75872">
        <ele>2095.33</ele>
        <time>2024-08-12T10:43:50Z</time>
      </trkpt>
      <trkpt lat="44.97794" lon="6.75882">
        <ele>2097.73</ele>
        <time>2024-08-12T10:44:04Z</time>
      </trkpt>
      <trkpt lat="44.97806" lon="6.759">
        <ele>2101.1</ele>
        <time>2024-08-12T10:44:21Z</time>
      </trkpt>
      <trkpt lat="44.97807" lon="6.75901">
        <ele>2101.58</ele>
        <time>2024-08-12T10:44:23Z</time>
      </trkpt>
      <trkpt lat="44.97818" lon="6.75907">
        <ele>2103.02</ele>
        <time>2024-08-12T10:44:35Z</time>
      </trkpt>
      <trkpt lat="44.97822" lon="6.75907">
        <ele>2103.5</ele>
        <time>2024-08-12T10:44:38Z</time>
      </trkpt>
      <trkpt lat="44.97835" lon="6.75911">
        <ele>2106.39</ele>
        <time>2024-08-12T10:44:52Z</time>
      </trkpt>
      <trkpt lat="44.97838" lon="6.7591">
        <ele>2106.87</ele>
        <time>2024-08-12T10:44:55Z</time>
      </trkpt>
      <trkpt lat="44.97848" lon="6.75911">
        <ele>2108.79</ele>
        <time>2024-08-12T10:45:06Z</time>
      </trkpt>
      <trkpt lat="44.97861" lon="6.75913">
        <ele>2111.67</ele>
        <time>2024-08-12T10:45:20Z</time>
      </trkpt>
      <trkpt lat="44.97864" lon="6.75909">
        <ele>2112.63</ele>
        <time>2024-08-12T10:45:25Z</time>
      </trkpt>
      <trkpt lat="44.97864" lon="6.75906">
        <ele>2112.63</ele>
        <time>2024-08-12T10:45:27Z</time>
      </trkpt>
      <trkpt lat="44.9786" lon="6.75902">
        <ele>2113.12</ele>
        <time>2024-08-12T10:45:32Z</time>
      </trkpt>
      <trkpt lat="44.97846" lon="6.75891">
        <ele>2116</ele>
        <time>2024-08-12T10:45:50Z</time>
      </trkpt>
      <trkpt lat="44.97843" lon="6.75886">
        <ele>2116.96</ele>
        <time>2024-08-12T10:45:54Z</time>
      </trkpt>
      <trkpt lat="44.97837" lon="6.75882">
        <ele>2117.92</ele>
        <time>2024-08-12T10:46:05Z</time>
      </trkpt>
      <trkpt lat="44.97834" lon="6.75877">
        <ele>2119.36</ele>
        <time>2024-08-12T10:46:22Z</time>
      </trkpt>
      <trkpt lat="44.97831" lon="6.75867">
        <ele>2120.81</ele>
        <time>2024-08-12T10:46:38Z</time>
      </trkpt>
      <trkpt lat="44.97833" lon="6.75865">
        <ele>2121.29</ele>
        <time>2024-08-12T10:46:43Z</time>
      </trkpt>
      <trkpt lat="44.97834" lon="6.75865">
        <ele>2121.29</ele>
        <time>2024-08-12T10:46:44Z</time>
      </trkpt>
      <trkpt lat="44.97835" lon="6.75865">
        <ele>2121.29</ele>
        <time>2024-08-12T10:46:45Z</time>
      </trkpt>
      <trkpt lat="44.97837" lon="6.75865">
        <ele>2121.77</ele>
        <time>2024-08-12T10:46:46Z</time>
      </trkpt>
      <trkpt lat="44.97838" lon="6.75865">
        <ele>2121.77</ele>
        <time>2024-08-12T10:46:47Z</time>
      </trkpt>
      <trkpt lat="44.97839" lon="6.75866">
        <ele>2121.77</ele>
        <time>2024-08-12T10:46:48Z</time>
      </trkpt>
      <trkpt lat="44.97854" lon="6.75873">
        <ele>2124.17</ele>
        <time>2024-08-12T10:47:05Z</time>
      </trkpt>
      <trkpt lat="44.97866" lon="6.75875">
        <ele>2127.05</ele>
        <time>2024-08-12T10:47:19Z</time>
      </trkpt>
      <trkpt lat="44.97873" lon="6.75876">
        <ele>2128.02</ele>
        <time>2024-08-12T10:47:27Z</time>
      </trkpt>
      <trkpt lat="44.97874" lon="6.75867">
        <ele>2129.46</ele>
        <time>2024-08-12T10:47:35Z</time>
      </trkpt>
      <trkpt lat="44.97869" lon="6.7586">
        <ele>2130.9</ele>
        <time>2024-08-12T10:47:48Z</time>
      </trkpt>
      <trkpt lat="44.97865" lon="6.7585">
        <ele>2132.34</ele>
        <time>2024-08-12T10:47:59Z</time>
      </trkpt>
      <trkpt lat="44.97859" lon="6.7584">
        <ele>2133.78</ele>
        <time>2024-08-12T10:48:12Z</time>
      </trkpt>
      <trkpt lat="44.97855" lon="6.75825">
        <ele>2136.67</ele>
        <time>2024-08-12T10:48:28Z</time>
      </trkpt>
      <trkpt lat="44.97853" lon="6.75817">
        <ele>2137.63</ele>
        <time>2024-08-12T10:48:42Z</time>
      </trkpt>
      <trkpt lat="44.97849" lon="6.75804">
        <ele>2140.03</ele>
        <time>2024-08-12T10:48:53Z</time>
      </trkpt>
      <trkpt lat="44.97851" lon="6.75802">
        <ele>2140.03</ele>
        <time>2024-08-12T10:48:55Z</time>
      </trkpt>
      <trkpt lat="44.97852" lon="6.75801">
        <ele>2140.03</ele>
        <time>2024-08-12T10:48:56Z</time>
      </trkpt>
      <trkpt lat="44.97853" lon="6.75802">
        <ele>2140.51</ele>
        <time>2024-08-12T10:48:57Z</time>
      </trkpt>
      <trkpt lat="44.97855" lon="6.75803">
        <ele>2140.51</ele>
        <time>2024-08-12T10:48:59Z</time>
      </trkpt>
      <trkpt lat="44.97868" lon="6.7582">
        <ele>2143.4</ele>
        <time>2024-08-12T10:49:18Z</time>
      </trkpt>
      <trkpt lat="44.9788" lon="6.75833">
        <ele>2146.28</ele>
        <time>2024-08-12T10:49:34Z</time>
      </trkpt>
      <trkpt lat="44.9789" lon="6.75841">
        <ele>2148.68</ele>
        <time>2024-08-12T10:49:46Z</time>
      </trkpt>
      <trkpt lat="44.97893" lon="6.75836">
        <ele>2149.16</ele>
        <time>2024-08-12T10:49:52Z</time>
      </trkpt>
      <trkpt lat="44.97889" lon="6.75827">
        <ele>2150.13</ele>
        <time>2024-08-12T10:50:01Z</time>
      </trkpt>
      <trkpt lat="44.97884" lon="6.75813">
        <ele>2151.57</ele>
        <time>2024-08-12T10:50:14Z</time>
      </trkpt>
      <trkpt lat="44.97883" lon="6.75812">
        <ele>2152.05</ele>
        <time>2024-08-12T10:50:15Z</time>
      </trkpt>
      <trkpt lat="44.97878" lon="6.75796">
        <ele>2154.45</ele>
        <time>2024-08-12T10:50:29Z</time>
      </trkpt>
      <trkpt lat="44.97877" lon="6.75789">
        <ele>2154.93</ele>
        <time>2024-08-12T10:50:34Z</time>
      </trkpt>
      <trkpt lat="44.97874" lon="6.75779">
        <ele>2156.37</ele>
        <time>2024-08-12T10:50:43Z</time>
      </trkpt>
      <trkpt lat="44.97874" lon="6.75778">
        <ele>2156.37</ele>
        <time>2024-08-12T10:50:44Z</time>
      </trkpt>
      <trkpt lat="44.97867" lon="6.75759">
        <ele>2159.26</ele>
        <time>2024-08-12T10:51:00Z</time>
      </trkpt>
      <trkpt lat="44.97862" lon="6.75743">
        <ele>2161.66</ele>
        <time>2024-08-12T10:51:16Z</time>
      </trkpt>
      <trkpt lat="44.97857" lon="6.75726">
        <ele>2163.58</ele>
        <time>2024-08-12T10:51:32Z</time>
      </trkpt>
      <trkpt lat="44.97851" lon="6.75711">
        <ele>2166.47</ele>
        <time>2024-08-12T10:51:45Z</time>
      </trkpt>
      <trkpt lat="44.97851" lon="6.75706">
        <ele>2166.95</ele>
        <time>2024-08-12T10:51:49Z</time>
      </trkpt>
      <trkpt lat="44.97854" lon="6.75702">
        <ele>2167.43</ele>
        <time>2024-08-12T10:51:53Z</time>
      </trkpt>
      <trkpt lat="44.97855" lon="6.75703">
        <ele>2167.91</ele>
        <time>2024-08-12T10:51:54Z</time>
      </trkpt>
      <trkpt lat="44.97856" lon="6.75704">
        <ele>2167.91</ele>
        <time>2024-08-12T10:51:56Z</time>
      </trkpt>
      <trkpt lat="44.97857" lon="6.75707">
        <ele>2168.39</ele>
        <time>2024-08-12T10:51:58Z</time>
      </trkpt>
      <trkpt lat="44.97867" lon="6.75722">
        <ele>2170.31</ele>
        <time>2024-08-12T10:52:14Z</time>
      </trkpt>
      <trkpt lat="44.97878" lon="6.75735">
        <ele>2173.68</ele>
        <time>2024-08-12T10:52:31Z</time>
      </trkpt>
      <trkpt lat="44.97883" lon="6.75739">
        <ele>2175.12</ele>
        <time>2024-08-12T10:52:44Z</time>
      </trkpt>
      <trkpt lat="44.97883" lon="6.75732">
        <ele>2176.08</ele>
        <time>2024-08-12T10:52:56Z</time>
      </trkpt>
      <trkpt lat="44.9788" lon="6.75726">
        <ele>2177.04</ele>
        <time>2024-08-12T10:53:11Z</time>
      </trkpt>
      <trkpt lat="44.97878" lon="6.75721">
        <ele>2177.52</ele>
        <time>2024-08-12T10:53:19Z</time>
      </trkpt>
      <trkpt lat="44.97876" lon="6.7571">
        <ele>2179.45</ele>
        <time>2024-08-12T10:53:30Z</time>
      </trkpt>
      <trkpt lat="44.97874" lon="6.7569">
        <ele>2181.85</ele>
        <time>2024-08-12T10:53:45Z</time>
      </trkpt>
      <trkpt lat="44.97871" lon="6.75677">
        <ele>2184.25</ele>
        <time>2024-08-12T10:53:59Z</time>
      </trkpt>
      <trkpt lat="44.97866" lon="6.75663">
        <ele>2185.69</ele>
        <time>2024-08-12T10:54:13Z</time>
      </trkpt>
      <trkpt lat="44.97862" lon="6.75649">
        <ele>2188.1</ele>
        <time>2024-08-12T10:54:29Z</time>
      </trkpt>
      <trkpt lat="44.97858" lon="6.75632">
        <ele>2191.46</ele>
        <time>2024-08-12T10:54:48Z</time>
      </trkpt>
      <trkpt lat="44.97856" lon="6.75616">
        <ele>2193.87</ele>
        <time>2024-08-12T10:55:05Z</time>
      </trkpt>
      <trkpt lat="44.9786" lon="6.75615">
        <ele>2194.35</ele>
        <time>2024-08-12T10:55:12Z</time>
      </trkpt>
      <trkpt lat="44.97868" lon="6.75629">
        <ele>2196.27</ele>
        <time>2024-08-12T10:55:27Z</time>
      </trkpt>
      <trkpt lat="44.97871" lon="6.75635">
        <ele>2197.23</ele>
        <time>2024-08-12T10:55:40Z</time>
      </trkpt>
      <trkpt lat="44.97881" lon="6.75645">
        <ele>2198.67</ele>
        <time>2024-08-12T10:55:52Z</time>
      </trkpt>
      <trkpt lat="44.97892" lon="6.75656">
        <ele>2201.56</ele>
        <time>2024-08-12T10:56:07Z</time>
      </trkpt>
      <trkpt lat="44.97901" lon="6.75669">
        <ele>2203.48</ele>
        <time>2024-08-12T10:56:22Z</time>
      </trkpt>
      <trkpt lat="44.9791" lon="6.75681">
        <ele>2204.92</ele>
        <time>2024-08-12T10:56:36Z</time>
      </trkpt>
      <trkpt lat="44.9792" lon="6.75692">
        <ele>2207.32</ele>
        <time>2024-08-12T10:56:51Z</time>
      </trkpt>
      <trkpt lat="44.97929" lon="6.75705">
        <ele>2210.21</ele>
        <time>2024-08-12T10:57:08Z</time>
      </trkpt>
      <trkpt lat="44.97935" lon="6.75712">
        <ele>2211.17</ele>
        <time>2024-08-12T10:57:20Z</time>
      </trkpt>
      <trkpt lat="44.97938" lon="6.75716">
        <ele>2212.13</ele>
        <time>2024-08-12T10:57:34Z</time>
      </trkpt>
      <trkpt lat="44.97939" lon="6.75718">
        <ele>2212.61</ele>
        <time>2024-08-12T10:57:36Z</time>
      </trkpt>
      <trkpt lat="44.9795" lon="6.75731">
        <ele>2215.5</ele>
        <time>2024-08-12T10:57:51Z</time>
      </trkpt>
      <trkpt lat="44.97955" lon="6.75728">
        <ele>2216.46</ele>
        <time>2024-08-12T10:58:01Z</time>
      </trkpt>
      <trkpt lat="44.97954" lon="6.75726">
        <ele>2216.46</ele>
        <time>2024-08-12T10:58:02Z</time>
      </trkpt>
      <trkpt lat="44.97951" lon="6.75721">
        <ele>2217.9</ele>
        <time>2024-08-12T10:58:15Z</time>
      </trkpt>
      <trkpt lat="44.97949" lon="6.75708">
        <ele>2219.82</ele>
        <time>2024-08-12T10:58:29Z</time>
      </trkpt>
      <trkpt lat="44.97946" lon="6.75691">
        <ele>2222.22</ele>
        <time>2024-08-12T10:58:46Z</time>
      </trkpt>
      <trkpt lat="44.97943" lon="6.75671">
        <ele>2225.11</ele>
        <time>2024-08-12T10:59:04Z</time>
      </trkpt>
      <trkpt lat="44.9794" lon="6.75657">
        <ele>2227.03</ele>
        <time>2024-08-12T10:59:20Z</time>
      </trkpt>
      <trkpt lat="44.97941" lon="6.75644">
        <ele>2229.43</ele>
        <time>2024-08-12T10:59:35Z</time>
      </trkpt>
      <trkpt lat="44.97946" lon="6.75646">
        <ele>2229.92</ele>
        <time>2024-08-12T10:59:42Z</time>
      </trkpt>
      <trkpt lat="44.97948" lon="6.75648">
        <ele>2230.4</ele>
        <time>2024-08-12T10:59:51Z</time>
      </trkpt>
      <trkpt lat="44.97951" lon="6.75651">
        <ele>2230.88</ele>
        <time>2024-08-12T10:59:55Z</time>
      </trkpt>
      <trkpt lat="44.9796" lon="6.75654">
        <ele>2232.32</ele>
        <time>2024-08-12T11:00:04Z</time>
      </trkpt>
      <trkpt lat="44.97961" lon="6.75654">
        <ele>2232.8</ele>
        <time>2024-08-12T11:00:05Z</time>
      </trkpt>
      <trkpt lat="44.97963" lon="6.75655">
        <ele>2232.8</ele>
        <time>2024-08-12T11:00:07Z</time>
      </trkpt>
      <trkpt lat="44.97964" lon="6.75656">
        <ele>2233.28</ele>
        <time>2024-08-12T11:00:08Z</time>
      </trkpt>
      <trkpt lat="44.97965" lon="6.75656">
        <ele>2233.28</ele>
        <time>2024-08-12T11:00:09Z</time>
      </trkpt>
      <trkpt lat="44.97966" lon="6.75657">
        <ele>2233.28</ele>
        <time>2024-08-12T11:00:10Z</time>
      </trkpt>
      <trkpt lat="44.97967" lon="6.75658">
        <ele>2233.28</ele>
        <time>2024-08-12T11:00:11Z</time>
      </trkpt>
      <trkpt lat="44.97981" lon="6.75672">
        <ele>2236.16</ele>
        <time>2024-08-12T11:00:29Z</time>
      </trkpt>
      <trkpt lat="44.97987" lon="6.75678">
        <ele>2237.13</ele>
        <time>2024-08-12T11:00:40Z</time>
      </trkpt>
      <trkpt lat="44.97993" lon="6.7568">
        <ele>2238.09</ele>
        <time>2024-08-12T11:00:53Z</time>
      </trkpt>
      <trkpt lat="44.97996" lon="6.75678">
        <ele>2238.09</ele>
        <time>2024-08-12T11:01:07Z</time>
      </trkpt>
      <trkpt lat="44.97996" lon="6.75677">
        <ele>2238.57</ele>
        <time>2024-08-12T11:01:46Z</time>
      </trkpt>
      <trkpt lat="44.97995" lon="6.75676">
        <ele>2238.57</ele>
        <time>2024-08-12T11:02:15Z</time>
      </trkpt>
      <trkpt lat="44.97995" lon="6.75676">
        <ele>2239.05</ele>
        <time>2024-08-12T11:02:51Z</time>
      </trkpt>
      <trkpt lat="44.97994" lon="6.75678">
        <ele>2239.53</ele>
        <time>2024-08-12T11:03:33Z</time>
      </trkpt>
      <trkpt lat="44.97995" lon="6.75677">
        <ele>2239.53</ele>
        <time>2024-08-12T11:04:02Z</time>
      </trkpt>
      <trkpt lat="44.97996" lon="6.75679">
        <ele>2240.49</ele>
        <time>2024-08-12T11:04:08Z</time>
      </trkpt>
      <trkpt lat="44.98007" lon="6.75685">
        <ele>2241.93</ele>
        <time>2024-08-12T11:04:24Z</time>
      </trkpt>
      <trkpt lat="44.98019" lon="6.75687">
        <ele>2244.82</ele>
        <time>2024-08-12T11:04:41Z</time>
      </trkpt>
      <trkpt lat="44.98029" lon="6.7569">
        <ele>2246.26</ele>
        <time>2024-08-12T11:04:56Z</time>
      </trkpt>
      <trkpt lat="44.9803" lon="6.75689">
        <ele>2246.74</ele>
        <time>2024-08-12T11:05:11Z</time>
      </trkpt>
      <trkpt lat="44.98038" lon="6.75691">
        <ele>2248.18</ele>
        <time>2024-08-12T11:05:27Z</time>
      </trkpt>
      <trkpt lat="44.98051" lon="6.75693">
        <ele>2250.1</ele>
        <time>2024-08-12T11:05:45Z</time>
      </trkpt>
      <trkpt lat="44.98065" lon="6.75695">
        <ele>2252.03</ele>
        <time>2024-08-12T11:05:59Z</time>
      </trkpt>
      <trkpt lat="44.98082" lon="6.75695">
        <ele>2254.91</ele>
        <time>2024-08-12T11:06:15Z</time>
      </trkpt>
      <trkpt lat="44.98098" lon="6.757">
        <ele>2257.79</ele>
        <time>2024-08-12T11:06:32Z</time>
      </trkpt>
      <trkpt lat="44.98107" lon="6.75703">
        <ele>2259.72</ele>
        <time>2024-08-12T11:06:41Z</time>
      </trkpt>
      <trkpt lat="44.98123" lon="6.75707">
        <ele>2262.12</ele>
        <time>2024-08-12T11:06:58Z</time>
      </trkpt>
      <trkpt lat="44.98134" lon="6.75712">
        <ele>2264.52</ele>
        <time>2024-08-12T11:07:12Z</time>
      </trkpt>
      <trkpt lat="44.98147" lon="6.75721">
        <ele>2267.41</ele>
        <time>2024-08-12T11:07:30Z</time>
      </trkpt>
      <trkpt lat="44.98153" lon="6.75722">
        <ele>2268.85</ele>
        <time>2024-08-12T11:07:38Z</time>
      </trkpt>
      <trkpt lat="44.98153" lon="6.75719">
        <ele>2268.85</ele>
        <time>2024-08-12T11:07:40Z</time>
      </trkpt>
      <trkpt lat="44.98153" lon="6.75718">
        <ele>2268.85</ele>
        <time>2024-08-12T11:07:41Z</time>
      </trkpt>
      <trkpt lat="44.98152" lon="6.75716">
        <ele>2269.33</ele>
        <time>2024-08-12T11:07:42Z</time>
      </trkpt>
      <trkpt lat="44.98148" lon="6.75712">
        <ele>2271.25</ele>
        <time>2024-08-12T11:07:52Z</time>
      </trkpt>
      <trkpt lat="44.98141" lon="6.75701">
        <ele>2272.69</ele>
        <time>2024-08-12T11:08:08Z</time>
      </trkpt>
      <trkpt lat="44.98132" lon="6.75687">
        <ele>2275.58</ele>
        <time>2024-08-12T11:08:26Z</time>
      </trkpt>
      <trkpt lat="44.98126" lon="6.75677">
        <ele>2277.5</ele>
        <time>2024-08-12T11:08:43Z</time>
      </trkpt>
      <trkpt lat="44.98118" lon="6.75663">
        <ele>2280.38</ele>
        <time>2024-08-12T11:09:02Z</time>
      </trkpt>
      <trkpt lat="44.98108" lon="6.7565">
        <ele>2282.79</ele>
        <time>2024-08-12T11:09:21Z</time>
      </trkpt>
      <trkpt lat="44.98099" lon="6.75636">
        <ele>2285.19</ele>
        <time>2024-08-12T11:09:38Z</time>
      </trkpt>
      <trkpt lat="44.98091" lon="6.75619">
        <ele>2288.08</ele>
        <time>2024-08-12T11:09:57Z</time>
      </trkpt>
      <trkpt lat="44.98084" lon="6.75611">
        <ele>2290</ele>
        <time>2024-08-12T11:10:12Z</time>
      </trkpt>
      <trkpt lat="44.98072" lon="6.75597">
        <ele>2292.4</ele>
        <time>2024-08-12T11:10:31Z</time>
      </trkpt>
      <trkpt lat="44.98068" lon="6.75588">
        <ele>2294.32</ele>
        <time>2024-08-12T11:10:49Z</time>
      </trkpt>
      <trkpt lat="44.9806" lon="6.75573">
        <ele>2296.25</ele>
        <time>2024-08-12T11:11:02Z</time>
      </trkpt>
      <trkpt lat="44.98053" lon="6.75554">
        <ele>2299.61</ele>
        <time>2024-08-12T11:11:17Z</time>
      </trkpt>
      <trkpt lat="44.98049" lon="6.7554">
        <ele>2301.05</ele>
        <time>2024-08-12T11:11:29Z</time>
      </trkpt>
      <trkpt lat="44.98045" lon="6.75524">
        <ele>2303.46</ele>
        <time>2024-08-12T11:11:41Z</time>
      </trkpt>
      <trkpt lat="44.98042" lon="6.75518">
        <ele>2304.42</ele>
        <time>2024-08-12T11:11:46Z</time>
      </trkpt>
      <trkpt lat="44.98037" lon="6.75507">
        <ele>2306.34</ele>
        <time>2024-08-12T11:12:00Z</time>
      </trkpt>
      <trkpt lat="44.98034" lon="6.75493">
        <ele>2308.26</ele>
        <time>2024-08-12T11:12:15Z</time>
      </trkpt>
      <trkpt lat="44.98028" lon="6.75478">
        <ele>2310.67</ele>
        <time>2024-08-12T11:12:32Z</time>
      </trkpt>
      <trkpt lat="44.9802" lon="6.7547">
        <ele>2312.11</ele>
        <time>2024-08-12T11:12:47Z</time>
      </trkpt>
      <trkpt lat="44.98013" lon="6.75459">
        <ele>2314.03</ele>
        <time>2024-08-12T11:13:02Z</time>
      </trkpt>
      <trkpt lat="44.98008" lon="6.75447">
        <ele>2315.95</ele>
        <time>2024-08-12T11:13:16Z</time>
      </trkpt>
      <trkpt lat="44.98001" lon="6.75433">
        <ele>2318.84</ele>
        <time>2024-08-12T11:13:33Z</time>
      </trkpt>
      <trkpt lat="44.97996" lon="6.75419">
        <ele>2319.8</ele>
        <time>2024-08-12T11:13:46Z</time>
      </trkpt>
      <trkpt lat="44.9799" lon="6.75391">
        <ele>2322.2</ele>
        <time>2024-08-12T11:14:05Z</time>
      </trkpt>
      <trkpt lat="44.97986" lon="6.75368">
        <ele>2323.16</ele>
        <time>2024-08-12T11:14:19Z</time>
      </trkpt>
      <trkpt lat="44.97984" lon="6.75356">
        <ele>2325.09</ele>
        <time>2024-08-12T11:14:30Z</time>
      </trkpt>
      <trkpt lat="44.97983" lon="6.75351">
        <ele>2325.57</ele>
        <time>2024-08-12T11:14:39Z</time>
      </trkpt>
      <trkpt lat="44.97982" lon="6.75343">
        <ele>2325.57</ele>
        <time>2024-08-12T11:14:48Z</time>
      </trkpt>
      <trkpt lat="44.97979" lon="6.75334">
        <ele>2326.53</ele>
        <time>2024-08-12T11:14:59Z</time>
      </trkpt>
      <trkpt lat="44.97976" lon="6.75318">
        <ele>2327.97</ele>
        <time>2024-08-12T11:15:15Z</time>
      </trkpt>
      <trkpt lat="44.9797" lon="6.75301">
        <ele>2329.41</ele>
        <time>2024-08-12T11:15:28Z</time>
      </trkpt>
      <trkpt lat="44.9796" lon="6.75283">
        <ele>2331.81</ele>
        <time>2024-08-12T11:15:44Z</time>
      </trkpt>
      <trkpt lat="44.97954" lon="6.75274">
        <ele>2332.78</ele>
        <time>2024-08-12T11:15:55Z</time>
      </trkpt>
      <trkpt lat="44.97952" lon="6.75264">
        <ele>2335.18</ele>
        <time>2024-08-12T11:16:08Z</time>
      </trkpt>
      <trkpt lat="44.97952" lon="6.75259">
        <ele>2336.14</ele>
        <time>2024-08-12T11:16:20Z</time>
      </trkpt>
      <trkpt lat="44.97952" lon="6.75258">
        <ele>2336.14</ele>
        <time>2024-08-12T11:16:21Z</time>
      </trkpt>
      <trkpt lat="44.97948" lon="6.75243">
        <ele>2337.58</ele>
        <time>2024-08-12T11:16:37Z</time>
      </trkpt>
      <trkpt lat="44.97947" lon="6.75242">
        <ele>2337.58</ele>
        <time>2024-08-12T11:16:38Z</time>
      </trkpt>
      <trkpt lat="44.97936" lon="6.7522">
        <ele>2338.54</ele>
        <time>2024-08-12T11:16:52Z</time>
      </trkpt>
      <trkpt lat="44.97935" lon="6.75215">
        <ele>2339.02</ele>
        <time>2024-08-12T11:16:56Z</time>
      </trkpt>
      <trkpt lat="44.97925" lon="6.75195">
        <ele>2341.43</ele>
        <time>2024-08-12T11:17:10Z</time>
      </trkpt>
      <trkpt lat="44.97916" lon="6.75178">
        <ele>2344.79</ele>
        <time>2024-08-12T11:17:24Z</time>
      </trkpt>
      <trkpt lat="44.97916" lon="6.75176">
        <ele>2344.79</ele>
        <time>2024-08-12T11:17:25Z</time>
      </trkpt>
      <trkpt lat="44.97915" lon="6.75175">
        <ele>2344.79</ele>
        <time>2024-08-12T11:17:26Z</time>
      </trkpt>
      <trkpt lat="44.97914" lon="6.75173">
        <ele>2344.79</ele>
        <time>2024-08-12T11:17:27Z</time>
      </trkpt>
      <trkpt lat="44.97905" lon="6.75159">
        <ele>2345.27</ele>
        <time>2024-08-12T11:17:39Z</time>
      </trkpt>
      <trkpt lat="44.97904" lon="6.75158">
        <ele>2345.75</ele>
        <time>2024-08-12T11:17:40Z</time>
      </trkpt>
      <trkpt lat="44.97903" lon="6.75157">
        <ele>2345.75</ele>
        <time>2024-08-12T11:17:41Z</time>
      </trkpt>
      <trkpt lat="44.97898" lon="6.75151">
        <ele>2346.72</ele>
        <time>2024-08-12T11:17:54Z</time>
      </trkpt>
      <trkpt lat="44.97891" lon="6.75142">
        <ele>2347.68</ele>
        <time>2024-08-12T11:18:09Z</time>
      </trkpt>
      <trkpt lat="44.97881" lon="6.75129">
        <ele>2350.56</ele>
        <time>2024-08-12T11:18:24Z</time>
      </trkpt>
      <trkpt lat="44.97873" lon="6.75117">
        <ele>2352</ele>
        <time>2024-08-12T11:18:37Z</time>
      </trkpt>
      <trkpt lat="44.97872" lon="6.75116">
        <ele>2352</ele>
        <time>2024-08-12T11:18:38Z</time>
      </trkpt>
      <trkpt lat="44.97869" lon="6.75112">
        <ele>2352.48</ele>
        <time>2024-08-12T11:18:42Z</time>
      </trkpt>
      <trkpt lat="44.97867" lon="6.75108">
        <ele>2352.96</ele>
        <time>2024-08-12T11:18:46Z</time>
      </trkpt>
      <trkpt lat="44.97858" lon="6.75093">
        <ele>2354.89</ele>
        <time>2024-08-12T11:19:00Z</time>
      </trkpt>
      <trkpt lat="44.97852" lon="6.75082">
        <ele>2356.33</ele>
        <time>2024-08-12T11:19:11Z</time>
      </trkpt>
      <trkpt lat="44.9784" lon="6.75075">
        <ele>2358.25</ele>
        <time>2024-08-12T11:19:25Z</time>
      </trkpt>
      <trkpt lat="44.97833" lon="6.7507">
        <ele>2358.73</ele>
        <time>2024-08-12T11:19:34Z</time>
      </trkpt>
      <trkpt lat="44.97831" lon="6.75069">
        <ele>2359.21</ele>
        <time>2024-08-12T11:19:36Z</time>
      </trkpt>
      <trkpt lat="44.97824" lon="6.75061">
        <ele>2359.69</ele>
        <time>2024-08-12T11:19:45Z</time>
      </trkpt>
      <trkpt lat="44.97824" lon="6.7506">
        <ele>2360.65</ele>
        <time>2024-08-12T11:19:46Z</time>
      </trkpt>
      <trkpt lat="44.9782" lon="6.75052">
        <ele>2361.14</ele>
        <time>2024-08-12T11:19:53Z</time>
      </trkpt>
      <trkpt lat="44.97819" lon="6.7505">
        <ele>2361.62</ele>
        <time>2024-08-12T11:19:54Z</time>
      </trkpt>
      <trkpt lat="44.97812" lon="6.75032">
        <ele>2364.02</ele>
        <time>2024-08-12T11:20:09Z</time>
      </trkpt>
      <trkpt lat="44.97811" lon="6.75031">
        <ele>2364.02</ele>
        <time>2024-08-12T11:20:10Z</time>
      </trkpt>
      <trkpt lat="44.97805" lon="6.75017">
        <ele>2366.9</ele>
        <time>2024-08-12T11:20:23Z</time>
      </trkpt>
      <trkpt lat="44.97802" lon="6.75008">
        <ele>2367.38</ele>
        <time>2024-08-12T11:20:34Z</time>
      </trkpt>
      <trkpt lat="44.97798" lon="6.74997">
        <ele>2369.31</ele>
        <time>2024-08-12T11:20:49Z</time>
      </trkpt>
      <trkpt lat="44.97795" lon="6.74982">
        <ele>2372.19</ele>
        <time>2024-08-12T11:21:06Z</time>
      </trkpt>
      <trkpt lat="44.97789" lon="6.74968">
        <ele>2373.63</ele>
        <time>2024-08-12T11:21:21Z</time>
      </trkpt>
      <trkpt lat="44.97785" lon="6.74958">
        <ele>2374.59</ele>
        <time>2024-08-12T11:21:36Z</time>
      </trkpt>
      <trkpt lat="44.97786" lon="6.74939">
        <ele>2376.52</ele>
        <time>2024-08-12T11:21:52Z</time>
      </trkpt>
      <trkpt lat="44.97788" lon="6.74927">
        <ele>2377.96</ele>
        <time>2024-08-12T11:22:07Z</time>
      </trkpt>
      <trkpt lat="44.97791" lon="6.74912">
        <ele>2379.88</ele>
        <time>2024-08-12T11:22:22Z</time>
      </trkpt>
      <trkpt lat="44.97792" lon="6.74898">
        <ele>2382.76</ele>
        <time>2024-08-12T11:22:40Z</time>
      </trkpt>
      <trkpt lat="44.9779" lon="6.74886">
        <ele>2385.17</ele>
        <time>2024-08-12T11:22:56Z</time>
      </trkpt>
      <trkpt lat="44.9779" lon="6.74869">
        <ele>2387.09</ele>
        <time>2024-08-12T11:23:14Z</time>
      </trkpt>
      <trkpt lat="44.97792" lon="6.74849">
        <ele>2389.01</ele>
        <time>2024-08-12T11:23:32Z</time>
      </trkpt>
      <trkpt lat="44.97791" lon="6.74834">
        <ele>2390.94</ele>
        <time>2024-08-12T11:23:50Z</time>
      </trkpt>
      <trkpt lat="44.9779" lon="6.74828">
        <ele>2391.9</ele>
        <time>2024-08-12T11:24:04Z</time>
      </trkpt>
      <trkpt lat="44.97788" lon="6.74817">
        <ele>2394.78</ele>
        <time>2024-08-12T11:24:19Z</time>
      </trkpt>
      <trkpt lat="44.97781" lon="6.74802">
        <ele>2396.22</ele>
        <time>2024-08-12T11:24:36Z</time>
      </trkpt>
      <trkpt lat="44.97774" lon="6.74788">
        <ele>2398.63</ele>
        <time>2024-08-12T11:24:55Z</time>
      </trkpt>
      <trkpt lat="44.97768" lon="6.74775">
        <ele>2400.55</ele>
        <time>2024-08-12T11:25:11Z</time>
      </trkpt>
      <trkpt lat="44.97762" lon="6.74759">
        <ele>2402.95</ele>
        <time>2024-08-12T11:25:30Z</time>
      </trkpt>
      <trkpt lat="44.97757" lon="6.74744">
        <ele>2405.36</ele>
        <time>2024-08-12T11:25:49Z</time>
      </trkpt>
      <trkpt lat="44.9775" lon="6.7473">
        <ele>2407.76</ele>
        <time>2024-08-12T11:26:07Z</time>
      </trkpt>
      <trkpt lat="44.97744" lon="6.74715">
        <ele>2409.68</ele>
        <time>2024-08-12T11:26:24Z</time>
      </trkpt>
      <trkpt lat="44.97743" lon="6.74709">
        <ele>2410.64</ele>
        <time>2024-08-12T11:26:30Z</time>
      </trkpt>
      <trkpt lat="44.97737" lon="6.74699">
        <ele>2412.57</ele>
        <time>2024-08-12T11:26:44Z</time>
      </trkpt>
      <trkpt lat="44.97732" lon="6.74684">
        <ele>2414.97</ele>
        <time>2024-08-12T11:27:01Z</time>
      </trkpt>
      <trkpt lat="44.97728" lon="6.74675">
        <ele>2416.41</ele>
        <time>2024-08-12T11:27:15Z</time>
      </trkpt>
      <trkpt lat="44.97725" lon="6.74663">
        <ele>2418.33</ele>
        <time>2024-08-12T11:27:31Z</time>
      </trkpt>
      <trkpt lat="44.97724" lon="6.74658">
        <ele>2419.3</ele>
        <time>2024-08-12T11:27:52Z</time>
      </trkpt>
      <trkpt lat="44.97715" lon="6.74652">
        <ele>2421.22</ele>
        <time>2024-08-12T11:28:07Z</time>
      </trkpt>
      <trkpt lat="44.97714" lon="6.74652">
        <ele>2421.22</ele>
        <time>2024-08-12T11:28:08Z</time>
      </trkpt>
      <trkpt lat="44.97713" lon="6.74652">
        <ele>2421.22</ele>
        <time>2024-08-12T11:28:09Z</time>
      </trkpt>
      <trkpt lat="44.97707" lon="6.74656">
        <ele>2421.7</ele>
        <time>2024-08-12T11:28:23Z</time>
      </trkpt>
      <trkpt lat="44.97695" lon="6.74669">
        <ele>2423.14</ele>
        <time>2024-08-12T11:28:36Z</time>
      </trkpt>
      <trkpt lat="44.97681" lon="6.74681">
        <ele>2425.54</ele>
        <time>2024-08-12T11:28:52Z</time>
      </trkpt>
      <trkpt lat="44.97669" lon="6.74693">
        <ele>2428.43</ele>
        <time>2024-08-12T11:29:08Z</time>
      </trkpt>
      <trkpt lat="44.9766" lon="6.7469">
        <ele>2430.35</ele>
        <time>2024-08-12T11:29:23Z</time>
      </trkpt>
      <trkpt lat="44.97661" lon="6.74688">
        <ele>2430.35</ele>
        <time>2024-08-12T11:29:25Z</time>
      </trkpt>
      <trkpt lat="44.97661" lon="6.74681">
        <ele>2431.31</ele>
        <time>2024-08-12T11:29:30Z</time>
      </trkpt>
      <trkpt lat="44.97659" lon="6.7467">
        <ele>2433.23</ele>
        <time>2024-08-12T11:29:44Z</time>
      </trkpt>
      <trkpt lat="44.97653" lon="6.74657">
        <ele>2435.64</ele>
        <time>2024-08-12T11:30:03Z</time>
      </trkpt>
      <trkpt lat="44.97652" lon="6.74644">
        <ele>2437.56</ele>
        <time>2024-08-12T11:30:20Z</time>
      </trkpt>
      <trkpt lat="44.97649" lon="6.7463">
        <ele>2440.92</ele>
        <time>2024-08-12T11:30:38Z</time>
      </trkpt>
      <trkpt lat="44.97643" lon="6.74621">
        <ele>2443.81</ele>
        <time>2024-08-12T11:30:56Z</time>
      </trkpt>
      <trkpt lat="44.97634" lon="6.74627">
        <ele>2445.73</ele>
        <time>2024-08-12T11:31:14Z</time>
      </trkpt>
      <trkpt lat="44.97627" lon="6.74637">
        <ele>2448.62</ele>
        <time>2024-08-12T11:31:32Z</time>
      </trkpt>
      <trkpt lat="44.97619" lon="6.74645">
        <ele>2450.54</ele>
        <time>2024-08-12T11:31:49Z</time>
      </trkpt>
      <trkpt lat="44.97611" lon="6.74652">
        <ele>2452.94</ele>
        <time>2024-08-12T11:32:05Z</time>
      </trkpt>
      <trkpt lat="44.97606" lon="6.74644">
        <ele>2454.38</ele>
        <time>2024-08-12T11:32:20Z</time>
      </trkpt>
      <trkpt lat="44.97614" lon="6.74634">
        <ele>2456.79</ele>
        <time>2024-08-12T11:32:37Z</time>
      </trkpt>
      <trkpt lat="44.9762" lon="6.74622">
        <ele>2459.19</ele>
        <time>2024-08-12T11:32:55Z</time>
      </trkpt>
      <trkpt lat="44.9762" lon="6.74608">
        <ele>2461.11</ele>
        <time>2024-08-12T11:33:10Z</time>
      </trkpt>
      <trkpt lat="44.97617" lon="6.74594">
        <ele>2463.52</ele>
        <time>2024-08-12T11:33:27Z</time>
      </trkpt>
      <trkpt lat="44.97609" lon="6.74585">
        <ele>2465.44</ele>
        <time>2024-08-12T11:33:43Z</time>
      </trkpt>
      <trkpt lat="44.97604" lon="6.74572">
        <ele>2467.84</ele>
        <time>2024-08-12T11:34:00Z</time>
      </trkpt>
      <trkpt lat="44.97595" lon="6.74567">
        <ele>2470.24</ele>
        <time>2024-08-12T11:34:18Z</time>
      </trkpt>
      <trkpt lat="44.97586" lon="6.7456">
        <ele>2472.65</ele>
        <time>2024-08-12T11:34:36Z</time>
      </trkpt>
      <trkpt lat="44.97576" lon="6.74551">
        <ele>2475.05</ele>
        <time>2024-08-12T11:34:52Z</time>
      </trkpt>
      <trkpt lat="44.9757" lon="6.7454">
        <ele>2477.94</ele>
        <time>2024-08-12T11:35:10Z</time>
      </trkpt>
      <trkpt lat="44.97561" lon="6.74535">
        <ele>2479.86</ele>
        <time>2024-08-12T11:35:25Z</time>
      </trkpt>
      <trkpt lat="44.97559" lon="6.74536">
        <ele>2480.34</ele>
        <time>2024-08-12T11:35:28Z</time>
      </trkpt>
      <trkpt lat="44.97553" lon="6.74544">
        <ele>2481.3</ele>
        <time>2024-08-12T11:35:38Z</time>
      </trkpt>
      <trkpt lat="44.97551" lon="6.74565">
        <ele>2483.7</ele>
        <time>2024-08-12T11:35:57Z</time>
      </trkpt>
      <trkpt lat="44.97548" lon="6.74578">
        <ele>2486.59</ele>
        <time>2024-08-12T11:36:14Z</time>
      </trkpt>
      <trkpt lat="44.97538" lon="6.74581">
        <ele>2488.51</ele>
        <time>2024-08-12T11:36:30Z</time>
      </trkpt>
      <trkpt lat="44.97531" lon="6.74576">
        <ele>2490.91</ele>
        <time>2024-08-12T11:36:46Z</time>
      </trkpt>
      <trkpt lat="44.97524" lon="6.74571">
        <ele>2492.36</ele>
        <time>2024-08-12T11:37:01Z</time>
      </trkpt>
      <trkpt lat="44.97517" lon="6.74567">
        <ele>2494.76</ele>
        <time>2024-08-12T11:37:16Z</time>
      </trkpt>
      <trkpt lat="44.9751" lon="6.74562">
        <ele>2497.16</ele>
        <time>2024-08-12T11:37:34Z</time>
      </trkpt>
      <trkpt lat="44.97503" lon="6.7456">
        <ele>2499.08</ele>
        <time>2024-08-12T11:37:50Z</time>
      </trkpt>
      <trkpt lat="44.97495" lon="6.74556">
        <ele>2501.97</ele>
        <time>2024-08-12T11:38:08Z</time>
      </trkpt>
      <trkpt lat="44.97488" lon="6.74554">
        <ele>2504.37</ele>
        <time>2024-08-12T11:38:26Z</time>
      </trkpt>
      <trkpt lat="44.9748" lon="6.74556">
        <ele>2505.81</ele>
        <time>2024-08-12T11:38:40Z</time>
      </trkpt>
      <trkpt lat="44.97473" lon="6.74562">
        <ele>2507.74</ele>
        <time>2024-08-12T11:38:56Z</time>
      </trkpt>
      <trkpt lat="44.97465" lon="6.7456">
        <ele>2509.66</ele>
        <time>2024-08-12T11:39:15Z</time>
      </trkpt>
      <trkpt lat="44.97461" lon="6.74545">
        <ele>2511.58</ele>
        <time>2024-08-12T11:39:34Z</time>
      </trkpt>
      <trkpt lat="44.97451" lon="6.74532">
        <ele>2514.47</ele>
        <time>2024-08-12T11:39:56Z</time>
      </trkpt>
      <trkpt lat="44.97442" lon="6.74523">
        <ele>2516.87</ele>
        <time>2024-08-12T11:40:15Z</time>
      </trkpt>
      <trkpt lat="44.97433" lon="6.74536">
        <ele>2519.27</ele>
        <time>2024-08-12T11:40:33Z</time>
      </trkpt>
      <trkpt lat="44.97425" lon="6.7455">
        <ele>2521.68</ele>
        <time>2024-08-12T11:40:51Z</time>
      </trkpt>
      <trkpt lat="44.9742" lon="6.74562">
        <ele>2524.56</ele>
        <time>2024-08-12T11:41:08Z</time>
      </trkpt>
      <trkpt lat="44.97414" lon="6.74573">
        <ele>2526.48</ele>
        <time>2024-08-12T11:41:25Z</time>
      </trkpt>
      <trkpt lat="44.9741" lon="6.74569">
        <ele>2527.44</ele>
        <time>2024-08-12T11:41:41Z</time>
      </trkpt>
      <trkpt lat="44.97406" lon="6.74557">
        <ele>2529.37</ele>
        <time>2024-08-12T11:41:56Z</time>
      </trkpt>
      <trkpt lat="44.97398" lon="6.74545">
        <ele>2531.77</ele>
        <time>2024-08-12T11:42:14Z</time>
      </trkpt>
      <trkpt lat="44.97394" lon="6.74535">
        <ele>2533.21</ele>
        <time>2024-08-12T11:42:29Z</time>
      </trkpt>
      <trkpt lat="44.97393" lon="6.74522">
        <ele>2535.13</ele>
        <time>2024-08-12T11:42:43Z</time>
      </trkpt>
      <trkpt lat="44.97385" lon="6.74514">
        <ele>2538.02</ele>
        <time>2024-08-12T11:43:01Z</time>
      </trkpt>
      <trkpt lat="44.97378" lon="6.74528">
        <ele>2539.94</ele>
        <time>2024-08-12T11:43:18Z</time>
      </trkpt>
      <trkpt lat="44.97371" lon="6.74543">
        <ele>2542.34</ele>
        <time>2024-08-12T11:43:38Z</time>
      </trkpt>
      <trkpt lat="44.97361" lon="6.7455">
        <ele>2544.75</ele>
        <time>2024-08-12T11:43:57Z</time>
      </trkpt>
      <trkpt lat="44.97361" lon="6.74536">
        <ele>2546.19</ele>
        <time>2024-08-12T11:44:12Z</time>
      </trkpt>
      <trkpt lat="44.9736" lon="6.7452">
        <ele>2548.59</ele>
        <time>2024-08-12T11:44:30Z</time>
      </trkpt>
      <trkpt lat="44.97357" lon="6.74503">
        <ele>2551.96</ele>
        <time>2024-08-12T11:44:50Z</time>
      </trkpt>
      <trkpt lat="44.97358" lon="6.74488">
        <ele>2553.4</ele>
        <time>2024-08-12T11:45:06Z</time>
      </trkpt>
      <trkpt lat="44.97358" lon="6.74475">
        <ele>2555.8</ele>
        <time>2024-08-12T11:45:23Z</time>
      </trkpt>
      <trkpt lat="44.97357" lon="6.74463">
        <ele>2558.21</ele>
        <time>2024-08-12T11:45:39Z</time>
      </trkpt>
      <trkpt lat="44.9736" lon="6.74453">
        <ele>2559.65</ele>
        <time>2024-08-12T11:45:53Z</time>
      </trkpt>
      <trkpt lat="44.97363" lon="6.74439">
        <ele>2561.57</ele>
        <time>2024-08-12T11:46:09Z</time>
      </trkpt>
      <trkpt lat="44.97363" lon="6.74437">
        <ele>2562.05</ele>
        <time>2024-08-12T11:46:11Z</time>
      </trkpt>
      <trkpt lat="44.97369" lon="6.74418">
        <ele>2563.49</ele>
        <time>2024-08-12T11:46:28Z</time>
      </trkpt>
      <trkpt lat="44.97374" lon="6.7441">
        <ele>2565.42</ele>
        <time>2024-08-12T11:46:43Z</time>
      </trkpt>
      <trkpt lat="44.97379" lon="6.74404">
        <ele>2566.38</ele>
        <time>2024-08-12T11:46:52Z</time>
      </trkpt>
      <trkpt lat="44.97387" lon="6.7439">
        <ele>2568.3</ele>
        <time>2024-08-12T11:47:10Z</time>
      </trkpt>
      <trkpt lat="44.97392" lon="6.74376">
        <ele>2571.18</ele>
        <time>2024-08-12T11:47:29Z</time>
      </trkpt>
      <trkpt lat="44.97397" lon="6.74365">
        <ele>2573.11</ele>
        <time>2024-08-12T11:47:45Z</time>
      </trkpt>
      <trkpt lat="44.97402" lon="6.74353">
        <ele>2575.51</ele>
        <time>2024-08-12T11:48:03Z</time>
      </trkpt>
      <trkpt lat="44.97408" lon="6.7434">
        <ele>2578.39</ele>
        <time>2024-08-12T11:48:25Z</time>
      </trkpt>
      <trkpt lat="44.97407" lon="6.74333">
        <ele>2580.32</ele>
        <time>2024-08-12T11:48:36Z</time>
      </trkpt>
      <trkpt lat="44.97397" lon="6.74338">
        <ele>2581.76</ele>
        <time>2024-08-12T11:48:52Z</time>
      </trkpt>
      <trkpt lat="44.97389" lon="6.74342">
        <ele>2582.72</ele>
        <time>2024-08-12T11:49:07Z</time>
      </trkpt>
      <trkpt lat="44.97388" lon="6.74343">
        <ele>2583.2</ele>
        <time>2024-08-12T11:49:08Z</time>
      </trkpt>
      <trkpt lat="44.97387" lon="6.74343">
        <ele>2583.2</ele>
        <time>2024-08-12T11:49:09Z</time>
      </trkpt>
      <trkpt lat="44.97386" lon="6.74344">
        <ele>2583.2</ele>
        <time>2024-08-12T11:49:10Z</time>
      </trkpt>
      <trkpt lat="44.97385" lon="6.74344">
        <ele>2583.68</ele>
        <time>2024-08-12T11:49:11Z</time>
      </trkpt>
      <trkpt lat="44.97373" lon="6.74349">
        <ele>2586.08</ele>
        <time>2024-08-12T11:49:24Z</time>
      </trkpt>
      <trkpt lat="44.97372" lon="6.74349">
        <ele>2586.08</ele>
        <time>2024-08-12T11:49:25Z</time>
      </trkpt>
      <trkpt lat="44.97369" lon="6.74343">
        <ele>2587.53</ele>
        <time>2024-08-12T11:49:30Z</time>
      </trkpt>
      <trkpt lat="44.9737" lon="6.74342">
        <ele>2588.01</ele>
        <time>2024-08-12T11:49:31Z</time>
      </trkpt>
      <trkpt lat="44.97371" lon="6.74341">
        <ele>2588.01</ele>
        <time>2024-08-12T11:49:32Z</time>
      </trkpt>
      <trkpt lat="44.97371" lon="6.7434">
        <ele>2588.01</ele>
        <time>2024-08-12T11:49:33Z</time>
      </trkpt>
      <trkpt lat="44.97372" lon="6.74339">
        <ele>2588.49</ele>
        <time>2024-08-12T11:49:34Z</time>
      </trkpt>
      <trkpt lat="44.97373" lon="6.74339">
        <ele>2588.49</ele>
        <time>2024-08-12T11:49:35Z</time>
      </trkpt>
      <trkpt lat="44.97374" lon="6.74338">
        <ele>2588.49</ele>
        <time>2024-08-12T11:49:36Z</time>
      </trkpt>
      <trkpt lat="44.97375" lon="6.74338">
        <ele>2588.49</ele>
        <time>2024-08-12T11:49:37Z</time>
      </trkpt>
      <trkpt lat="44.97378" lon="6.74335">
        <ele>2589.93</ele>
        <time>2024-08-12T11:49:50Z</time>
      </trkpt>
      <trkpt lat="44.97383" lon="6.7433">
        <ele>2590.41</ele>
        <time>2024-08-12T11:50:08Z</time>
      </trkpt>
      <trkpt lat="44.97387" lon="6.74317">
        <ele>2592.81</ele>
        <time>2024-08-12T11:50:24Z</time>
      </trkpt>
      <trkpt lat="44.97391" lon="6.74309">
        <ele>2594.25</ele>
        <time>2024-08-12T11:50:37Z</time>
      </trkpt>
      <trkpt lat="44.97395" lon="6.74298">
        <ele>2596.18</ele>
        <time>2024-08-12T11:50:52Z</time>
      </trkpt>
      <trkpt lat="44.97399" lon="6.74291">
        <ele>2597.14</ele>
        <time>2024-08-12T11:51:05Z</time>
      </trkpt>
      <trkpt lat="44.97396" lon="6.74282">
        <ele>2599.54</ele>
        <time>2024-08-12T11:51:21Z</time>
      </trkpt>
      <trkpt lat="44.97388" lon="6.74291">
        <ele>2601.46</ele>
        <time>2024-08-12T11:51:36Z</time>
      </trkpt>
      <trkpt lat="44.97386" lon="6.74294">
        <ele>2601.46</ele>
        <time>2024-08-12T11:51:48Z</time>
      </trkpt>
      <trkpt lat="44.97368" lon="6.74306">
        <ele>2604.83</ele>
        <time>2024-08-12T11:52:05Z</time>
      </trkpt>
      <trkpt lat="44.97366" lon="6.74306">
        <ele>2605.79</ele>
        <time>2024-08-12T11:52:07Z</time>
      </trkpt>
      <trkpt lat="44.97366" lon="6.74303">
        <ele>2605.79</ele>
        <time>2024-08-12T11:52:08Z</time>
      </trkpt>
      <trkpt lat="44.97366" lon="6.74301">
        <ele>2606.75</ele>
        <time>2024-08-12T11:52:09Z</time>
      </trkpt>
      <trkpt lat="44.97367" lon="6.743">
        <ele>2606.75</ele>
        <time>2024-08-12T11:52:10Z</time>
      </trkpt>
      <trkpt lat="44.97369" lon="6.74299">
        <ele>2607.23</ele>
        <time>2024-08-12T11:52:11Z</time>
      </trkpt>
      <trkpt lat="44.9737" lon="6.74298">
        <ele>2607.23</ele>
        <time>2024-08-12T11:52:12Z</time>
      </trkpt>
      <trkpt lat="44.97376" lon="6.74287">
        <ele>2609.64</ele>
        <time>2024-08-12T11:52:25Z</time>
      </trkpt>
      <trkpt lat="44.97381" lon="6.74276">
        <ele>2610.6</ele>
        <time>2024-08-12T11:52:38Z</time>
      </trkpt>
      <trkpt lat="44.97384" lon="6.74271">
        <ele>2612.04</ele>
        <time>2024-08-12T11:52:52Z</time>
      </trkpt>
      <trkpt lat="44.97381" lon="6.74262">
        <ele>2613.48</ele>
        <time>2024-08-12T11:53:07Z</time>
      </trkpt>
      <trkpt lat="44.97373" lon="6.74273">
        <ele>2615.4</ele>
        <time>2024-08-12T11:53:22Z</time>
      </trkpt>
      <trkpt lat="44.97364" lon="6.74276">
        <ele>2617.81</ele>
        <time>2024-08-12T11:53:38Z</time>
      </trkpt>
      <trkpt lat="44.97359" lon="6.74276">
        <ele>2621.17</ele>
        <time>2024-08-12T11:53:57Z</time>
      </trkpt>
      <trkpt lat="44.97358" lon="6.74265">
        <ele>2623.09</ele>
        <time>2024-08-12T11:54:16Z</time>
      </trkpt>
      <trkpt lat="44.97353" lon="6.74259">
        <ele>2625.02</ele>
        <time>2024-08-12T11:54:32Z</time>
      </trkpt>
      <trkpt lat="44.97344" lon="6.74263">
        <ele>2627.9</ele>
        <time>2024-08-12T11:54:49Z</time>
      </trkpt>
      <trkpt lat="44.97337" lon="6.74274">
        <ele>2629.82</ele>
        <time>2024-08-12T11:55:07Z</time>
      </trkpt>
      <trkpt lat="44.97329" lon="6.74279">
        <ele>2632.71</ele>
        <time>2024-08-12T11:55:24Z</time>
      </trkpt>
      <trkpt lat="44.9733" lon="6.74265">
        <ele>2634.63</ele>
        <time>2024-08-12T11:55:40Z</time>
      </trkpt>
      <trkpt lat="44.9733" lon="6.74255">
        <ele>2635.11</ele>
        <time>2024-08-12T11:55:53Z</time>
      </trkpt>
      <trkpt lat="44.97331" lon="6.74244">
        <ele>2637.51</ele>
        <time>2024-08-12T11:56:01Z</time>
      </trkpt>
      <trkpt lat="44.97331" lon="6.74236">
        <ele>2637.99</ele>
        <time>2024-08-12T11:56:07Z</time>
      </trkpt>
      <trkpt lat="44.97331" lon="6.74235">
        <ele>2637.99</ele>
        <time>2024-08-12T11:56:08Z</time>
      </trkpt>
      <trkpt lat="44.97332" lon="6.74233">
        <ele>2638.96</ele>
        <time>2024-08-12T11:56:09Z</time>
      </trkpt>
      <trkpt lat="44.97332" lon="6.74232">
        <ele>2638.96</ele>
        <time>2024-08-12T11:56:10Z</time>
      </trkpt>
      <trkpt lat="44.97333" lon="6.74231">
        <ele>2638.96</ele>
        <time>2024-08-12T11:56:11Z</time>
      </trkpt>
      <trkpt lat="44.97333" lon="6.74229">
        <ele>2638.96</ele>
        <time>2024-08-12T11:56:12Z</time>
      </trkpt>
      <trkpt lat="44.97346" lon="6.74217">
        <ele>2641.84</ele>
        <time>2024-08-12T11:56:28Z</time>
      </trkpt>
      <trkpt lat="44.97347" lon="6.74217">
        <ele>2641.36</ele>
        <time>2024-08-12T11:56:29Z</time>
      </trkpt>
      <trkpt lat="44.97349" lon="6.74217">
        <ele>2641.84</ele>
        <time>2024-08-12T11:56:30Z</time>
      </trkpt>
      <trkpt lat="44.9735" lon="6.74217">
        <ele>2641.84</ele>
        <time>2024-08-12T11:56:31Z</time>
      </trkpt>
      <trkpt lat="44.97352" lon="6.74216">
        <ele>2641.84</ele>
        <time>2024-08-12T11:56:32Z</time>
      </trkpt>
      <trkpt lat="44.97353" lon="6.74216">
        <ele>2641.84</ele>
        <time>2024-08-12T11:56:33Z</time>
      </trkpt>
      <trkpt lat="44.97354" lon="6.74215">
        <ele>2641.84</ele>
        <time>2024-08-12T11:56:34Z</time>
      </trkpt>
      <trkpt lat="44.97355" lon="6.74213">
        <ele>2642.32</ele>
        <time>2024-08-12T11:56:35Z</time>
      </trkpt>
      <trkpt lat="44.97356" lon="6.74212">
        <ele>2642.8</ele>
        <time>2024-08-12T11:56:36Z</time>
      </trkpt>
      <trkpt lat="44.97356" lon="6.7421">
        <ele>2643.28</ele>
        <time>2024-08-12T11:56:37Z</time>
      </trkpt>
      <trkpt lat="44.97356" lon="6.74209">
        <ele>2643.28</ele>
        <time>2024-08-12T11:56:38Z</time>
      </trkpt>
      <trkpt lat="44.97355" lon="6.74206">
        <ele>2644.24</ele>
        <time>2024-08-12T11:56:40Z</time>
      </trkpt>
      <trkpt lat="44.97348" lon="6.74201">
        <ele>2646.17</ele>
        <time>2024-08-12T11:56:49Z</time>
      </trkpt>
      <trkpt lat="44.97333" lon="6.74202">
        <ele>2648.09</ele>
        <time>2024-08-12T11:57:05Z</time>
      </trkpt>
      <trkpt lat="44.97332" lon="6.74204">
        <ele>2648.09</ele>
        <time>2024-08-12T11:57:14Z</time>
      </trkpt>
      <trkpt lat="44.97331" lon="6.74205">
        <ele>2648.57</ele>
        <time>2024-08-12T11:57:15Z</time>
      </trkpt>
      <trkpt lat="44.9733" lon="6.74205">
        <ele>2648.57</ele>
        <time>2024-08-12T11:57:16Z</time>
      </trkpt>
      <trkpt lat="44.97318" lon="6.7421">
        <ele>2651.45</ele>
        <time>2024-08-12T11:57:31Z</time>
      </trkpt>
      <trkpt lat="44.97317" lon="6.74211">
        <ele>2651.45</ele>
        <time>2024-08-12T11:57:32Z</time>
      </trkpt>
      <trkpt lat="44.97306" lon="6.74226">
        <ele>2653.38</ele>
        <time>2024-08-12T11:57:47Z</time>
      </trkpt>
      <trkpt lat="44.97303" lon="6.7423">
        <ele>2654.34</ele>
        <time>2024-08-12T11:57:52Z</time>
      </trkpt>
      <trkpt lat="44.97292" lon="6.74244">
        <ele>2656.26</ele>
        <time>2024-08-12T11:58:07Z</time>
      </trkpt>
      <trkpt lat="44.97284" lon="6.7426">
        <ele>2659.14</ele>
        <time>2024-08-12T11:58:22Z</time>
      </trkpt>
      <trkpt lat="44.97276" lon="6.74274">
        <ele>2662.03</ele>
        <time>2024-08-12T11:58:36Z</time>
      </trkpt>
      <trkpt lat="44.97266" lon="6.74286">
        <ele>2664.43</ele>
        <time>2024-08-12T11:58:52Z</time>
      </trkpt>
      <trkpt lat="44.97254" lon="6.74293">
        <ele>2666.83</ele>
        <time>2024-08-12T11:59:08Z</time>
      </trkpt>
      <trkpt lat="44.97247" lon="6.74301">
        <ele>2668.28</ele>
        <time>2024-08-12T11:59:20Z</time>
      </trkpt>
      <trkpt lat="44.97241" lon="6.74304">
        <ele>2670.2</ele>
        <time>2024-08-12T11:59:28Z</time>
      </trkpt>
      <trkpt lat="44.97235" lon="6.74309">
        <ele>2671.16</ele>
        <time>2024-08-12T11:59:37Z</time>
      </trkpt>
      <trkpt lat="44.97234" lon="6.74307">
        <ele>2671.16</ele>
        <time>2024-08-12T11:59:38Z</time>
      </trkpt>
      <trkpt lat="44.97234" lon="6.74306">
        <ele>2671.64</ele>
        <time>2024-08-12T11:59:39Z</time>
      </trkpt>
      <trkpt lat="44.97235" lon="6.743">
        <ele>2672.6</ele>
        <time>2024-08-12T11:59:44Z</time>
      </trkpt>
      <trkpt lat="44.97235" lon="6.74299">
        <ele>2672.6</ele>
        <time>2024-08-12T11:59:45Z</time>
      </trkpt>
      <trkpt lat="44.97236" lon="6.74298">
        <ele>2672.6</ele>
        <time>2024-08-12T11:59:46Z</time>
      </trkpt>
      <trkpt lat="44.97237" lon="6.74297">
        <ele>2672.6</ele>
        <time>2024-08-12T11:59:47Z</time>
      </trkpt>
      <trkpt lat="44.97238" lon="6.74295">
        <ele>2672.6</ele>
        <time>2024-08-12T11:59:48Z</time>
      </trkpt>
      <trkpt lat="44.97252" lon="6.74273">
        <ele>2674.52</ele>
        <time>2024-08-12T12:00:05Z</time>
      </trkpt>
      <trkpt lat="44.97254" lon="6.74262">
        <ele>2674.52</ele>
        <time>2024-08-12T12:00:13Z</time>
      </trkpt>
      <trkpt lat="44.97254" lon="6.7426">
        <ele>2674.52</ele>
        <time>2024-08-12T12:00:14Z</time>
      </trkpt>
      <trkpt lat="44.97254" lon="6.74259">
        <ele>2674.52</ele>
        <time>2024-08-12T12:00:15Z</time>
      </trkpt>
      <trkpt lat="44.97254" lon="6.74256">
        <ele>2675.01</ele>
        <time>2024-08-12T12:00:17Z</time>
      </trkpt>
      <trkpt lat="44.97253" lon="6.74255">
        <ele>2675.01</ele>
        <time>2024-08-12T12:00:18Z</time>
      </trkpt>
      <trkpt lat="44.97252" lon="6.74251">
        <ele>2675.49</ele>
        <time>2024-08-12T12:00:32Z</time>
      </trkpt>
      <trkpt lat="44.97252" lon="6.74251">
        <ele>2675.49</ele>
        <time>2024-08-12T12:01:07Z</time>
      </trkpt>
      <trkpt lat="44.97251" lon="6.74252">
        <ele>2675.97</ele>
        <time>2024-08-12T12:01:41Z</time>
      </trkpt>
      <trkpt lat="44.97251" lon="6.74252">
        <ele>2675.97</ele>
        <time>2024-08-12T12:02:14Z</time>
      </trkpt>
      <trkpt lat="44.97252" lon="6.74251">
        <ele>2675.97</ele>
        <time>2024-08-12T12:02:44Z</time>
      </trkpt>
      <trkpt lat="44.97251" lon="6.74251">
        <ele>2676.45</ele>
        <time>2024-08-12T12:03:25Z</time>
      </trkpt>
      <trkpt lat="44.97251" lon="6.74251">
        <ele>2676.93</ele>
        <time>2024-08-12T12:03:52Z</time>
      </trkpt>
      <trkpt lat="44.97252" lon="6.74251">
        <ele>2676.93</ele>
        <time>2024-08-12T12:04:19Z</time>
      </trkpt>
      <trkpt lat="44.97252" lon="6.74253">
        <ele>2676.93</ele>
        <time>2024-08-12T12:04:51Z</time>
      </trkpt>
      <trkpt lat="44.97251" lon="6.74251">
        <ele>2677.41</ele>
        <time>2024-08-12T12:05:26Z</time>
      </trkpt>
      <trkpt lat="44.97251" lon="6.74251">
        <ele>2677.41</ele>
        <time>2024-08-12T12:05:57Z</time>
      </trkpt>
      <trkpt lat="44.97251" lon="6.74251">
        <ele>2678.37</ele>
        <time>2024-08-12T12:06:39Z</time>
      </trkpt>
      <trkpt lat="44.97251" lon="6.74251">
        <ele>2678.85</ele>
        <time>2024-08-12T12:07:16Z</time>
      </trkpt>
      <trkpt lat="44.97252" lon="6.74251">
        <ele>2679.33</ele>
        <time>2024-08-12T12:07:59Z</time>
      </trkpt>
      <trkpt lat="44.97251" lon="6.74252">
        <ele>2679.33</ele>
        <time>2024-08-12T12:08:31Z</time>
      </trkpt>
      <trkpt lat="44.97252" lon="6.74252">
        <ele>2679.81</ele>
        <time>2024-08-12T12:09:12Z</time>
      </trkpt>
      <trkpt lat="44.97251" lon="6.74251">
        <ele>2678.85</ele>
        <time>2024-08-12T12:09:50Z</time>
      </trkpt>
      <trkpt lat="44.97251" lon="6.74251">
        <ele>2678.85</ele>
        <time>2024-08-12T12:10:30Z</time>
      </trkpt>
      <trkpt lat="44.97251" lon="6.74251">
        <ele>2679.33</ele>
        <time>2024-08-12T12:11:13Z</time>
      </trkpt>
      <trkpt lat="44.97252" lon="6.74252">
        <ele>2679.33</ele>
        <time>2024-08-12T12:11:37Z</time>
      </trkpt>
      <trkpt lat="44.97252" lon="6.74251">
        <ele>2679.81</ele>
        <time>2024-08-12T12:11:59Z</time>
      </trkpt>
      <trkpt lat="44.97251" lon="6.74252">
        <ele>2679.81</ele>
        <time>2024-08-12T12:12:28Z</time>
      </trkpt>
      <trkpt lat="44.97251" lon="6.74252">
        <ele>2680.29</ele>
        <time>2024-08-12T12:13:00Z</time>
      </trkpt>
      <trkpt lat="44.97251" lon="6.74252">
        <ele>2680.29</ele>
        <time>2024-08-12T12:13:34Z</time>
      </trkpt>
      <trkpt lat="44.97251" lon="6.74254">
        <ele>2680.77</ele>
        <time>2024-08-12T12:14:04Z</time>
      </trkpt>
      <trkpt lat="44.97251" lon="6.74253">
        <ele>2680.77</ele>
        <time>2024-08-12T12:14:27Z</time>
      </trkpt>
      <trkpt lat="44.9725" lon="6.74254">
        <ele>2681.73</ele>
        <time>2024-08-12T12:14:55Z</time>
      </trkpt>
      <trkpt lat="44.97251" lon="6.74254">
        <ele>2681.73</ele>
        <time>2024-08-12T12:15:21Z</time>
      </trkpt>
      <trkpt lat="44.9725" lon="6.74254">
        <ele>2681.73</ele>
        <time>2024-08-12T12:15:51Z</time>
      </trkpt>
      <trkpt lat="44.97249" lon="6.74254">
        <ele>2682.22</ele>
        <time>2024-08-12T12:16:20Z</time>
      </trkpt>
      <trkpt lat="44.97249" lon="6.74255">
        <ele>2682.22</ele>
        <time>2024-08-12T12:16:45Z</time>
      </trkpt>
      <trkpt lat="44.9725" lon="6.74254">
        <ele>2682.22</ele>
        <time>2024-08-12T12:17:16Z</time>
      </trkpt>
      <trkpt lat="44.97249" lon="6.74255">
        <ele>2682.22</ele>
        <time>2024-08-12T12:17:42Z</time>
      </trkpt>
      <trkpt lat="44.9725" lon="6.74254">
        <ele>2681.73</ele>
        <time>2024-08-12T12:18:04Z</time>
      </trkpt>
      <trkpt lat="44.97249" lon="6.74254">
        <ele>2682.22</ele>
        <time>2024-08-12T12:18:26Z</time>
      </trkpt>
      <trkpt lat="44.97248" lon="6.74255">
        <ele>2682.22</ele>
        <time>2024-08-12T12:18:56Z</time>
      </trkpt>
      <trkpt lat="44.97249" lon="6.74255">
        <ele>2682.22</ele>
        <time>2024-08-12T12:19:21Z</time>
      </trkpt>
      <trkpt lat="44.9725" lon="6.74254">
        <ele>2682.22</ele>
        <time>2024-08-12T12:19:51Z</time>
      </trkpt>
      <trkpt lat="44.9725" lon="6.74253">
        <ele>2683.18</ele>
        <time>2024-08-12T12:20:23Z</time>
      </trkpt>
      <trkpt lat="44.9725" lon="6.74254">
        <ele>2683.66</ele>
        <time>2024-08-12T12:20:46Z</time>
      </trkpt>
      <trkpt lat="44.97251" lon="6.74254">
        <ele>2683.66</ele>
        <time>2024-08-12T12:21:15Z</time>
      </trkpt>
      <trkpt lat="44.97251" lon="6.74253">
        <ele>2683.66</ele>
        <time>2024-08-12T12:21:42Z</time>
      </trkpt>
      <trkpt lat="44.97252" lon="6.74252">
        <ele>2683.66</ele>
        <time>2024-08-12T12:22:05Z</time>
      </trkpt>
      <trkpt lat="44.97251" lon="6.74253">
        <ele>2683.66</ele>
        <time>2024-08-12T12:22:35Z</time>
      </trkpt>
      <trkpt lat="44.97251" lon="6.74252">
        <ele>2682.7</ele>
        <time>2024-08-12T12:23:13Z</time>
      </trkpt>
      <trkpt lat="44.97251" lon="6.74253">
        <ele>2683.66</ele>
        <time>2024-08-12T12:23:46Z</time>
      </trkpt>
      <trkpt lat="44.97251" lon="6.74253">
        <ele>2683.66</ele>
        <time>2024-08-12T12:24:21Z</time>
      </trkpt>
      <trkpt lat="44.97251" lon="6.74253">
        <ele>2683.66</ele>
        <time>2024-08-12T12:24:59Z</time>
      </trkpt>
      <trkpt lat="44.97252" lon="6.74252">
        <ele>2684.14</ele>
        <time>2024-08-12T12:25:25Z</time>
      </trkpt>
      <trkpt lat="44.97253" lon="6.74252">
        <ele>2684.14</ele>
        <time>2024-08-12T12:25:54Z</time>
      </trkpt>
      <trkpt lat="44.97252" lon="6.74251">
        <ele>2684.14</ele>
        <time>2024-08-12T12:26:29Z</time>
      </trkpt>
      <trkpt lat="44.97251" lon="6.74253">
        <ele>2684.14</ele>
        <time>2024-08-12T12:26:53Z</time>
      </trkpt>
      <trkpt lat="44.97252" lon="6.74252">
        <ele>2684.14</ele>
        <time>2024-08-12T12:27:18Z</time>
      </trkpt>
      <trkpt lat="44.97253" lon="6.74251">
        <ele>2684.14</ele>
        <time>2024-08-12T12:27:44Z</time>
      </trkpt>
      <trkpt lat="44.97252" lon="6.74253">
        <ele>2684.62</ele>
        <time>2024-08-12T12:28:14Z</time>
      </trkpt>
      <trkpt lat="44.97251" lon="6.74253">
        <ele>2684.62</ele>
        <time>2024-08-12T12:28:49Z</time>
      </trkpt>
      <trkpt lat="44.97251" lon="6.74253">
        <ele>2685.1</ele>
        <time>2024-08-12T12:29:12Z</time>
      </trkpt>
      <trkpt lat="44.97251" lon="6.74251">
        <ele>2685.58</ele>
        <time>2024-08-12T12:29:29Z</time>
      </trkpt>
      <trkpt lat="44.97247" lon="6.74251">
        <ele>2686.06</ele>
        <time>2024-08-12T12:29:42Z</time>
      </trkpt>
      <trkpt lat="44.97246" lon="6.74251">
        <ele>2686.06</ele>
        <time>2024-08-12T12:29:59Z</time>
      </trkpt>
      <trkpt lat="44.97247" lon="6.74251">
        <ele>2686.06</ele>
        <time>2024-08-12T12:30:23Z</time>
      </trkpt>
      <trkpt lat="44.97246" lon="6.74254">
        <ele>2686.06</ele>
        <time>2024-08-12T12:30:25Z</time>
      </trkpt>
      <trkpt lat="44.97246" lon="6.74256">
        <ele>2686.06</ele>
        <time>2024-08-12T12:30:26Z</time>
      </trkpt>
      <trkpt lat="44.97246" lon="6.74258">
        <ele>2686.06</ele>
        <time>2024-08-12T12:30:27Z</time>
      </trkpt>
      <trkpt lat="44.97236" lon="6.74278">
        <ele>2688.46</ele>
        <time>2024-08-12T12:30:42Z</time>
      </trkpt>
      <trkpt lat="44.97235" lon="6.74277">
        <ele>2688.46</ele>
        <time>2024-08-12T12:30:43Z</time>
      </trkpt>
      <trkpt lat="44.97226" lon="6.74275">
        <ele>2690.87</ele>
        <time>2024-08-12T12:30:55Z</time>
      </trkpt>
      <trkpt lat="44.97224" lon="6.74275">
        <ele>2690.87</ele>
        <time>2024-08-12T12:30:57Z</time>
      </trkpt>
      <trkpt lat="44.97223" lon="6.74275">
        <ele>2691.35</ele>
        <time>2024-08-12T12:30:58Z</time>
      </trkpt>
      <trkpt lat="44.9722" lon="6.74276">
        <ele>2691.35</ele>
        <time>2024-08-12T12:31:01Z</time>
      </trkpt>
      <trkpt lat="44.97219" lon="6.74278">
        <ele>2691.83</ele>
        <time>2024-08-12T12:31:02Z</time>
      </trkpt>
      <trkpt lat="44.97219" lon="6.74279">
        <ele>2691.83</ele>
        <time>2024-08-12T12:31:03Z</time>
      </trkpt>
      <trkpt lat="44.97217" lon="6.74283">
        <ele>2691.83</ele>
        <time>2024-08-12T12:31:06Z</time>
      </trkpt>
      <trkpt lat="44.9721" lon="6.74295">
        <ele>2693.75</ele>
        <time>2024-08-12T12:31:17Z</time>
      </trkpt>
      <trkpt lat="44.97204" lon="6.74307">
        <ele>2695.67</ele>
        <time>2024-08-12T12:31:30Z</time>
      </trkpt>
      <trkpt lat="44.97203" lon="6.74309">
        <ele>2695.67</ele>
        <time>2024-08-12T12:31:32Z</time>
      </trkpt>
      <trkpt lat="44.97203" lon="6.74311">
        <ele>2696.15</ele>
        <time>2024-08-12T12:31:33Z</time>
      </trkpt>
      <trkpt lat="44.97197" lon="6.74319">
        <ele>2697.6</ele>
        <time>2024-08-12T12:31:46Z</time>
      </trkpt>
      <trkpt lat="44.97195" lon="6.74308">
        <ele>2699.52</ele>
        <time>2024-08-12T12:31:55Z</time>
      </trkpt>
      <trkpt lat="44.97191" lon="6.74293">
        <ele>2701.92</ele>
        <time>2024-08-12T12:32:10Z</time>
      </trkpt>
      <trkpt lat="44.97185" lon="6.74296">
        <ele>2703.36</ele>
        <time>2024-08-12T12:32:19Z</time>
      </trkpt>
      <trkpt lat="44.97184" lon="6.74301">
        <ele>2703.85</ele>
        <time>2024-08-12T12:32:23Z</time>
      </trkpt>
      <trkpt lat="44.97185" lon="6.74302">
        <ele>2704.33</ele>
        <time>2024-08-12T12:32:24Z</time>
      </trkpt>
      <trkpt lat="44.97181" lon="6.74319">
        <ele>2706.25</ele>
        <time>2024-08-12T12:32:38Z</time>
      </trkpt>
      <trkpt lat="44.97181" lon="6.74323">
        <ele>2706.73</ele>
        <time>2024-08-12T12:32:41Z</time>
      </trkpt>
      <trkpt lat="44.97178" lon="6.74338">
        <ele>2709.13</ele>
        <time>2024-08-12T12:32:55Z</time>
      </trkpt>
      <trkpt lat="44.97174" lon="6.74341">
        <ele>2710.09</ele>
        <time>2024-08-12T12:33:02Z</time>
      </trkpt>
      <trkpt lat="44.97172" lon="6.74338">
        <ele>2710.57</ele>
        <time>2024-08-12T12:33:05Z</time>
      </trkpt>
      <trkpt lat="44.97172" lon="6.74336">
        <ele>2710.57</ele>
        <time>2024-08-12T12:33:06Z</time>
      </trkpt>
      <trkpt lat="44.97163" lon="6.74319">
        <ele>2712.98</ele>
        <time>2024-08-12T12:33:23Z</time>
      </trkpt>
      <trkpt lat="44.97156" lon="6.74309">
        <ele>2715.38</ele>
        <time>2024-08-12T12:33:35Z</time>
      </trkpt>
      <trkpt lat="44.97154" lon="6.74308">
        <ele>2715.38</ele>
        <time>2024-08-12T12:33:37Z</time>
      </trkpt>
      <trkpt lat="44.97152" lon="6.74309">
        <ele>2715.86</ele>
        <time>2024-08-12T12:33:40Z</time>
      </trkpt>
      <trkpt lat="44.97149" lon="6.74312">
        <ele>2717.3</ele>
        <time>2024-08-12T12:33:50Z</time>
      </trkpt>
      <trkpt lat="44.97149" lon="6.74315">
        <ele>2717.78</ele>
        <time>2024-08-12T12:33:55Z</time>
      </trkpt>
      <trkpt lat="44.9715" lon="6.74322">
        <ele>2718.75</ele>
        <time>2024-08-12T12:34:08Z</time>
      </trkpt>
      <trkpt lat="44.97149" lon="6.74346">
        <ele>2721.15</ele>
        <time>2024-08-12T12:34:25Z</time>
      </trkpt>
      <trkpt lat="44.97149" lon="6.74362">
        <ele>2723.07</ele>
        <time>2024-08-12T12:34:37Z</time>
      </trkpt>
      <trkpt lat="44.97149" lon="6.74363">
        <ele>2723.07</ele>
        <time>2024-08-12T12:34:38Z</time>
      </trkpt>
      <trkpt lat="44.97147" lon="6.74386">
        <ele>2726.44</ele>
        <time>2024-08-12T12:34:55Z</time>
      </trkpt>
      <trkpt lat="44.97146" lon="6.74393">
        <ele>2727.4</ele>
        <time>2024-08-12T12:35:01Z</time>
      </trkpt>
      <trkpt lat="44.97142" lon="6.74412">
        <ele>2728.84</ele>
        <time>2024-08-12T12:35:12Z</time>
      </trkpt>
      <trkpt lat="44.97139" lon="6.74434">
        <ele>2732.68</ele>
        <time>2024-08-12T12:35:30Z</time>
      </trkpt>
      <trkpt lat="44.97137" lon="6.74444">
        <ele>2734.13</ele>
        <time>2024-08-12T12:35:38Z</time>
      </trkpt>
      <trkpt lat="44.97135" lon="6.7446">
        <ele>2737.49</ele>
        <time>2024-08-12T12:35:53Z</time>
      </trkpt>
      <trkpt lat="44.97132" lon="6.74458">
        <ele>2737.97</ele>
        <time>2024-08-12T12:35:57Z</time>
      </trkpt>
      <trkpt lat="44.9713" lon="6.74451">
        <ele>2738.93</ele>
        <time>2024-08-12T12:36:03Z</time>
      </trkpt>
      <trkpt lat="44.97129" lon="6.74447">
        <ele>2739.41</ele>
        <time>2024-08-12T12:36:06Z</time>
      </trkpt>
      <trkpt lat="44.97122" lon="6.74427">
        <ele>2741.82</ele>
        <time>2024-08-12T12:36:22Z</time>
      </trkpt>
      <trkpt lat="44.97119" lon="6.74418">
        <ele>2742.78</ele>
        <time>2024-08-12T12:36:29Z</time>
      </trkpt>
      <trkpt lat="44.97105" lon="6.7441">
        <ele>2746.14</ele>
        <time>2024-08-12T12:36:45Z</time>
      </trkpt>
      <trkpt lat="44.97104" lon="6.74411">
        <ele>2746.62</ele>
        <time>2024-08-12T12:36:47Z</time>
      </trkpt>
      <trkpt lat="44.97104" lon="6.7442">
        <ele>2747.59</ele>
        <time>2024-08-12T12:36:53Z</time>
      </trkpt>
      <trkpt lat="44.97105" lon="6.74428">
        <ele>2747.59</ele>
        <time>2024-08-12T12:36:59Z</time>
      </trkpt>
      <trkpt lat="44.97106" lon="6.7444">
        <ele>2748.07</ele>
        <time>2024-08-12T12:37:08Z</time>
      </trkpt>
      <trkpt lat="44.97106" lon="6.7446">
        <ele>2751.43</ele>
        <time>2024-08-12T12:37:23Z</time>
      </trkpt>
      <trkpt lat="44.97106" lon="6.74483">
        <ele>2754.8</ele>
        <time>2024-08-12T12:37:41Z</time>
      </trkpt>
      <trkpt lat="44.971" lon="6.74482">
        <ele>2755.76</ele>
        <time>2024-08-12T12:37:50Z</time>
      </trkpt>
      <trkpt lat="44.97098" lon="6.74473">
        <ele>2756.24</ele>
        <time>2024-08-12T12:37:57Z</time>
      </trkpt>
      <trkpt lat="44.97094" lon="6.74469">
        <ele>2757.2</ele>
        <time>2024-08-12T12:38:01Z</time>
      </trkpt>
      <trkpt lat="44.97078" lon="6.74471">
        <ele>2759.6</ele>
        <time>2024-08-12T12:38:18Z</time>
      </trkpt>
      <trkpt lat="44.97063" lon="6.74479">
        <ele>2762.97</ele>
        <time>2024-08-12T12:38:34Z</time>
      </trkpt>
      <trkpt lat="44.97059" lon="6.74481">
        <ele>2763.93</ele>
        <time>2024-08-12T12:38:38Z</time>
      </trkpt>
      <trkpt lat="44.97042" lon="6.74495">
        <ele>2767.29</ele>
        <time>2024-08-12T12:38:58Z</time>
      </trkpt>
      <trkpt lat="44.97035" lon="6.74501">
        <ele>2769.21</ele>
        <time>2024-08-12T12:39:07Z</time>
      </trkpt>
      <trkpt lat="44.97027" lon="6.74512">
        <ele>2771.14</ele>
        <time>2024-08-12T12:39:18Z</time>
      </trkpt>
      <trkpt lat="44.9702" lon="6.74517">
        <ele>2772.58</ele>
        <time>2024-08-12T12:39:26Z</time>
      </trkpt>
      <trkpt lat="44.97018" lon="6.74518">
        <ele>2773.06</ele>
        <time>2024-08-12T12:39:29Z</time>
      </trkpt>
      <trkpt lat="44.96999" lon="6.74527">
        <ele>2775.94</ele>
        <time>2024-08-12T12:39:49Z</time>
      </trkpt>
      <trkpt lat="44.96988" lon="6.74532">
        <ele>2778.83</ele>
        <time>2024-08-12T12:40:02Z</time>
      </trkpt>
      <trkpt lat="44.96982" lon="6.74534">
        <ele>2779.79</ele>
        <time>2024-08-12T12:40:08Z</time>
      </trkpt>
      <trkpt lat="44.96969" lon="6.74539">
        <ele>2782.67</ele>
        <time>2024-08-12T12:40:23Z</time>
      </trkpt>
      <trkpt lat="44.96959" lon="6.74544">
        <ele>2784.6</ele>
        <time>2024-08-12T12:40:34Z</time>
      </trkpt>
      <trkpt lat="44.9694" lon="6.74545">
        <ele>2787.48</ele>
        <time>2024-08-12T12:40:54Z</time>
      </trkpt>
      <trkpt lat="44.96924" lon="6.74545">
        <ele>2790.84</ele>
        <time>2024-08-12T12:41:11Z</time>
      </trkpt>
      <trkpt lat="44.96915" lon="6.74545">
        <ele>2791.81</ele>
        <time>2024-08-12T12:41:20Z</time>
      </trkpt>
      <trkpt lat="44.96911" lon="6.74548">
        <ele>2793.25</ele>
        <time>2024-08-12T12:41:25Z</time>
      </trkpt>
      <trkpt lat="44.96919" lon="6.7456">
        <ele>2796.13</ele>
        <time>2024-08-12T12:41:39Z</time>
      </trkpt>
      <trkpt lat="44.96928" lon="6.74574">
        <ele>2798.54</ele>
        <time>2024-08-12T12:41:53Z</time>
      </trkpt>
      <trkpt lat="44.96938" lon="6.74587">
        <ele>2801.42</ele>
        <time>2024-08-12T12:42:08Z</time>
      </trkpt>
      <trkpt lat="44.96942" lon="6.74592">
        <ele>2801.42</ele>
        <time>2024-08-12T12:42:14Z</time>
      </trkpt>
      <trkpt lat="44.96953" lon="6.74606">
        <ele>2804.3</ele>
        <time>2024-08-12T12:42:31Z</time>
      </trkpt>
      <trkpt lat="44.96956" lon="6.74611">
        <ele>2804.78</ele>
        <time>2024-08-12T12:42:36Z</time>
      </trkpt>
      <trkpt lat="44.96958" lon="6.74625">
        <ele>2806.71</ele>
        <time>2024-08-12T12:42:49Z</time>
      </trkpt>
      <trkpt lat="44.96945" lon="6.74622">
        <ele>2809.59</ele>
        <time>2024-08-12T12:43:03Z</time>
      </trkpt>
      <trkpt lat="44.96938" lon="6.74622">
        <ele>2810.07</ele>
        <time>2024-08-12T12:43:11Z</time>
      </trkpt>
      <trkpt lat="44.96924" lon="6.74622">
        <ele>2812.47</ele>
        <time>2024-08-12T12:43:27Z</time>
      </trkpt>
      <trkpt lat="44.96908" lon="6.74624">
        <ele>2814.88</ele>
        <time>2024-08-12T12:43:44Z</time>
      </trkpt>
      <trkpt lat="44.96898" lon="6.74625">
        <ele>2816.8</ele>
        <time>2024-08-12T12:43:55Z</time>
      </trkpt>
      <trkpt lat="44.96883" lon="6.74632">
        <ele>2819.68</ele>
        <time>2024-08-12T12:44:12Z</time>
      </trkpt>
      <trkpt lat="44.96872" lon="6.74633">
        <ele>2822.09</ele>
        <time>2024-08-12T12:44:23Z</time>
      </trkpt>
      <trkpt lat="44.96865" lon="6.74632">
        <ele>2823.53</ele>
        <time>2024-08-12T12:44:31Z</time>
      </trkpt>
      <trkpt lat="44.96847" lon="6.74633">
        <ele>2826.41</ele>
        <time>2024-08-12T12:44:49Z</time>
      </trkpt>
      <trkpt lat="44.96844" lon="6.74633">
        <ele>2827.37</ele>
        <time>2024-08-12T12:44:53Z</time>
      </trkpt>
      <trkpt lat="44.9683" lon="6.74634">
        <ele>2829.78</ele>
        <time>2024-08-12T12:45:09Z</time>
      </trkpt>
      <trkpt lat="44.96817" lon="6.74636">
        <ele>2832.18</ele>
        <time>2024-08-12T12:45:25Z</time>
      </trkpt>
      <trkpt lat="44.9681" lon="6.74637">
        <ele>2834.1</ele>
        <time>2024-08-12T12:45:32Z</time>
      </trkpt>
      <trkpt lat="44.96809" lon="6.74641">
        <ele>2834.58</ele>
        <time>2024-08-12T12:45:35Z</time>
      </trkpt>
      <trkpt lat="44.96811" lon="6.74644">
        <ele>2835.55</ele>
        <time>2024-08-12T12:45:38Z</time>
      </trkpt>
      <trkpt lat="44.96821" lon="6.74652">
        <ele>2837.95</ele>
        <time>2024-08-12T12:45:53Z</time>
      </trkpt>
      <trkpt lat="44.96831" lon="6.74665">
        <ele>2840.35</ele>
        <time>2024-08-12T12:46:10Z</time>
      </trkpt>
      <trkpt lat="44.96838" lon="6.74682">
        <ele>2842.76</ele>
        <time>2024-08-12T12:46:29Z</time>
      </trkpt>
      <trkpt lat="44.96845" lon="6.74698">
        <ele>2845.16</ele>
        <time>2024-08-12T12:46:45Z</time>
      </trkpt>
      <trkpt lat="44.96848" lon="6.74707">
        <ele>2848.04</ele>
        <time>2024-08-12T12:46:54Z</time>
      </trkpt>
      <trkpt lat="44.96849" lon="6.7471">
        <ele>2849.48</ele>
        <time>2024-08-12T12:46:57Z</time>
      </trkpt>
      <trkpt lat="44.96851" lon="6.74713">
        <ele>2849.48</ele>
        <time>2024-08-12T12:47:00Z</time>
      </trkpt>
      <trkpt lat="44.96853" lon="6.74719">
        <ele>2849.48</ele>
        <time>2024-08-12T12:47:05Z</time>
      </trkpt>
      <trkpt lat="44.96858" lon="6.74746">
        <ele>2851.41</ele>
        <time>2024-08-12T12:47:24Z</time>
      </trkpt>
      <trkpt lat="44.9686" lon="6.74769">
        <ele>2853.33</ele>
        <time>2024-08-12T12:47:39Z</time>
      </trkpt>
      <trkpt lat="44.9686" lon="6.74774">
        <ele>2853.81</ele>
        <time>2024-08-12T12:47:42Z</time>
      </trkpt>
      <trkpt lat="44.96859" lon="6.74776">
        <ele>2853.81</ele>
        <time>2024-08-12T12:47:44Z</time>
      </trkpt>
      <trkpt lat="44.96857" lon="6.74776">
        <ele>2855.73</ele>
        <time>2024-08-12T12:47:47Z</time>
      </trkpt>
      <trkpt lat="44.9685" lon="6.7477">
        <ele>2856.69</ele>
        <time>2024-08-12T12:47:56Z</time>
      </trkpt>
      <trkpt lat="44.96838" lon="6.7476">
        <ele>2859.58</ele>
        <time>2024-08-12T12:48:13Z</time>
      </trkpt>
      <trkpt lat="44.96825" lon="6.7475">
        <ele>2862.94</ele>
        <time>2024-08-12T12:48:31Z</time>
      </trkpt>
      <trkpt lat="44.96816" lon="6.74744">
        <ele>2865.83</ele>
        <time>2024-08-12T12:48:48Z</time>
      </trkpt>
      <trkpt lat="44.96812" lon="6.7474">
        <ele>2866.79</ele>
        <time>2024-08-12T12:49:01Z</time>
      </trkpt>
      <trkpt lat="44.96804" lon="6.74735">
        <ele>2868.71</ele>
        <time>2024-08-12T12:49:20Z</time>
      </trkpt>
      <trkpt lat="44.96795" lon="6.74731">
        <ele>2871.11</ele>
        <time>2024-08-12T12:49:34Z</time>
      </trkpt>
      <trkpt lat="44.96793" lon="6.7473">
        <ele>2871.11</ele>
        <time>2024-08-12T12:49:39Z</time>
      </trkpt>
      <trkpt lat="44.96784" lon="6.74728">
        <ele>2872.08</ele>
        <time>2024-08-12T12:49:48Z</time>
      </trkpt>
      <trkpt lat="44.96778" lon="6.74728">
        <ele>2874</ele>
        <time>2024-08-12T12:49:55Z</time>
      </trkpt>
      <trkpt lat="44.96762" lon="6.74726">
        <ele>2876.88</ele>
        <time>2024-08-12T12:50:12Z</time>
      </trkpt>
      <trkpt lat="44.9676" lon="6.74726">
        <ele>2876.88</ele>
        <time>2024-08-12T12:50:14Z</time>
      </trkpt>
      <trkpt lat="44.96759" lon="6.74734">
        <ele>2878.32</ele>
        <time>2024-08-12T12:50:24Z</time>
      </trkpt>
      <trkpt lat="44.96769" lon="6.74745">
        <ele>2881.21</ele>
        <time>2024-08-12T12:50:41Z</time>
      </trkpt>
      <trkpt lat="44.96782" lon="6.74759">
        <ele>2884.09</ele>
        <time>2024-08-12T12:50:58Z</time>
      </trkpt>
      <trkpt lat="44.96783" lon="6.74761">
        <ele>2884.09</ele>
        <time>2024-08-12T12:51:00Z</time>
      </trkpt>
      <trkpt lat="44.96791" lon="6.74777">
        <ele>2886.5</ele>
        <time>2024-08-12T12:51:16Z</time>
      </trkpt>
      <trkpt lat="44.96795" lon="6.74789">
        <ele>2889.38</ele>
        <time>2024-08-12T12:51:26Z</time>
      </trkpt>
      <trkpt lat="44.96798" lon="6.74808">
        <ele>2891.3</ele>
        <time>2024-08-12T12:51:42Z</time>
      </trkpt>
      <trkpt lat="44.96801" lon="6.74819">
        <ele>2892.26</ele>
        <time>2024-08-12T12:51:54Z</time>
      </trkpt>
      <trkpt lat="44.96808" lon="6.74838">
        <ele>2894.67</ele>
        <time>2024-08-12T12:52:10Z</time>
      </trkpt>
      <trkpt lat="44.9681" lon="6.74854">
        <ele>2896.11</ele>
        <time>2024-08-12T12:52:24Z</time>
      </trkpt>
      <trkpt lat="44.96814" lon="6.74876">
        <ele>2899.47</ele>
        <time>2024-08-12T12:52:42Z</time>
      </trkpt>
      <trkpt lat="44.96816" lon="6.74893">
        <ele>2901.88</ele>
        <time>2024-08-12T12:52:56Z</time>
      </trkpt>
      <trkpt lat="44.96819" lon="6.74912">
        <ele>2903.8</ele>
        <time>2024-08-12T12:53:12Z</time>
      </trkpt>
      <trkpt lat="44.9682" lon="6.74917">
        <ele>2905.24</ele>
        <time>2024-08-12T12:53:17Z</time>
      </trkpt>
      <trkpt lat="44.96823" lon="6.74933">
        <ele>2907.65</ele>
        <time>2024-08-12T12:53:30Z</time>
      </trkpt>
      <trkpt lat="44.96825" lon="6.74937">
        <ele>2907.65</ele>
        <time>2024-08-12T12:53:34Z</time>
      </trkpt>
      <trkpt lat="44.9683" lon="6.74958">
        <ele>2911.01</ele>
        <time>2024-08-12T12:53:52Z</time>
      </trkpt>
      <trkpt lat="44.96837" lon="6.74973">
        <ele>2913.41</ele>
        <time>2024-08-12T12:54:07Z</time>
      </trkpt>
      <trkpt lat="44.96842" lon="6.74986">
        <ele>2915.82</ele>
        <time>2024-08-12T12:54:19Z</time>
      </trkpt>
      <trkpt lat="44.96849" lon="6.74996">
        <ele>2917.74</ele>
        <time>2024-08-12T12:54:35Z</time>
      </trkpt>
      <trkpt lat="44.96849" lon="6.75">
        <ele>2919.66</ele>
        <time>2024-08-12T12:54:48Z</time>
      </trkpt>
      <trkpt lat="44.96842" lon="6.74994">
        <ele>2921.58</ele>
        <time>2024-08-12T12:55:05Z</time>
      </trkpt>
      <trkpt lat="44.96836" lon="6.7499">
        <ele>2923.51</ele>
        <time>2024-08-12T12:55:22Z</time>
      </trkpt>
      <trkpt lat="44.96834" lon="6.74989">
        <ele>2923.51</ele>
        <time>2024-08-12T12:55:38Z</time>
      </trkpt>
      <trkpt lat="44.96831" lon="6.74986">
        <ele>2923.51</ele>
        <time>2024-08-12T12:55:42Z</time>
      </trkpt>
      <trkpt lat="44.96817" lon="6.74975">
        <ele>2925.91</ele>
        <time>2024-08-12T12:55:59Z</time>
      </trkpt>
      <trkpt lat="44.96803" lon="6.74962">
        <ele>2928.79</ele>
        <time>2024-08-12T12:56:16Z</time>
      </trkpt>
      <trkpt lat="44.96795" lon="6.74955">
        <ele>2932.16</ele>
        <time>2024-08-12T12:56:27Z</time>
      </trkpt>
      <trkpt lat="44.96785" lon="6.74943">
        <ele>2934.56</ele>
        <time>2024-08-12T12:56:43Z</time>
      </trkpt>
      <trkpt lat="44.96784" lon="6.74941">
        <ele>2934.56</ele>
        <time>2024-08-12T12:56:45Z</time>
      </trkpt>
      <trkpt lat="44.96774" lon="6.74927">
        <ele>2937.45</ele>
        <time>2024-08-12T12:57:04Z</time>
      </trkpt>
      <trkpt lat="44.96765" lon="6.74912">
        <ele>2939.37</ele>
        <time>2024-08-12T12:57:21Z</time>
      </trkpt>
      <trkpt lat="44.96757" lon="6.74904">
        <ele>2942.25</ele>
        <time>2024-08-12T12:57:35Z</time>
      </trkpt>
      <trkpt lat="44.96749" lon="6.74893">
        <ele>2944.66</ele>
        <time>2024-08-12T12:57:51Z</time>
      </trkpt>
      <trkpt lat="44.96746" lon="6.74889">
        <ele>2945.62</ele>
        <time>2024-08-12T12:58:06Z</time>
      </trkpt>
      <trkpt lat="44.96735" lon="6.7488">
        <ele>2947.54</ele>
        <time>2024-08-12T12:58:23Z</time>
      </trkpt>
      <trkpt lat="44.96722" lon="6.74871">
        <ele>2949.94</ele>
        <time>2024-08-12T12:58:42Z</time>
      </trkpt>
      <trkpt lat="44.96709" lon="6.74868">
        <ele>2952.35</ele>
        <time>2024-08-12T12:59:02Z</time>
      </trkpt>
      <trkpt lat="44.967" lon="6.74863">
        <ele>2954.75</ele>
        <time>2024-08-12T12:59:21Z</time>
      </trkpt>
      <trkpt lat="44.96694" lon="6.74861">
        <ele>2958.59</ele>
        <time>2024-08-12T12:59:35Z</time>
      </trkpt>
      <trkpt lat="44.96691" lon="6.74867">
        <ele>2958.59</ele>
        <time>2024-08-12T12:59:48Z</time>
      </trkpt>
      <trkpt lat="44.96692" lon="6.74876">
        <ele>2961.48</ele>
        <time>2024-08-12T13:00:05Z</time>
      </trkpt>
      <trkpt lat="44.96699" lon="6.74888">
        <ele>2963.4</ele>
        <time>2024-08-12T13:00:25Z</time>
      </trkpt>
      <trkpt lat="44.96703" lon="6.74898">
        <ele>2966.77</ele>
        <time>2024-08-12T13:00:40Z</time>
      </trkpt>
      <trkpt lat="44.96709" lon="6.74908">
        <ele>2969.65</ele>
        <time>2024-08-12T13:00:56Z</time>
      </trkpt>
      <trkpt lat="44.96711" lon="6.74909">
        <ele>2969.65</ele>
        <time>2024-08-12T13:00:58Z</time>
      </trkpt>
      <trkpt lat="44.96716" lon="6.7492">
        <ele>2970.13</ele>
        <time>2024-08-12T13:01:13Z</time>
      </trkpt>
      <trkpt lat="44.96717" lon="6.74922">
        <ele>2970.13</ele>
        <time>2024-08-12T13:01:17Z</time>
      </trkpt>
      <trkpt lat="44.96728" lon="6.74944">
        <ele>2972.05</ele>
        <time>2024-08-12T13:01:33Z</time>
      </trkpt>
      <trkpt lat="44.96733" lon="6.74965">
        <ele>2975.42</ele>
        <time>2024-08-12T13:01:48Z</time>
      </trkpt>
      <trkpt lat="44.96737" lon="6.74985">
        <ele>2978.3</ele>
        <time>2024-08-12T13:02:04Z</time>
      </trkpt>
      <trkpt lat="44.96738" lon="6.74992">
        <ele>2979.26</ele>
        <time>2024-08-12T13:02:10Z</time>
      </trkpt>
      <trkpt lat="44.96741" lon="6.7501">
        <ele>2981.67</ele>
        <time>2024-08-12T13:02:24Z</time>
      </trkpt>
      <trkpt lat="44.96744" lon="6.75026">
        <ele>2984.07</ele>
        <time>2024-08-12T13:02:40Z</time>
      </trkpt>
      <trkpt lat="44.96748" lon="6.75044">
        <ele>2986.95</ele>
        <time>2024-08-12T13:02:56Z</time>
      </trkpt>
      <trkpt lat="44.96755" lon="6.75063">
        <ele>2989.36</ele>
        <time>2024-08-12T13:03:14Z</time>
      </trkpt>
      <trkpt lat="44.96759" lon="6.75079">
        <ele>2991.76</ele>
        <time>2024-08-12T13:03:29Z</time>
      </trkpt>
      <trkpt lat="44.96767" lon="6.75098">
        <ele>2994.16</ele>
        <time>2024-08-12T13:03:47Z</time>
      </trkpt>
      <trkpt lat="44.96775" lon="6.75114">
        <ele>2996.57</ele>
        <time>2024-08-12T13:04:02Z</time>
      </trkpt>
      <trkpt lat="44.96779" lon="6.75127">
        <ele>2997.53</ele>
        <time>2024-08-12T13:04:16Z</time>
      </trkpt>
      <trkpt lat="44.96784" lon="6.75128">
        <ele>2997.53</ele>
        <time>2024-08-12T13:04:38Z</time>
      </trkpt>
      <trkpt lat="44.96784" lon="6.75127">
        <ele>2997.53</ele>
        <time>2024-08-12T13:04:58Z</time>
      </trkpt>
      <trkpt lat="44.96783" lon="6.75127">
        <ele>2998.01</ele>
        <time>2024-08-12T13:05:06Z</time>
      </trkpt>
      <trkpt lat="44.96777" lon="6.75122">
        <ele>2998.97</ele>
        <time>2024-08-12T13:05:12Z</time>
      </trkpt>
      <trkpt lat="44.96763" lon="6.75106">
        <ele>3001.85</ele>
        <time>2024-08-12T13:05:26Z</time>
      </trkpt>
      <trkpt lat="44.96757" lon="6.75101">
        <ele>3003.3</ele>
        <time>2024-08-12T13:05:33Z</time>
      </trkpt>
      <trkpt lat="44.96747" lon="6.75094">
        <ele>3006.18</ele>
        <time>2024-08-12T13:05:46Z</time>
      </trkpt>
      <trkpt lat="44.96739" lon="6.75091">
        <ele>3007.14</ele>
        <time>2024-08-12T13:05:56Z</time>
      </trkpt>
      <trkpt lat="44.96729" lon="6.75084">
        <ele>3009.06</ele>
        <time>2024-08-12T13:06:08Z</time>
      </trkpt>
      <trkpt lat="44.96725" lon="6.75077">
        <ele>3010.99</ele>
        <time>2024-08-12T13:06:16Z</time>
      </trkpt>
      <trkpt lat="44.96719" lon="6.7507">
        <ele>3011.95</ele>
        <time>2024-08-12T13:06:27Z</time>
      </trkpt>
      <trkpt lat="44.96715" lon="6.75068">
        <ele>3014.35</ele>
        <time>2024-08-12T13:06:32Z</time>
      </trkpt>
      <trkpt lat="44.96713" lon="6.75067">
        <ele>3012.43</ele>
        <time>2024-08-12T13:06:34Z</time>
      </trkpt>
      <trkpt lat="44.96707" lon="6.75056">
        <ele>3013.87</ele>
        <time>2024-08-12T13:06:46Z</time>
      </trkpt>
      <trkpt lat="44.96706" lon="6.75053">
        <ele>3014.35</ele>
        <time>2024-08-12T13:06:49Z</time>
      </trkpt>
      <trkpt lat="44.96701" lon="6.75044">
        <ele>3016.27</ele>
        <time>2024-08-12T13:06:57Z</time>
      </trkpt>
      <trkpt lat="44.9669" lon="6.75027">
        <ele>3018.68</ele>
        <time>2024-08-12T13:07:15Z</time>
      </trkpt>
      <trkpt lat="44.9668" lon="6.75017">
        <ele>3021.56</ele>
        <time>2024-08-12T13:07:29Z</time>
      </trkpt>
      <trkpt lat="44.96665" lon="6.75008">
        <ele>3024.44</ele>
        <time>2024-08-12T13:07:46Z</time>
      </trkpt>
      <trkpt lat="44.96651" lon="6.75">
        <ele>3026.85</ele>
        <time>2024-08-12T13:08:02Z</time>
      </trkpt>
      <trkpt lat="44.9664" lon="6.74994">
        <ele>3027.81</ele>
        <time>2024-08-12T13:08:15Z</time>
      </trkpt>
      <trkpt lat="44.96626" lon="6.74985">
        <ele>3030.69</ele>
        <time>2024-08-12T13:08:31Z</time>
      </trkpt>
      <trkpt lat="44.96614" lon="6.74981">
        <ele>3033.58</ele>
        <time>2024-08-12T13:08:44Z</time>
      </trkpt>
      <trkpt lat="44.96601" lon="6.74975">
        <ele>3035.98</ele>
        <time>2024-08-12T13:09:01Z</time>
      </trkpt>
      <trkpt lat="44.96589" lon="6.74969">
        <ele>3038.86</ele>
        <time>2024-08-12T13:09:14Z</time>
      </trkpt>
      <trkpt lat="44.96579" lon="6.74964">
        <ele>3041.75</ele>
        <time>2024-08-12T13:09:29Z</time>
      </trkpt>
      <trkpt lat="44.96579" lon="6.74963">
        <ele>3041.75</ele>
        <time>2024-08-12T13:09:30Z</time>
      </trkpt>
      <trkpt lat="44.96568" lon="6.74957">
        <ele>3042.71</ele>
        <time>2024-08-12T13:09:44Z</time>
      </trkpt>
      <trkpt lat="44.96555" lon="6.74945">
        <ele>3045.59</ele>
        <time>2024-08-12T13:10:01Z</time>
      </trkpt>
      <trkpt lat="44.96542" lon="6.74936">
        <ele>3048</ele>
        <time>2024-08-12T13:10:17Z</time>
      </trkpt>
      <trkpt lat="44.96527" lon="6.74923">
        <ele>3050.88</ele>
        <time>2024-08-12T13:10:35Z</time>
      </trkpt>
      <trkpt lat="44.96518" lon="6.74914">
        <ele>3053.77</ele>
        <time>2024-08-12T13:10:47Z</time>
      </trkpt>
      <trkpt lat="44.96506" lon="6.74905">
        <ele>3056.17</ele>
        <time>2024-08-12T13:11:04Z</time>
      </trkpt>
      <trkpt lat="44.96502" lon="6.74904">
        <ele>3057.61</ele>
        <time>2024-08-12T13:11:11Z</time>
      </trkpt>
      <trkpt lat="44.96492" lon="6.74903">
        <ele>3059.53</ele>
        <time>2024-08-12T13:11:25Z</time>
      </trkpt>
      <trkpt lat="44.96478" lon="6.74913">
        <ele>3061.94</ele>
        <time>2024-08-12T13:11:44Z</time>
      </trkpt>
      <trkpt lat="44.96473" lon="6.7492">
        <ele>3063.86</ele>
        <time>2024-08-12T13:11:54Z</time>
      </trkpt>
      <trkpt lat="44.96477" lon="6.74928">
        <ele>3064.34</ele>
        <time>2024-08-12T13:12:08Z</time>
      </trkpt>
      <trkpt lat="44.96484" lon="6.74929">
        <ele>3066.74</ele>
        <time>2024-08-12T13:12:21Z</time>
      </trkpt>
      <trkpt lat="44.96489" lon="6.74934">
        <ele>3068.19</ele>
        <time>2024-08-12T13:12:35Z</time>
      </trkpt>
      <trkpt lat="44.96495" lon="6.74943">
        <ele>3070.59</ele>
        <time>2024-08-12T13:12:52Z</time>
      </trkpt>
      <trkpt lat="44.96503" lon="6.74951">
        <ele>3073.47</ele>
        <time>2024-08-12T13:13:09Z</time>
      </trkpt>
      <trkpt lat="44.96509" lon="6.74965">
        <ele>3075.4</ele>
        <time>2024-08-12T13:13:27Z</time>
      </trkpt>
      <trkpt lat="44.96512" lon="6.74975">
        <ele>3077.8</ele>
        <time>2024-08-12T13:13:47Z</time>
      </trkpt>
      <trkpt lat="44.96513" lon="6.7498">
        <ele>3077.8</ele>
        <time>2024-08-12T13:14:04Z</time>
      </trkpt>
      <trkpt lat="44.96514" lon="6.74982">
        <ele>3077.8</ele>
        <time>2024-08-12T13:14:07Z</time>
      </trkpt>
      <trkpt lat="44.96518" lon="6.74992">
        <ele>3079.24</ele>
        <time>2024-08-12T13:14:17Z</time>
      </trkpt>
      <trkpt lat="44.96524" lon="6.75006">
        <ele>3082.12</ele>
        <time>2024-08-12T13:14:33Z</time>
      </trkpt>
      <trkpt lat="44.96525" lon="6.75011">
        <ele>3084.05</ele>
        <time>2024-08-12T13:14:48Z</time>
      </trkpt>
      <trkpt lat="44.96521" lon="6.75007">
        <ele>3085.49</ele>
        <time>2024-08-12T13:15:03Z</time>
      </trkpt>
      <trkpt lat="44.9652" lon="6.75007">
        <ele>3086.93</ele>
        <time>2024-08-12T13:15:05Z</time>
      </trkpt>
      <trkpt lat="44.96511" lon="6.74999">
        <ele>3088.85</ele>
        <time>2024-08-12T13:15:24Z</time>
      </trkpt>
      <trkpt lat="44.965" lon="6.7499">
        <ele>3091.26</ele>
        <time>2024-08-12T13:15:43Z</time>
      </trkpt>
      <trkpt lat="44.96497" lon="6.74995">
        <ele>3094.14</ele>
        <time>2024-08-12T13:15:59Z</time>
      </trkpt>
      <trkpt lat="44.96501" lon="6.75008">
        <ele>3096.06</ele>
        <time>2024-08-12T13:16:18Z</time>
      </trkpt>
      <trkpt lat="44.96509" lon="6.75028">
        <ele>3098.95</ele>
        <time>2024-08-12T13:16:38Z</time>
      </trkpt>
      <trkpt lat="44.96508" lon="6.75034">
        <ele>3101.35</ele>
        <time>2024-08-12T13:16:53Z</time>
      </trkpt>
      <trkpt lat="44.96499" lon="6.75024">
        <ele>3104.23</ele>
        <time>2024-08-12T13:17:09Z</time>
      </trkpt>
      <trkpt lat="44.96491" lon="6.75021">
        <ele>3106.16</ele>
        <time>2024-08-12T13:17:24Z</time>
      </trkpt>
      <trkpt lat="44.9648" lon="6.75025">
        <ele>3108.56</ele>
        <time>2024-08-12T13:17:39Z</time>
      </trkpt>
      <trkpt lat="44.96488" lon="6.75032">
        <ele>3110</ele>
        <time>2024-08-12T13:17:53Z</time>
      </trkpt>
      <trkpt lat="44.9648" lon="6.75038">
        <ele>3112.89</ele>
        <time>2024-08-12T13:18:07Z</time>
      </trkpt>
      <trkpt lat="44.96479" lon="6.75047">
        <ele>3113.85</ele>
        <time>2024-08-12T13:18:21Z</time>
      </trkpt>
      <trkpt lat="44.9648" lon="6.75047">
        <ele>3113.85</ele>
        <time>2024-08-12T13:18:25Z</time>
      </trkpt>
      <trkpt lat="44.96486" lon="6.75047">
        <ele>3114.33</ele>
        <time>2024-08-12T13:18:29Z</time>
      </trkpt>
      <trkpt lat="44.9649" lon="6.75049">
        <ele>3114.81</ele>
        <time>2024-08-12T13:18:33Z</time>
      </trkpt>
      <trkpt lat="44.96491" lon="6.75057">
        <ele>3115.77</ele>
        <time>2024-08-12T13:18:38Z</time>
      </trkpt>
      <trkpt lat="44.96489" lon="6.75074">
        <ele>3118.65</ele>
        <time>2024-08-12T13:18:47Z</time>
      </trkpt>
      <trkpt lat="44.96476" lon="6.75097">
        <ele>3120.1</ele>
        <time>2024-08-12T13:19:05Z</time>
      </trkpt>
      <trkpt lat="44.96453" lon="6.75128">
        <ele>3120.58</ele>
        <time>2024-08-12T13:19:22Z</time>
      </trkpt>
      <trkpt lat="44.96437" lon="6.75144">
        <ele>3121.06</ele>
        <time>2024-08-12T13:19:31Z</time>
      </trkpt>
      <trkpt lat="44.96436" lon="6.75146">
        <ele>3121.06</ele>
        <time>2024-08-12T13:19:32Z</time>
      </trkpt>
      <trkpt lat="44.96435" lon="6.75148">
        <ele>3121.06</ele>
        <time>2024-08-12T13:19:33Z</time>
      </trkpt>
      <trkpt lat="44.96434" lon="6.75149">
        <ele>3121.06</ele>
        <time>2024-08-12T13:19:34Z</time>
      </trkpt>
      <trkpt lat="44.96433" lon="6.7515">
        <ele>3121.06</ele>
        <time>2024-08-12T13:19:35Z</time>
      </trkpt>
      <trkpt lat="44.96431" lon="6.75151">
        <ele>3121.06</ele>
        <time>2024-08-12T13:19:36Z</time>
      </trkpt>
      <trkpt lat="44.96429" lon="6.75154">
        <ele>3121.06</ele>
        <time>2024-08-12T13:19:38Z</time>
      </trkpt>
      <trkpt lat="44.96431" lon="6.75158">
        <ele>3121.06</ele>
        <time>2024-08-12T13:19:51Z</time>
      </trkpt>
      <trkpt lat="44.96431" lon="6.75158">
        <ele>3121.54</ele>
        <time>2024-08-12T13:20:29Z</time>
      </trkpt>
      <trkpt lat="44.96431" lon="6.75157">
        <ele>3121.54</ele>
        <time>2024-08-12T13:21:10Z</time>
      </trkpt>
      <trkpt lat="44.96431" lon="6.75157">
        <ele>3121.54</ele>
        <time>2024-08-12T13:21:39Z</time>
      </trkpt>
      <trkpt lat="44.9643" lon="6.75156">
        <ele>3122.02</ele>
        <time>2024-08-12T13:22:16Z</time>
      </trkpt>
      <trkpt lat="44.9643" lon="6.75156">
        <ele>3122.02</ele>
        <time>2024-08-12T13:22:56Z</time>
      </trkpt>
      <trkpt lat="44.96428" lon="6.75158">
        <ele>3122.02</ele>
        <time>2024-08-12T13:23:43Z</time>
      </trkpt>
      <trkpt lat="44.96429" lon="6.75158">
        <ele>3122.5</ele>
        <time>2024-08-12T13:24:21Z</time>
      </trkpt>
      <trkpt lat="44.96429" lon="6.75158">
        <ele>3122.5</ele>
        <time>2024-08-12T13:24:58Z</time>
      </trkpt>
      <trkpt lat="44.96428" lon="6.75158">
        <ele>3122.5</ele>
        <time>2024-08-12T13:25:42Z</time>
      </trkpt>
      <trkpt lat="44.96429" lon="6.75158">
        <ele>3122.98</ele>
        <time>2024-08-12T13:26:30Z</time>
      </trkpt>
      <trkpt lat="44.96428" lon="6.75158">
        <ele>3122.98</ele>
        <time>2024-08-12T13:27:12Z</time>
      </trkpt>
      <trkpt lat="44.96429" lon="6.75159">
        <ele>3122.98</ele>
        <time>2024-08-12T13:27:56Z</time>
      </trkpt>
      <trkpt lat="44.96429" lon="6.75158">
        <ele>3123.46</ele>
        <time>2024-08-12T13:28:41Z</time>
      </trkpt>
      <trkpt lat="44.96428" lon="6.75158">
        <ele>3123.94</ele>
        <time>2024-08-12T13:29:22Z</time>
      </trkpt>
      <trkpt lat="44.96429" lon="6.75159">
        <ele>3123.94</ele>
        <time>2024-08-12T13:30:02Z</time>
      </trkpt>
      <trkpt lat="44.9643" lon="6.75159">
        <ele>3123.94</ele>
        <time>2024-08-12T13:30:34Z</time>
      </trkpt>
      <trkpt lat="44.9643" lon="6.7516">
        <ele>3123.94</ele>
        <time>2024-08-12T13:31:14Z</time>
      </trkpt>
      <trkpt lat="44.9643" lon="6.75159">
        <ele>3124.42</ele>
        <time>2024-08-12T13:31:45Z</time>
      </trkpt>
      <trkpt lat="44.9643" lon="6.75159">
        <ele>3124.42</ele>
        <time>2024-08-12T13:32:24Z</time>
      </trkpt>
      <trkpt lat="44.96431" lon="6.75158">
        <ele>3124.9</ele>
        <time>2024-08-12T13:33:09Z</time>
      </trkpt>
      <trkpt lat="44.96429" lon="6.75159">
        <ele>3124.9</ele>
        <time>2024-08-12T13:33:44Z</time>
      </trkpt>
      <trkpt lat="44.96429" lon="6.7516">
        <ele>3124.9</ele>
        <time>2024-08-12T13:34:21Z</time>
      </trkpt>
      <trkpt lat="44.9643" lon="6.75159">
        <ele>3124.9</ele>
        <time>2024-08-12T13:34:54Z</time>
      </trkpt>
      <trkpt lat="44.96429" lon="6.75159">
        <ele>3125.38</ele>
        <time>2024-08-12T13:35:19Z</time>
      </trkpt>
      <trkpt lat="44.96429" lon="6.7516">
        <ele>3125.38</ele>
        <time>2024-08-12T13:35:57Z</time>
      </trkpt>
      <trkpt lat="44.9643" lon="6.75159">
        <ele>3125.38</ele>
        <time>2024-08-12T13:36:29Z</time>
      </trkpt>
      <trkpt lat="44.96431" lon="6.75158">
        <ele>3125.38</ele>
        <time>2024-08-12T13:37:00Z</time>
      </trkpt>
      <trkpt lat="44.9643" lon="6.75159">
        <ele>3125.38</ele>
        <time>2024-08-12T13:37:36Z</time>
      </trkpt>
      <trkpt lat="44.9643" lon="6.7516">
        <ele>3125.38</ele>
        <time>2024-08-12T13:38:03Z</time>
      </trkpt>
      <trkpt lat="44.96428" lon="6.75157">
        <ele>3126.83</ele>
        <time>2024-08-12T13:38:25Z</time>
      </trkpt>
      <trkpt lat="44.96429" lon="6.75155">
        <ele>3127.31</ele>
        <time>2024-08-12T13:38:26Z</time>
      </trkpt>
      <trkpt lat="44.9643" lon="6.75152">
        <ele>3127.31</ele>
        <time>2024-08-12T13:38:27Z</time>
      </trkpt>
      <trkpt lat="44.96432" lon="6.75148">
        <ele>3127.31</ele>
        <time>2024-08-12T13:38:29Z</time>
      </trkpt>
      <trkpt lat="44.96432" lon="6.75149">
        <ele>3125.86</ele>
        <time>2024-08-12T13:38:33Z</time>
      </trkpt>
      <trkpt lat="44.96432" lon="6.75155">
        <ele>3127.31</ele>
        <time>2024-08-12T13:38:51Z</time>
      </trkpt>
      <trkpt lat="44.96434" lon="6.75155">
        <ele>3127.31</ele>
        <time>2024-08-12T13:39:04Z</time>
      </trkpt>
      <trkpt lat="44.96433" lon="6.75155">
        <ele>3127.31</ele>
        <time>2024-08-12T13:39:24Z</time>
      </trkpt>
      <trkpt lat="44.96433" lon="6.75154">
        <ele>3127.31</ele>
        <time>2024-08-12T13:39:26Z</time>
      </trkpt>
      <trkpt lat="44.96435" lon="6.75146">
        <ele>3125.86</ele>
        <time>2024-08-12T13:39:40Z</time>
      </trkpt>
      <trkpt lat="44.96436" lon="6.75144">
        <ele>3127.79</ele>
        <time>2024-08-12T13:39:49Z</time>
      </trkpt>
      <trkpt lat="44.96436" lon="6.75144">
        <ele>3126.34</ele>
        <time>2024-08-12T13:39:52Z</time>
      </trkpt>
      <trkpt lat="44.96435" lon="6.75151">
        <ele>3127.31</ele>
        <time>2024-08-12T13:40:10Z</time>
      </trkpt>
      <trkpt lat="44.96435" lon="6.75152">
        <ele>3126.34</ele>
        <time>2024-08-12T13:40:19Z</time>
      </trkpt>
      <trkpt lat="44.96438" lon="6.75151">
        <ele>3125.86</ele>
        <time>2024-08-12T13:40:46Z</time>
      </trkpt>
      <trkpt lat="44.96438" lon="6.7515">
        <ele>3126.83</ele>
        <time>2024-08-12T13:41:05Z</time>
      </trkpt>
      <trkpt lat="44.96437" lon="6.75149">
        <ele>3126.83</ele>
        <time>2024-08-12T13:41:18Z</time>
      </trkpt>
      <trkpt lat="44.96435" lon="6.75148">
        <ele>3125.86</ele>
        <time>2024-08-12T13:41:50Z</time>
      </trkpt>
      <trkpt lat="44.96437" lon="6.75148">
        <ele>3125.86</ele>
        <time>2024-08-12T13:41:59Z</time>
      </trkpt>
      <trkpt lat="44.96442" lon="6.75143">
        <ele>3125.86</ele>
        <time>2024-08-12T13:42:16Z</time>
      </trkpt>
      <trkpt lat="44.96463" lon="6.75121">
        <ele>3125.86</ele>
        <time>2024-08-12T13:42:30Z</time>
      </trkpt>
      <trkpt lat="44.96487" lon="6.75093">
        <ele>3126.34</ele>
        <time>2024-08-12T13:42:43Z</time>
      </trkpt>
      <trkpt lat="44.9653" lon="6.75009">
        <ele>3091.74</ele>
        <time>2024-08-12T13:43:38Z</time>
      </trkpt>
      <trkpt lat="44.96524" lon="6.74993">
        <ele>3088.37</ele>
        <time>2024-08-12T13:43:42Z</time>
      </trkpt>
      <trkpt lat="44.96523" lon="6.74991">
        <ele>3088.37</ele>
        <time>2024-08-12T13:43:43Z</time>
      </trkpt>
      <trkpt lat="44.96524" lon="6.74918">
        <ele>3063.38</ele>
        <time>2024-08-12T13:44:45Z</time>
      </trkpt>
      <trkpt lat="44.96543" lon="6.74935">
        <ele>3060.49</ele>
        <time>2024-08-12T13:44:48Z</time>
      </trkpt>
      <trkpt lat="44.96559" lon="6.74948">
        <ele>3056.17</ele>
        <time>2024-08-12T13:44:51Z</time>
      </trkpt>
      <trkpt lat="44.96589" lon="6.74969">
        <ele>3050.88</ele>
        <time>2024-08-12T13:44:56Z</time>
      </trkpt>
      <trkpt lat="44.96622" lon="6.74985">
        <ele>3044.63</ele>
        <time>2024-08-12T13:45:02Z</time>
      </trkpt>
      <trkpt lat="44.96641" lon="6.74992">
        <ele>3039.83</ele>
        <time>2024-08-12T13:45:05Z</time>
      </trkpt>
      <trkpt lat="44.96676" lon="6.75011">
        <ele>3035.98</ele>
        <time>2024-08-12T13:45:11Z</time>
      </trkpt>
      <trkpt lat="44.96705" lon="6.75049">
        <ele>3029.25</ele>
        <time>2024-08-12T13:45:18Z</time>
      </trkpt>
      <trkpt lat="44.96782" lon="6.75121">
        <ele>3011.47</ele>
        <time>2024-08-12T13:45:36Z</time>
      </trkpt>
      <trkpt lat="44.9678" lon="6.75117">
        <ele>3011.95</ele>
        <time>2024-08-12T13:45:38Z</time>
      </trkpt>
      <trkpt lat="44.96779" lon="6.75113">
        <ele>3011.47</ele>
        <time>2024-08-12T13:45:39Z</time>
      </trkpt>
      <trkpt lat="44.96768" lon="6.75086">
        <ele>3008.58</ele>
        <time>2024-08-12T13:45:44Z</time>
      </trkpt>
      <trkpt lat="44.96763" lon="6.75076">
        <ele>3008.58</ele>
        <time>2024-08-12T13:45:45Z</time>
      </trkpt>
      <trkpt lat="44.9676" lon="6.75067">
        <ele>3007.62</ele>
        <time>2024-08-12T13:45:46Z</time>
      </trkpt>
      <trkpt lat="44.96756" lon="6.75056">
        <ele>3007.14</ele>
        <time>2024-08-12T13:45:47Z</time>
      </trkpt>
      <trkpt lat="44.96749" lon="6.75029">
        <ele>3002.82</ele>
        <time>2024-08-12T13:45:49Z</time>
      </trkpt>
      <trkpt lat="44.96691" lon="6.74865">
        <ele>2976.86</ele>
        <time>2024-08-12T13:46:14Z</time>
      </trkpt>
      <trkpt lat="44.96692" lon="6.74863">
        <ele>2975.42</ele>
        <time>2024-08-12T13:46:15Z</time>
      </trkpt>
      <trkpt lat="44.96694" lon="6.74863">
        <ele>2974.46</ele>
        <time>2024-08-12T13:46:16Z</time>
      </trkpt>
      <trkpt lat="44.96697" lon="6.74864">
        <ele>2974.46</ele>
        <time>2024-08-12T13:46:17Z</time>
      </trkpt>
      <trkpt lat="44.967" lon="6.74864">
        <ele>2973.98</ele>
        <time>2024-08-12T13:46:18Z</time>
      </trkpt>
      <trkpt lat="44.96702" lon="6.74864">
        <ele>2973.98</ele>
        <time>2024-08-12T13:46:19Z</time>
      </trkpt>
      <trkpt lat="44.96707" lon="6.74867">
        <ele>2971.57</ele>
        <time>2024-08-12T13:46:20Z</time>
      </trkpt>
      <trkpt lat="44.96709" lon="6.74868">
        <ele>2971.09</ele>
        <time>2024-08-12T13:46:21Z</time>
      </trkpt>
      <trkpt lat="44.96714" lon="6.74873">
        <ele>2970.13</ele>
        <time>2024-08-12T13:46:23Z</time>
      </trkpt>
      <trkpt lat="44.9672" lon="6.74874">
        <ele>2969.17</ele>
        <time>2024-08-12T13:46:24Z</time>
      </trkpt>
      <trkpt lat="44.96725" lon="6.74876">
        <ele>2967.73</ele>
        <time>2024-08-12T13:46:25Z</time>
      </trkpt>
      <trkpt lat="44.96735" lon="6.74881">
        <ele>2967.25</ele>
        <time>2024-08-12T13:46:27Z</time>
      </trkpt>
      <trkpt lat="44.96757" lon="6.74903">
        <ele>2961</ele>
        <time>2024-08-12T13:46:33Z</time>
      </trkpt>
      <trkpt lat="44.96762" lon="6.74908">
        <ele>2959.56</ele>
        <time>2024-08-12T13:46:34Z</time>
      </trkpt>
      <trkpt lat="44.96765" lon="6.74913">
        <ele>2958.59</ele>
        <time>2024-08-12T13:46:35Z</time>
      </trkpt>
      <trkpt lat="44.9678" lon="6.74934">
        <ele>2955.71</ele>
        <time>2024-08-12T13:46:38Z</time>
      </trkpt>
      <trkpt lat="44.96784" lon="6.74941">
        <ele>2954.27</ele>
        <time>2024-08-12T13:46:39Z</time>
      </trkpt>
      <trkpt lat="44.96789" lon="6.74947">
        <ele>2952.83</ele>
        <time>2024-08-12T13:46:40Z</time>
      </trkpt>
      <trkpt lat="44.96794" lon="6.74953">
        <ele>2951.87</ele>
        <time>2024-08-12T13:46:41Z</time>
      </trkpt>
      <trkpt lat="44.96801" lon="6.7496">
        <ele>2949.94</ele>
        <time>2024-08-12T13:46:43Z</time>
      </trkpt>
      <trkpt lat="44.96813" lon="6.74971">
        <ele>2947.54</ele>
        <time>2024-08-12T13:46:45Z</time>
      </trkpt>
      <trkpt lat="44.96825" lon="6.74983">
        <ele>2944.66</ele>
        <time>2024-08-12T13:46:47Z</time>
      </trkpt>
      <trkpt lat="44.96831" lon="6.74987">
        <ele>2942.73</ele>
        <time>2024-08-12T13:46:48Z</time>
      </trkpt>
      <trkpt lat="44.96842" lon="6.74994">
        <ele>2940.81</ele>
        <time>2024-08-12T13:46:51Z</time>
      </trkpt>
      <trkpt lat="44.96845" lon="6.74995">
        <ele>2939.85</ele>
        <time>2024-08-12T13:46:52Z</time>
      </trkpt>
      <trkpt lat="44.96847" lon="6.74997">
        <ele>2938.89</ele>
        <time>2024-08-12T13:46:53Z</time>
      </trkpt>
      <trkpt lat="44.96849" lon="6.74999">
        <ele>2938.41</ele>
        <time>2024-08-12T13:46:54Z</time>
      </trkpt>
      <trkpt lat="44.9685" lon="6.75">
        <ele>2937.93</ele>
        <time>2024-08-12T13:46:55Z</time>
      </trkpt>
      <trkpt lat="44.96852" lon="6.75">
        <ele>2937.45</ele>
        <time>2024-08-12T13:46:56Z</time>
      </trkpt>
      <trkpt lat="44.96853" lon="6.75">
        <ele>2937.45</ele>
        <time>2024-08-12T13:46:57Z</time>
      </trkpt>
      <trkpt lat="44.96855" lon="6.74998">
        <ele>2937.45</ele>
        <time>2024-08-12T13:46:59Z</time>
      </trkpt>
      <trkpt lat="44.96852" lon="6.74994">
        <ele>2936.97</ele>
        <time>2024-08-12T13:47:01Z</time>
      </trkpt>
      <trkpt lat="44.9685" lon="6.7499">
        <ele>2936.97</ele>
        <time>2024-08-12T13:47:02Z</time>
      </trkpt>
      <trkpt lat="44.96845" lon="6.7498">
        <ele>2935.04</ele>
        <time>2024-08-12T13:47:05Z</time>
      </trkpt>
      <trkpt lat="44.96841" lon="6.74972">
        <ele>2935.04</ele>
        <time>2024-08-12T13:47:06Z</time>
      </trkpt>
      <trkpt lat="44.96834" lon="6.74957">
        <ele>2932.16</ele>
        <time>2024-08-12T13:47:08Z</time>
      </trkpt>
      <trkpt lat="44.96833" lon="6.7495">
        <ele>2931.2</ele>
        <time>2024-08-12T13:47:09Z</time>
      </trkpt>
      <trkpt lat="44.9683" lon="6.74941">
        <ele>2928.79</ele>
        <time>2024-08-12T13:47:11Z</time>
      </trkpt>
      <trkpt lat="44.96827" lon="6.74933">
        <ele>2927.83</ele>
        <time>2024-08-12T13:47:12Z</time>
      </trkpt>
      <trkpt lat="44.96825" lon="6.74927">
        <ele>2927.35</ele>
        <time>2024-08-12T13:47:13Z</time>
      </trkpt>
      <trkpt lat="44.96824" lon="6.74919">
        <ele>2926.39</ele>
        <time>2024-08-12T13:47:14Z</time>
      </trkpt>
      <trkpt lat="44.96823" lon="6.74909">
        <ele>2924.95</ele>
        <time>2024-08-12T13:47:16Z</time>
      </trkpt>
      <trkpt lat="44.96819" lon="6.74895">
        <ele>2922.54</ele>
        <time>2024-08-12T13:47:18Z</time>
      </trkpt>
      <trkpt lat="44.96817" lon="6.7489">
        <ele>2921.58</ele>
        <time>2024-08-12T13:47:19Z</time>
      </trkpt>
      <trkpt lat="44.96813" lon="6.74856">
        <ele>2917.26</ele>
        <time>2024-08-12T13:47:27Z</time>
      </trkpt>
      <trkpt lat="44.96813" lon="6.74852">
        <ele>2916.3</ele>
        <time>2024-08-12T13:47:28Z</time>
      </trkpt>
      <trkpt lat="44.96812" lon="6.74847">
        <ele>2916.3</ele>
        <time>2024-08-12T13:47:29Z</time>
      </trkpt>
      <trkpt lat="44.96792" lon="6.74767">
        <ele>2906.2</ele>
        <time>2024-08-12T13:47:40Z</time>
      </trkpt>
      <trkpt lat="44.9679" lon="6.74764">
        <ele>2905.72</ele>
        <time>2024-08-12T13:47:41Z</time>
      </trkpt>
      <trkpt lat="44.96784" lon="6.74728">
        <ele>2893.23</ele>
        <time>2024-08-12T13:47:59Z</time>
      </trkpt>
      <trkpt lat="44.96794" lon="6.7473">
        <ele>2890.82</ele>
        <time>2024-08-12T13:48:03Z</time>
      </trkpt>
      <trkpt lat="44.96795" lon="6.74731">
        <ele>2890.82</ele>
        <time>2024-08-12T13:48:04Z</time>
      </trkpt>
      <trkpt lat="44.96851" lon="6.74706">
        <ele>2870.63</ele>
        <time>2024-08-12T13:48:40Z</time>
      </trkpt>
      <trkpt lat="44.96849" lon="6.74698">
        <ele>2869.19</ele>
        <time>2024-08-12T13:48:42Z</time>
      </trkpt>
      <trkpt lat="44.96847" lon="6.74693">
        <ele>2869.19</ele>
        <time>2024-08-12T13:48:43Z</time>
      </trkpt>
      <trkpt lat="44.96845" lon="6.74687">
        <ele>2868.23</ele>
        <time>2024-08-12T13:48:44Z</time>
      </trkpt>
      <trkpt lat="44.96839" lon="6.74676">
        <ele>2866.31</ele>
        <time>2024-08-12T13:48:46Z</time>
      </trkpt>
      <trkpt lat="44.96835" lon="6.74668">
        <ele>2864.39</ele>
        <time>2024-08-12T13:48:47Z</time>
      </trkpt>
      <trkpt lat="44.96823" lon="6.74652">
        <ele>2860.54</ele>
        <time>2024-08-12T13:48:50Z</time>
      </trkpt>
      <trkpt lat="44.96819" lon="6.74649">
        <ele>2859.58</ele>
        <time>2024-08-12T13:48:51Z</time>
      </trkpt>
      <trkpt lat="44.96815" lon="6.74647">
        <ele>2859.58</ele>
        <time>2024-08-12T13:48:52Z</time>
      </trkpt>
      <trkpt lat="44.96812" lon="6.74644">
        <ele>2857.66</ele>
        <time>2024-08-12T13:48:53Z</time>
      </trkpt>
      <trkpt lat="44.96812" lon="6.74638">
        <ele>2856.69</ele>
        <time>2024-08-12T13:48:54Z</time>
      </trkpt>
      <trkpt lat="44.96815" lon="6.74636">
        <ele>2854.77</ele>
        <time>2024-08-12T13:48:56Z</time>
      </trkpt>
      <trkpt lat="44.96835" lon="6.74634">
        <ele>2851.41</ele>
        <time>2024-08-12T13:49:01Z</time>
      </trkpt>
      <trkpt lat="44.96851" lon="6.74633">
        <ele>2848.52</ele>
        <time>2024-08-12T13:49:05Z</time>
      </trkpt>
      <trkpt lat="44.96868" lon="6.74632">
        <ele>2845.16</ele>
        <time>2024-08-12T13:49:10Z</time>
      </trkpt>
      <trkpt lat="44.96871" lon="6.74633">
        <ele>2844.2</ele>
        <time>2024-08-12T13:49:11Z</time>
      </trkpt>
      <trkpt lat="44.96875" lon="6.74633">
        <ele>2843.72</ele>
        <time>2024-08-12T13:49:12Z</time>
      </trkpt>
      <trkpt lat="44.96878" lon="6.74633">
        <ele>2842.76</ele>
        <time>2024-08-12T13:49:13Z</time>
      </trkpt>
      <trkpt lat="44.96902" lon="6.74625">
        <ele>2840.35</ele>
        <time>2024-08-12T13:49:20Z</time>
      </trkpt>
      <trkpt lat="44.96909" lon="6.74626">
        <ele>2838.91</ele>
        <time>2024-08-12T13:49:21Z</time>
      </trkpt>
      <trkpt lat="44.96944" lon="6.74585">
        <ele>2821.13</ele>
        <time>2024-08-12T13:49:40Z</time>
      </trkpt>
      <trkpt lat="44.96941" lon="6.74586">
        <ele>2822.57</ele>
        <time>2024-08-12T13:49:51Z</time>
      </trkpt>
      <trkpt lat="44.9694" lon="6.74586">
        <ele>2823.05</ele>
        <time>2024-08-12T13:49:55Z</time>
      </trkpt>
      <trkpt lat="44.96937" lon="6.74584">
        <ele>2823.05</ele>
        <time>2024-08-12T13:49:57Z</time>
      </trkpt>
      <trkpt lat="44.96931" lon="6.74573">
        <ele>2823.05</ele>
        <time>2024-08-12T13:49:59Z</time>
      </trkpt>
      <trkpt lat="44.96927" lon="6.74568">
        <ele>2821.61</ele>
        <time>2024-08-12T13:50:00Z</time>
      </trkpt>
      <trkpt lat="44.96922" lon="6.74561">
        <ele>2820.16</ele>
        <time>2024-08-12T13:50:01Z</time>
      </trkpt>
      <trkpt lat="44.96919" lon="6.74559">
        <ele>2820.16</ele>
        <time>2024-08-12T13:50:02Z</time>
      </trkpt>
      <trkpt lat="44.96915" lon="6.74557">
        <ele>2818.72</ele>
        <time>2024-08-12T13:50:03Z</time>
      </trkpt>
      <trkpt lat="44.96913" lon="6.74553">
        <ele>2817.28</ele>
        <time>2024-08-12T13:50:04Z</time>
      </trkpt>
      <trkpt lat="44.96914" lon="6.74548">
        <ele>2815.84</ele>
        <time>2024-08-12T13:50:05Z</time>
      </trkpt>
      <trkpt lat="44.96917" lon="6.74546">
        <ele>2815.36</ele>
        <time>2024-08-12T13:50:06Z</time>
      </trkpt>
      <trkpt lat="44.96922" lon="6.74546">
        <ele>2814.88</ele>
        <time>2024-08-12T13:50:07Z</time>
      </trkpt>
      <trkpt lat="44.96928" lon="6.74546">
        <ele>2814.88</ele>
        <time>2024-08-12T13:50:08Z</time>
      </trkpt>
      <trkpt lat="44.96942" lon="6.74545">
        <ele>2811.51</ele>
        <time>2024-08-12T13:50:10Z</time>
      </trkpt>
      <trkpt lat="44.96946" lon="6.74545">
        <ele>2810.55</ele>
        <time>2024-08-12T13:50:11Z</time>
      </trkpt>
      <trkpt lat="44.96954" lon="6.74546">
        <ele>2809.11</ele>
        <time>2024-08-12T13:50:12Z</time>
      </trkpt>
      <trkpt lat="44.96957" lon="6.74545">
        <ele>2809.59</ele>
        <time>2024-08-12T13:50:13Z</time>
      </trkpt>
      <trkpt lat="44.96962" lon="6.74544">
        <ele>2808.63</ele>
        <time>2024-08-12T13:50:14Z</time>
      </trkpt>
      <trkpt lat="44.96967" lon="6.74543">
        <ele>2808.15</ele>
        <time>2024-08-12T13:50:15Z</time>
      </trkpt>
      <trkpt lat="44.96972" lon="6.7454">
        <ele>2806.71</ele>
        <time>2024-08-12T13:50:16Z</time>
      </trkpt>
      <trkpt lat="44.96982" lon="6.74536">
        <ele>2803.34</ele>
        <time>2024-08-12T13:50:18Z</time>
      </trkpt>
      <trkpt lat="44.96987" lon="6.74535">
        <ele>2802.86</ele>
        <time>2024-08-12T13:50:19Z</time>
      </trkpt>
      <trkpt lat="44.96992" lon="6.74534">
        <ele>2802.38</ele>
        <time>2024-08-12T13:50:20Z</time>
      </trkpt>
      <trkpt lat="44.96999" lon="6.7453">
        <ele>2801.42</ele>
        <time>2024-08-12T13:50:21Z</time>
      </trkpt>
      <trkpt lat="44.97013" lon="6.74523">
        <ele>2799.02</ele>
        <time>2024-08-12T13:50:24Z</time>
      </trkpt>
      <trkpt lat="44.97024" lon="6.74517">
        <ele>2797.09</ele>
        <time>2024-08-12T13:50:25Z</time>
      </trkpt>
      <trkpt lat="44.9703" lon="6.74513">
        <ele>2796.13</ele>
        <time>2024-08-12T13:50:26Z</time>
      </trkpt>
      <trkpt lat="44.97064" lon="6.7448">
        <ele>2789.88</ele>
        <time>2024-08-12T13:50:33Z</time>
      </trkpt>
      <trkpt lat="44.97082" lon="6.74471">
        <ele>2783.15</ele>
        <time>2024-08-12T13:50:36Z</time>
      </trkpt>
      <trkpt lat="44.97089" lon="6.74468">
        <ele>2781.71</ele>
        <time>2024-08-12T13:50:37Z</time>
      </trkpt>
      <trkpt lat="44.97101" lon="6.7448">
        <ele>2779.79</ele>
        <time>2024-08-12T13:50:40Z</time>
      </trkpt>
      <trkpt lat="44.97103" lon="6.74487">
        <ele>2779.31</ele>
        <time>2024-08-12T13:50:41Z</time>
      </trkpt>
      <trkpt lat="44.97106" lon="6.74486">
        <ele>2778.35</ele>
        <time>2024-08-12T13:50:42Z</time>
      </trkpt>
      <trkpt lat="44.97107" lon="6.7448">
        <ele>2777.87</ele>
        <time>2024-08-12T13:50:44Z</time>
      </trkpt>
      <trkpt lat="44.97106" lon="6.74472">
        <ele>2777.87</ele>
        <time>2024-08-12T13:50:45Z</time>
      </trkpt>
      <trkpt lat="44.97107" lon="6.74445">
        <ele>2775.46</ele>
        <time>2024-08-12T13:50:48Z</time>
      </trkpt>
      <trkpt lat="44.97105" lon="6.74426">
        <ele>2771.62</ele>
        <time>2024-08-12T13:50:50Z</time>
      </trkpt>
      <trkpt lat="44.97105" lon="6.74417">
        <ele>2770.18</ele>
        <time>2024-08-12T13:50:51Z</time>
      </trkpt>
      <trkpt lat="44.97108" lon="6.74413">
        <ele>2769.7</ele>
        <time>2024-08-12T13:50:52Z</time>
      </trkpt>
      <trkpt lat="44.97114" lon="6.74413">
        <ele>2768.73</ele>
        <time>2024-08-12T13:50:54Z</time>
      </trkpt>
      <trkpt lat="44.9712" lon="6.74421">
        <ele>2766.81</ele>
        <time>2024-08-12T13:50:55Z</time>
      </trkpt>
      <trkpt lat="44.97121" lon="6.74424">
        <ele>2766.33</ele>
        <time>2024-08-12T13:50:56Z</time>
      </trkpt>
      <trkpt lat="44.97122" lon="6.74426">
        <ele>2764.89</ele>
        <time>2024-08-12T13:51:02Z</time>
      </trkpt>
      <trkpt lat="44.9712" lon="6.74426">
        <ele>2765.37</ele>
        <time>2024-08-12T13:51:16Z</time>
      </trkpt>
      <trkpt lat="44.97118" lon="6.74429">
        <ele>2764.89</ele>
        <time>2024-08-12T13:51:29Z</time>
      </trkpt>
      <trkpt lat="44.97119" lon="6.7443">
        <ele>2764.41</ele>
        <time>2024-08-12T13:52:11Z</time>
      </trkpt>
      <trkpt lat="44.9712" lon="6.7443">
        <ele>2764.41</ele>
        <time>2024-08-12T13:52:53Z</time>
      </trkpt>
      <trkpt lat="44.9712" lon="6.7443">
        <ele>2763.93</ele>
        <time>2024-08-12T13:53:32Z</time>
      </trkpt>
      <trkpt lat="44.9712" lon="6.7443">
        <ele>2763.45</ele>
        <time>2024-08-12T13:54:11Z</time>
      </trkpt>
      <trkpt lat="44.97119" lon="6.7443">
        <ele>2763.45</ele>
        <time>2024-08-12T13:54:43Z</time>
      </trkpt>
      <trkpt lat="44.97119" lon="6.7443">
        <ele>2762.97</ele>
        <time>2024-08-12T13:55:21Z</time>
      </trkpt>
      <trkpt lat="44.9712" lon="6.74428">
        <ele>2762.97</ele>
        <time>2024-08-12T13:55:47Z</time>
      </trkpt>
      <trkpt lat="44.9712" lon="6.74429">
        <ele>2762.49</ele>
        <time>2024-08-12T13:56:01Z</time>
      </trkpt>
      <trkpt lat="44.97121" lon="6.7443">
        <ele>2762.49</ele>
        <time>2024-08-12T13:56:30Z</time>
      </trkpt>
      <trkpt lat="44.97122" lon="6.7443">
        <ele>2762.49</ele>
        <time>2024-08-12T13:56:52Z</time>
      </trkpt>
      <trkpt lat="44.97123" lon="6.74432">
        <ele>2762.49</ele>
        <time>2024-08-12T13:56:53Z</time>
      </trkpt>
      <trkpt lat="44.97125" lon="6.74436">
        <ele>2762.49</ele>
        <time>2024-08-12T13:56:54Z</time>
      </trkpt>
      <trkpt lat="44.97126" lon="6.74439">
        <ele>2762.49</ele>
        <time>2024-08-12T13:56:55Z</time>
      </trkpt>
      <trkpt lat="44.97128" lon="6.74444">
        <ele>2762</ele>
        <time>2024-08-12T13:56:56Z</time>
      </trkpt>
      <trkpt lat="44.9713" lon="6.7445">
        <ele>2762</ele>
        <time>2024-08-12T13:56:57Z</time>
      </trkpt>
      <trkpt lat="44.97131" lon="6.74457">
        <ele>2761.04</ele>
        <time>2024-08-12T13:56:58Z</time>
      </trkpt>
      <trkpt lat="44.97134" lon="6.74461">
        <ele>2760.08</ele>
        <time>2024-08-12T13:56:59Z</time>
      </trkpt>
      <trkpt lat="44.97141" lon="6.74458">
        <ele>2759.12</ele>
        <time>2024-08-12T13:57:01Z</time>
      </trkpt>
      <trkpt lat="44.97141" lon="6.74452">
        <ele>2757.2</ele>
        <time>2024-08-12T13:57:02Z</time>
      </trkpt>
      <trkpt lat="44.97141" lon="6.7444">
        <ele>2756.72</ele>
        <time>2024-08-12T13:57:03Z</time>
      </trkpt>
      <trkpt lat="44.97142" lon="6.74434">
        <ele>2755.76</ele>
        <time>2024-08-12T13:57:04Z</time>
      </trkpt>
      <trkpt lat="44.97143" lon="6.74427">
        <ele>2754.31</ele>
        <time>2024-08-12T13:57:05Z</time>
      </trkpt>
      <trkpt lat="44.97145" lon="6.74417">
        <ele>2752.87</ele>
        <time>2024-08-12T13:57:06Z</time>
      </trkpt>
      <trkpt lat="44.97145" lon="6.74415">
        <ele>2751.91</ele>
        <time>2024-08-12T13:57:07Z</time>
      </trkpt>
      <trkpt lat="44.97145" lon="6.74411">
        <ele>2750.95</ele>
        <time>2024-08-12T13:57:08Z</time>
      </trkpt>
      <trkpt lat="44.97144" lon="6.74408">
        <ele>2750.47</ele>
        <time>2024-08-12T13:57:09Z</time>
      </trkpt>
      <trkpt lat="44.97145" lon="6.74403">
        <ele>2749.99</ele>
        <time>2024-08-12T13:57:10Z</time>
      </trkpt>
      <trkpt lat="44.97146" lon="6.74401">
        <ele>2749.99</ele>
        <time>2024-08-12T13:57:11Z</time>
      </trkpt>
      <trkpt lat="44.97148" lon="6.74397">
        <ele>2749.99</ele>
        <time>2024-08-12T13:57:12Z</time>
      </trkpt>
      <trkpt lat="44.97149" lon="6.74391">
        <ele>2749.51</ele>
        <time>2024-08-12T13:57:13Z</time>
      </trkpt>
      <trkpt lat="44.9715" lon="6.74384">
        <ele>2749.03</ele>
        <time>2024-08-12T13:57:14Z</time>
      </trkpt>
      <trkpt lat="44.97151" lon="6.74372">
        <ele>2748.55</ele>
        <time>2024-08-12T13:57:15Z</time>
      </trkpt>
      <trkpt lat="44.97151" lon="6.74366">
        <ele>2748.07</ele>
        <time>2024-08-12T13:57:16Z</time>
      </trkpt>
      <trkpt lat="44.97152" lon="6.74357">
        <ele>2748.07</ele>
        <time>2024-08-12T13:57:17Z</time>
      </trkpt>
      <trkpt lat="44.97153" lon="6.74341">
        <ele>2744.22</ele>
        <time>2024-08-12T13:57:19Z</time>
      </trkpt>
      <trkpt lat="44.97153" lon="6.74333">
        <ele>2742.78</ele>
        <time>2024-08-12T13:57:20Z</time>
      </trkpt>
      <trkpt lat="44.97152" lon="6.74325">
        <ele>2742.3</ele>
        <time>2024-08-12T13:57:21Z</time>
      </trkpt>
      <trkpt lat="44.97152" lon="6.7432">
        <ele>2740.38</ele>
        <time>2024-08-12T13:57:22Z</time>
      </trkpt>
      <trkpt lat="44.97155" lon="6.74313">
        <ele>2738.45</ele>
        <time>2024-08-12T13:57:23Z</time>
      </trkpt>
      <trkpt lat="44.97159" lon="6.74314">
        <ele>2736.53</ele>
        <time>2024-08-12T13:57:25Z</time>
      </trkpt>
      <trkpt lat="44.97183" lon="6.74329">
        <ele>2730.76</ele>
        <time>2024-08-12T13:57:33Z</time>
      </trkpt>
      <trkpt lat="44.97185" lon="6.74314">
        <ele>2729.32</ele>
        <time>2024-08-12T13:57:34Z</time>
      </trkpt>
      <trkpt lat="44.97186" lon="6.74306">
        <ele>2727.88</ele>
        <time>2024-08-12T13:57:35Z</time>
      </trkpt>
      <trkpt lat="44.97189" lon="6.74296">
        <ele>2725.96</ele>
        <time>2024-08-12T13:57:37Z</time>
      </trkpt>
      <trkpt lat="44.97194" lon="6.74297">
        <ele>2724.03</ele>
        <time>2024-08-12T13:57:39Z</time>
      </trkpt>
      <trkpt lat="44.97196" lon="6.74305">
        <ele>2723.07</ele>
        <time>2024-08-12T13:57:40Z</time>
      </trkpt>
      <trkpt lat="44.97197" lon="6.74312">
        <ele>2721.63</ele>
        <time>2024-08-12T13:57:41Z</time>
      </trkpt>
      <trkpt lat="44.97197" lon="6.74319">
        <ele>2721.15</ele>
        <time>2024-08-12T13:57:42Z</time>
      </trkpt>
      <trkpt lat="44.97202" lon="6.74322">
        <ele>2719.71</ele>
        <time>2024-08-12T13:57:44Z</time>
      </trkpt>
      <trkpt lat="44.97205" lon="6.74313">
        <ele>2718.27</ele>
        <time>2024-08-12T13:57:46Z</time>
      </trkpt>
      <trkpt lat="44.97233" lon="6.7428">
        <ele>2712.5</ele>
        <time>2024-08-12T13:57:53Z</time>
      </trkpt>
      <trkpt lat="44.9724" lon="6.74278">
        <ele>2711.54</ele>
        <time>2024-08-12T13:57:54Z</time>
      </trkpt>
      <trkpt lat="44.97243" lon="6.74275">
        <ele>2710.57</ele>
        <time>2024-08-12T13:57:55Z</time>
      </trkpt>
      <trkpt lat="44.97245" lon="6.7427">
        <ele>2710.09</ele>
        <time>2024-08-12T13:57:56Z</time>
      </trkpt>
      <trkpt lat="44.97246" lon="6.74266">
        <ele>2710.09</ele>
        <time>2024-08-12T13:57:57Z</time>
      </trkpt>
      <trkpt lat="44.97247" lon="6.74257">
        <ele>2710.09</ele>
        <time>2024-08-12T13:57:59Z</time>
      </trkpt>
      <trkpt lat="44.9725" lon="6.74249">
        <ele>2708.17</ele>
        <time>2024-08-12T13:58:00Z</time>
      </trkpt>
      <trkpt lat="44.97254" lon="6.74245">
        <ele>2707.69</ele>
        <time>2024-08-12T13:58:01Z</time>
      </trkpt>
      <trkpt lat="44.97258" lon="6.74242">
        <ele>2707.21</ele>
        <time>2024-08-12T13:58:02Z</time>
      </trkpt>
      <trkpt lat="44.97263" lon="6.74238">
        <ele>2705.29</ele>
        <time>2024-08-12T13:58:03Z</time>
      </trkpt>
      <trkpt lat="44.97285" lon="6.74218">
        <ele>2700</ele>
        <time>2024-08-12T13:58:07Z</time>
      </trkpt>
      <trkpt lat="44.97297" lon="6.74207">
        <ele>2697.6</ele>
        <time>2024-08-12T13:58:09Z</time>
      </trkpt>
      <trkpt lat="44.97301" lon="6.74201">
        <ele>2697.12</ele>
        <time>2024-08-12T13:58:10Z</time>
      </trkpt>
      <trkpt lat="44.97305" lon="6.74196">
        <ele>2695.19</ele>
        <time>2024-08-12T13:58:11Z</time>
      </trkpt>
      <trkpt lat="44.97308" lon="6.74191">
        <ele>2693.75</ele>
        <time>2024-08-12T13:58:12Z</time>
      </trkpt>
      <trkpt lat="44.97308" lon="6.74187">
        <ele>2693.75</ele>
        <time>2024-08-12T13:58:13Z</time>
      </trkpt>
      <trkpt lat="44.97308" lon="6.74181">
        <ele>2693.75</ele>
        <time>2024-08-12T13:58:14Z</time>
      </trkpt>
      <trkpt lat="44.97307" lon="6.74173">
        <ele>2691.35</ele>
        <time>2024-08-12T13:58:16Z</time>
      </trkpt>
      <trkpt lat="44.97304" lon="6.74172">
        <ele>2690.39</ele>
        <time>2024-08-12T13:58:17Z</time>
      </trkpt>
      <trkpt lat="44.973" lon="6.74171">
        <ele>2691.35</ele>
        <time>2024-08-12T13:58:18Z</time>
      </trkpt>
      <trkpt lat="44.97297" lon="6.74169">
        <ele>2691.35</ele>
        <time>2024-08-12T13:58:19Z</time>
      </trkpt>
      <trkpt lat="44.97293" lon="6.74169">
        <ele>2688.94</ele>
        <time>2024-08-12T13:58:20Z</time>
      </trkpt>
      <trkpt lat="44.97289" lon="6.7417">
        <ele>2688.94</ele>
        <time>2024-08-12T13:58:21Z</time>
      </trkpt>
      <trkpt lat="44.97282" lon="6.74171">
        <ele>2687.02</ele>
        <time>2024-08-12T13:58:23Z</time>
      </trkpt>
      <trkpt lat="44.97278" lon="6.74169">
        <ele>2685.58</ele>
        <time>2024-08-12T13:58:24Z</time>
      </trkpt>
      <trkpt lat="44.97276" lon="6.74166">
        <ele>2685.1</ele>
        <time>2024-08-12T13:58:25Z</time>
      </trkpt>
      <trkpt lat="44.97276" lon="6.74162">
        <ele>2683.66</ele>
        <time>2024-08-12T13:58:26Z</time>
      </trkpt>
      <trkpt lat="44.97278" lon="6.74158">
        <ele>2682.7</ele>
        <time>2024-08-12T13:58:27Z</time>
      </trkpt>
      <trkpt lat="44.97279" lon="6.74155">
        <ele>2683.18</ele>
        <time>2024-08-12T13:58:28Z</time>
      </trkpt>
      <trkpt lat="44.97281" lon="6.74151">
        <ele>2680.77</ele>
        <time>2024-08-12T13:58:29Z</time>
      </trkpt>
      <trkpt lat="44.97282" lon="6.74148">
        <ele>2680.29</ele>
        <time>2024-08-12T13:58:30Z</time>
      </trkpt>
      <trkpt lat="44.97286" lon="6.74138">
        <ele>2676.93</ele>
        <time>2024-08-12T13:58:33Z</time>
      </trkpt>
      <trkpt lat="44.97292" lon="6.74127">
        <ele>2674.04</ele>
        <time>2024-08-12T13:58:36Z</time>
      </trkpt>
      <trkpt lat="44.97295" lon="6.74116">
        <ele>2670.68</ele>
        <time>2024-08-12T13:58:39Z</time>
      </trkpt>
      <trkpt lat="44.97296" lon="6.74113">
        <ele>2670.68</ele>
        <time>2024-08-12T13:58:40Z</time>
      </trkpt>
      <trkpt lat="44.973" lon="6.74101">
        <ele>2667.31</ele>
        <time>2024-08-12T13:58:44Z</time>
      </trkpt>
      <trkpt lat="44.97303" lon="6.74091">
        <ele>2665.39</ele>
        <time>2024-08-12T13:58:48Z</time>
      </trkpt>
      <trkpt lat="44.97305" lon="6.74086">
        <ele>2662.51</ele>
        <time>2024-08-12T13:58:52Z</time>
      </trkpt>
      <trkpt lat="44.97305" lon="6.74086">
        <ele>2662.03</ele>
        <time>2024-08-12T13:58:53Z</time>
      </trkpt>
      <trkpt lat="44.97306" lon="6.74085">
        <ele>2662.51</ele>
        <time>2024-08-12T13:59:12Z</time>
      </trkpt>
      <trkpt lat="44.97306" lon="6.74083">
        <ele>2662.51</ele>
        <time>2024-08-12T13:59:13Z</time>
      </trkpt>
      <trkpt lat="44.97307" lon="6.74081">
        <ele>2661.55</ele>
        <time>2024-08-12T13:59:14Z</time>
      </trkpt>
      <trkpt lat="44.97312" lon="6.74069">
        <ele>2658.66</ele>
        <time>2024-08-12T13:59:19Z</time>
      </trkpt>
      <trkpt lat="44.97313" lon="6.74067">
        <ele>2657.7</ele>
        <time>2024-08-12T13:59:20Z</time>
      </trkpt>
      <trkpt lat="44.97314" lon="6.74066">
        <ele>2657.7</ele>
        <time>2024-08-12T13:59:21Z</time>
      </trkpt>
      <trkpt lat="44.97315" lon="6.74064">
        <ele>2657.7</ele>
        <time>2024-08-12T13:59:22Z</time>
      </trkpt>
      <trkpt lat="44.97317" lon="6.74061">
        <ele>2656.74</ele>
        <time>2024-08-12T13:59:23Z</time>
      </trkpt>
      <trkpt lat="44.97318" lon="6.74057">
        <ele>2656.26</ele>
        <time>2024-08-12T13:59:24Z</time>
      </trkpt>
      <trkpt lat="44.9732" lon="6.74054">
        <ele>2655.3</ele>
        <time>2024-08-12T13:59:25Z</time>
      </trkpt>
      <trkpt lat="44.97322" lon="6.74053">
        <ele>2655.3</ele>
        <time>2024-08-12T13:59:26Z</time>
      </trkpt>
      <trkpt lat="44.97322" lon="6.74054">
        <ele>2654.82</ele>
        <time>2024-08-12T13:59:41Z</time>
      </trkpt>
      <trkpt lat="44.97333" lon="6.74043">
        <ele>2654.34</ele>
        <time>2024-08-12T13:59:55Z</time>
      </trkpt>
      <trkpt lat="44.97336" lon="6.74039">
        <ele>2655.78</ele>
        <time>2024-08-12T13:59:58Z</time>
      </trkpt>
      <trkpt lat="44.97336" lon="6.74038">
        <ele>2654.82</ele>
        <time>2024-08-12T14:00:00Z</time>
      </trkpt>
      <trkpt lat="44.97337" lon="6.74029">
        <ele>2653.38</ele>
        <time>2024-08-12T14:00:12Z</time>
      </trkpt>
      <trkpt lat="44.97337" lon="6.74027">
        <ele>2652.42</ele>
        <time>2024-08-12T14:00:13Z</time>
      </trkpt>
      <trkpt lat="44.97337" lon="6.74025">
        <ele>2652.42</ele>
        <time>2024-08-12T14:00:14Z</time>
      </trkpt>
      <trkpt lat="44.97339" lon="6.74006">
        <ele>2649.05</ele>
        <time>2024-08-12T14:00:19Z</time>
      </trkpt>
      <trkpt lat="44.97338" lon="6.74005">
        <ele>2649.05</ele>
        <time>2024-08-12T14:00:20Z</time>
      </trkpt>
      <trkpt lat="44.97336" lon="6.74005">
        <ele>2648.09</ele>
        <time>2024-08-12T14:00:21Z</time>
      </trkpt>
      <trkpt lat="44.97334" lon="6.74006">
        <ele>2647.61</ele>
        <time>2024-08-12T14:00:23Z</time>
      </trkpt>
      <trkpt lat="44.97333" lon="6.74007">
        <ele>2647.61</ele>
        <time>2024-08-12T14:00:24Z</time>
      </trkpt>
      <trkpt lat="44.97332" lon="6.74006">
        <ele>2646.17</ele>
        <time>2024-08-12T14:00:25Z</time>
      </trkpt>
      <trkpt lat="44.97332" lon="6.74005">
        <ele>2645.21</ele>
        <time>2024-08-12T14:00:27Z</time>
      </trkpt>
      <trkpt lat="44.97332" lon="6.74002">
        <ele>2644.72</ele>
        <time>2024-08-12T14:00:28Z</time>
      </trkpt>
      <trkpt lat="44.97332" lon="6.73999">
        <ele>2644.72</ele>
        <time>2024-08-12T14:00:29Z</time>
      </trkpt>
      <trkpt lat="44.97332" lon="6.73996">
        <ele>2644.72</ele>
        <time>2024-08-12T14:00:30Z</time>
      </trkpt>
      <trkpt lat="44.97331" lon="6.73992">
        <ele>2644.24</ele>
        <time>2024-08-12T14:00:31Z</time>
      </trkpt>
      <trkpt lat="44.97331" lon="6.7399">
        <ele>2642.8</ele>
        <time>2024-08-12T14:00:32Z</time>
      </trkpt>
      <trkpt lat="44.9733" lon="6.7399">
        <ele>2642.8</ele>
        <time>2024-08-12T14:00:33Z</time>
      </trkpt>
      <trkpt lat="44.9733" lon="6.73991">
        <ele>2642.8</ele>
        <time>2024-08-12T14:00:34Z</time>
      </trkpt>
      <trkpt lat="44.97322" lon="6.74001">
        <ele>2639.92</ele>
        <time>2024-08-12T14:00:39Z</time>
      </trkpt>
      <trkpt lat="44.97317" lon="6.74004">
        <ele>2638.48</ele>
        <time>2024-08-12T14:00:42Z</time>
      </trkpt>
      <trkpt lat="44.97315" lon="6.74004">
        <ele>2636.07</ele>
        <time>2024-08-12T14:00:48Z</time>
      </trkpt>
      <trkpt lat="44.97314" lon="6.73995">
        <ele>2635.11</ele>
        <time>2024-08-12T14:00:54Z</time>
      </trkpt>
      <trkpt lat="44.97307" lon="6.74002">
        <ele>2631.75</ele>
        <time>2024-08-12T14:01:01Z</time>
      </trkpt>
      <trkpt lat="44.97302" lon="6.74">
        <ele>2629.34</ele>
        <time>2024-08-12T14:01:05Z</time>
      </trkpt>
      <trkpt lat="44.97302" lon="6.73998">
        <ele>2628.86</ele>
        <time>2024-08-12T14:01:06Z</time>
      </trkpt>
      <trkpt lat="44.97301" lon="6.73996">
        <ele>2628.86</ele>
        <time>2024-08-12T14:01:07Z</time>
      </trkpt>
      <trkpt lat="44.973" lon="6.73994">
        <ele>2627.9</ele>
        <time>2024-08-12T14:01:08Z</time>
      </trkpt>
      <trkpt lat="44.97299" lon="6.73992">
        <ele>2627.42</ele>
        <time>2024-08-12T14:01:09Z</time>
      </trkpt>
      <trkpt lat="44.97299" lon="6.7399">
        <ele>2626.46</ele>
        <time>2024-08-12T14:01:10Z</time>
      </trkpt>
      <trkpt lat="44.97299" lon="6.73987">
        <ele>2625.5</ele>
        <time>2024-08-12T14:01:11Z</time>
      </trkpt>
      <trkpt lat="44.97299" lon="6.73985">
        <ele>2625.02</ele>
        <time>2024-08-12T14:01:12Z</time>
      </trkpt>
      <trkpt lat="44.97297" lon="6.73986">
        <ele>2625.02</ele>
        <time>2024-08-12T14:01:13Z</time>
      </trkpt>
      <trkpt lat="44.97297" lon="6.73986">
        <ele>2624.54</ele>
        <time>2024-08-12T14:01:14Z</time>
      </trkpt>
      <trkpt lat="44.97296" lon="6.73987">
        <ele>2625.02</ele>
        <time>2024-08-12T14:01:15Z</time>
      </trkpt>
      <trkpt lat="44.97295" lon="6.73988">
        <ele>2624.54</ele>
        <time>2024-08-12T14:01:16Z</time>
      </trkpt>
      <trkpt lat="44.97294" lon="6.73989">
        <ele>2624.54</ele>
        <time>2024-08-12T14:01:17Z</time>
      </trkpt>
      <trkpt lat="44.97288" lon="6.73992">
        <ele>2621.17</ele>
        <time>2024-08-12T14:01:21Z</time>
      </trkpt>
      <trkpt lat="44.97282" lon="6.73993">
        <ele>2619.25</ele>
        <time>2024-08-12T14:01:31Z</time>
      </trkpt>
      <trkpt lat="44.97281" lon="6.73996">
        <ele>2617.81</ele>
        <time>2024-08-12T14:01:41Z</time>
      </trkpt>
      <trkpt lat="44.97276" lon="6.74001">
        <ele>2616.37</ele>
        <time>2024-08-12T14:01:48Z</time>
      </trkpt>
      <trkpt lat="44.97275" lon="6.74002">
        <ele>2616.37</ele>
        <time>2024-08-12T14:01:49Z</time>
      </trkpt>
      <trkpt lat="44.97272" lon="6.74002">
        <ele>2616.37</ele>
        <time>2024-08-12T14:01:55Z</time>
      </trkpt>
      <trkpt lat="44.9727" lon="6.74002">
        <ele>2616.37</ele>
        <time>2024-08-12T14:01:56Z</time>
      </trkpt>
      <trkpt lat="44.97268" lon="6.74002">
        <ele>2615.4</ele>
        <time>2024-08-12T14:01:57Z</time>
      </trkpt>
      <trkpt lat="44.97265" lon="6.74004">
        <ele>2614.92</ele>
        <time>2024-08-12T14:01:59Z</time>
      </trkpt>
      <trkpt lat="44.97263" lon="6.74002">
        <ele>2612.52</ele>
        <time>2024-08-12T14:02:02Z</time>
      </trkpt>
      <trkpt lat="44.97268" lon="6.73987">
        <ele>2609.64</ele>
        <time>2024-08-12T14:02:15Z</time>
      </trkpt>
      <trkpt lat="44.97269" lon="6.73986">
        <ele>2609.64</ele>
        <time>2024-08-12T14:02:16Z</time>
      </trkpt>
      <trkpt lat="44.97269" lon="6.73984">
        <ele>2609.64</ele>
        <time>2024-08-12T14:02:17Z</time>
      </trkpt>
      <trkpt lat="44.97268" lon="6.73984">
        <ele>2608.67</ele>
        <time>2024-08-12T14:02:20Z</time>
      </trkpt>
      <trkpt lat="44.97267" lon="6.73984">
        <ele>2608.67</ele>
        <time>2024-08-12T14:02:21Z</time>
      </trkpt>
      <trkpt lat="44.97256" lon="6.73992">
        <ele>2606.27</ele>
        <time>2024-08-12T14:02:29Z</time>
      </trkpt>
      <trkpt lat="44.97256" lon="6.73992">
        <ele>2606.27</ele>
        <time>2024-08-12T14:02:30Z</time>
      </trkpt>
      <trkpt lat="44.97254" lon="6.73991">
        <ele>2605.79</ele>
        <time>2024-08-12T14:02:31Z</time>
      </trkpt>
      <trkpt lat="44.97254" lon="6.7399">
        <ele>2604.35</ele>
        <time>2024-08-12T14:02:34Z</time>
      </trkpt>
      <trkpt lat="44.97252" lon="6.7399">
        <ele>2604.35</ele>
        <time>2024-08-12T14:02:46Z</time>
      </trkpt>
      <trkpt lat="44.9725" lon="6.73989">
        <ele>2603.39</ele>
        <time>2024-08-12T14:02:50Z</time>
      </trkpt>
      <trkpt lat="44.9725" lon="6.73988">
        <ele>2603.39</ele>
        <time>2024-08-12T14:02:51Z</time>
      </trkpt>
      <trkpt lat="44.97251" lon="6.73983">
        <ele>2602.91</ele>
        <time>2024-08-12T14:03:01Z</time>
      </trkpt>
      <trkpt lat="44.97248" lon="6.73981">
        <ele>2600.02</ele>
        <time>2024-08-12T14:03:11Z</time>
      </trkpt>
      <trkpt lat="44.97242" lon="6.73981">
        <ele>2598.1</ele>
        <time>2024-08-12T14:03:26Z</time>
      </trkpt>
      <trkpt lat="44.97242" lon="6.7398">
        <ele>2596.66</ele>
        <time>2024-08-12T14:03:29Z</time>
      </trkpt>
      <trkpt lat="44.97242" lon="6.73973">
        <ele>2594.74</ele>
        <time>2024-08-12T14:03:41Z</time>
      </trkpt>
      <trkpt lat="44.97243" lon="6.73967">
        <ele>2592.33</ele>
        <time>2024-08-12T14:03:55Z</time>
      </trkpt>
      <trkpt lat="44.97237" lon="6.73966">
        <ele>2590.89</ele>
        <time>2024-08-12T14:04:00Z</time>
      </trkpt>
      <trkpt lat="44.97229" lon="6.73968">
        <ele>2587.04</ele>
        <time>2024-08-12T14:04:10Z</time>
      </trkpt>
      <trkpt lat="44.97226" lon="6.73968">
        <ele>2584.64</ele>
        <time>2024-08-12T14:04:23Z</time>
      </trkpt>
      <trkpt lat="44.97221" lon="6.73964">
        <ele>2582.24</ele>
        <time>2024-08-12T14:04:35Z</time>
      </trkpt>
      <trkpt lat="44.97215" lon="6.73964">
        <ele>2579.35</ele>
        <time>2024-08-12T14:04:48Z</time>
      </trkpt>
      <trkpt lat="44.97213" lon="6.73964">
        <ele>2577.91</ele>
        <time>2024-08-12T14:04:59Z</time>
      </trkpt>
      <trkpt lat="44.97213" lon="6.73962">
        <ele>2577.43</ele>
        <time>2024-08-12T14:05:09Z</time>
      </trkpt>
      <trkpt lat="44.97215" lon="6.73961">
        <ele>2575.99</ele>
        <time>2024-08-12T14:05:13Z</time>
      </trkpt>
      <trkpt lat="44.97214" lon="6.73958">
        <ele>2575.51</ele>
        <time>2024-08-12T14:05:20Z</time>
      </trkpt>
      <trkpt lat="44.97208" lon="6.73951">
        <ele>2573.59</ele>
        <time>2024-08-12T14:05:27Z</time>
      </trkpt>
      <trkpt lat="44.97204" lon="6.73947">
        <ele>2570.7</ele>
        <time>2024-08-12T14:05:32Z</time>
      </trkpt>
      <trkpt lat="44.97203" lon="6.73946">
        <ele>2570.22</ele>
        <time>2024-08-12T14:05:34Z</time>
      </trkpt>
      <trkpt lat="44.972" lon="6.73945">
        <ele>2569.26</ele>
        <time>2024-08-12T14:05:37Z</time>
      </trkpt>
      <trkpt lat="44.97197" lon="6.73945">
        <ele>2568.3</ele>
        <time>2024-08-12T14:05:39Z</time>
      </trkpt>
      <trkpt lat="44.97196" lon="6.73944">
        <ele>2567.34</ele>
        <time>2024-08-12T14:05:40Z</time>
      </trkpt>
      <trkpt lat="44.97195" lon="6.73943">
        <ele>2565.9</ele>
        <time>2024-08-12T14:05:41Z</time>
      </trkpt>
      <trkpt lat="44.97196" lon="6.73941">
        <ele>2564.93</ele>
        <time>2024-08-12T14:05:43Z</time>
      </trkpt>
      <trkpt lat="44.97196" lon="6.73939">
        <ele>2564.93</ele>
        <time>2024-08-12T14:05:44Z</time>
      </trkpt>
      <trkpt lat="44.97196" lon="6.73937">
        <ele>2563.97</ele>
        <time>2024-08-12T14:05:45Z</time>
      </trkpt>
      <trkpt lat="44.97197" lon="6.73934">
        <ele>2563.49</ele>
        <time>2024-08-12T14:05:46Z</time>
      </trkpt>
      <trkpt lat="44.97197" lon="6.73932">
        <ele>2563.49</ele>
        <time>2024-08-12T14:05:47Z</time>
      </trkpt>
      <trkpt lat="44.97194" lon="6.73927">
        <ele>2561.57</ele>
        <time>2024-08-12T14:05:56Z</time>
      </trkpt>
      <trkpt lat="44.97194" lon="6.73918">
        <ele>2561.09</ele>
        <time>2024-08-12T14:06:09Z</time>
      </trkpt>
      <trkpt lat="44.97193" lon="6.73919">
        <ele>2561.09</ele>
        <time>2024-08-12T14:06:34Z</time>
      </trkpt>
      <trkpt lat="44.97196" lon="6.73919">
        <ele>2560.61</ele>
        <time>2024-08-12T14:07:14Z</time>
      </trkpt>
      <trkpt lat="44.97195" lon="6.73917">
        <ele>2560.13</ele>
        <time>2024-08-12T14:07:41Z</time>
      </trkpt>
      <trkpt lat="44.97192" lon="6.73915">
        <ele>2560.13</ele>
        <time>2024-08-12T14:08:01Z</time>
      </trkpt>
      <trkpt lat="44.9719" lon="6.73915">
        <ele>2561.09</ele>
        <time>2024-08-12T14:08:20Z</time>
      </trkpt>
      <trkpt lat="44.97191" lon="6.73915">
        <ele>2561.09</ele>
        <time>2024-08-12T14:08:21Z</time>
      </trkpt>
      <trkpt lat="44.97191" lon="6.73915">
        <ele>2559.17</ele>
        <time>2024-08-12T14:08:26Z</time>
      </trkpt>
      <trkpt lat="44.97191" lon="6.73915">
        <ele>2561.09</ele>
        <time>2024-08-12T14:08:30Z</time>
      </trkpt>
      <trkpt lat="44.9719" lon="6.73914">
        <ele>2559.65</ele>
        <time>2024-08-12T14:08:35Z</time>
      </trkpt>
      <trkpt lat="44.9719" lon="6.73913">
        <ele>2560.13</ele>
        <time>2024-08-12T14:08:49Z</time>
      </trkpt>
      <trkpt lat="44.9719" lon="6.73913">
        <ele>2558.69</ele>
        <time>2024-08-12T14:08:52Z</time>
      </trkpt>
      <trkpt lat="44.97191" lon="6.73914">
        <ele>2558.69</ele>
        <time>2024-08-12T14:09:01Z</time>
      </trkpt>
      <trkpt lat="44.9719" lon="6.73915">
        <ele>2558.21</ele>
        <time>2024-08-12T14:09:27Z</time>
      </trkpt>
      <trkpt lat="44.9719" lon="6.73913">
        <ele>2558.21</ele>
        <time>2024-08-12T14:09:40Z</time>
      </trkpt>
      <trkpt lat="44.97189" lon="6.73914">
        <ele>2557.73</ele>
        <time>2024-08-12T14:09:41Z</time>
      </trkpt>
      <trkpt lat="44.97187" lon="6.73915">
        <ele>2557.73</ele>
        <time>2024-08-12T14:09:42Z</time>
      </trkpt>
      <trkpt lat="44.97185" lon="6.73916">
        <ele>2557.24</ele>
        <time>2024-08-12T14:09:43Z</time>
      </trkpt>
      <trkpt lat="44.97182" lon="6.73916">
        <ele>2556.28</ele>
        <time>2024-08-12T14:09:44Z</time>
      </trkpt>
      <trkpt lat="44.97181" lon="6.73916">
        <ele>2555.8</ele>
        <time>2024-08-12T14:09:45Z</time>
      </trkpt>
      <trkpt lat="44.97179" lon="6.73917">
        <ele>2555.32</ele>
        <time>2024-08-12T14:09:46Z</time>
      </trkpt>
      <trkpt lat="44.97176" lon="6.73919">
        <ele>2554.36</ele>
        <time>2024-08-12T14:10:00Z</time>
      </trkpt>
      <trkpt lat="44.97174" lon="6.73916">
        <ele>2552.92</ele>
        <time>2024-08-12T14:10:12Z</time>
      </trkpt>
      <trkpt lat="44.97171" lon="6.73915">
        <ele>2551.96</ele>
        <time>2024-08-12T14:10:26Z</time>
      </trkpt>
      <trkpt lat="44.97168" lon="6.73912">
        <ele>2550.03</ele>
        <time>2024-08-12T14:10:38Z</time>
      </trkpt>
      <trkpt lat="44.97168" lon="6.7391">
        <ele>2548.59</ele>
        <time>2024-08-12T14:10:48Z</time>
      </trkpt>
      <trkpt lat="44.97169" lon="6.73908">
        <ele>2548.59</ele>
        <time>2024-08-12T14:10:52Z</time>
      </trkpt>
      <trkpt lat="44.9717" lon="6.73902">
        <ele>2546.67</ele>
        <time>2024-08-12T14:11:02Z</time>
      </trkpt>
      <trkpt lat="44.97167" lon="6.739">
        <ele>2545.71</ele>
        <time>2024-08-12T14:11:06Z</time>
      </trkpt>
      <trkpt lat="44.97166" lon="6.73898">
        <ele>2545.71</ele>
        <time>2024-08-12T14:11:07Z</time>
      </trkpt>
      <trkpt lat="44.97166" lon="6.73897">
        <ele>2545.71</ele>
        <time>2024-08-12T14:11:08Z</time>
      </trkpt>
      <trkpt lat="44.97163" lon="6.73895">
        <ele>2545.71</ele>
        <time>2024-08-12T14:11:12Z</time>
      </trkpt>
      <trkpt lat="44.97161" lon="6.73895">
        <ele>2545.71</ele>
        <time>2024-08-12T14:11:13Z</time>
      </trkpt>
      <trkpt lat="44.97156" lon="6.73895">
        <ele>2543.79</ele>
        <time>2024-08-12T14:11:25Z</time>
      </trkpt>
      <trkpt lat="44.97155" lon="6.73894">
        <ele>2543.79</ele>
        <time>2024-08-12T14:11:26Z</time>
      </trkpt>
      <trkpt lat="44.97148" lon="6.73892">
        <ele>2542.34</ele>
        <time>2024-08-12T14:11:29Z</time>
      </trkpt>
      <trkpt lat="44.97143" lon="6.73889">
        <ele>2540.9</ele>
        <time>2024-08-12T14:11:39Z</time>
      </trkpt>
      <trkpt lat="44.97144" lon="6.73889">
        <ele>2540.9</ele>
        <time>2024-08-12T14:12:07Z</time>
      </trkpt>
      <trkpt lat="44.97123" lon="6.73885">
        <ele>2538.98</ele>
        <time>2024-08-12T14:12:17Z</time>
      </trkpt>
      <trkpt lat="44.97113" lon="6.73887">
        <ele>2535.13</ele>
        <time>2024-08-12T14:12:20Z</time>
      </trkpt>
      <trkpt lat="44.97109" lon="6.73886">
        <ele>2534.65</ele>
        <time>2024-08-12T14:12:21Z</time>
      </trkpt>
      <trkpt lat="44.97106" lon="6.73885">
        <ele>2533.21</ele>
        <time>2024-08-12T14:12:22Z</time>
      </trkpt>
      <trkpt lat="44.97104" lon="6.73884">
        <ele>2532.73</ele>
        <time>2024-08-12T14:12:23Z</time>
      </trkpt>
      <trkpt lat="44.97102" lon="6.73882">
        <ele>2531.77</ele>
        <time>2024-08-12T14:12:24Z</time>
      </trkpt>
      <trkpt lat="44.97101" lon="6.73879">
        <ele>2531.77</ele>
        <time>2024-08-12T14:12:25Z</time>
      </trkpt>
      <trkpt lat="44.971" lon="6.73876">
        <ele>2530.81</ele>
        <time>2024-08-12T14:12:26Z</time>
      </trkpt>
      <trkpt lat="44.97099" lon="6.73872">
        <ele>2529.85</ele>
        <time>2024-08-12T14:12:27Z</time>
      </trkpt>
      <trkpt lat="44.97098" lon="6.73868">
        <ele>2529.37</ele>
        <time>2024-08-12T14:12:28Z</time>
      </trkpt>
      <trkpt lat="44.97098" lon="6.73864">
        <ele>2527.92</ele>
        <time>2024-08-12T14:12:29Z</time>
      </trkpt>
      <trkpt lat="44.97098" lon="6.73859">
        <ele>2527.44</ele>
        <time>2024-08-12T14:12:30Z</time>
      </trkpt>
      <trkpt lat="44.97095" lon="6.73855">
        <ele>2527.44</ele>
        <time>2024-08-12T14:12:31Z</time>
      </trkpt>
      <trkpt lat="44.97091" lon="6.73852">
        <ele>2526.96</ele>
        <time>2024-08-12T14:12:32Z</time>
      </trkpt>
      <trkpt lat="44.97087" lon="6.73849">
        <ele>2526.48</ele>
        <time>2024-08-12T14:12:33Z</time>
      </trkpt>
      <trkpt lat="44.97084" lon="6.73845">
        <ele>2525.04</ele>
        <time>2024-08-12T14:12:34Z</time>
      </trkpt>
      <trkpt lat="44.97082" lon="6.73842">
        <ele>2523.12</ele>
        <time>2024-08-12T14:12:35Z</time>
      </trkpt>
      <trkpt lat="44.97079" lon="6.73839">
        <ele>2522.16</ele>
        <time>2024-08-12T14:12:36Z</time>
      </trkpt>
      <trkpt lat="44.97077" lon="6.73836">
        <ele>2520.71</ele>
        <time>2024-08-12T14:12:37Z</time>
      </trkpt>
      <trkpt lat="44.97074" lon="6.73832">
        <ele>2520.23</ele>
        <time>2024-08-12T14:12:38Z</time>
      </trkpt>
      <trkpt lat="44.97072" lon="6.73829">
        <ele>2519.27</ele>
        <time>2024-08-12T14:12:39Z</time>
      </trkpt>
      <trkpt lat="44.97066" lon="6.73817">
        <ele>2515.91</ele>
        <time>2024-08-12T14:12:42Z</time>
      </trkpt>
      <trkpt lat="44.97063" lon="6.73814">
        <ele>2514.95</ele>
        <time>2024-08-12T14:12:43Z</time>
      </trkpt>
      <trkpt lat="44.9706" lon="6.7381">
        <ele>2513.98</ele>
        <time>2024-08-12T14:12:44Z</time>
      </trkpt>
      <trkpt lat="44.97058" lon="6.73807">
        <ele>2512.54</ele>
        <time>2024-08-12T14:12:45Z</time>
      </trkpt>
      <trkpt lat="44.97056" lon="6.73804">
        <ele>2511.58</ele>
        <time>2024-08-12T14:12:46Z</time>
      </trkpt>
      <trkpt lat="44.97054" lon="6.73804">
        <ele>2511.58</ele>
        <time>2024-08-12T14:12:47Z</time>
      </trkpt>
      <trkpt lat="44.97052" lon="6.73803">
        <ele>2511.1</ele>
        <time>2024-08-12T14:12:48Z</time>
      </trkpt>
      <trkpt lat="44.97044" lon="6.73796">
        <ele>2508.22</ele>
        <time>2024-08-12T14:12:54Z</time>
      </trkpt>
      <trkpt lat="44.97042" lon="6.73792">
        <ele>2507.26</ele>
        <time>2024-08-12T14:12:56Z</time>
      </trkpt>
      <trkpt lat="44.9704" lon="6.7379">
        <ele>2507.26</ele>
        <time>2024-08-12T14:12:57Z</time>
      </trkpt>
      <trkpt lat="44.97038" lon="6.73788">
        <ele>2506.29</ele>
        <time>2024-08-12T14:12:58Z</time>
      </trkpt>
      <trkpt lat="44.97035" lon="6.73785">
        <ele>2505.33</ele>
        <time>2024-08-12T14:12:59Z</time>
      </trkpt>
      <trkpt lat="44.97033" lon="6.73783">
        <ele>2504.37</ele>
        <time>2024-08-12T14:13:00Z</time>
      </trkpt>
      <trkpt lat="44.9703" lon="6.73782">
        <ele>2503.89</ele>
        <time>2024-08-12T14:13:01Z</time>
      </trkpt>
      <trkpt lat="44.97028" lon="6.7378">
        <ele>2501.97</ele>
        <time>2024-08-12T14:13:02Z</time>
      </trkpt>
      <trkpt lat="44.97026" lon="6.73778">
        <ele>2501.97</ele>
        <time>2024-08-12T14:13:03Z</time>
      </trkpt>
      <trkpt lat="44.97024" lon="6.73776">
        <ele>2501.01</ele>
        <time>2024-08-12T14:13:04Z</time>
      </trkpt>
      <trkpt lat="44.97021" lon="6.73774">
        <ele>2500.05</ele>
        <time>2024-08-12T14:13:05Z</time>
      </trkpt>
      <trkpt lat="44.97017" lon="6.73772">
        <ele>2499.57</ele>
        <time>2024-08-12T14:13:06Z</time>
      </trkpt>
      <trkpt lat="44.97014" lon="6.73771">
        <ele>2498.6</ele>
        <time>2024-08-12T14:13:07Z</time>
      </trkpt>
      <trkpt lat="44.97011" lon="6.73769">
        <ele>2498.12</ele>
        <time>2024-08-12T14:13:08Z</time>
      </trkpt>
      <trkpt lat="44.97007" lon="6.73766">
        <ele>2497.16</ele>
        <time>2024-08-12T14:13:09Z</time>
      </trkpt>
      <trkpt lat="44.96998" lon="6.73762">
        <ele>2493.8</ele>
        <time>2024-08-12T14:13:12Z</time>
      </trkpt>
      <trkpt lat="44.96995" lon="6.7376">
        <ele>2491.87</ele>
        <time>2024-08-12T14:13:13Z</time>
      </trkpt>
      <trkpt lat="44.9699" lon="6.73753">
        <ele>2490.43</ele>
        <time>2024-08-12T14:13:15Z</time>
      </trkpt>
      <trkpt lat="44.96987" lon="6.73752">
        <ele>2489.47</ele>
        <time>2024-08-12T14:13:16Z</time>
      </trkpt>
      <trkpt lat="44.96983" lon="6.73749">
        <ele>2488.51</ele>
        <time>2024-08-12T14:13:17Z</time>
      </trkpt>
      <trkpt lat="44.9698" lon="6.73745">
        <ele>2487.07</ele>
        <time>2024-08-12T14:13:18Z</time>
      </trkpt>
      <trkpt lat="44.96975" lon="6.73741">
        <ele>2485.15</ele>
        <time>2024-08-12T14:13:19Z</time>
      </trkpt>
      <trkpt lat="44.96972" lon="6.73738">
        <ele>2483.7</ele>
        <time>2024-08-12T14:13:20Z</time>
      </trkpt>
      <trkpt lat="44.96968" lon="6.73735">
        <ele>2481.3</ele>
        <time>2024-08-12T14:13:21Z</time>
      </trkpt>
      <trkpt lat="44.96964" lon="6.73732">
        <ele>2480.34</ele>
        <time>2024-08-12T14:13:22Z</time>
      </trkpt>
      <trkpt lat="44.9696" lon="6.7373">
        <ele>2479.38</ele>
        <time>2024-08-12T14:13:23Z</time>
      </trkpt>
      <trkpt lat="44.96957" lon="6.73728">
        <ele>2477.94</ele>
        <time>2024-08-12T14:13:24Z</time>
      </trkpt>
      <trkpt lat="44.96954" lon="6.73726">
        <ele>2476.97</ele>
        <time>2024-08-12T14:13:25Z</time>
      </trkpt>
      <trkpt lat="44.96951" lon="6.73725">
        <ele>2476.49</ele>
        <time>2024-08-12T14:13:26Z</time>
      </trkpt>
      <trkpt lat="44.96949" lon="6.73723">
        <ele>2475.53</ele>
        <time>2024-08-12T14:13:27Z</time>
      </trkpt>
      <trkpt lat="44.96947" lon="6.7372">
        <ele>2474.09</ele>
        <time>2024-08-12T14:13:28Z</time>
      </trkpt>
      <trkpt lat="44.96945" lon="6.73718">
        <ele>2473.61</ele>
        <time>2024-08-12T14:13:29Z</time>
      </trkpt>
      <trkpt lat="44.96943" lon="6.73716">
        <ele>2473.61</ele>
        <time>2024-08-12T14:13:30Z</time>
      </trkpt>
      <trkpt lat="44.9694" lon="6.73716">
        <ele>2472.17</ele>
        <time>2024-08-12T14:13:31Z</time>
      </trkpt>
      <trkpt lat="44.96937" lon="6.73715">
        <ele>2471.21</ele>
        <time>2024-08-12T14:13:32Z</time>
      </trkpt>
      <trkpt lat="44.96933" lon="6.73715">
        <ele>2470.73</ele>
        <time>2024-08-12T14:13:33Z</time>
      </trkpt>
      <trkpt lat="44.9693" lon="6.73714">
        <ele>2468.8</ele>
        <time>2024-08-12T14:13:34Z</time>
      </trkpt>
      <trkpt lat="44.96927" lon="6.73712">
        <ele>2468.8</ele>
        <time>2024-08-12T14:13:35Z</time>
      </trkpt>
      <trkpt lat="44.96923" lon="6.73711">
        <ele>2467.36</ele>
        <time>2024-08-12T14:13:36Z</time>
      </trkpt>
      <trkpt lat="44.96916" lon="6.73709">
        <ele>2464.48</ele>
        <time>2024-08-12T14:13:38Z</time>
      </trkpt>
      <trkpt lat="44.96914" lon="6.7371">
        <ele>2464</ele>
        <time>2024-08-12T14:13:39Z</time>
      </trkpt>
      <trkpt lat="44.96911" lon="6.73709">
        <ele>2463.04</ele>
        <time>2024-08-12T14:13:40Z</time>
      </trkpt>
      <trkpt lat="44.96909" lon="6.73708">
        <ele>2461.59</ele>
        <time>2024-08-12T14:13:41Z</time>
      </trkpt>
      <trkpt lat="44.96906" lon="6.73708">
        <ele>2461.11</ele>
        <time>2024-08-12T14:13:42Z</time>
      </trkpt>
      <trkpt lat="44.96904" lon="6.73709">
        <ele>2460.15</ele>
        <time>2024-08-12T14:13:43Z</time>
      </trkpt>
      <trkpt lat="44.96902" lon="6.73708">
        <ele>2459.19</ele>
        <time>2024-08-12T14:13:44Z</time>
      </trkpt>
      <trkpt lat="44.969" lon="6.73707">
        <ele>2459.19</ele>
        <time>2024-08-12T14:13:45Z</time>
      </trkpt>
      <trkpt lat="44.96897" lon="6.73706">
        <ele>2458.23</ele>
        <time>2024-08-12T14:13:46Z</time>
      </trkpt>
      <trkpt lat="44.96892" lon="6.73698">
        <ele>2455.82</ele>
        <time>2024-08-12T14:13:50Z</time>
      </trkpt>
      <trkpt lat="44.9689" lon="6.73696">
        <ele>2454.38</ele>
        <time>2024-08-12T14:13:53Z</time>
      </trkpt>
      <trkpt lat="44.96888" lon="6.73692">
        <ele>2452.46</ele>
        <time>2024-08-12T14:14:04Z</time>
      </trkpt>
      <trkpt lat="44.96884" lon="6.73691">
        <ele>2451.5</ele>
        <time>2024-08-12T14:14:12Z</time>
      </trkpt>
      <trkpt lat="44.96879" lon="6.73689">
        <ele>2450.06</ele>
        <time>2024-08-12T14:14:16Z</time>
      </trkpt>
      <trkpt lat="44.96871" lon="6.73681">
        <ele>2446.69</ele>
        <time>2024-08-12T14:14:21Z</time>
      </trkpt>
      <trkpt lat="44.96864" lon="6.73679">
        <ele>2443.33</ele>
        <time>2024-08-12T14:14:24Z</time>
      </trkpt>
      <trkpt lat="44.96861" lon="6.73684">
        <ele>2442.37</ele>
        <time>2024-08-12T14:14:26Z</time>
      </trkpt>
      <trkpt lat="44.96859" lon="6.73686">
        <ele>2441.41</ele>
        <time>2024-08-12T14:14:27Z</time>
      </trkpt>
      <trkpt lat="44.96847" lon="6.73681">
        <ele>2436.12</ele>
        <time>2024-08-12T14:14:35Z</time>
      </trkpt>
      <trkpt lat="44.96835" lon="6.73673">
        <ele>2432.27</ele>
        <time>2024-08-12T14:14:41Z</time>
      </trkpt>
      <trkpt lat="44.96833" lon="6.7367">
        <ele>2432.27</ele>
        <time>2024-08-12T14:14:42Z</time>
      </trkpt>
      <trkpt lat="44.9683" lon="6.73668">
        <ele>2431.31</ele>
        <time>2024-08-12T14:14:43Z</time>
      </trkpt>
      <trkpt lat="44.9682" lon="6.73659">
        <ele>2428.43</ele>
        <time>2024-08-12T14:14:47Z</time>
      </trkpt>
      <trkpt lat="44.9681" lon="6.73651">
        <ele>2424.58</ele>
        <time>2024-08-12T14:14:51Z</time>
      </trkpt>
      <trkpt lat="44.96808" lon="6.73648">
        <ele>2424.58</ele>
        <time>2024-08-12T14:14:52Z</time>
      </trkpt>
      <trkpt lat="44.96801" lon="6.73642">
        <ele>2422.66</ele>
        <time>2024-08-12T14:14:55Z</time>
      </trkpt>
      <trkpt lat="44.96791" lon="6.73629">
        <ele>2419.3</ele>
        <time>2024-08-12T14:15:00Z</time>
      </trkpt>
      <trkpt lat="44.96779" lon="6.73612">
        <ele>2415.45</ele>
        <time>2024-08-12T14:15:06Z</time>
      </trkpt>
      <trkpt lat="44.96777" lon="6.73606">
        <ele>2414.01</ele>
        <time>2024-08-12T14:15:08Z</time>
      </trkpt>
      <trkpt lat="44.96766" lon="6.73595">
        <ele>2410.64</ele>
        <time>2024-08-12T14:15:13Z</time>
      </trkpt>
      <trkpt lat="44.96761" lon="6.7359">
        <ele>2409.68</ele>
        <time>2024-08-12T14:15:15Z</time>
      </trkpt>
      <trkpt lat="44.96747" lon="6.73583">
        <ele>2405.36</ele>
        <time>2024-08-12T14:15:21Z</time>
      </trkpt>
      <trkpt lat="44.96739" lon="6.73593">
        <ele>2402.47</ele>
        <time>2024-08-12T14:15:25Z</time>
      </trkpt>
      <trkpt lat="44.96733" lon="6.73613">
        <ele>2398.63</ele>
        <time>2024-08-12T14:15:33Z</time>
      </trkpt>
      <trkpt lat="44.96726" lon="6.73611">
        <ele>2396.7</ele>
        <time>2024-08-12T14:15:36Z</time>
      </trkpt>
      <trkpt lat="44.96718" lon="6.73602">
        <ele>2393.34</ele>
        <time>2024-08-12T14:15:40Z</time>
      </trkpt>
      <trkpt lat="44.96717" lon="6.73603">
        <ele>2393.34</ele>
        <time>2024-08-12T14:15:41Z</time>
      </trkpt>
      <trkpt lat="44.96717" lon="6.73608">
        <ele>2391.9</ele>
        <time>2024-08-12T14:15:51Z</time>
      </trkpt>
      <trkpt lat="44.96718" lon="6.73617">
        <ele>2389.49</ele>
        <time>2024-08-12T14:16:08Z</time>
      </trkpt>
      <trkpt lat="44.96711" lon="6.73623">
        <ele>2389.01</ele>
        <time>2024-08-12T14:16:21Z</time>
      </trkpt>
      <trkpt lat="44.96711" lon="6.73625">
        <ele>2386.61</ele>
        <time>2024-08-12T14:16:24Z</time>
      </trkpt>
      <trkpt lat="44.96713" lon="6.73626">
        <ele>2386.61</ele>
        <time>2024-08-12T14:16:35Z</time>
      </trkpt>
      <trkpt lat="44.96714" lon="6.73627">
        <ele>2386.13</ele>
        <time>2024-08-12T14:16:39Z</time>
      </trkpt>
      <trkpt lat="44.96713" lon="6.73629">
        <ele>2386.13</ele>
        <time>2024-08-12T14:16:41Z</time>
      </trkpt>
      <trkpt lat="44.96716" lon="6.73629">
        <ele>2385.17</ele>
        <time>2024-08-12T14:16:48Z</time>
      </trkpt>
      <trkpt lat="44.96714" lon="6.7364">
        <ele>2384.69</ele>
        <time>2024-08-12T14:17:00Z</time>
      </trkpt>
      <trkpt lat="44.96713" lon="6.73641">
        <ele>2386.13</ele>
        <time>2024-08-12T14:17:02Z</time>
      </trkpt>
      <trkpt lat="44.96709" lon="6.73643">
        <ele>2385.65</ele>
        <time>2024-08-12T14:17:16Z</time>
      </trkpt>
      <trkpt lat="44.96705" lon="6.73642">
        <ele>2384.69</ele>
        <time>2024-08-12T14:17:25Z</time>
      </trkpt>
      <trkpt lat="44.967" lon="6.7364">
        <ele>2384.21</ele>
        <time>2024-08-12T14:17:40Z</time>
      </trkpt>
      <trkpt lat="44.96699" lon="6.7364">
        <ele>2384.21</ele>
        <time>2024-08-12T14:17:41Z</time>
      </trkpt>
      <trkpt lat="44.96694" lon="6.73641">
        <ele>2382.28</ele>
        <time>2024-08-12T14:17:49Z</time>
      </trkpt>
      <trkpt lat="44.96689" lon="6.73642">
        <ele>2382.28</ele>
        <time>2024-08-12T14:17:54Z</time>
      </trkpt>
      <trkpt lat="44.96672" lon="6.73647">
        <ele>2382.28</ele>
        <time>2024-08-12T14:18:02Z</time>
      </trkpt>
      <trkpt lat="44.96669" lon="6.73645">
        <ele>2382.28</ele>
        <time>2024-08-12T14:18:03Z</time>
      </trkpt>
      <trkpt lat="44.96667" lon="6.73643">
        <ele>2382.28</ele>
        <time>2024-08-12T14:18:04Z</time>
      </trkpt>
      <trkpt lat="44.96665" lon="6.73641">
        <ele>2381.32</ele>
        <time>2024-08-12T14:18:05Z</time>
      </trkpt>
      <trkpt lat="44.96663" lon="6.73639">
        <ele>2380.36</ele>
        <time>2024-08-12T14:18:06Z</time>
      </trkpt>
      <trkpt lat="44.96661" lon="6.73638">
        <ele>2379.88</ele>
        <time>2024-08-12T14:18:07Z</time>
      </trkpt>
      <trkpt lat="44.96658" lon="6.73638">
        <ele>2379.88</ele>
        <time>2024-08-12T14:18:08Z</time>
      </trkpt>
      <trkpt lat="44.96656" lon="6.73638">
        <ele>2378.92</ele>
        <time>2024-08-12T14:18:09Z</time>
      </trkpt>
      <trkpt lat="44.96653" lon="6.73638">
        <ele>2378.44</ele>
        <time>2024-08-12T14:18:10Z</time>
      </trkpt>
      <trkpt lat="44.96645" lon="6.73638">
        <ele>2375.07</ele>
        <time>2024-08-12T14:18:13Z</time>
      </trkpt>
      <trkpt lat="44.96632" lon="6.73633">
        <ele>2371.71</ele>
        <time>2024-08-12T14:18:17Z</time>
      </trkpt>
      <trkpt lat="44.96623" lon="6.73627">
        <ele>2367.86</ele>
        <time>2024-08-12T14:18:20Z</time>
      </trkpt>
      <trkpt lat="44.9662" lon="6.73623">
        <ele>2366.9</ele>
        <time>2024-08-12T14:18:21Z</time>
      </trkpt>
      <trkpt lat="44.96617" lon="6.7362">
        <ele>2366.9</ele>
        <time>2024-08-12T14:18:22Z</time>
      </trkpt>
      <trkpt lat="44.96609" lon="6.73609">
        <ele>2363.54</ele>
        <time>2024-08-12T14:18:25Z</time>
      </trkpt>
      <trkpt lat="44.96606" lon="6.73608">
        <ele>2363.06</ele>
        <time>2024-08-12T14:18:26Z</time>
      </trkpt>
      <trkpt lat="44.96608" lon="6.73603">
        <ele>2360.17</ele>
        <time>2024-08-12T14:18:29Z</time>
      </trkpt>
      <trkpt lat="44.96612" lon="6.736">
        <ele>2359.21</ele>
        <time>2024-08-12T14:18:31Z</time>
      </trkpt>
      <trkpt lat="44.96609" lon="6.73597">
        <ele>2358.73</ele>
        <time>2024-08-12T14:18:33Z</time>
      </trkpt>
      <trkpt lat="44.96597" lon="6.73584">
        <ele>2354.89</ele>
        <time>2024-08-12T14:18:38Z</time>
      </trkpt>
      <trkpt lat="44.96589" lon="6.73576">
        <ele>2351.04</ele>
        <time>2024-08-12T14:18:42Z</time>
      </trkpt>
      <trkpt lat="44.96594" lon="6.73565">
        <ele>2349.12</ele>
        <time>2024-08-12T14:18:46Z</time>
      </trkpt>
      <trkpt lat="44.96582" lon="6.73562">
        <ele>2345.75</ele>
        <time>2024-08-12T14:18:52Z</time>
      </trkpt>
      <trkpt lat="44.96581" lon="6.7356">
        <ele>2345.75</ele>
        <time>2024-08-12T14:18:53Z</time>
      </trkpt>
      <trkpt lat="44.96583" lon="6.73551">
        <ele>2342.87</ele>
        <time>2024-08-12T14:18:59Z</time>
      </trkpt>
      <trkpt lat="44.96581" lon="6.7355">
        <ele>2341.91</ele>
        <time>2024-08-12T14:19:00Z</time>
      </trkpt>
      <trkpt lat="44.96565" lon="6.73545">
        <ele>2337.58</ele>
        <time>2024-08-12T14:19:06Z</time>
      </trkpt>
      <trkpt lat="44.96563" lon="6.73545">
        <ele>2336.14</ele>
        <time>2024-08-12T14:19:09Z</time>
      </trkpt>
      <trkpt lat="44.96564" lon="6.73544">
        <ele>2336.14</ele>
        <time>2024-08-12T14:19:15Z</time>
      </trkpt>
      <trkpt lat="44.96563" lon="6.73542">
        <ele>2336.14</ele>
        <time>2024-08-12T14:19:17Z</time>
      </trkpt>
      <trkpt lat="44.96565" lon="6.7353">
        <ele>2332.3</ele>
        <time>2024-08-12T14:19:25Z</time>
      </trkpt>
      <trkpt lat="44.96563" lon="6.73529">
        <ele>2331.81</ele>
        <time>2024-08-12T14:19:26Z</time>
      </trkpt>
      <trkpt lat="44.9655" lon="6.73526">
        <ele>2327.97</ele>
        <time>2024-08-12T14:19:32Z</time>
      </trkpt>
      <trkpt lat="44.96543" lon="6.73525">
        <ele>2325.57</ele>
        <time>2024-08-12T14:19:35Z</time>
      </trkpt>
      <trkpt lat="44.96531" lon="6.73531">
        <ele>2322.2</ele>
        <time>2024-08-12T14:19:39Z</time>
      </trkpt>
      <trkpt lat="44.9653" lon="6.73521">
        <ele>2319.32</ele>
        <time>2024-08-12T14:19:44Z</time>
      </trkpt>
      <trkpt lat="44.9653" lon="6.73519">
        <ele>2319.32</ele>
        <time>2024-08-12T14:19:45Z</time>
      </trkpt>
      <trkpt lat="44.96532" lon="6.73513">
        <ele>2317.88</ele>
        <time>2024-08-12T14:19:47Z</time>
      </trkpt>
      <trkpt lat="44.96534" lon="6.73507">
        <ele>2316.43</ele>
        <time>2024-08-12T14:19:49Z</time>
      </trkpt>
      <trkpt lat="44.96534" lon="6.73499">
        <ele>2314.99</ele>
        <time>2024-08-12T14:19:51Z</time>
      </trkpt>
      <trkpt lat="44.96534" lon="6.73486">
        <ele>2311.63</ele>
        <time>2024-08-12T14:19:56Z</time>
      </trkpt>
      <trkpt lat="44.96531" lon="6.73487">
        <ele>2311.63</ele>
        <time>2024-08-12T14:19:57Z</time>
      </trkpt>
      <trkpt lat="44.96523" lon="6.73493">
        <ele>2308.26</ele>
        <time>2024-08-12T14:20:01Z</time>
      </trkpt>
      <trkpt lat="44.9652" lon="6.73487">
        <ele>2306.34</ele>
        <time>2024-08-12T14:20:04Z</time>
      </trkpt>
      <trkpt lat="44.96512" lon="6.73478">
        <ele>2302.01</ele>
        <time>2024-08-12T14:20:11Z</time>
      </trkpt>
      <trkpt lat="44.96508" lon="6.73478">
        <ele>2301.05</ele>
        <time>2024-08-12T14:20:13Z</time>
      </trkpt>
      <trkpt lat="44.96503" lon="6.73477">
        <ele>2299.61</ele>
        <time>2024-08-12T14:20:16Z</time>
      </trkpt>
      <trkpt lat="44.96499" lon="6.73471">
        <ele>2297.69</ele>
        <time>2024-08-12T14:20:20Z</time>
      </trkpt>
      <trkpt lat="44.96495" lon="6.73474">
        <ele>2295.77</ele>
        <time>2024-08-12T14:20:29Z</time>
      </trkpt>
      <trkpt lat="44.96493" lon="6.73477">
        <ele>2294.8</ele>
        <time>2024-08-12T14:20:40Z</time>
      </trkpt>
      <trkpt lat="44.96491" lon="6.73475">
        <ele>2292.88</ele>
        <time>2024-08-12T14:20:53Z</time>
      </trkpt>
      <trkpt lat="44.96489" lon="6.73474">
        <ele>2294.32</ele>
        <time>2024-08-12T14:21:05Z</time>
      </trkpt>
      <trkpt lat="44.96486" lon="6.73474">
        <ele>2292.88</ele>
        <time>2024-08-12T14:21:18Z</time>
      </trkpt>
      <trkpt lat="44.96482" lon="6.73471">
        <ele>2291.44</ele>
        <time>2024-08-12T14:21:29Z</time>
      </trkpt>
      <trkpt lat="44.96482" lon="6.73472">
        <ele>2290.96</ele>
        <time>2024-08-12T14:22:11Z</time>
      </trkpt>
      <trkpt lat="44.96481" lon="6.73473">
        <ele>2290.48</ele>
        <time>2024-08-12T14:22:44Z</time>
      </trkpt>
      <trkpt lat="44.9648" lon="6.73472">
        <ele>2290.48</ele>
        <time>2024-08-12T14:23:06Z</time>
      </trkpt>
      <trkpt lat="44.96462" lon="6.73457">
        <ele>2288.08</ele>
        <time>2024-08-12T14:23:14Z</time>
      </trkpt>
      <trkpt lat="44.96454" lon="6.73439">
        <ele>2285.67</ele>
        <time>2024-08-12T14:23:19Z</time>
      </trkpt>
      <trkpt lat="44.96454" lon="6.73418">
        <ele>2282.31</ele>
        <time>2024-08-12T14:23:25Z</time>
      </trkpt>
      <trkpt lat="44.96446" lon="6.73419">
        <ele>2280.38</ele>
        <time>2024-08-12T14:23:28Z</time>
      </trkpt>
      <trkpt lat="44.96435" lon="6.73426">
        <ele>2277.5</ele>
        <time>2024-08-12T14:23:31Z</time>
      </trkpt>
      <trkpt lat="44.9643" lon="6.73434">
        <ele>2276.06</ele>
        <time>2024-08-12T14:23:33Z</time>
      </trkpt>
      <trkpt lat="44.9641" lon="6.73449">
        <ele>2272.21</ele>
        <time>2024-08-12T14:23:38Z</time>
      </trkpt>
      <trkpt lat="44.96408" lon="6.73451">
        <ele>2272.21</ele>
        <time>2024-08-12T14:23:39Z</time>
      </trkpt>
      <trkpt lat="44.964" lon="6.73456">
        <ele>2271.25</ele>
        <time>2024-08-12T14:23:42Z</time>
      </trkpt>
      <trkpt lat="44.96385" lon="6.73465">
        <ele>2267.41</ele>
        <time>2024-08-12T14:23:46Z</time>
      </trkpt>
      <trkpt lat="44.96381" lon="6.73465">
        <ele>2266.45</ele>
        <time>2024-08-12T14:23:47Z</time>
      </trkpt>
      <trkpt lat="44.96367" lon="6.73466">
        <ele>2262.12</ele>
        <time>2024-08-12T14:23:53Z</time>
      </trkpt>
      <trkpt lat="44.96372" lon="6.73457">
        <ele>2259.24</ele>
        <time>2024-08-12T14:24:00Z</time>
      </trkpt>
      <trkpt lat="44.96379" lon="6.73449">
        <ele>2256.83</ele>
        <time>2024-08-12T14:24:15Z</time>
      </trkpt>
      <trkpt lat="44.9638" lon="6.73448">
        <ele>2256.83</ele>
        <time>2024-08-12T14:24:16Z</time>
      </trkpt>
      <trkpt lat="44.96381" lon="6.73447">
        <ele>2255.87</ele>
        <time>2024-08-12T14:24:17Z</time>
      </trkpt>
      <trkpt lat="44.96382" lon="6.73443">
        <ele>2255.39</ele>
        <time>2024-08-12T14:24:19Z</time>
      </trkpt>
      <trkpt lat="44.96378" lon="6.73439">
        <ele>2252.99</ele>
        <time>2024-08-12T14:24:29Z</time>
      </trkpt>
      <trkpt lat="44.96378" lon="6.73439">
        <ele>2252.99</ele>
        <time>2024-08-12T14:24:30Z</time>
      </trkpt>
      <trkpt lat="44.96372" lon="6.73438">
        <ele>2250.58</ele>
        <time>2024-08-12T14:24:40Z</time>
      </trkpt>
      <trkpt lat="44.96369" lon="6.73434">
        <ele>2248.66</ele>
        <time>2024-08-12T14:24:46Z</time>
      </trkpt>
      <trkpt lat="44.96358" lon="6.73434">
        <ele>2245.3</ele>
        <time>2024-08-12T14:24:53Z</time>
      </trkpt>
      <trkpt lat="44.96349" lon="6.73433">
        <ele>2242.41</ele>
        <time>2024-08-12T14:24:57Z</time>
      </trkpt>
      <trkpt lat="44.96345" lon="6.73429">
        <ele>2240.49</ele>
        <time>2024-08-12T14:24:59Z</time>
      </trkpt>
      <trkpt lat="44.96337" lon="6.73426">
        <ele>2238.09</ele>
        <time>2024-08-12T14:25:02Z</time>
      </trkpt>
      <trkpt lat="44.96329" lon="6.73424">
        <ele>2236.16</ele>
        <time>2024-08-12T14:25:04Z</time>
      </trkpt>
      <trkpt lat="44.96314" lon="6.73423">
        <ele>2233.28</ele>
        <time>2024-08-12T14:25:08Z</time>
      </trkpt>
      <trkpt lat="44.96301" lon="6.73417">
        <ele>2228.95</ele>
        <time>2024-08-12T14:25:15Z</time>
      </trkpt>
      <trkpt lat="44.96298" lon="6.73417">
        <ele>2228.95</ele>
        <time>2024-08-12T14:25:21Z</time>
      </trkpt>
      <trkpt lat="44.96293" lon="6.73413">
        <ele>2228.47</ele>
        <time>2024-08-12T14:25:30Z</time>
      </trkpt>
      <trkpt lat="44.9629" lon="6.73411">
        <ele>2228.47</ele>
        <time>2024-08-12T14:25:44Z</time>
      </trkpt>
      <trkpt lat="44.96288" lon="6.73411">
        <ele>2227.51</ele>
        <time>2024-08-12T14:25:58Z</time>
      </trkpt>
      <trkpt lat="44.96287" lon="6.73411">
        <ele>2227.03</ele>
        <time>2024-08-12T14:26:30Z</time>
      </trkpt>
      <trkpt lat="44.96286" lon="6.73411">
        <ele>2226.55</ele>
        <time>2024-08-12T14:26:56Z</time>
      </trkpt>
      <trkpt lat="44.96288" lon="6.73409">
        <ele>2226.55</ele>
        <time>2024-08-12T14:27:01Z</time>
      </trkpt>
      <trkpt lat="44.96279" lon="6.73393">
        <ele>2224.15</ele>
        <time>2024-08-12T14:27:07Z</time>
      </trkpt>
      <trkpt lat="44.96264" lon="6.73374">
        <ele>2219.82</ele>
        <time>2024-08-12T14:27:12Z</time>
      </trkpt>
      <trkpt lat="44.96258" lon="6.7337">
        <ele>2217.9</ele>
        <time>2024-08-12T14:27:15Z</time>
      </trkpt>
      <trkpt lat="44.96241" lon="6.73356">
        <ele>2215.01</ele>
        <time>2024-08-12T14:27:22Z</time>
      </trkpt>
      <trkpt lat="44.96229" lon="6.7334">
        <ele>2210.69</ele>
        <time>2024-08-12T14:27:26Z</time>
      </trkpt>
      <trkpt lat="44.96206" lon="6.73323">
        <ele>2206.84</ele>
        <time>2024-08-12T14:27:32Z</time>
      </trkpt>
      <trkpt lat="44.962" lon="6.73322">
        <ele>2206.84</ele>
        <time>2024-08-12T14:27:33Z</time>
      </trkpt>
      <trkpt lat="44.96187" lon="6.73321">
        <ele>2204.92</ele>
        <time>2024-08-12T14:27:35Z</time>
      </trkpt>
      <trkpt lat="44.96155" lon="6.73321">
        <ele>2199.63</ele>
        <time>2024-08-12T14:27:41Z</time>
      </trkpt>
      <trkpt lat="44.9615" lon="6.73323">
        <ele>2198.67</ele>
        <time>2024-08-12T14:27:42Z</time>
      </trkpt>
      <trkpt lat="44.96139" lon="6.73326">
        <ele>2198.19</ele>
        <time>2024-08-12T14:27:44Z</time>
      </trkpt>
      <trkpt lat="44.96127" lon="6.73325">
        <ele>2196.75</ele>
        <time>2024-08-12T14:27:46Z</time>
      </trkpt>
      <trkpt lat="44.96103" lon="6.73315">
        <ele>2193.39</ele>
        <time>2024-08-12T14:27:50Z</time>
      </trkpt>
      <trkpt lat="44.96064" lon="6.73308">
        <ele>2189.06</ele>
        <time>2024-08-12T14:27:55Z</time>
      </trkpt>
      <trkpt lat="44.96041" lon="6.7331">
        <ele>2185.69</ele>
        <time>2024-08-12T14:27:58Z</time>
      </trkpt>
      <trkpt lat="44.96033" lon="6.73311">
        <ele>2185.21</ele>
        <time>2024-08-12T14:27:59Z</time>
      </trkpt>
      <trkpt lat="44.96007" lon="6.73304">
        <ele>2183.77</ele>
        <time>2024-08-12T14:28:02Z</time>
      </trkpt>
      <trkpt lat="44.95999" lon="6.73301">
        <ele>2183.29</ele>
        <time>2024-08-12T14:28:03Z</time>
      </trkpt>
      <trkpt lat="44.9597" lon="6.73288">
        <ele>2178.97</ele>
        <time>2024-08-12T14:28:07Z</time>
      </trkpt>
      <trkpt lat="44.95963" lon="6.73289">
        <ele>2178.48</ele>
        <time>2024-08-12T14:28:08Z</time>
      </trkpt>
      <trkpt lat="44.9595" lon="6.7329">
        <ele>2178</ele>
        <time>2024-08-12T14:28:10Z</time>
      </trkpt>
      <trkpt lat="44.95928" lon="6.73288">
        <ele>2174.64</ele>
        <time>2024-08-12T14:28:13Z</time>
      </trkpt>
      <trkpt lat="44.95922" lon="6.73288">
        <ele>2173.2</ele>
        <time>2024-08-12T14:28:14Z</time>
      </trkpt>
      <trkpt lat="44.95901" lon="6.73286">
        <ele>2169.83</ele>
        <time>2024-08-12T14:28:18Z</time>
      </trkpt>
      <trkpt lat="44.95897" lon="6.73282">
        <ele>2169.83</ele>
        <time>2024-08-12T14:28:19Z</time>
      </trkpt>
      <trkpt lat="44.9589" lon="6.73278">
        <ele>2168.87</ele>
        <time>2024-08-12T14:28:21Z</time>
      </trkpt>
      <trkpt lat="44.95867" lon="6.7328">
        <ele>2166.95</ele>
        <time>2024-08-12T14:28:30Z</time>
      </trkpt>
      <trkpt lat="44.95854" lon="6.73285">
        <ele>2169.83</ele>
        <time>2024-08-12T14:28:39Z</time>
      </trkpt>
      <trkpt lat="44.95848" lon="6.73289">
        <ele>2170.31</ele>
        <time>2024-08-12T14:28:44Z</time>
      </trkpt>
      <trkpt lat="44.95845" lon="6.73293">
        <ele>2170.79</ele>
        <time>2024-08-12T14:28:47Z</time>
      </trkpt>
      <trkpt lat="44.95837" lon="6.73299">
        <ele>2171.27</ele>
        <time>2024-08-12T14:28:54Z</time>
      </trkpt>
      <trkpt lat="44.95807" lon="6.73315">
        <ele>2170.79</ele>
        <time>2024-08-12T14:29:06Z</time>
      </trkpt>
      <trkpt lat="44.95779" lon="6.73341">
        <ele>2170.79</ele>
        <time>2024-08-12T14:29:18Z</time>
      </trkpt>
      <trkpt lat="44.95745" lon="6.73352">
        <ele>2167.43</ele>
        <time>2024-08-12T14:29:24Z</time>
      </trkpt>
      <trkpt lat="44.95704" lon="6.73382">
        <ele>2162.14</ele>
        <time>2024-08-12T14:29:33Z</time>
      </trkpt>
      <trkpt lat="44.95696" lon="6.73401">
        <ele>2162.14</ele>
        <time>2024-08-12T14:29:37Z</time>
      </trkpt>
      <trkpt lat="44.95685" lon="6.73414">
        <ele>2163.58</ele>
        <time>2024-08-12T14:29:42Z</time>
      </trkpt>
      <trkpt lat="44.95675" lon="6.73428">
        <ele>2164.55</ele>
        <time>2024-08-12T14:29:46Z</time>
      </trkpt>
      <trkpt lat="44.9566" lon="6.73451">
        <ele>2165.51</ele>
        <time>2024-08-12T14:29:54Z</time>
      </trkpt>
      <trkpt lat="44.9565" lon="6.73462">
        <ele>2163.58</ele>
        <time>2024-08-12T14:29:57Z</time>
      </trkpt>
      <trkpt lat="44.95646" lon="6.73466">
        <ele>2163.1</ele>
        <time>2024-08-12T14:29:58Z</time>
      </trkpt>
      <trkpt lat="44.95626" lon="6.7349">
        <ele>2160.22</ele>
        <time>2024-08-12T14:30:03Z</time>
      </trkpt>
      <trkpt lat="44.95614" lon="6.73502">
        <ele>2158.78</ele>
        <time>2024-08-12T14:30:06Z</time>
      </trkpt>
      <trkpt lat="44.95607" lon="6.73504">
        <ele>2157.34</ele>
        <time>2024-08-12T14:30:08Z</time>
      </trkpt>
      <trkpt lat="44.95604" lon="6.73504">
        <ele>2155.41</ele>
        <time>2024-08-12T14:30:09Z</time>
      </trkpt>
      <trkpt lat="44.95598" lon="6.73505">
        <ele>2153.49</ele>
        <time>2024-08-12T14:30:11Z</time>
      </trkpt>
      <trkpt lat="44.9559" lon="6.73503">
        <ele>2150.61</ele>
        <time>2024-08-12T14:30:21Z</time>
      </trkpt>
      <trkpt lat="44.95589" lon="6.73503">
        <ele>2150.61</ele>
        <time>2024-08-12T14:30:22Z</time>
      </trkpt>
      <trkpt lat="44.95581" lon="6.73502">
        <ele>2149.16</ele>
        <time>2024-08-12T14:30:26Z</time>
      </trkpt>
      <trkpt lat="44.95566" lon="6.73503">
        <ele>2144.36</ele>
        <time>2024-08-12T14:30:31Z</time>
      </trkpt>
      <trkpt lat="44.95558" lon="6.73506">
        <ele>2141.95</ele>
        <time>2024-08-12T14:30:33Z</time>
      </trkpt>
      <trkpt lat="44.95539" lon="6.73504">
        <ele>2137.63</ele>
        <time>2024-08-12T14:30:37Z</time>
      </trkpt>
      <trkpt lat="44.95526" lon="6.73507">
        <ele>2133.78</ele>
        <time>2024-08-12T14:30:41Z</time>
      </trkpt>
      <trkpt lat="44.95514" lon="6.73514">
        <ele>2129.46</ele>
        <time>2024-08-12T14:30:45Z</time>
      </trkpt>
      <trkpt lat="44.95504" lon="6.73519">
        <ele>2125.61</ele>
        <time>2024-08-12T14:30:48Z</time>
      </trkpt>
      <trkpt lat="44.95488" lon="6.73526">
        <ele>2120.81</ele>
        <time>2024-08-12T14:30:53Z</time>
      </trkpt>
      <trkpt lat="44.95482" lon="6.73526">
        <ele>2118.4</ele>
        <time>2024-08-12T14:30:55Z</time>
      </trkpt>
      <trkpt lat="44.95469" lon="6.73522">
        <ele>2115.52</ele>
        <time>2024-08-12T14:31:00Z</time>
      </trkpt>
      <trkpt lat="44.95466" lon="6.73518">
        <ele>2114.08</ele>
        <time>2024-08-12T14:31:02Z</time>
      </trkpt>
      <trkpt lat="44.95455" lon="6.73519">
        <ele>2110.23</ele>
        <time>2024-08-12T14:31:12Z</time>
      </trkpt>
      <trkpt lat="44.95447" lon="6.73514">
        <ele>2108.31</ele>
        <time>2024-08-12T14:31:24Z</time>
      </trkpt>
      <trkpt lat="44.95428" lon="6.7351">
        <ele>2103.98</ele>
        <time>2024-08-12T14:31:31Z</time>
      </trkpt>
      <trkpt lat="44.9542" lon="6.73498">
        <ele>2100.14</ele>
        <time>2024-08-12T14:31:34Z</time>
      </trkpt>
      <trkpt lat="44.95402" lon="6.73502">
        <ele>2099.66</ele>
        <time>2024-08-12T14:31:40Z</time>
      </trkpt>
      <trkpt lat="44.95377" lon="6.73516">
        <ele>2098.7</ele>
        <time>2024-08-12T14:31:52Z</time>
      </trkpt>
      <trkpt lat="44.95377" lon="6.73515">
        <ele>2099.66</ele>
        <time>2024-08-12T14:32:09Z</time>
      </trkpt>
      <trkpt lat="44.95377" lon="6.73516">
        <ele>2099.66</ele>
        <time>2024-08-12T14:32:22Z</time>
      </trkpt>
      <trkpt lat="44.95369" lon="6.7352">
        <ele>2099.66</ele>
        <time>2024-08-12T14:32:35Z</time>
      </trkpt>
      <trkpt lat="44.95368" lon="6.73521">
        <ele>2099.66</ele>
        <time>2024-08-12T14:32:37Z</time>
      </trkpt>
      <trkpt lat="44.95365" lon="6.73524">
        <ele>2098.7</ele>
        <time>2024-08-12T14:32:40Z</time>
      </trkpt>
      <trkpt lat="44.95359" lon="6.73527">
        <ele>2098.21</ele>
        <time>2024-08-12T14:32:45Z</time>
      </trkpt>
      <trkpt lat="44.95357" lon="6.73528">
        <ele>2097.73</ele>
        <time>2024-08-12T14:32:46Z</time>
      </trkpt>
      <trkpt lat="44.95356" lon="6.73529">
        <ele>2097.73</ele>
        <time>2024-08-12T14:32:47Z</time>
      </trkpt>
      <trkpt lat="44.95354" lon="6.7353">
        <ele>2096.77</ele>
        <time>2024-08-12T14:32:48Z</time>
      </trkpt>
      <trkpt lat="44.95353" lon="6.73531">
        <ele>2096.77</ele>
        <time>2024-08-12T14:32:49Z</time>
      </trkpt>
      <trkpt lat="44.95351" lon="6.73532">
        <ele>2096.77</ele>
        <time>2024-08-12T14:32:50Z</time>
      </trkpt>
      <trkpt lat="44.9535" lon="6.73534">
        <ele>2096.77</ele>
        <time>2024-08-12T14:32:51Z</time>
      </trkpt>
      <trkpt lat="44.95349" lon="6.73538">
        <ele>2096.29</ele>
        <time>2024-08-12T14:32:52Z</time>
      </trkpt>
      <trkpt lat="44.95348" lon="6.73541">
        <ele>2095.81</ele>
        <time>2024-08-12T14:32:53Z</time>
      </trkpt>
      <trkpt lat="44.95346" lon="6.73544">
        <ele>2094.85</ele>
        <time>2024-08-12T14:32:54Z</time>
      </trkpt>
      <trkpt lat="44.95343" lon="6.73546">
        <ele>2093.41</ele>
        <time>2024-08-12T14:32:55Z</time>
      </trkpt>
      <trkpt lat="44.95331" lon="6.73556">
        <ele>2090.52</ele>
        <time>2024-08-12T14:32:59Z</time>
      </trkpt>
      <trkpt lat="44.95327" lon="6.73564">
        <ele>2089.56</ele>
        <time>2024-08-12T14:33:01Z</time>
      </trkpt>
      <trkpt lat="44.95322" lon="6.73576">
        <ele>2085.24</ele>
        <time>2024-08-12T14:33:04Z</time>
      </trkpt>
      <trkpt lat="44.95318" lon="6.73587">
        <ele>2082.35</ele>
        <time>2024-08-12T14:33:07Z</time>
      </trkpt>
      <trkpt lat="44.95312" lon="6.73592">
        <ele>2080.43</ele>
        <time>2024-08-12T14:33:10Z</time>
      </trkpt>
      <trkpt lat="44.95308" lon="6.7359">
        <ele>2080.43</ele>
        <time>2024-08-12T14:33:12Z</time>
      </trkpt>
      <trkpt lat="44.95305" lon="6.73589">
        <ele>2080.43</ele>
        <time>2024-08-12T14:33:18Z</time>
      </trkpt>
      <trkpt lat="44.95332" lon="6.73603">
        <ele>2078.99</ele>
        <time>2024-08-12T14:33:29Z</time>
      </trkpt>
      <trkpt lat="44.95339" lon="6.73608">
        <ele>2078.03</ele>
        <time>2024-08-12T14:33:31Z</time>
      </trkpt>
      <trkpt lat="44.95347" lon="6.7361">
        <ele>2076.1</ele>
        <time>2024-08-12T14:33:33Z</time>
      </trkpt>
      <trkpt lat="44.9536" lon="6.73616">
        <ele>2072.74</ele>
        <time>2024-08-12T14:33:36Z</time>
      </trkpt>
      <trkpt lat="44.95362" lon="6.73618">
        <ele>2072.74</ele>
        <time>2024-08-12T14:33:37Z</time>
      </trkpt>
      <trkpt lat="44.95373" lon="6.73624">
        <ele>2072.26</ele>
        <time>2024-08-12T14:33:44Z</time>
      </trkpt>
      <trkpt lat="44.95377" lon="6.73641">
        <ele>2069.38</ele>
        <time>2024-08-12T14:33:53Z</time>
      </trkpt>
      <trkpt lat="44.95379" lon="6.73644">
        <ele>2068.89</ele>
        <time>2024-08-12T14:34:04Z</time>
      </trkpt>
      <trkpt lat="44.9538" lon="6.73644">
        <ele>2068.89</ele>
        <time>2024-08-12T14:34:14Z</time>
      </trkpt>
      <trkpt lat="44.95378" lon="6.73653">
        <ele>2066.49</ele>
        <time>2024-08-12T14:34:21Z</time>
      </trkpt>
      <trkpt lat="44.95378" lon="6.73656">
        <ele>2065.53</ele>
        <time>2024-08-12T14:34:22Z</time>
      </trkpt>
      <trkpt lat="44.95376" lon="6.73659">
        <ele>2064.57</ele>
        <time>2024-08-12T14:34:23Z</time>
      </trkpt>
      <trkpt lat="44.95374" lon="6.73665">
        <ele>2062.65</ele>
        <time>2024-08-12T14:34:25Z</time>
      </trkpt>
      <trkpt lat="44.95372" lon="6.73666">
        <ele>2062.17</ele>
        <time>2024-08-12T14:34:26Z</time>
      </trkpt>
      <trkpt lat="44.95369" lon="6.73664">
        <ele>2061.68</ele>
        <time>2024-08-12T14:34:27Z</time>
      </trkpt>
      <trkpt lat="44.95367" lon="6.73663">
        <ele>2061.2</ele>
        <time>2024-08-12T14:34:28Z</time>
      </trkpt>
      <trkpt lat="44.95364" lon="6.73662">
        <ele>2060.72</ele>
        <time>2024-08-12T14:34:29Z</time>
      </trkpt>
      <trkpt lat="44.95362" lon="6.73661">
        <ele>2060.72</ele>
        <time>2024-08-12T14:34:30Z</time>
      </trkpt>
      <trkpt lat="44.95356" lon="6.73659">
        <ele>2060.24</ele>
        <time>2024-08-12T14:34:34Z</time>
      </trkpt>
      <trkpt lat="44.95355" lon="6.73661">
        <ele>2060.24</ele>
        <time>2024-08-12T14:34:35Z</time>
      </trkpt>
      <trkpt lat="44.95354" lon="6.73663">
        <ele>2059.76</ele>
        <time>2024-08-12T14:34:36Z</time>
      </trkpt>
      <trkpt lat="44.95352" lon="6.73663">
        <ele>2059.28</ele>
        <time>2024-08-12T14:34:37Z</time>
      </trkpt>
      <trkpt lat="44.9535" lon="6.73664">
        <ele>2058.8</ele>
        <time>2024-08-12T14:34:38Z</time>
      </trkpt>
      <trkpt lat="44.95348" lon="6.73664">
        <ele>2058.8</ele>
        <time>2024-08-12T14:34:39Z</time>
      </trkpt>
      <trkpt lat="44.95346" lon="6.73665">
        <ele>2057.84</ele>
        <time>2024-08-12T14:34:40Z</time>
      </trkpt>
      <trkpt lat="44.95343" lon="6.73667">
        <ele>2056.4</ele>
        <time>2024-08-12T14:34:41Z</time>
      </trkpt>
      <trkpt lat="44.95337" lon="6.7367">
        <ele>2055.92</ele>
        <time>2024-08-12T14:34:43Z</time>
      </trkpt>
      <trkpt lat="44.95316" lon="6.7368">
        <ele>2053.51</ele>
        <time>2024-08-12T14:34:53Z</time>
      </trkpt>
      <trkpt lat="44.95315" lon="6.73681">
        <ele>2053.51</ele>
        <time>2024-08-12T14:34:54Z</time>
      </trkpt>
      <trkpt lat="44.95313" lon="6.73681">
        <ele>2053.51</ele>
        <time>2024-08-12T14:34:55Z</time>
      </trkpt>
      <trkpt lat="44.95312" lon="6.73682">
        <ele>2053.51</ele>
        <time>2024-08-12T14:34:56Z</time>
      </trkpt>
      <trkpt lat="44.9531" lon="6.73683">
        <ele>2053.51</ele>
        <time>2024-08-12T14:34:57Z</time>
      </trkpt>
      <trkpt lat="44.95309" lon="6.73685">
        <ele>2053.03</ele>
        <time>2024-08-12T14:34:58Z</time>
      </trkpt>
      <trkpt lat="44.9531" lon="6.73691">
        <ele>2053.03</ele>
        <time>2024-08-12T14:35:08Z</time>
      </trkpt>
      <trkpt lat="44.9531" lon="6.73697">
        <ele>2053.99</ele>
        <time>2024-08-12T14:35:19Z</time>
      </trkpt>
      <trkpt lat="44.95304" lon="6.737">
        <ele>2054.96</ele>
        <time>2024-08-12T14:35:29Z</time>
      </trkpt>
      <trkpt lat="44.95294" lon="6.73703">
        <ele>2056.88</ele>
        <time>2024-08-12T14:35:43Z</time>
      </trkpt>
      <trkpt lat="44.95285" lon="6.73708">
        <ele>2057.84</ele>
        <time>2024-08-12T14:36:00Z</time>
      </trkpt>
      <trkpt lat="44.95283" lon="6.7371">
        <ele>2057.36</ele>
        <time>2024-08-12T14:36:16Z</time>
      </trkpt>
      <trkpt lat="44.95277" lon="6.73708">
        <ele>2056.88</ele>
        <time>2024-08-12T14:36:30Z</time>
      </trkpt>
      <trkpt lat="44.95275" lon="6.73707">
        <ele>2056.88</ele>
        <time>2024-08-12T14:36:31Z</time>
      </trkpt>
      <trkpt lat="44.95273" lon="6.73704">
        <ele>2055.44</ele>
        <time>2024-08-12T14:36:33Z</time>
      </trkpt>
      <trkpt lat="44.95256" lon="6.73698">
        <ele>2051.59</ele>
        <time>2024-08-12T14:36:41Z</time>
      </trkpt>
      <trkpt lat="44.95256" lon="6.73698">
        <ele>2051.59</ele>
        <time>2024-08-12T14:36:42Z</time>
      </trkpt>
      <trkpt lat="44.95248" lon="6.73701">
        <ele>2050.15</ele>
        <time>2024-08-12T14:36:52Z</time>
      </trkpt>
      <trkpt lat="44.95246" lon="6.73702">
        <ele>2049.19</ele>
        <time>2024-08-12T14:36:53Z</time>
      </trkpt>
      <trkpt lat="44.95244" lon="6.73703">
        <ele>2049.19</ele>
        <time>2024-08-12T14:36:54Z</time>
      </trkpt>
      <trkpt lat="44.95238" lon="6.73703">
        <ele>2049.19</ele>
        <time>2024-08-12T14:37:03Z</time>
      </trkpt>
      <trkpt lat="44.95234" lon="6.73704">
        <ele>2049.19</ele>
        <time>2024-08-12T14:37:08Z</time>
      </trkpt>
      <trkpt lat="44.95232" lon="6.73705">
        <ele>2049.19</ele>
        <time>2024-08-12T14:37:09Z</time>
      </trkpt>
      <trkpt lat="44.95231" lon="6.73706">
        <ele>2049.19</ele>
        <time>2024-08-12T14:37:10Z</time>
      </trkpt>
      <trkpt lat="44.95229" lon="6.73706">
        <ele>2049.19</ele>
        <time>2024-08-12T14:37:11Z</time>
      </trkpt>
      <trkpt lat="44.95227" lon="6.73707">
        <ele>2049.19</ele>
        <time>2024-08-12T14:37:12Z</time>
      </trkpt>
      <trkpt lat="44.95226" lon="6.73708">
        <ele>2049.19</ele>
        <time>2024-08-12T14:37:13Z</time>
      </trkpt>
      <trkpt lat="44.95224" lon="6.7371">
        <ele>2049.19</ele>
        <time>2024-08-12T14:37:14Z</time>
      </trkpt>
      <trkpt lat="44.95223" lon="6.73712">
        <ele>2049.19</ele>
        <time>2024-08-12T14:37:15Z</time>
      </trkpt>
      <trkpt lat="44.95221" lon="6.73713">
        <ele>2048.71</ele>
        <time>2024-08-12T14:37:16Z</time>
      </trkpt>
      <trkpt lat="44.95219" lon="6.73715">
        <ele>2048.71</ele>
        <time>2024-08-12T14:37:17Z</time>
      </trkpt>
      <trkpt lat="44.95205" lon="6.73728">
        <ele>2050.15</ele>
        <time>2024-08-12T14:37:26Z</time>
      </trkpt>
      <trkpt lat="44.95202" lon="6.73728">
        <ele>2048.71</ele>
        <time>2024-08-12T14:37:28Z</time>
      </trkpt>
      <trkpt lat="44.95195" lon="6.73732">
        <ele>2047.75</ele>
        <time>2024-08-12T14:37:31Z</time>
      </trkpt>
      <trkpt lat="44.95194" lon="6.73733">
        <ele>2047.75</ele>
        <time>2024-08-12T14:37:32Z</time>
      </trkpt>
      <trkpt lat="44.95166" lon="6.73748">
        <ele>2044.38</ele>
        <time>2024-08-12T14:37:44Z</time>
      </trkpt>
      <trkpt lat="44.95163" lon="6.7375">
        <ele>2044.38</ele>
        <time>2024-08-12T14:37:45Z</time>
      </trkpt>
      <trkpt lat="44.95162" lon="6.73752">
        <ele>2043.42</ele>
        <time>2024-08-12T14:37:46Z</time>
      </trkpt>
      <trkpt lat="44.95161" lon="6.73754">
        <ele>2043.42</ele>
        <time>2024-08-12T14:37:47Z</time>
      </trkpt>
      <trkpt lat="44.95159" lon="6.73755">
        <ele>2043.42</ele>
        <time>2024-08-12T14:37:48Z</time>
      </trkpt>
      <trkpt lat="44.95157" lon="6.73756">
        <ele>2043.42</ele>
        <time>2024-08-12T14:37:49Z</time>
      </trkpt>
      <trkpt lat="44.95155" lon="6.73756">
        <ele>2043.42</ele>
        <time>2024-08-12T14:37:50Z</time>
      </trkpt>
      <trkpt lat="44.95152" lon="6.73758">
        <ele>2043.42</ele>
        <time>2024-08-12T14:37:52Z</time>
      </trkpt>
      <trkpt lat="44.95151" lon="6.7376">
        <ele>2043.42</ele>
        <time>2024-08-12T14:37:53Z</time>
      </trkpt>
      <trkpt lat="44.9515" lon="6.73762">
        <ele>2043.42</ele>
        <time>2024-08-12T14:37:54Z</time>
      </trkpt>
      <trkpt lat="44.95148" lon="6.73767">
        <ele>2043.42</ele>
        <time>2024-08-12T14:37:56Z</time>
      </trkpt>
      <trkpt lat="44.95147" lon="6.73768">
        <ele>2043.42</ele>
        <time>2024-08-12T14:37:57Z</time>
      </trkpt>
      <trkpt lat="44.95146" lon="6.73769">
        <ele>2043.42</ele>
        <time>2024-08-12T14:37:58Z</time>
      </trkpt>
      <trkpt lat="44.95144" lon="6.7377">
        <ele>2043.42</ele>
        <time>2024-08-12T14:37:59Z</time>
      </trkpt>
      <trkpt lat="44.95142" lon="6.73771">
        <ele>2043.42</ele>
        <time>2024-08-12T14:38:00Z</time>
      </trkpt>
      <trkpt lat="44.95123" lon="6.7378">
        <ele>2040.54</ele>
        <time>2024-08-12T14:38:05Z</time>
      </trkpt>
      <trkpt lat="44.95115" lon="6.73784">
        <ele>2040.05</ele>
        <time>2024-08-12T14:38:07Z</time>
      </trkpt>
      <trkpt lat="44.95111" lon="6.73786">
        <ele>2038.61</ele>
        <time>2024-08-12T14:38:08Z</time>
      </trkpt>
      <trkpt lat="44.95108" lon="6.73787">
        <ele>2037.65</ele>
        <time>2024-08-12T14:38:09Z</time>
      </trkpt>
      <trkpt lat="44.95094" lon="6.73791">
        <ele>2033.81</ele>
        <time>2024-08-12T14:38:13Z</time>
      </trkpt>
      <trkpt lat="44.95091" lon="6.73791">
        <ele>2032.84</ele>
        <time>2024-08-12T14:38:14Z</time>
      </trkpt>
      <trkpt lat="44.95087" lon="6.73792">
        <ele>2032.36</ele>
        <time>2024-08-12T14:38:15Z</time>
      </trkpt>
      <trkpt lat="44.95083" lon="6.73793">
        <ele>2031.4</ele>
        <time>2024-08-12T14:38:16Z</time>
      </trkpt>
      <trkpt lat="44.9508" lon="6.73794">
        <ele>2030.92</ele>
        <time>2024-08-12T14:38:17Z</time>
      </trkpt>
      <trkpt lat="44.95077" lon="6.73794">
        <ele>2029.96</ele>
        <time>2024-08-12T14:38:18Z</time>
      </trkpt>
      <trkpt lat="44.95076" lon="6.73794">
        <ele>2029.96</ele>
        <time>2024-08-12T14:38:19Z</time>
      </trkpt>
      <trkpt lat="44.95074" lon="6.73793">
        <ele>2029.96</ele>
        <time>2024-08-12T14:38:20Z</time>
      </trkpt>
      <trkpt lat="44.95073" lon="6.73793">
        <ele>2029.48</ele>
        <time>2024-08-12T14:38:21Z</time>
      </trkpt>
      <trkpt lat="44.95061" lon="6.738">
        <ele>2027.08</ele>
        <time>2024-08-12T14:38:25Z</time>
      </trkpt>
      <trkpt lat="44.95058" lon="6.73804">
        <ele>2026.12</ele>
        <time>2024-08-12T14:38:26Z</time>
      </trkpt>
      <trkpt lat="44.95055" lon="6.73806">
        <ele>2026.12</ele>
        <time>2024-08-12T14:38:27Z</time>
      </trkpt>
      <trkpt lat="44.95052" lon="6.73807">
        <ele>2026.12</ele>
        <time>2024-08-12T14:38:28Z</time>
      </trkpt>
      <trkpt lat="44.95051" lon="6.73808">
        <ele>2026.12</ele>
        <time>2024-08-12T14:38:29Z</time>
      </trkpt>
      <trkpt lat="44.95049" lon="6.73811">
        <ele>2026.12</ele>
        <time>2024-08-12T14:38:30Z</time>
      </trkpt>
      <trkpt lat="44.95047" lon="6.73813">
        <ele>2026.12</ele>
        <time>2024-08-12T14:38:31Z</time>
      </trkpt>
      <trkpt lat="44.95039" lon="6.73821">
        <ele>2024.67</ele>
        <time>2024-08-12T14:38:36Z</time>
      </trkpt>
      <trkpt lat="44.95028" lon="6.73818">
        <ele>2021.31</ele>
        <time>2024-08-12T14:38:42Z</time>
      </trkpt>
      <trkpt lat="44.95026" lon="6.73817">
        <ele>2019.87</ele>
        <time>2024-08-12T14:38:43Z</time>
      </trkpt>
      <trkpt lat="44.95023" lon="6.73817">
        <ele>2018.91</ele>
        <time>2024-08-12T14:38:44Z</time>
      </trkpt>
      <trkpt lat="44.95022" lon="6.73816">
        <ele>2017.94</ele>
        <time>2024-08-12T14:38:45Z</time>
      </trkpt>
      <trkpt lat="44.9502" lon="6.73814">
        <ele>2016.98</ele>
        <time>2024-08-12T14:38:46Z</time>
      </trkpt>
      <trkpt lat="44.95018" lon="6.73813">
        <ele>2016.02</ele>
        <time>2024-08-12T14:38:47Z</time>
      </trkpt>
      <trkpt lat="44.95016" lon="6.73815">
        <ele>2015.06</ele>
        <time>2024-08-12T14:38:49Z</time>
      </trkpt>
      <trkpt lat="44.95015" lon="6.73816">
        <ele>2015.06</ele>
        <time>2024-08-12T14:38:50Z</time>
      </trkpt>
      <trkpt lat="44.95015" lon="6.73818">
        <ele>2015.06</ele>
        <time>2024-08-12T14:38:51Z</time>
      </trkpt>
      <trkpt lat="44.95014" lon="6.73819">
        <ele>2015.06</ele>
        <time>2024-08-12T14:38:52Z</time>
      </trkpt>
      <trkpt lat="44.95012" lon="6.7382">
        <ele>2015.06</ele>
        <time>2024-08-12T14:38:53Z</time>
      </trkpt>
      <trkpt lat="44.95011" lon="6.73821">
        <ele>2015.06</ele>
        <time>2024-08-12T14:38:54Z</time>
      </trkpt>
      <trkpt lat="44.95009" lon="6.73823">
        <ele>2015.06</ele>
        <time>2024-08-12T14:38:55Z</time>
      </trkpt>
      <trkpt lat="44.94984" lon="6.73832">
        <ele>2011.22</ele>
        <time>2024-08-12T14:39:05Z</time>
      </trkpt>
      <trkpt lat="44.94981" lon="6.73833">
        <ele>2010.25</ele>
        <time>2024-08-12T14:39:16Z</time>
      </trkpt>
      <trkpt lat="44.94981" lon="6.73833">
        <ele>2010.25</ele>
        <time>2024-08-12T14:39:38Z</time>
      </trkpt>
      <trkpt lat="44.94966" lon="6.73835">
        <ele>2009.29</ele>
        <time>2024-08-12T14:39:48Z</time>
      </trkpt>
      <trkpt lat="44.94962" lon="6.73837">
        <ele>2009.29</ele>
        <time>2024-08-12T14:39:51Z</time>
      </trkpt>
      <trkpt lat="44.94949" lon="6.73838">
        <ele>2007.85</ele>
        <time>2024-08-12T14:39:56Z</time>
      </trkpt>
      <trkpt lat="44.94942" lon="6.73845">
        <ele>2006.89</ele>
        <time>2024-08-12T14:40:03Z</time>
      </trkpt>
      <trkpt lat="44.9494" lon="6.73852">
        <ele>2008.81</ele>
        <time>2024-08-12T14:40:08Z</time>
      </trkpt>
      <trkpt lat="44.94931" lon="6.7385">
        <ele>2007.37</ele>
        <time>2024-08-12T14:40:14Z</time>
      </trkpt>
      <trkpt lat="44.94924" lon="6.73849">
        <ele>2004.97</ele>
        <time>2024-08-12T14:40:18Z</time>
      </trkpt>
      <trkpt lat="44.94922" lon="6.73851">
        <ele>2004.49</ele>
        <time>2024-08-12T14:40:19Z</time>
      </trkpt>
      <trkpt lat="44.9492" lon="6.73853">
        <ele>2004.01</ele>
        <time>2024-08-12T14:40:20Z</time>
      </trkpt>
      <trkpt lat="44.94918" lon="6.73854">
        <ele>2003.52</ele>
        <time>2024-08-12T14:40:21Z</time>
      </trkpt>
      <trkpt lat="44.94916" lon="6.73855">
        <ele>2003.04</ele>
        <time>2024-08-12T14:40:22Z</time>
      </trkpt>
      <trkpt lat="44.94913" lon="6.73856">
        <ele>2003.04</ele>
        <time>2024-08-12T14:40:25Z</time>
      </trkpt>
      <trkpt lat="44.9491" lon="6.73857">
        <ele>2002.56</ele>
        <time>2024-08-12T14:40:26Z</time>
      </trkpt>
      <trkpt lat="44.94909" lon="6.73858">
        <ele>2003.04</ele>
        <time>2024-08-12T14:40:27Z</time>
      </trkpt>
      <trkpt lat="44.94907" lon="6.73859">
        <ele>2003.04</ele>
        <time>2024-08-12T14:40:28Z</time>
      </trkpt>
      <trkpt lat="44.94906" lon="6.7386">
        <ele>2003.04</ele>
        <time>2024-08-12T14:40:29Z</time>
      </trkpt>
      <trkpt lat="44.94904" lon="6.73861">
        <ele>2002.08</ele>
        <time>2024-08-12T14:40:30Z</time>
      </trkpt>
      <trkpt lat="44.94902" lon="6.73861">
        <ele>2002.08</ele>
        <time>2024-08-12T14:40:31Z</time>
      </trkpt>
      <trkpt lat="44.949" lon="6.73862">
        <ele>2001.6</ele>
        <time>2024-08-12T14:40:32Z</time>
      </trkpt>
      <trkpt lat="44.94896" lon="6.73862">
        <ele>2001.12</ele>
        <time>2024-08-12T14:40:33Z</time>
      </trkpt>
      <trkpt lat="44.94893" lon="6.73863">
        <ele>2000.16</ele>
        <time>2024-08-12T14:40:34Z</time>
      </trkpt>
      <trkpt lat="44.94884" lon="6.73867">
        <ele>1998.72</ele>
        <time>2024-08-12T14:40:37Z</time>
      </trkpt>
      <trkpt lat="44.94882" lon="6.7387">
        <ele>1998.24</ele>
        <time>2024-08-12T14:40:38Z</time>
      </trkpt>
      <trkpt lat="44.9488" lon="6.73874">
        <ele>1998.24</ele>
        <time>2024-08-12T14:40:39Z</time>
      </trkpt>
      <trkpt lat="44.94879" lon="6.73876">
        <ele>1998.24</ele>
        <time>2024-08-12T14:40:40Z</time>
      </trkpt>
      <trkpt lat="44.94878" lon="6.73878">
        <ele>1998.24</ele>
        <time>2024-08-12T14:40:41Z</time>
      </trkpt>
      <trkpt lat="44.94868" lon="6.73893">
        <ele>1997.76</ele>
        <time>2024-08-12T14:40:48Z</time>
      </trkpt>
      <trkpt lat="44.94866" lon="6.73894">
        <ele>1997.76</ele>
        <time>2024-08-12T14:40:49Z</time>
      </trkpt>
      <trkpt lat="44.94864" lon="6.73894">
        <ele>1997.76</ele>
        <time>2024-08-12T14:40:50Z</time>
      </trkpt>
      <trkpt lat="44.94862" lon="6.73894">
        <ele>1997.76</ele>
        <time>2024-08-12T14:40:51Z</time>
      </trkpt>
      <trkpt lat="44.9486" lon="6.73895">
        <ele>1998.24</ele>
        <time>2024-08-12T14:40:52Z</time>
      </trkpt>
      <trkpt lat="44.94857" lon="6.73898">
        <ele>1997.76</ele>
        <time>2024-08-12T14:40:53Z</time>
      </trkpt>
      <trkpt lat="44.94855" lon="6.739">
        <ele>1997.76</ele>
        <time>2024-08-12T14:40:54Z</time>
      </trkpt>
      <trkpt lat="44.94852" lon="6.73901">
        <ele>1997.28</ele>
        <time>2024-08-12T14:40:55Z</time>
      </trkpt>
      <trkpt lat="44.94842" lon="6.73908">
        <ele>1995.83</ele>
        <time>2024-08-12T14:40:58Z</time>
      </trkpt>
      <trkpt lat="44.94839" lon="6.73911">
        <ele>1994.87</ele>
        <time>2024-08-12T14:40:59Z</time>
      </trkpt>
      <trkpt lat="44.94836" lon="6.73913">
        <ele>1994.39</ele>
        <time>2024-08-12T14:41:00Z</time>
      </trkpt>
      <trkpt lat="44.94832" lon="6.73914">
        <ele>1993.91</ele>
        <time>2024-08-12T14:41:01Z</time>
      </trkpt>
      <trkpt lat="44.94829" lon="6.73915">
        <ele>1993.91</ele>
        <time>2024-08-12T14:41:02Z</time>
      </trkpt>
      <trkpt lat="44.94825" lon="6.73916">
        <ele>1993.43</ele>
        <time>2024-08-12T14:41:03Z</time>
      </trkpt>
      <trkpt lat="44.9482" lon="6.73919">
        <ele>1992.47</ele>
        <time>2024-08-12T14:41:04Z</time>
      </trkpt>
      <trkpt lat="44.94816" lon="6.73923">
        <ele>1991.03</ele>
        <time>2024-08-12T14:41:05Z</time>
      </trkpt>
      <trkpt lat="44.94813" lon="6.73927">
        <ele>1990.07</ele>
        <time>2024-08-12T14:41:06Z</time>
      </trkpt>
      <trkpt lat="44.94811" lon="6.73931">
        <ele>1989.59</ele>
        <time>2024-08-12T14:41:07Z</time>
      </trkpt>
      <trkpt lat="44.9481" lon="6.73934">
        <ele>1988.62</ele>
        <time>2024-08-12T14:41:08Z</time>
      </trkpt>
      <trkpt lat="44.94808" lon="6.73935">
        <ele>1988.62</ele>
        <time>2024-08-12T14:41:09Z</time>
      </trkpt>
      <trkpt lat="44.94806" lon="6.73936">
        <ele>1988.62</ele>
        <time>2024-08-12T14:41:10Z</time>
      </trkpt>
      <trkpt lat="44.94804" lon="6.73938">
        <ele>1987.18</ele>
        <time>2024-08-12T14:41:11Z</time>
      </trkpt>
      <trkpt lat="44.94801" lon="6.73941">
        <ele>1986.7</ele>
        <time>2024-08-12T14:41:12Z</time>
      </trkpt>
      <trkpt lat="44.94798" lon="6.73943">
        <ele>1986.7</ele>
        <time>2024-08-12T14:41:13Z</time>
      </trkpt>
      <trkpt lat="44.94794" lon="6.73945">
        <ele>1986.22</ele>
        <time>2024-08-12T14:41:14Z</time>
      </trkpt>
      <trkpt lat="44.94791" lon="6.73944">
        <ele>1986.22</ele>
        <time>2024-08-12T14:41:15Z</time>
      </trkpt>
      <trkpt lat="44.94789" lon="6.73944">
        <ele>1985.74</ele>
        <time>2024-08-12T14:41:16Z</time>
      </trkpt>
      <trkpt lat="44.94787" lon="6.73944">
        <ele>1985.74</ele>
        <time>2024-08-12T14:41:17Z</time>
      </trkpt>
      <trkpt lat="44.94785" lon="6.73945">
        <ele>1985.74</ele>
        <time>2024-08-12T14:41:18Z</time>
      </trkpt>
      <trkpt lat="44.94783" lon="6.73946">
        <ele>1985.74</ele>
        <time>2024-08-12T14:41:19Z</time>
      </trkpt>
      <trkpt lat="44.9478" lon="6.73945">
        <ele>1985.74</ele>
        <time>2024-08-12T14:41:20Z</time>
      </trkpt>
      <trkpt lat="44.94778" lon="6.73945">
        <ele>1985.74</ele>
        <time>2024-08-12T14:41:21Z</time>
      </trkpt>
      <trkpt lat="44.94776" lon="6.73947">
        <ele>1985.26</ele>
        <time>2024-08-12T14:41:33Z</time>
      </trkpt>
      <trkpt lat="44.94762" lon="6.73951">
        <ele>1983.34</ele>
        <time>2024-08-12T14:41:57Z</time>
      </trkpt>
      <trkpt lat="44.94756" lon="6.73953">
        <ele>1982.38</ele>
        <time>2024-08-12T14:41:59Z</time>
      </trkpt>
      <trkpt lat="44.94747" lon="6.73958">
        <ele>1980.45</ele>
        <time>2024-08-12T14:42:02Z</time>
      </trkpt>
      <trkpt lat="44.94743" lon="6.7396">
        <ele>1980.45</ele>
        <time>2024-08-12T14:42:04Z</time>
      </trkpt>
      <trkpt lat="44.94741" lon="6.7396">
        <ele>1980.45</ele>
        <time>2024-08-12T14:42:05Z</time>
      </trkpt>
      <trkpt lat="44.94733" lon="6.73957">
        <ele>1979.49</ele>
        <time>2024-08-12T14:42:07Z</time>
      </trkpt>
      <trkpt lat="44.94729" lon="6.73957">
        <ele>1979.01</ele>
        <time>2024-08-12T14:42:08Z</time>
      </trkpt>
      <trkpt lat="44.94725" lon="6.73956">
        <ele>1978.53</ele>
        <time>2024-08-12T14:42:09Z</time>
      </trkpt>
      <trkpt lat="44.94722" lon="6.73956">
        <ele>1978.05</ele>
        <time>2024-08-12T14:42:10Z</time>
      </trkpt>
      <trkpt lat="44.94718" lon="6.73957">
        <ele>1977.57</ele>
        <time>2024-08-12T14:42:11Z</time>
      </trkpt>
      <trkpt lat="44.94714" lon="6.73957">
        <ele>1977.57</ele>
        <time>2024-08-12T14:42:12Z</time>
      </trkpt>
      <trkpt lat="44.94705" lon="6.73955">
        <ele>1977.09</ele>
        <time>2024-08-12T14:42:15Z</time>
      </trkpt>
      <trkpt lat="44.94669" lon="6.73959">
        <ele>1974.2</ele>
        <time>2024-08-12T14:42:24Z</time>
      </trkpt>
      <trkpt lat="44.94647" lon="6.73967">
        <ele>1970.84</ele>
        <time>2024-08-12T14:42:29Z</time>
      </trkpt>
      <trkpt lat="44.94643" lon="6.73971">
        <ele>1970.84</ele>
        <time>2024-08-12T14:42:30Z</time>
      </trkpt>
      <trkpt lat="44.94639" lon="6.73975">
        <ele>1970.36</ele>
        <time>2024-08-12T14:42:31Z</time>
      </trkpt>
      <trkpt lat="44.94628" lon="6.73982">
        <ele>1968.44</ele>
        <time>2024-08-12T14:42:33Z</time>
      </trkpt>
      <trkpt lat="44.94606" lon="6.73993">
        <ele>1965.07</ele>
        <time>2024-08-12T14:42:37Z</time>
      </trkpt>
      <trkpt lat="44.94601" lon="6.73998">
        <ele>1964.59</ele>
        <time>2024-08-12T14:42:38Z</time>
      </trkpt>
      <trkpt lat="44.94597" lon="6.74002">
        <ele>1963.63</ele>
        <time>2024-08-12T14:42:39Z</time>
      </trkpt>
      <trkpt lat="44.94593" lon="6.74005">
        <ele>1962.67</ele>
        <time>2024-08-12T14:42:40Z</time>
      </trkpt>
      <trkpt lat="44.9459" lon="6.74008">
        <ele>1961.23</ele>
        <time>2024-08-12T14:42:41Z</time>
      </trkpt>
      <trkpt lat="44.94588" lon="6.7401">
        <ele>1961.23</ele>
        <time>2024-08-12T14:42:42Z</time>
      </trkpt>
      <trkpt lat="44.94575" lon="6.7402">
        <ele>1959.3</ele>
        <time>2024-08-12T14:42:46Z</time>
      </trkpt>
      <trkpt lat="44.94559" lon="6.74027">
        <ele>1955.94</ele>
        <time>2024-08-12T14:42:50Z</time>
      </trkpt>
      <trkpt lat="44.94554" lon="6.74028">
        <ele>1954.98</ele>
        <time>2024-08-12T14:42:51Z</time>
      </trkpt>
      <trkpt lat="44.94543" lon="6.74031">
        <ele>1952.09</ele>
        <time>2024-08-12T14:42:54Z</time>
      </trkpt>
      <trkpt lat="44.9454" lon="6.74031">
        <ele>1951.13</ele>
        <time>2024-08-12T14:42:55Z</time>
      </trkpt>
      <trkpt lat="44.94537" lon="6.74031">
        <ele>1950.65</ele>
        <time>2024-08-12T14:42:56Z</time>
      </trkpt>
      <trkpt lat="44.94534" lon="6.74033">
        <ele>1949.69</ele>
        <time>2024-08-12T14:42:57Z</time>
      </trkpt>
      <trkpt lat="44.94532" lon="6.74035">
        <ele>1949.21</ele>
        <time>2024-08-12T14:42:58Z</time>
      </trkpt>
      <trkpt lat="44.94529" lon="6.74036">
        <ele>1949.69</ele>
        <time>2024-08-12T14:42:59Z</time>
      </trkpt>
      <trkpt lat="44.94525" lon="6.74038">
        <ele>1948.25</ele>
        <time>2024-08-12T14:43:00Z</time>
      </trkpt>
      <trkpt lat="44.94522" lon="6.7404">
        <ele>1947.77</ele>
        <time>2024-08-12T14:43:01Z</time>
      </trkpt>
      <trkpt lat="44.9452" lon="6.74041">
        <ele>1946.81</ele>
        <time>2024-08-12T14:43:02Z</time>
      </trkpt>
      <trkpt lat="44.94518" lon="6.74041">
        <ele>1945.85</ele>
        <time>2024-08-12T14:43:04Z</time>
      </trkpt>
      <trkpt lat="44.94518" lon="6.74039">
        <ele>1945.85</ele>
        <time>2024-08-12T14:43:05Z</time>
      </trkpt>
      <trkpt lat="44.94518" lon="6.74037">
        <ele>1944.88</ele>
        <time>2024-08-12T14:43:06Z</time>
      </trkpt>
      <trkpt lat="44.94519" lon="6.74034">
        <ele>1944.88</ele>
        <time>2024-08-12T14:43:07Z</time>
      </trkpt>
      <trkpt lat="44.94519" lon="6.74032">
        <ele>1944.4</ele>
        <time>2024-08-12T14:43:08Z</time>
      </trkpt>
      <trkpt lat="44.94519" lon="6.74029">
        <ele>1943.92</ele>
        <time>2024-08-12T14:43:09Z</time>
      </trkpt>
      <trkpt lat="44.94518" lon="6.74027">
        <ele>1943.92</ele>
        <time>2024-08-12T14:43:10Z</time>
      </trkpt>
      <trkpt lat="44.94517" lon="6.74028">
        <ele>1943.44</ele>
        <time>2024-08-12T14:43:11Z</time>
      </trkpt>
      <trkpt lat="44.94515" lon="6.74028">
        <ele>1942.96</ele>
        <time>2024-08-12T14:43:12Z</time>
      </trkpt>
      <trkpt lat="44.94512" lon="6.74029">
        <ele>1942.48</ele>
        <time>2024-08-12T14:43:13Z</time>
      </trkpt>
      <trkpt lat="44.9451" lon="6.74031">
        <ele>1941.52</ele>
        <time>2024-08-12T14:43:14Z</time>
      </trkpt>
      <trkpt lat="44.94507" lon="6.74033">
        <ele>1941.04</ele>
        <time>2024-08-12T14:43:15Z</time>
      </trkpt>
      <trkpt lat="44.94504" lon="6.74035">
        <ele>1941.04</ele>
        <time>2024-08-12T14:43:16Z</time>
      </trkpt>
      <trkpt lat="44.94502" lon="6.74037">
        <ele>1940.56</ele>
        <time>2024-08-12T14:43:17Z</time>
      </trkpt>
      <trkpt lat="44.945" lon="6.74038">
        <ele>1939.6</ele>
        <time>2024-08-12T14:43:18Z</time>
      </trkpt>
      <trkpt lat="44.94498" lon="6.74037">
        <ele>1939.12</ele>
        <time>2024-08-12T14:43:19Z</time>
      </trkpt>
      <trkpt lat="44.94497" lon="6.74038">
        <ele>1939.12</ele>
        <time>2024-08-12T14:43:20Z</time>
      </trkpt>
      <trkpt lat="44.94495" lon="6.74038">
        <ele>1939.12</ele>
        <time>2024-08-12T14:43:21Z</time>
      </trkpt>
      <trkpt lat="44.94493" lon="6.7404">
        <ele>1938.64</ele>
        <time>2024-08-12T14:43:22Z</time>
      </trkpt>
      <trkpt lat="44.94491" lon="6.74043">
        <ele>1938.16</ele>
        <time>2024-08-12T14:43:23Z</time>
      </trkpt>
      <trkpt lat="44.9449" lon="6.74045">
        <ele>1938.16</ele>
        <time>2024-08-12T14:43:24Z</time>
      </trkpt>
      <trkpt lat="44.94488" lon="6.74054">
        <ele>1937.67</ele>
        <time>2024-08-12T14:43:34Z</time>
      </trkpt>
      <trkpt lat="44.94483" lon="6.74064">
        <ele>1939.6</ele>
        <time>2024-08-12T14:43:47Z</time>
      </trkpt>
      <trkpt lat="44.94481" lon="6.74069">
        <ele>1940.56</ele>
        <time>2024-08-12T14:43:55Z</time>
      </trkpt>
      <trkpt lat="44.94474" lon="6.74077">
        <ele>1942.48</ele>
        <time>2024-08-12T14:44:08Z</time>
      </trkpt>
      <trkpt lat="44.94463" lon="6.74086">
        <ele>1942.96</ele>
        <time>2024-08-12T14:44:24Z</time>
      </trkpt>
      <trkpt lat="44.94457" lon="6.74087">
        <ele>1942.96</ele>
        <time>2024-08-12T14:44:32Z</time>
      </trkpt>
      <trkpt lat="44.94455" lon="6.74085">
        <ele>1942.96</ele>
        <time>2024-08-12T14:44:33Z</time>
      </trkpt>
      <trkpt lat="44.94454" lon="6.74083">
        <ele>1941.52</ele>
        <time>2024-08-12T14:44:34Z</time>
      </trkpt>
      <trkpt lat="44.94452" lon="6.74082">
        <ele>1941.04</ele>
        <time>2024-08-12T14:44:35Z</time>
      </trkpt>
      <trkpt lat="44.9445" lon="6.74082">
        <ele>1940.56</ele>
        <time>2024-08-12T14:44:36Z</time>
      </trkpt>
      <trkpt lat="44.94447" lon="6.74082">
        <ele>1940.08</ele>
        <time>2024-08-12T14:44:37Z</time>
      </trkpt>
      <trkpt lat="44.94445" lon="6.74083">
        <ele>1939.12</ele>
        <time>2024-08-12T14:44:38Z</time>
      </trkpt>
      <trkpt lat="44.94443" lon="6.74084">
        <ele>1938.64</ele>
        <time>2024-08-12T14:44:39Z</time>
      </trkpt>
      <trkpt lat="44.94441" lon="6.74085">
        <ele>1938.64</ele>
        <time>2024-08-12T14:44:40Z</time>
      </trkpt>
      <trkpt lat="44.94439" lon="6.74086">
        <ele>1937.67</ele>
        <time>2024-08-12T14:44:41Z</time>
      </trkpt>
      <trkpt lat="44.94436" lon="6.74086">
        <ele>1937.19</ele>
        <time>2024-08-12T14:44:42Z</time>
      </trkpt>
      <trkpt lat="44.94434" lon="6.74087">
        <ele>1935.75</ele>
        <time>2024-08-12T14:44:43Z</time>
      </trkpt>
      <trkpt lat="44.94431" lon="6.74088">
        <ele>1935.27</ele>
        <time>2024-08-12T14:44:44Z</time>
      </trkpt>
      <trkpt lat="44.94429" lon="6.74089">
        <ele>1934.31</ele>
        <time>2024-08-12T14:44:45Z</time>
      </trkpt>
      <trkpt lat="44.94427" lon="6.74088">
        <ele>1933.83</ele>
        <time>2024-08-12T14:44:46Z</time>
      </trkpt>
      <trkpt lat="44.94426" lon="6.74087">
        <ele>1932.87</ele>
        <time>2024-08-12T14:44:47Z</time>
      </trkpt>
      <trkpt lat="44.94424" lon="6.74087">
        <ele>1932.39</ele>
        <time>2024-08-12T14:44:48Z</time>
      </trkpt>
      <trkpt lat="44.94423" lon="6.74085">
        <ele>1931.91</ele>
        <time>2024-08-12T14:44:49Z</time>
      </trkpt>
      <trkpt lat="44.94421" lon="6.74084">
        <ele>1930.95</ele>
        <time>2024-08-12T14:44:50Z</time>
      </trkpt>
      <trkpt lat="44.94418" lon="6.74084">
        <ele>1930.46</ele>
        <time>2024-08-12T14:44:51Z</time>
      </trkpt>
      <trkpt lat="44.94414" lon="6.74084">
        <ele>1930.46</ele>
        <time>2024-08-12T14:44:52Z</time>
      </trkpt>
      <trkpt lat="44.9441" lon="6.74085">
        <ele>1929.5</ele>
        <time>2024-08-12T14:44:53Z</time>
      </trkpt>
      <trkpt lat="44.94407" lon="6.74087">
        <ele>1929.02</ele>
        <time>2024-08-12T14:44:54Z</time>
      </trkpt>
      <trkpt lat="44.94403" lon="6.74088">
        <ele>1929.02</ele>
        <time>2024-08-12T14:44:55Z</time>
      </trkpt>
      <trkpt lat="44.94399" lon="6.7409">
        <ele>1929.02</ele>
        <time>2024-08-12T14:44:56Z</time>
      </trkpt>
      <trkpt lat="44.94395" lon="6.74092">
        <ele>1928.54</ele>
        <time>2024-08-12T14:44:57Z</time>
      </trkpt>
      <trkpt lat="44.9439" lon="6.74095">
        <ele>1928.06</ele>
        <time>2024-08-12T14:44:58Z</time>
      </trkpt>
      <trkpt lat="44.94386" lon="6.74098">
        <ele>1928.06</ele>
        <time>2024-08-12T14:44:59Z</time>
      </trkpt>
      <trkpt lat="44.94371" lon="6.74104">
        <ele>1925.18</ele>
        <time>2024-08-12T14:45:03Z</time>
      </trkpt>
      <trkpt lat="44.94361" lon="6.7411">
        <ele>1922.77</ele>
        <time>2024-08-12T14:45:14Z</time>
      </trkpt>
      <trkpt lat="44.94359" lon="6.74112">
        <ele>1922.77</ele>
        <time>2024-08-12T14:45:26Z</time>
      </trkpt>
      <trkpt lat="44.9436" lon="6.74111">
        <ele>1922.77</ele>
        <time>2024-08-12T14:45:38Z</time>
      </trkpt>
      <trkpt lat="44.94359" lon="6.74106">
        <ele>1922.29</ele>
        <time>2024-08-12T14:45:41Z</time>
      </trkpt>
      <trkpt lat="44.9436" lon="6.74102">
        <ele>1920.85</ele>
        <time>2024-08-12T14:45:43Z</time>
      </trkpt>
      <trkpt lat="44.9436" lon="6.741">
        <ele>1920.37</ele>
        <time>2024-08-12T14:45:44Z</time>
      </trkpt>
      <trkpt lat="44.9436" lon="6.74098">
        <ele>1920.37</ele>
        <time>2024-08-12T14:45:45Z</time>
      </trkpt>
      <trkpt lat="44.94356" lon="6.74091">
        <ele>1917.97</ele>
        <time>2024-08-12T14:45:57Z</time>
      </trkpt>
      <trkpt lat="44.94353" lon="6.74088">
        <ele>1917.49</ele>
        <time>2024-08-12T14:46:10Z</time>
      </trkpt>
      <trkpt lat="44.94352" lon="6.74088">
        <ele>1918.93</ele>
        <time>2024-08-12T14:46:14Z</time>
      </trkpt>
      <trkpt lat="44.94345" lon="6.74093">
        <ele>1919.89</ele>
        <time>2024-08-12T14:46:27Z</time>
      </trkpt>
      <trkpt lat="44.94341" lon="6.74096">
        <ele>1919.89</ele>
        <time>2024-08-12T14:46:34Z</time>
      </trkpt>
      <trkpt lat="44.94339" lon="6.74097">
        <ele>1919.89</ele>
        <time>2024-08-12T14:46:35Z</time>
      </trkpt>
      <trkpt lat="44.94338" lon="6.74098">
        <ele>1919.89</ele>
        <time>2024-08-12T14:46:36Z</time>
      </trkpt>
      <trkpt lat="44.94336" lon="6.74098">
        <ele>1919.89</ele>
        <time>2024-08-12T14:46:37Z</time>
      </trkpt>
      <trkpt lat="44.94335" lon="6.741">
        <ele>1919.89</ele>
        <time>2024-08-12T14:46:38Z</time>
      </trkpt>
      <trkpt lat="44.94333" lon="6.74101">
        <ele>1918.45</ele>
        <time>2024-08-12T14:46:39Z</time>
      </trkpt>
      <trkpt lat="44.94332" lon="6.74101">
        <ele>1918.45</ele>
        <time>2024-08-12T14:46:40Z</time>
      </trkpt>
      <trkpt lat="44.94328" lon="6.74101">
        <ele>1917.97</ele>
        <time>2024-08-12T14:46:53Z</time>
      </trkpt>
      <trkpt lat="44.94326" lon="6.74101">
        <ele>1917.49</ele>
        <time>2024-08-12T14:47:27Z</time>
      </trkpt>
      <trkpt lat="44.94326" lon="6.74104">
        <ele>1917.49</ele>
        <time>2024-08-12T14:47:55Z</time>
      </trkpt>
      <trkpt lat="44.94326" lon="6.74105">
        <ele>1917.01</ele>
        <time>2024-08-12T14:48:08Z</time>
      </trkpt>
      <trkpt lat="44.94313" lon="6.74096">
        <ele>1916.53</ele>
        <time>2024-08-12T14:48:17Z</time>
      </trkpt>
      <trkpt lat="44.94311" lon="6.74091">
        <ele>1918.45</ele>
        <time>2024-08-12T14:48:28Z</time>
      </trkpt>
      <trkpt lat="44.9431" lon="6.7409">
        <ele>1918.45</ele>
        <time>2024-08-12T14:48:29Z</time>
      </trkpt>
      <trkpt lat="44.94301" lon="6.74081">
        <ele>1920.37</ele>
        <time>2024-08-12T14:48:45Z</time>
      </trkpt>
      <trkpt lat="44.94299" lon="6.74075">
        <ele>1920.85</ele>
        <time>2024-08-12T14:49:01Z</time>
      </trkpt>
      <trkpt lat="44.94294" lon="6.74072">
        <ele>1922.29</ele>
        <time>2024-08-12T14:49:13Z</time>
      </trkpt>
      <trkpt lat="44.94294" lon="6.74068">
        <ele>1924.22</ele>
        <time>2024-08-12T14:49:26Z</time>
      </trkpt>
      <trkpt lat="44.94289" lon="6.74063">
        <ele>1926.14</ele>
        <time>2024-08-12T14:49:42Z</time>
      </trkpt>
      <trkpt lat="44.94284" lon="6.74059">
        <ele>1923.74</ele>
        <time>2024-08-12T14:49:56Z</time>
      </trkpt>
      <trkpt lat="44.94281" lon="6.74066">
        <ele>1923.25</ele>
        <time>2024-08-12T14:50:09Z</time>
      </trkpt>
      <trkpt lat="44.94277" lon="6.7407">
        <ele>1923.25</ele>
        <time>2024-08-12T14:50:22Z</time>
      </trkpt>
      <trkpt lat="44.94273" lon="6.74074">
        <ele>1921.33</ele>
        <time>2024-08-12T14:50:37Z</time>
      </trkpt>
      <trkpt lat="44.94268" lon="6.74077">
        <ele>1920.85</ele>
        <time>2024-08-12T14:50:52Z</time>
      </trkpt>
      <trkpt lat="44.94266" lon="6.7408">
        <ele>1920.85</ele>
        <time>2024-08-12T14:51:04Z</time>
      </trkpt>
      <trkpt lat="44.94265" lon="6.74083">
        <ele>1920.37</ele>
        <time>2024-08-12T14:51:23Z</time>
      </trkpt>
      <trkpt lat="44.94266" lon="6.74085">
        <ele>1919.89</ele>
        <time>2024-08-12T14:51:55Z</time>
      </trkpt>
      <trkpt lat="44.94264" lon="6.7408">
        <ele>1919.41</ele>
        <time>2024-08-12T14:52:18Z</time>
      </trkpt>
      <trkpt lat="44.94269" lon="6.74079">
        <ele>1918.93</ele>
        <time>2024-08-12T14:52:47Z</time>
      </trkpt>
      <trkpt lat="44.94269" lon="6.74079">
        <ele>1918.93</ele>
        <time>2024-08-12T14:53:11Z</time>
      </trkpt>
      <trkpt lat="44.94271" lon="6.7408">
        <ele>1918.45</ele>
        <time>2024-08-12T14:53:36Z</time>
      </trkpt>
      <trkpt lat="44.94268" lon="6.7408">
        <ele>1919.41</ele>
        <time>2024-08-12T14:54:02Z</time>
      </trkpt>
      <trkpt lat="44.94266" lon="6.7408">
        <ele>1919.41</ele>
        <time>2024-08-12T14:54:29Z</time>
      </trkpt>
      <trkpt lat="44.94264" lon="6.74082">
        <ele>1917.49</ele>
        <time>2024-08-12T14:54:48Z</time>
      </trkpt>
      <trkpt lat="44.94264" lon="6.74081">
        <ele>1917.49</ele>
        <time>2024-08-12T14:55:18Z</time>
      </trkpt>
      <trkpt lat="44.94264" lon="6.74081">
        <ele>1917.01</ele>
        <time>2024-08-12T14:55:41Z</time>
      </trkpt>
      <trkpt lat="44.94267" lon="6.74079">
        <ele>1916.53</ele>
        <time>2024-08-12T14:56:05Z</time>
      </trkpt>
      <trkpt lat="44.94266" lon="6.74078">
        <ele>1916.53</ele>
        <time>2024-08-12T14:56:25Z</time>
      </trkpt>
      <trkpt lat="44.94265" lon="6.74078">
        <ele>1916.04</ele>
        <time>2024-08-12T14:56:55Z</time>
      </trkpt>
      <trkpt lat="44.94267" lon="6.74077">
        <ele>1916.04</ele>
        <time>2024-08-12T14:57:16Z</time>
      </trkpt>
      <trkpt lat="44.94267" lon="6.74079">
        <ele>1915.56</ele>
        <time>2024-08-12T14:57:42Z</time>
      </trkpt>
      <trkpt lat="44.94267" lon="6.74076">
        <ele>1915.56</ele>
        <time>2024-08-12T14:58:07Z</time>
      </trkpt>
      <trkpt lat="44.94266" lon="6.7408">
        <ele>1915.08</ele>
        <time>2024-08-12T14:58:30Z</time>
      </trkpt>
      <trkpt lat="44.94266" lon="6.74084">
        <ele>1915.08</ele>
        <time>2024-08-12T14:59:03Z</time>
      </trkpt>
      <trkpt lat="44.94263" lon="6.74087">
        <ele>1915.08</ele>
        <time>2024-08-12T14:59:29Z</time>
      </trkpt>
      <trkpt lat="44.94265" lon="6.74084">
        <ele>1914.6</ele>
        <time>2024-08-12T14:59:57Z</time>
      </trkpt>
      <trkpt lat="44.94266" lon="6.74084">
        <ele>1914.6</ele>
        <time>2024-08-12T15:00:23Z</time>
      </trkpt>
      <trkpt lat="44.94263" lon="6.7408">
        <ele>1914.12</ele>
        <time>2024-08-12T15:00:49Z</time>
      </trkpt>
      <trkpt lat="44.94264" lon="6.74079">
        <ele>1913.16</ele>
        <time>2024-08-12T15:01:10Z</time>
      </trkpt>
      <trkpt lat="44.94262" lon="6.7408">
        <ele>1911.72</ele>
        <time>2024-08-12T15:01:26Z</time>
      </trkpt>
      <trkpt lat="44.9426" lon="6.74079">
        <ele>1909.8</ele>
        <time>2024-08-12T15:01:42Z</time>
      </trkpt>
      <trkpt lat="44.94259" lon="6.74082">
        <ele>1908.35</ele>
        <time>2024-08-12T15:01:56Z</time>
      </trkpt>
      <trkpt lat="44.94259" lon="6.74085">
        <ele>1905.95</ele>
        <time>2024-08-12T15:02:09Z</time>
      </trkpt>
      <trkpt lat="44.94258" lon="6.74086">
        <ele>1905.47</ele>
        <time>2024-08-12T15:02:14Z</time>
      </trkpt>
      <trkpt lat="44.94257" lon="6.74087">
        <ele>1905.47</ele>
        <time>2024-08-12T15:02:15Z</time>
      </trkpt>
      <trkpt lat="44.94256" lon="6.74088">
        <ele>1904.99</ele>
        <time>2024-08-12T15:02:16Z</time>
      </trkpt>
      <trkpt lat="44.94255" lon="6.74089">
        <ele>1904.99</ele>
        <time>2024-08-12T15:02:17Z</time>
      </trkpt>
      <trkpt lat="44.94252" lon="6.74087">
        <ele>1904.51</ele>
        <time>2024-08-12T15:02:31Z</time>
      </trkpt>
      <trkpt lat="44.94252" lon="6.74088">
        <ele>1904.51</ele>
        <time>2024-08-12T15:03:05Z</time>
      </trkpt>
      <trkpt lat="44.94252" lon="6.74084">
        <ele>1904.03</ele>
        <time>2024-08-12T15:03:44Z</time>
      </trkpt>
      <trkpt lat="44.94253" lon="6.74087">
        <ele>1904.03</ele>
        <time>2024-08-12T15:04:28Z</time>
      </trkpt>
      <trkpt lat="44.9425" lon="6.74087">
        <ele>1904.03</ele>
        <time>2024-08-12T15:05:07Z</time>
      </trkpt>
      <trkpt lat="44.94254" lon="6.74088">
        <ele>1904.03</ele>
        <time>2024-08-12T15:05:53Z</time>
      </trkpt>
      <trkpt lat="44.94255" lon="6.74088">
        <ele>1904.03</ele>
        <time>2024-08-12T15:06:36Z</time>
      </trkpt>
      <trkpt lat="44.94257" lon="6.74089">
        <ele>1904.03</ele>
        <time>2024-08-12T15:07:10Z</time>
      </trkpt>
      <trkpt lat="44.94252" lon="6.74091">
        <ele>1904.03</ele>
        <time>2024-08-12T15:07:35Z</time>
      </trkpt>
      <trkpt lat="44.94247" lon="6.74091">
        <ele>1904.03</ele>
        <time>2024-08-12T15:07:40Z</time>
      </trkpt>
      <trkpt lat="44.94244" lon="6.74094">
        <ele>1904.03</ele>
        <time>2024-08-12T15:07:43Z</time>
      </trkpt>
      <trkpt lat="44.94237" lon="6.74094">
        <ele>1903.55</ele>
        <time>2024-08-12T15:07:48Z</time>
      </trkpt>
      <trkpt lat="44.94235" lon="6.74093">
        <ele>1903.55</ele>
        <time>2024-08-12T15:07:49Z</time>
      </trkpt>
      <trkpt lat="44.94233" lon="6.74093">
        <ele>1902.59</ele>
        <time>2024-08-12T15:07:50Z</time>
      </trkpt>
      <trkpt lat="44.94231" lon="6.74093">
        <ele>1902.59</ele>
        <time>2024-08-12T15:07:51Z</time>
      </trkpt>
      <trkpt lat="44.94209" lon="6.741">
        <ele>1899.22</ele>
        <time>2024-08-12T15:08:00Z</time>
      </trkpt>
      <trkpt lat="44.94202" lon="6.74106">
        <ele>1898.26</ele>
        <time>2024-08-12T15:08:11Z</time>
      </trkpt>
      <trkpt lat="44.94196" lon="6.74109">
        <ele>1896.34</ele>
        <time>2024-08-12T15:08:18Z</time>
      </trkpt>
      <trkpt lat="44.94194" lon="6.74109">
        <ele>1896.34</ele>
        <time>2024-08-12T15:08:19Z</time>
      </trkpt>
      <trkpt lat="44.94193" lon="6.74109">
        <ele>1896.34</ele>
        <time>2024-08-12T15:08:20Z</time>
      </trkpt>
      <trkpt lat="44.94184" lon="6.74119">
        <ele>1894.42</ele>
        <time>2024-08-12T15:08:31Z</time>
      </trkpt>
      <trkpt lat="44.94178" lon="6.74123">
        <ele>1892.49</ele>
        <time>2024-08-12T15:08:36Z</time>
      </trkpt>
      <trkpt lat="44.94177" lon="6.74124">
        <ele>1892.01</ele>
        <time>2024-08-12T15:08:37Z</time>
      </trkpt>
      <trkpt lat="44.94174" lon="6.74127">
        <ele>1891.05</ele>
        <time>2024-08-12T15:08:39Z</time>
      </trkpt>
      <trkpt lat="44.94167" lon="6.7413">
        <ele>1888.17</ele>
        <time>2024-08-12T15:08:43Z</time>
      </trkpt>
      <trkpt lat="44.94164" lon="6.74131">
        <ele>1887.69</ele>
        <time>2024-08-12T15:08:44Z</time>
      </trkpt>
      <trkpt lat="44.94148" lon="6.74144">
        <ele>1883.84</ele>
        <time>2024-08-12T15:08:49Z</time>
      </trkpt>
      <trkpt lat="44.94141" lon="6.74148">
        <ele>1882.4</ele>
        <time>2024-08-12T15:08:51Z</time>
      </trkpt>
      <trkpt lat="44.94137" lon="6.74149">
        <ele>1881.92</ele>
        <time>2024-08-12T15:08:52Z</time>
      </trkpt>
      <trkpt lat="44.94119" lon="6.74154">
        <ele>1879.03</ele>
        <time>2024-08-12T15:08:57Z</time>
      </trkpt>
      <trkpt lat="44.94115" lon="6.74154">
        <ele>1878.55</ele>
        <time>2024-08-12T15:08:58Z</time>
      </trkpt>
      <trkpt lat="44.94111" lon="6.74156">
        <ele>1878.07</ele>
        <time>2024-08-12T15:08:59Z</time>
      </trkpt>
      <trkpt lat="44.94107" lon="6.7416">
        <ele>1876.63</ele>
        <time>2024-08-12T15:09:00Z</time>
      </trkpt>
      <trkpt lat="44.94104" lon="6.74162">
        <ele>1876.15</ele>
        <time>2024-08-12T15:09:01Z</time>
      </trkpt>
      <trkpt lat="44.941" lon="6.74165">
        <ele>1875.19</ele>
        <time>2024-08-12T15:09:02Z</time>
      </trkpt>
      <trkpt lat="44.94094" lon="6.74167">
        <ele>1874.23</ele>
        <time>2024-08-12T15:09:04Z</time>
      </trkpt>
      <trkpt lat="44.94089" lon="6.74169">
        <ele>1872.3</ele>
        <time>2024-08-12T15:09:06Z</time>
      </trkpt>
      <trkpt lat="44.94088" lon="6.74172">
        <ele>1871.82</ele>
        <time>2024-08-12T15:09:07Z</time>
      </trkpt>
      <trkpt lat="44.94088" lon="6.74174">
        <ele>1870.38</ele>
        <time>2024-08-12T15:09:08Z</time>
      </trkpt>
      <trkpt lat="44.94088" lon="6.74177">
        <ele>1870.38</ele>
        <time>2024-08-12T15:09:09Z</time>
      </trkpt>
      <trkpt lat="44.94089" lon="6.74179">
        <ele>1869.42</ele>
        <time>2024-08-12T15:09:10Z</time>
      </trkpt>
      <trkpt lat="44.9409" lon="6.74183">
        <ele>1868.94</ele>
        <time>2024-08-12T15:09:11Z</time>
      </trkpt>
      <trkpt lat="44.9409" lon="6.74189">
        <ele>1867.5</ele>
        <time>2024-08-12T15:09:13Z</time>
      </trkpt>
      <trkpt lat="44.94089" lon="6.74191">
        <ele>1867.5</ele>
        <time>2024-08-12T15:09:14Z</time>
      </trkpt>
      <trkpt lat="44.94088" lon="6.74192">
        <ele>1867.5</ele>
        <time>2024-08-12T15:09:15Z</time>
      </trkpt>
      <trkpt lat="44.94077" lon="6.74191">
        <ele>1864.13</ele>
        <time>2024-08-12T15:09:19Z</time>
      </trkpt>
      <trkpt lat="44.94074" lon="6.74191">
        <ele>1863.65</ele>
        <time>2024-08-12T15:09:20Z</time>
      </trkpt>
      <trkpt lat="44.94072" lon="6.74193">
        <ele>1863.65</ele>
        <time>2024-08-12T15:09:21Z</time>
      </trkpt>
      <trkpt lat="44.94069" lon="6.74196">
        <ele>1862.69</ele>
        <time>2024-08-12T15:09:22Z</time>
      </trkpt>
      <trkpt lat="44.94066" lon="6.74198">
        <ele>1861.73</ele>
        <time>2024-08-12T15:09:23Z</time>
      </trkpt>
      <trkpt lat="44.94061" lon="6.74198">
        <ele>1860.77</ele>
        <time>2024-08-12T15:09:24Z</time>
      </trkpt>
      <trkpt lat="44.94058" lon="6.74197">
        <ele>1860.77</ele>
        <time>2024-08-12T15:09:25Z</time>
      </trkpt>
      <trkpt lat="44.94055" lon="6.74196">
        <ele>1860.77</ele>
        <time>2024-08-12T15:09:26Z</time>
      </trkpt>
      <trkpt lat="44.94053" lon="6.74195">
        <ele>1860.77</ele>
        <time>2024-08-12T15:09:27Z</time>
      </trkpt>
      <trkpt lat="44.94051" lon="6.74194">
        <ele>1860.77</ele>
        <time>2024-08-12T15:09:28Z</time>
      </trkpt>
      <trkpt lat="44.94041" lon="6.7419">
        <ele>1864.13</ele>
        <time>2024-08-12T15:09:35Z</time>
      </trkpt>
      <trkpt lat="44.94033" lon="6.74189">
        <ele>1864.61</ele>
        <time>2024-08-12T15:09:51Z</time>
      </trkpt>
      <trkpt lat="44.94029" lon="6.7419">
        <ele>1864.61</ele>
        <time>2024-08-12T15:10:11Z</time>
      </trkpt>
      <trkpt lat="44.94011" lon="6.74193">
        <ele>1860.77</ele>
        <time>2024-08-12T15:10:17Z</time>
      </trkpt>
      <trkpt lat="44.94006" lon="6.74195">
        <ele>1859.33</ele>
        <time>2024-08-12T15:10:18Z</time>
      </trkpt>
      <trkpt lat="44.94002" lon="6.74199">
        <ele>1858.37</ele>
        <time>2024-08-12T15:10:19Z</time>
      </trkpt>
      <trkpt lat="44.93982" lon="6.74218">
        <ele>1855.96</ele>
        <time>2024-08-12T15:10:22Z</time>
      </trkpt>
      <trkpt lat="44.9397" lon="6.74231">
        <ele>1852.6</ele>
        <time>2024-08-12T15:10:24Z</time>
      </trkpt>
      <trkpt lat="44.93961" lon="6.74243">
        <ele>1852.12</ele>
        <time>2024-08-12T15:10:26Z</time>
      </trkpt>
      <trkpt lat="44.93957" lon="6.74248">
        <ele>1851.16</ele>
        <time>2024-08-12T15:10:27Z</time>
      </trkpt>
      <trkpt lat="44.93953" lon="6.7425">
        <ele>1849.23</ele>
        <time>2024-08-12T15:10:28Z</time>
      </trkpt>
      <trkpt lat="44.93948" lon="6.74249">
        <ele>1848.75</ele>
        <time>2024-08-12T15:10:29Z</time>
      </trkpt>
      <trkpt lat="44.93943" lon="6.74246">
        <ele>1848.75</ele>
        <time>2024-08-12T15:10:30Z</time>
      </trkpt>
      <trkpt lat="44.93913" lon="6.74251">
        <ele>1845.39</ele>
        <time>2024-08-12T15:10:38Z</time>
      </trkpt>
      <trkpt lat="44.93908" lon="6.74258">
        <ele>1844.43</ele>
        <time>2024-08-12T15:10:39Z</time>
      </trkpt>
      <trkpt lat="44.93903" lon="6.74267">
        <ele>1844.43</ele>
        <time>2024-08-12T15:10:40Z</time>
      </trkpt>
      <trkpt lat="44.93878" lon="6.74309">
        <ele>1840.58</ele>
        <time>2024-08-12T15:10:45Z</time>
      </trkpt>
      <trkpt lat="44.93864" lon="6.74327">
        <ele>1839.14</ele>
        <time>2024-08-12T15:10:47Z</time>
      </trkpt>
      <trkpt lat="44.93859" lon="6.74337">
        <ele>1837.7</ele>
        <time>2024-08-12T15:10:48Z</time>
      </trkpt>
      <trkpt lat="44.93843" lon="6.74365">
        <ele>1835.29</ele>
        <time>2024-08-12T15:10:51Z</time>
      </trkpt>
      <trkpt lat="44.93837" lon="6.74372">
        <ele>1835.29</ele>
        <time>2024-08-12T15:10:52Z</time>
      </trkpt>
      <trkpt lat="44.93831" lon="6.7438">
        <ele>1834.33</ele>
        <time>2024-08-12T15:10:53Z</time>
      </trkpt>
      <trkpt lat="44.93823" lon="6.74386">
        <ele>1833.37</ele>
        <time>2024-08-12T15:10:54Z</time>
      </trkpt>
      <trkpt lat="44.93816" lon="6.7439">
        <ele>1833.37</ele>
        <time>2024-08-12T15:10:55Z</time>
      </trkpt>
      <trkpt lat="44.93809" lon="6.74395">
        <ele>1832.89</ele>
        <time>2024-08-12T15:10:56Z</time>
      </trkpt>
      <trkpt lat="44.93803" lon="6.74401">
        <ele>1832.89</ele>
        <time>2024-08-12T15:10:57Z</time>
      </trkpt>
      <trkpt lat="44.93798" lon="6.74408">
        <ele>1831.45</ele>
        <time>2024-08-12T15:10:58Z</time>
      </trkpt>
      <trkpt lat="44.93795" lon="6.74414">
        <ele>1829.53</ele>
        <time>2024-08-12T15:10:59Z</time>
      </trkpt>
      <trkpt lat="44.93793" lon="6.74421">
        <ele>1827.6</ele>
        <time>2024-08-12T15:11:00Z</time>
      </trkpt>
      <trkpt lat="44.93793" lon="6.74426">
        <ele>1827.12</ele>
        <time>2024-08-12T15:11:01Z</time>
      </trkpt>
      <trkpt lat="44.93794" lon="6.74429">
        <ele>1826.16</ele>
        <time>2024-08-12T15:11:03Z</time>
      </trkpt>
      <trkpt lat="44.93796" lon="6.74435">
        <ele>1825.68</ele>
        <time>2024-08-12T15:11:13Z</time>
      </trkpt>
      <trkpt lat="44.93796" lon="6.74438">
        <ele>1825.2</ele>
        <time>2024-08-12T15:11:14Z</time>
      </trkpt>
      <trkpt lat="44.93796" lon="6.74441">
        <ele>1824.72</ele>
        <time>2024-08-12T15:11:15Z</time>
      </trkpt>
      <trkpt lat="44.93796" lon="6.74444">
        <ele>1824.72</ele>
        <time>2024-08-12T15:11:16Z</time>
      </trkpt>
      <trkpt lat="44.93795" lon="6.74448">
        <ele>1824.72</ele>
        <time>2024-08-12T15:11:17Z</time>
      </trkpt>
      <trkpt lat="44.93794" lon="6.74452">
        <ele>1824.72</ele>
        <time>2024-08-12T15:11:18Z</time>
      </trkpt>
      <trkpt lat="44.93793" lon="6.74457">
        <ele>1824.24</ele>
        <time>2024-08-12T15:11:19Z</time>
      </trkpt>
      <trkpt lat="44.93791" lon="6.74461">
        <ele>1824.24</ele>
        <time>2024-08-12T15:11:20Z</time>
      </trkpt>
      <trkpt lat="44.93788" lon="6.74465">
        <ele>1823.28</ele>
        <time>2024-08-12T15:11:21Z</time>
      </trkpt>
      <trkpt lat="44.93786" lon="6.7447">
        <ele>1822.8</ele>
        <time>2024-08-12T15:11:22Z</time>
      </trkpt>
      <trkpt lat="44.93783" lon="6.74476">
        <ele>1822.32</ele>
        <time>2024-08-12T15:11:23Z</time>
      </trkpt>
      <trkpt lat="44.93782" lon="6.74481">
        <ele>1822.32</ele>
        <time>2024-08-12T15:11:24Z</time>
      </trkpt>
      <trkpt lat="44.9378" lon="6.74487">
        <ele>1822.32</ele>
        <time>2024-08-12T15:11:25Z</time>
      </trkpt>
      <trkpt lat="44.93778" lon="6.74492">
        <ele>1822.32</ele>
        <time>2024-08-12T15:11:26Z</time>
      </trkpt>
      <trkpt lat="44.93776" lon="6.74498">
        <ele>1822.32</ele>
        <time>2024-08-12T15:11:27Z</time>
      </trkpt>
      <trkpt lat="44.93773" lon="6.74503">
        <ele>1821.35</ele>
        <time>2024-08-12T15:11:28Z</time>
      </trkpt>
      <trkpt lat="44.93771" lon="6.74508">
        <ele>1820.87</ele>
        <time>2024-08-12T15:11:29Z</time>
      </trkpt>
      <trkpt lat="44.9377" lon="6.74512">
        <ele>1820.87</ele>
        <time>2024-08-12T15:11:30Z</time>
      </trkpt>
      <trkpt lat="44.93767" lon="6.74516">
        <ele>1820.87</ele>
        <time>2024-08-12T15:11:31Z</time>
      </trkpt>
      <trkpt lat="44.93765" lon="6.7452">
        <ele>1820.39</ele>
        <time>2024-08-12T15:11:32Z</time>
      </trkpt>
      <trkpt lat="44.93753" lon="6.74533">
        <ele>1819.43</ele>
        <time>2024-08-12T15:11:36Z</time>
      </trkpt>
      <trkpt lat="44.93751" lon="6.7454">
        <ele>1818.47</ele>
        <time>2024-08-12T15:11:37Z</time>
      </trkpt>
      <trkpt lat="44.93748" lon="6.74553">
        <ele>1817.99</ele>
        <time>2024-08-12T15:11:39Z</time>
      </trkpt>
      <trkpt lat="44.93744" lon="6.74615">
        <ele>1814.15</ele>
        <time>2024-08-12T15:11:49Z</time>
      </trkpt>
      <trkpt lat="44.93741" lon="6.74642">
        <ele>1812.7</ele>
        <time>2024-08-12T15:11:52Z</time>
      </trkpt>
      <trkpt lat="44.93739" lon="6.74648">
        <ele>1812.22</ele>
        <time>2024-08-12T15:11:53Z</time>
      </trkpt>
      <trkpt lat="44.93736" lon="6.74655">
        <ele>1811.26</ele>
        <time>2024-08-12T15:11:54Z</time>
      </trkpt>
      <trkpt lat="44.93732" lon="6.7466">
        <ele>1811.26</ele>
        <time>2024-08-12T15:11:55Z</time>
      </trkpt>
      <trkpt lat="44.93728" lon="6.74664">
        <ele>1810.78</ele>
        <time>2024-08-12T15:11:56Z</time>
      </trkpt>
      <trkpt lat="44.93725" lon="6.74668">
        <ele>1810.78</ele>
        <time>2024-08-12T15:11:57Z</time>
      </trkpt>
      <trkpt lat="44.93722" lon="6.74672">
        <ele>1810.3</ele>
        <time>2024-08-12T15:11:58Z</time>
      </trkpt>
      <trkpt lat="44.93715" lon="6.7468">
        <ele>1810.3</ele>
        <time>2024-08-12T15:12:00Z</time>
      </trkpt>
      <trkpt lat="44.93712" lon="6.74683">
        <ele>1810.3</ele>
        <time>2024-08-12T15:12:01Z</time>
      </trkpt>
      <trkpt lat="44.93704" lon="6.74686">
        <ele>1808.86</ele>
        <time>2024-08-12T15:12:03Z</time>
      </trkpt>
      <trkpt lat="44.93691" lon="6.74685">
        <ele>1807.9</ele>
        <time>2024-08-12T15:12:09Z</time>
      </trkpt>
      <trkpt lat="44.9369" lon="6.74685">
        <ele>1807.9</ele>
        <time>2024-08-12T15:12:10Z</time>
      </trkpt>
      <trkpt lat="44.93683" lon="6.74687">
        <ele>1807.42</ele>
        <time>2024-08-12T15:12:13Z</time>
      </trkpt>
      <trkpt lat="44.9368" lon="6.74686">
        <ele>1807.42</ele>
        <time>2024-08-12T15:12:14Z</time>
      </trkpt>
      <trkpt lat="44.93669" lon="6.74657">
        <ele>1806.94</ele>
        <time>2024-08-12T15:12:25Z</time>
      </trkpt>
      <trkpt lat="44.93652" lon="6.74605">
        <ele>1809.34</ele>
        <time>2024-08-12T15:12:40Z</time>
      </trkpt>
      <trkpt lat="44.93629" lon="6.74555">
        <ele>1812.22</ele>
        <time>2024-08-12T15:12:56Z</time>
      </trkpt>
      <trkpt lat="44.93611" lon="6.74516">
        <ele>1813.18</ele>
        <time>2024-08-12T15:13:09Z</time>
      </trkpt>
      <trkpt lat="44.93582" lon="6.74462">
        <ele>1815.11</ele>
        <time>2024-08-12T15:13:25Z</time>
      </trkpt>
      <trkpt lat="44.93558" lon="6.74421">
        <ele>1817.99</ele>
        <time>2024-08-12T15:13:38Z</time>
      </trkpt>
      <trkpt lat="44.93543" lon="6.74355">
        <ele>1820.39</ele>
        <time>2024-08-12T15:13:54Z</time>
      </trkpt>
      <trkpt lat="44.93538" lon="6.7428">
        <ele>1823.28</ele>
        <time>2024-08-12T15:14:11Z</time>
      </trkpt>
      <trkpt lat="44.93506" lon="6.74244">
        <ele>1824.24</ele>
        <time>2024-08-12T15:14:24Z</time>
      </trkpt>
      <trkpt lat="44.93449" lon="6.74221">
        <ele>1827.6</ele>
        <time>2024-08-12T15:14:41Z</time>
      </trkpt>
      <trkpt lat="44.93414" lon="6.7418">
        <ele>1830.49</ele>
        <time>2024-08-12T15:14:55Z</time>
      </trkpt>
      <trkpt lat="44.93399" lon="6.74099">
        <ele>1833.37</ele>
        <time>2024-08-12T15:15:12Z</time>
      </trkpt>
      <trkpt lat="44.93377" lon="6.7402">
        <ele>1835.77</ele>
        <time>2024-08-12T15:15:28Z</time>
      </trkpt>
      <trkpt lat="44.93352" lon="6.73968">
        <ele>1837.7</ele>
        <time>2024-08-12T15:15:42Z</time>
      </trkpt>
      <trkpt lat="44.93346" lon="6.73895">
        <ele>1839.62</ele>
        <time>2024-08-12T15:15:59Z</time>
      </trkpt>
      <trkpt lat="44.93337" lon="6.73827">
        <ele>1842.98</ele>
        <time>2024-08-12T15:16:15Z</time>
      </trkpt>
      <trkpt lat="44.93326" lon="6.73765">
        <ele>1845.87</ele>
        <time>2024-08-12T15:16:30Z</time>
      </trkpt>
      <trkpt lat="44.93313" lon="6.73718">
        <ele>1848.27</ele>
        <time>2024-08-12T15:16:44Z</time>
      </trkpt>
      <trkpt lat="44.93299" lon="6.73665">
        <ele>1850.68</ele>
        <time>2024-08-12T15:17:04Z</time>
      </trkpt>
      <trkpt lat="44.933" lon="6.73659">
        <ele>1851.64</ele>
        <time>2024-08-12T15:17:16Z</time>
      </trkpt>
      <trkpt lat="44.93297" lon="6.73659">
        <ele>1851.16</ele>
        <time>2024-08-12T15:17:41Z</time>
      </trkpt>
    </trkseg>
  </trk>
</gpx>